<?xml version="1.0" encoding="UTF-8" standalone="no" ?>
<gpx xmlns="http://www.topografix.com/GPX/1/1" xmlns:xsi="http://www.w3.org/2001/XMLSchema-instance" xsi:schemaLocation="http://www.topografix.com/GPX/1/1 http://www.topografix.com/GPX/1/1/gpx.xsd" version="1.1" creator="VisuGPX - https://www.visugpx.com">
  <metadata>
    <name>transnawakienne 3</name>
    <desc><![CDATA[j\\\'ai encore pas réussi à virer mes traces précédentes, mais vous avez quand meme la transnawakienne 3. On a fait environ 45 km apparemment]]></desc>
  </metadata>
  <trk>
    <name><![CDATA[Tracé actuel: 15 SEPT 2012 14:13]]></name>
    <trkseg>
      <trkpt lat="49.28004" lon="3.21166">
        <ele>78.97</ele>
        <time>2012-09-15T12:13:34Z</time>
      </trkpt>
      <trkpt lat="49.28039" lon="3.21152">
        <ele>75.6</ele>
        <time>2012-09-15T12:13:42Z</time>
      </trkpt>
      <trkpt lat="49.28052" lon="3.21075">
        <ele>71.27</ele>
        <time>2012-09-15T12:13:55Z</time>
      </trkpt>
      <trkpt lat="49.28065" lon="3.2102">
        <ele>73.2</ele>
        <time>2012-09-15T12:14:08Z</time>
      </trkpt>
      <trkpt lat="49.28061" lon="3.20903">
        <ele>73.2</ele>
        <time>2012-09-15T12:14:23Z</time>
      </trkpt>
      <trkpt lat="49.2807" lon="3.20796">
        <ele>70.79</ele>
        <time>2012-09-15T12:14:38Z</time>
      </trkpt>
      <trkpt lat="49.28072" lon="3.2079">
        <ele>70.79</ele>
        <time>2012-09-15T12:14:39Z</time>
      </trkpt>
      <trkpt lat="49.28094" lon="3.2077">
        <ele>71.27</ele>
        <time>2012-09-15T12:14:45Z</time>
      </trkpt>
      <trkpt lat="49.28123" lon="3.20768">
        <ele>71.76</ele>
        <time>2012-09-15T12:14:51Z</time>
      </trkpt>
      <trkpt lat="49.28191" lon="3.20748">
        <ele>72.24</ele>
        <time>2012-09-15T12:15:05Z</time>
      </trkpt>
      <trkpt lat="49.28255" lon="3.20678">
        <ele>69.83</ele>
        <time>2012-09-15T12:15:22Z</time>
      </trkpt>
      <trkpt lat="49.28324" lon="3.20622">
        <ele>64.07</ele>
        <time>2012-09-15T12:15:41Z</time>
      </trkpt>
      <trkpt lat="49.28364" lon="3.20616">
        <ele>60.7</ele>
        <time>2012-09-15T12:15:50Z</time>
      </trkpt>
      <trkpt lat="49.28195" lon="3.20277">
        <ele>113.57</ele>
        <time>2012-09-15T12:16:00Z</time>
      </trkpt>
      <trkpt lat="49.28216" lon="3.20221">
        <ele>110.69</ele>
        <time>2012-09-15T12:16:13Z</time>
      </trkpt>
      <trkpt lat="49.28222" lon="3.20205">
        <ele>107.81</ele>
        <time>2012-09-15T12:16:18Z</time>
      </trkpt>
      <trkpt lat="49.28231" lon="3.20207">
        <ele>108.29</ele>
        <time>2012-09-15T12:16:24Z</time>
      </trkpt>
      <trkpt lat="49.28267" lon="3.20237">
        <ele>108.77</ele>
        <time>2012-09-15T12:16:37Z</time>
      </trkpt>
      <trkpt lat="49.28283" lon="3.20251">
        <ele>108.29</ele>
        <time>2012-09-15T12:16:40Z</time>
      </trkpt>
      <trkpt lat="49.28332" lon="3.20296">
        <ele>105.88</ele>
        <time>2012-09-15T12:16:54Z</time>
      </trkpt>
      <trkpt lat="49.28389" lon="3.20274">
        <ele>105.4</ele>
        <time>2012-09-15T12:17:06Z</time>
      </trkpt>
      <trkpt lat="49.28404" lon="3.20266">
        <ele>105.4</ele>
        <time>2012-09-15T12:17:09Z</time>
      </trkpt>
      <trkpt lat="49.2841" lon="3.20228">
        <ele>110.69</ele>
        <time>2012-09-15T12:17:16Z</time>
      </trkpt>
      <trkpt lat="49.28431" lon="3.20228">
        <ele>110.69</ele>
        <time>2012-09-15T12:17:23Z</time>
      </trkpt>
      <trkpt lat="49.28455" lon="3.20252">
        <ele>113.09</ele>
        <time>2012-09-15T12:17:40Z</time>
      </trkpt>
      <trkpt lat="49.28467" lon="3.20259">
        <ele>115.5</ele>
        <time>2012-09-15T12:17:49Z</time>
      </trkpt>
      <trkpt lat="49.28489" lon="3.20295">
        <ele>117.9</ele>
        <time>2012-09-15T12:18:02Z</time>
      </trkpt>
      <trkpt lat="49.285" lon="3.20304">
        <ele>120.3</ele>
        <time>2012-09-15T12:18:17Z</time>
      </trkpt>
      <trkpt lat="49.28519" lon="3.20322">
        <ele>114.53</ele>
        <time>2012-09-15T12:18:45Z</time>
      </trkpt>
      <trkpt lat="49.28522" lon="3.20325">
        <ele>110.69</ele>
        <time>2012-09-15T12:19:09Z</time>
      </trkpt>
      <trkpt lat="49.28522" lon="3.20324">
        <ele>110.21</ele>
        <time>2012-09-15T12:19:34Z</time>
      </trkpt>
      <trkpt lat="49.28523" lon="3.20325">
        <ele>109.25</ele>
        <time>2012-09-15T12:20:08Z</time>
      </trkpt>
      <trkpt lat="49.28537" lon="3.20349">
        <ele>108.29</ele>
        <time>2012-09-15T12:20:20Z</time>
      </trkpt>
      <trkpt lat="49.28568" lon="3.2039">
        <ele>106.84</ele>
        <time>2012-09-15T12:20:35Z</time>
      </trkpt>
      <trkpt lat="49.28599" lon="3.20428">
        <ele>107.32</ele>
        <time>2012-09-15T12:20:51Z</time>
      </trkpt>
      <trkpt lat="49.28638" lon="3.20469">
        <ele>109.25</ele>
        <time>2012-09-15T12:21:07Z</time>
      </trkpt>
      <trkpt lat="49.28685" lon="3.20475">
        <ele>106.36</ele>
        <time>2012-09-15T12:21:23Z</time>
      </trkpt>
      <trkpt lat="49.28716" lon="3.2046">
        <ele>109.25</ele>
        <time>2012-09-15T12:21:36Z</time>
      </trkpt>
      <trkpt lat="49.28743" lon="3.2043">
        <ele>111.65</ele>
        <time>2012-09-15T12:21:50Z</time>
      </trkpt>
      <trkpt lat="49.28776" lon="3.20384">
        <ele>113.57</ele>
        <time>2012-09-15T12:22:04Z</time>
      </trkpt>
      <trkpt lat="49.28802" lon="3.20355">
        <ele>115.5</ele>
        <time>2012-09-15T12:22:17Z</time>
      </trkpt>
      <trkpt lat="49.28824" lon="3.20326">
        <ele>117.42</ele>
        <time>2012-09-15T12:22:28Z</time>
      </trkpt>
      <trkpt lat="49.28877" lon="3.20277">
        <ele>118.38</ele>
        <time>2012-09-15T12:22:45Z</time>
      </trkpt>
      <trkpt lat="49.2888" lon="3.20274">
        <ele>118.38</ele>
        <time>2012-09-15T12:22:46Z</time>
      </trkpt>
      <trkpt lat="49.28951" lon="3.20213">
        <ele>122.22</ele>
        <time>2012-09-15T12:23:06Z</time>
      </trkpt>
      <trkpt lat="49.28999" lon="3.2017">
        <ele>124.63</ele>
        <time>2012-09-15T12:23:21Z</time>
      </trkpt>
      <trkpt lat="49.29016" lon="3.20155">
        <ele>124.63</ele>
        <time>2012-09-15T12:23:26Z</time>
      </trkpt>
      <trkpt lat="49.2903" lon="3.20143">
        <ele>124.15</ele>
        <time>2012-09-15T12:23:30Z</time>
      </trkpt>
      <trkpt lat="49.29044" lon="3.20131">
        <ele>124.15</ele>
        <time>2012-09-15T12:23:34Z</time>
      </trkpt>
      <trkpt lat="49.29057" lon="3.20118">
        <ele>124.63</ele>
        <time>2012-09-15T12:23:38Z</time>
      </trkpt>
      <trkpt lat="49.29106" lon="3.20074">
        <ele>125.59</ele>
        <time>2012-09-15T12:23:54Z</time>
      </trkpt>
      <trkpt lat="49.29154" lon="3.20031">
        <ele>125.11</ele>
        <time>2012-09-15T12:24:10Z</time>
      </trkpt>
      <trkpt lat="49.29193" lon="3.19999">
        <ele>125.59</ele>
        <time>2012-09-15T12:24:26Z</time>
      </trkpt>
      <trkpt lat="49.29227" lon="3.19969">
        <ele>129.43</ele>
        <time>2012-09-15T12:24:38Z</time>
      </trkpt>
      <trkpt lat="49.29238" lon="3.1996">
        <ele>131.36</ele>
        <time>2012-09-15T12:24:46Z</time>
      </trkpt>
      <trkpt lat="49.2924" lon="3.19957">
        <ele>131.84</ele>
        <time>2012-09-15T12:24:51Z</time>
      </trkpt>
      <trkpt lat="49.29209" lon="3.19987">
        <ele>132.32</ele>
        <time>2012-09-15T12:25:03Z</time>
      </trkpt>
      <trkpt lat="49.29145" lon="3.20043">
        <ele>133.76</ele>
        <time>2012-09-15T12:25:15Z</time>
      </trkpt>
      <trkpt lat="49.2904" lon="3.20137">
        <ele>133.76</ele>
        <time>2012-09-15T12:25:33Z</time>
      </trkpt>
      <trkpt lat="49.28966" lon="3.20201">
        <ele>130.88</ele>
        <time>2012-09-15T12:25:46Z</time>
      </trkpt>
      <trkpt lat="49.28949" lon="3.20216">
        <ele>129.92</ele>
        <time>2012-09-15T12:25:49Z</time>
      </trkpt>
      <trkpt lat="49.28875" lon="3.20282">
        <ele>130.4</ele>
        <time>2012-09-15T12:26:02Z</time>
      </trkpt>
      <trkpt lat="49.28819" lon="3.20335">
        <ele>132.32</ele>
        <time>2012-09-15T12:26:13Z</time>
      </trkpt>
      <trkpt lat="49.28817" lon="3.20367">
        <ele>132.32</ele>
        <time>2012-09-15T12:26:20Z</time>
      </trkpt>
      <trkpt lat="49.2882" lon="3.2037">
        <ele>132.32</ele>
        <time>2012-09-15T12:26:21Z</time>
      </trkpt>
      <trkpt lat="49.2885" lon="3.20396">
        <ele>129.92</ele>
        <time>2012-09-15T12:26:32Z</time>
      </trkpt>
      <trkpt lat="49.28887" lon="3.20428">
        <ele>131.84</ele>
        <time>2012-09-15T12:26:43Z</time>
      </trkpt>
      <trkpt lat="49.28938" lon="3.20469">
        <ele>134.24</ele>
        <time>2012-09-15T12:26:58Z</time>
      </trkpt>
      <trkpt lat="49.2895" lon="3.20478">
        <ele>134.24</ele>
        <time>2012-09-15T12:27:01Z</time>
      </trkpt>
      <trkpt lat="49.28974" lon="3.20498">
        <ele>135.2</ele>
        <time>2012-09-15T12:27:08Z</time>
      </trkpt>
      <trkpt lat="49.29016" lon="3.20531">
        <ele>136.16</ele>
        <time>2012-09-15T12:27:21Z</time>
      </trkpt>
      <trkpt lat="49.29051" lon="3.20562">
        <ele>136.64</ele>
        <time>2012-09-15T12:27:33Z</time>
      </trkpt>
      <trkpt lat="49.29085" lon="3.20591">
        <ele>138.09</ele>
        <time>2012-09-15T12:27:45Z</time>
      </trkpt>
      <trkpt lat="49.2912" lon="3.20621">
        <ele>139.53</ele>
        <time>2012-09-15T12:27:59Z</time>
      </trkpt>
      <trkpt lat="49.29154" lon="3.20647">
        <ele>139.05</ele>
        <time>2012-09-15T12:28:13Z</time>
      </trkpt>
      <trkpt lat="49.29188" lon="3.20675">
        <ele>137.13</ele>
        <time>2012-09-15T12:28:24Z</time>
      </trkpt>
      <trkpt lat="49.29216" lon="3.20701">
        <ele>137.13</ele>
        <time>2012-09-15T12:28:32Z</time>
      </trkpt>
      <trkpt lat="49.29229" lon="3.20711">
        <ele>137.13</ele>
        <time>2012-09-15T12:28:35Z</time>
      </trkpt>
      <trkpt lat="49.29238" lon="3.20718">
        <ele>137.13</ele>
        <time>2012-09-15T12:28:37Z</time>
      </trkpt>
      <trkpt lat="49.29283" lon="3.20757">
        <ele>138.09</ele>
        <time>2012-09-15T12:28:49Z</time>
      </trkpt>
      <trkpt lat="49.29337" lon="3.20803">
        <ele>138.57</ele>
        <time>2012-09-15T12:29:04Z</time>
      </trkpt>
      <trkpt lat="49.29398" lon="3.20859">
        <ele>140.49</ele>
        <time>2012-09-15T12:29:16Z</time>
      </trkpt>
      <trkpt lat="49.29472" lon="3.20918">
        <ele>141.45</ele>
        <time>2012-09-15T12:29:32Z</time>
      </trkpt>
      <trkpt lat="49.29513" lon="3.20954">
        <ele>140.49</ele>
        <time>2012-09-15T12:29:41Z</time>
      </trkpt>
      <trkpt lat="49.29522" lon="3.20961">
        <ele>140.49</ele>
        <time>2012-09-15T12:29:43Z</time>
      </trkpt>
      <trkpt lat="49.2954" lon="3.20976">
        <ele>140.49</ele>
        <time>2012-09-15T12:29:47Z</time>
      </trkpt>
      <trkpt lat="49.29556" lon="3.2099">
        <ele>140.49</ele>
        <time>2012-09-15T12:29:51Z</time>
      </trkpt>
      <trkpt lat="49.2959" lon="3.21018">
        <ele>141.45</ele>
        <time>2012-09-15T12:29:59Z</time>
      </trkpt>
      <trkpt lat="49.29631" lon="3.21054">
        <ele>143.85</ele>
        <time>2012-09-15T12:30:09Z</time>
      </trkpt>
      <trkpt lat="49.2967" lon="3.21089">
        <ele>146.26</ele>
        <time>2012-09-15T12:30:19Z</time>
      </trkpt>
      <trkpt lat="49.29685" lon="3.21102">
        <ele>147.22</ele>
        <time>2012-09-15T12:30:23Z</time>
      </trkpt>
      <trkpt lat="49.29722" lon="3.21133">
        <ele>149.14</ele>
        <time>2012-09-15T12:30:34Z</time>
      </trkpt>
      <trkpt lat="49.29768" lon="3.21171">
        <ele>148.66</ele>
        <time>2012-09-15T12:30:47Z</time>
      </trkpt>
      <trkpt lat="49.29812" lon="3.21208">
        <ele>148.18</ele>
        <time>2012-09-15T12:31:01Z</time>
      </trkpt>
      <trkpt lat="49.29847" lon="3.2124">
        <ele>148.66</ele>
        <time>2012-09-15T12:31:12Z</time>
      </trkpt>
      <trkpt lat="49.2989" lon="3.21276">
        <ele>149.62</ele>
        <time>2012-09-15T12:31:25Z</time>
      </trkpt>
      <trkpt lat="49.29943" lon="3.21321">
        <ele>152.03</ele>
        <time>2012-09-15T12:31:41Z</time>
      </trkpt>
      <trkpt lat="49.29998" lon="3.21366">
        <ele>152.03</ele>
        <time>2012-09-15T12:31:55Z</time>
      </trkpt>
      <trkpt lat="49.30023" lon="3.21388">
        <ele>151.54</ele>
        <time>2012-09-15T12:32:01Z</time>
      </trkpt>
      <trkpt lat="49.30034" lon="3.21421">
        <ele>151.54</ele>
        <time>2012-09-15T12:32:06Z</time>
      </trkpt>
      <trkpt lat="49.30034" lon="3.21435">
        <ele>151.54</ele>
        <time>2012-09-15T12:32:08Z</time>
      </trkpt>
      <trkpt lat="49.30032" lon="3.21449">
        <ele>151.54</ele>
        <time>2012-09-15T12:32:10Z</time>
      </trkpt>
      <trkpt lat="49.30029" lon="3.21538">
        <ele>150.58</ele>
        <time>2012-09-15T12:32:22Z</time>
      </trkpt>
      <trkpt lat="49.30029" lon="3.2156">
        <ele>149.62</ele>
        <time>2012-09-15T12:32:25Z</time>
      </trkpt>
      <trkpt lat="49.30023" lon="3.21658">
        <ele>146.74</ele>
        <time>2012-09-15T12:32:38Z</time>
      </trkpt>
      <trkpt lat="49.3002" lon="3.21662">
        <ele>146.26</ele>
        <time>2012-09-15T12:32:52Z</time>
      </trkpt>
      <trkpt lat="49.3002" lon="3.21662">
        <ele>144.82</ele>
        <time>2012-09-15T12:33:26Z</time>
      </trkpt>
      <trkpt lat="49.30023" lon="3.21675">
        <ele>145.3</ele>
        <time>2012-09-15T12:33:43Z</time>
      </trkpt>
      <trkpt lat="49.30023" lon="3.21686">
        <ele>145.3</ele>
        <time>2012-09-15T12:33:45Z</time>
      </trkpt>
      <trkpt lat="49.30016" lon="3.21743">
        <ele>146.26</ele>
        <time>2012-09-15T12:33:53Z</time>
      </trkpt>
      <trkpt lat="49.30039" lon="3.21816">
        <ele>146.74</ele>
        <time>2012-09-15T12:34:03Z</time>
      </trkpt>
      <trkpt lat="49.30079" lon="3.21916">
        <ele>147.22</ele>
        <time>2012-09-15T12:34:17Z</time>
      </trkpt>
      <trkpt lat="49.30115" lon="3.22001">
        <ele>146.74</ele>
        <time>2012-09-15T12:34:28Z</time>
      </trkpt>
      <trkpt lat="49.30161" lon="3.22117">
        <ele>144.34</ele>
        <time>2012-09-15T12:34:41Z</time>
      </trkpt>
      <trkpt lat="49.30206" lon="3.22223">
        <ele>141.93</ele>
        <time>2012-09-15T12:34:52Z</time>
      </trkpt>
      <trkpt lat="49.30248" lon="3.2232">
        <ele>140.49</ele>
        <time>2012-09-15T12:35:03Z</time>
      </trkpt>
      <trkpt lat="49.30284" lon="3.22412">
        <ele>140.01</ele>
        <time>2012-09-15T12:35:15Z</time>
      </trkpt>
      <trkpt lat="49.30293" lon="3.22437">
        <ele>140.49</ele>
        <time>2012-09-15T12:35:19Z</time>
      </trkpt>
      <trkpt lat="49.3033" lon="3.22527">
        <ele>142.89</ele>
        <time>2012-09-15T12:35:34Z</time>
      </trkpt>
      <trkpt lat="49.30357" lon="3.22587">
        <ele>145.3</ele>
        <time>2012-09-15T12:35:45Z</time>
      </trkpt>
      <trkpt lat="49.30393" lon="3.22679">
        <ele>147.7</ele>
        <time>2012-09-15T12:36:00Z</time>
      </trkpt>
      <trkpt lat="49.30429" lon="3.22769">
        <ele>148.66</ele>
        <time>2012-09-15T12:36:12Z</time>
      </trkpt>
      <trkpt lat="49.3045" lon="3.22822">
        <ele>148.66</ele>
        <time>2012-09-15T12:36:20Z</time>
      </trkpt>
      <trkpt lat="49.30479" lon="3.22894">
        <ele>150.1</ele>
        <time>2012-09-15T12:36:32Z</time>
      </trkpt>
      <trkpt lat="49.30508" lon="3.22962">
        <ele>152.03</ele>
        <time>2012-09-15T12:36:45Z</time>
      </trkpt>
      <trkpt lat="49.30533" lon="3.2302">
        <ele>152.51</ele>
        <time>2012-09-15T12:36:58Z</time>
      </trkpt>
      <trkpt lat="49.3056" lon="3.23089">
        <ele>151.54</ele>
        <time>2012-09-15T12:37:14Z</time>
      </trkpt>
      <trkpt lat="49.30578" lon="3.23128">
        <ele>150.58</ele>
        <time>2012-09-15T12:37:21Z</time>
      </trkpt>
      <trkpt lat="49.30618" lon="3.23191">
        <ele>150.1</ele>
        <time>2012-09-15T12:37:32Z</time>
      </trkpt>
      <trkpt lat="49.30664" lon="3.23262">
        <ele>151.54</ele>
        <time>2012-09-15T12:37:45Z</time>
      </trkpt>
      <trkpt lat="49.30721" lon="3.23346">
        <ele>150.1</ele>
        <time>2012-09-15T12:38:02Z</time>
      </trkpt>
      <trkpt lat="49.30782" lon="3.23432">
        <ele>148.18</ele>
        <time>2012-09-15T12:38:19Z</time>
      </trkpt>
      <trkpt lat="49.30837" lon="3.23516">
        <ele>148.18</ele>
        <time>2012-09-15T12:38:32Z</time>
      </trkpt>
      <trkpt lat="49.3089" lon="3.23598">
        <ele>148.18</ele>
        <time>2012-09-15T12:38:45Z</time>
      </trkpt>
      <trkpt lat="49.30942" lon="3.23679">
        <ele>148.18</ele>
        <time>2012-09-15T12:38:56Z</time>
      </trkpt>
      <trkpt lat="49.30995" lon="3.23759">
        <ele>148.66</ele>
        <time>2012-09-15T12:39:08Z</time>
      </trkpt>
      <trkpt lat="49.31041" lon="3.23828">
        <ele>149.14</ele>
        <time>2012-09-15T12:39:18Z</time>
      </trkpt>
      <trkpt lat="49.311" lon="3.23918">
        <ele>147.7</ele>
        <time>2012-09-15T12:39:31Z</time>
      </trkpt>
      <trkpt lat="49.31159" lon="3.24008">
        <ele>146.74</ele>
        <time>2012-09-15T12:39:44Z</time>
      </trkpt>
      <trkpt lat="49.31214" lon="3.2409">
        <ele>146.26</ele>
        <time>2012-09-15T12:39:56Z</time>
      </trkpt>
      <trkpt lat="49.31268" lon="3.2417">
        <ele>144.82</ele>
        <time>2012-09-15T12:40:07Z</time>
      </trkpt>
      <trkpt lat="49.31323" lon="3.24254">
        <ele>143.37</ele>
        <time>2012-09-15T12:40:19Z</time>
      </trkpt>
      <trkpt lat="49.31374" lon="3.24333">
        <ele>144.82</ele>
        <time>2012-09-15T12:40:31Z</time>
      </trkpt>
      <trkpt lat="49.31395" lon="3.24364">
        <ele>145.3</ele>
        <time>2012-09-15T12:40:36Z</time>
      </trkpt>
      <trkpt lat="49.31453" lon="3.2445">
        <ele>141.93</ele>
        <time>2012-09-15T12:40:51Z</time>
      </trkpt>
      <trkpt lat="49.31508" lon="3.2453">
        <ele>140.49</ele>
        <time>2012-09-15T12:41:06Z</time>
      </trkpt>
      <trkpt lat="49.31553" lon="3.24597">
        <ele>141.45</ele>
        <time>2012-09-15T12:41:19Z</time>
      </trkpt>
      <trkpt lat="49.31609" lon="3.24685">
        <ele>144.34</ele>
        <time>2012-09-15T12:41:37Z</time>
      </trkpt>
      <trkpt lat="49.31651" lon="3.2475">
        <ele>146.26</ele>
        <time>2012-09-15T12:41:50Z</time>
      </trkpt>
      <trkpt lat="49.31682" lon="3.24798">
        <ele>149.14</ele>
        <time>2012-09-15T12:42:03Z</time>
      </trkpt>
      <trkpt lat="49.31727" lon="3.24866">
        <ele>152.51</ele>
        <time>2012-09-15T12:42:16Z</time>
      </trkpt>
      <trkpt lat="49.3177" lon="3.24936">
        <ele>154.91</ele>
        <time>2012-09-15T12:42:30Z</time>
      </trkpt>
      <trkpt lat="49.31846" lon="3.25051">
        <ele>153.47</ele>
        <time>2012-09-15T12:42:51Z</time>
      </trkpt>
      <trkpt lat="49.31928" lon="3.25172">
        <ele>151.06</ele>
        <time>2012-09-15T12:43:12Z</time>
      </trkpt>
      <trkpt lat="49.31963" lon="3.25225">
        <ele>152.03</ele>
        <time>2012-09-15T12:43:26Z</time>
      </trkpt>
      <trkpt lat="49.31969" lon="3.25233">
        <ele>152.03</ele>
        <time>2012-09-15T12:43:28Z</time>
      </trkpt>
      <trkpt lat="49.3202" lon="3.25312">
        <ele>152.03</ele>
        <time>2012-09-15T12:43:41Z</time>
      </trkpt>
      <trkpt lat="49.32079" lon="3.25402">
        <ele>150.58</ele>
        <time>2012-09-15T12:43:55Z</time>
      </trkpt>
      <trkpt lat="49.32131" lon="3.2548">
        <ele>150.58</ele>
        <time>2012-09-15T12:44:08Z</time>
      </trkpt>
      <trkpt lat="49.32137" lon="3.2549">
        <ele>150.58</ele>
        <time>2012-09-15T12:44:10Z</time>
      </trkpt>
      <trkpt lat="49.32187" lon="3.25565">
        <ele>151.54</ele>
        <time>2012-09-15T12:44:30Z</time>
      </trkpt>
      <trkpt lat="49.32225" lon="3.25624">
        <ele>151.54</ele>
        <time>2012-09-15T12:44:46Z</time>
      </trkpt>
      <trkpt lat="49.32243" lon="3.25651">
        <ele>153.95</ele>
        <time>2012-09-15T12:45:02Z</time>
      </trkpt>
      <trkpt lat="49.32263" lon="3.25686">
        <ele>154.91</ele>
        <time>2012-09-15T12:45:21Z</time>
      </trkpt>
      <trkpt lat="49.32264" lon="3.25692">
        <ele>154.91</ele>
        <time>2012-09-15T12:45:23Z</time>
      </trkpt>
      <trkpt lat="49.32246" lon="3.25735">
        <ele>155.39</ele>
        <time>2012-09-15T12:45:34Z</time>
      </trkpt>
      <trkpt lat="49.32208" lon="3.25815">
        <ele>155.39</ele>
        <time>2012-09-15T12:45:47Z</time>
      </trkpt>
      <trkpt lat="49.32172" lon="3.25887">
        <ele>154.43</ele>
        <time>2012-09-15T12:45:57Z</time>
      </trkpt>
      <trkpt lat="49.32159" lon="3.25917">
        <ele>154.43</ele>
        <time>2012-09-15T12:46:01Z</time>
      </trkpt>
      <trkpt lat="49.32156" lon="3.25925">
        <ele>153.95</ele>
        <time>2012-09-15T12:46:02Z</time>
      </trkpt>
      <trkpt lat="49.32145" lon="3.25956">
        <ele>153.47</ele>
        <time>2012-09-15T12:46:06Z</time>
      </trkpt>
      <trkpt lat="49.32112" lon="3.26041">
        <ele>152.51</ele>
        <time>2012-09-15T12:46:17Z</time>
      </trkpt>
      <trkpt lat="49.3208" lon="3.26127">
        <ele>151.54</ele>
        <time>2012-09-15T12:46:27Z</time>
      </trkpt>
      <trkpt lat="49.32077" lon="3.26135">
        <ele>151.54</ele>
        <time>2012-09-15T12:46:28Z</time>
      </trkpt>
      <trkpt lat="49.32037" lon="3.26239">
        <ele>151.54</ele>
        <time>2012-09-15T12:46:40Z</time>
      </trkpt>
      <trkpt lat="49.32027" lon="3.26267">
        <ele>151.54</ele>
        <time>2012-09-15T12:46:43Z</time>
      </trkpt>
      <trkpt lat="49.32024" lon="3.26276">
        <ele>151.54</ele>
        <time>2012-09-15T12:46:44Z</time>
      </trkpt>
      <trkpt lat="49.31995" lon="3.26347">
        <ele>151.06</ele>
        <time>2012-09-15T12:46:52Z</time>
      </trkpt>
      <trkpt lat="49.31992" lon="3.26356">
        <ele>151.54</ele>
        <time>2012-09-15T12:46:53Z</time>
      </trkpt>
      <trkpt lat="49.3199" lon="3.26365">
        <ele>151.06</ele>
        <time>2012-09-15T12:46:54Z</time>
      </trkpt>
      <trkpt lat="49.31967" lon="3.26424">
        <ele>151.54</ele>
        <time>2012-09-15T12:47:01Z</time>
      </trkpt>
      <trkpt lat="49.31964" lon="3.26431">
        <ele>151.54</ele>
        <time>2012-09-15T12:47:02Z</time>
      </trkpt>
      <trkpt lat="49.3193" lon="3.26519">
        <ele>154.43</ele>
        <time>2012-09-15T12:47:15Z</time>
      </trkpt>
      <trkpt lat="49.31905" lon="3.26589">
        <ele>156.35</ele>
        <time>2012-09-15T12:47:28Z</time>
      </trkpt>
      <trkpt lat="49.31906" lon="3.26594">
        <ele>155.87</ele>
        <time>2012-09-15T12:47:29Z</time>
      </trkpt>
      <trkpt lat="49.31909" lon="3.26599">
        <ele>154.91</ele>
        <time>2012-09-15T12:47:30Z</time>
      </trkpt>
      <trkpt lat="49.31914" lon="3.26603">
        <ele>154.43</ele>
        <time>2012-09-15T12:47:31Z</time>
      </trkpt>
      <trkpt lat="49.3193" lon="3.26611">
        <ele>153.47</ele>
        <time>2012-09-15T12:47:34Z</time>
      </trkpt>
      <trkpt lat="49.31935" lon="3.26614">
        <ele>152.99</ele>
        <time>2012-09-15T12:47:35Z</time>
      </trkpt>
      <trkpt lat="49.31941" lon="3.26617">
        <ele>152.99</ele>
        <time>2012-09-15T12:47:36Z</time>
      </trkpt>
      <trkpt lat="49.31982" lon="3.26653">
        <ele>152.51</ele>
        <time>2012-09-15T12:47:44Z</time>
      </trkpt>
      <trkpt lat="49.31987" lon="3.26658">
        <ele>152.51</ele>
        <time>2012-09-15T12:47:45Z</time>
      </trkpt>
      <trkpt lat="49.32024" lon="3.26722">
        <ele>152.03</ele>
        <time>2012-09-15T12:47:55Z</time>
      </trkpt>
      <trkpt lat="49.32042" lon="3.26762">
        <ele>152.03</ele>
        <time>2012-09-15T12:48:01Z</time>
      </trkpt>
      <trkpt lat="49.32073" lon="3.26837">
        <ele>151.54</ele>
        <time>2012-09-15T12:48:11Z</time>
      </trkpt>
      <trkpt lat="49.32106" lon="3.26928">
        <ele>150.1</ele>
        <time>2012-09-15T12:48:22Z</time>
      </trkpt>
      <trkpt lat="49.32135" lon="3.27012">
        <ele>149.14</ele>
        <time>2012-09-15T12:48:32Z</time>
      </trkpt>
      <trkpt lat="49.32163" lon="3.27088">
        <ele>148.18</ele>
        <time>2012-09-15T12:48:41Z</time>
      </trkpt>
      <trkpt lat="49.322" lon="3.27168">
        <ele>146.74</ele>
        <time>2012-09-15T12:48:50Z</time>
      </trkpt>
      <trkpt lat="49.32249" lon="3.27268">
        <ele>145.3</ele>
        <time>2012-09-15T12:49:02Z</time>
      </trkpt>
      <trkpt lat="49.32279" lon="3.27361">
        <ele>145.78</ele>
        <time>2012-09-15T12:49:13Z</time>
      </trkpt>
      <trkpt lat="49.32289" lon="3.2739">
        <ele>145.3</ele>
        <time>2012-09-15T12:49:16Z</time>
      </trkpt>
      <trkpt lat="49.32317" lon="3.27484">
        <ele>144.34</ele>
        <time>2012-09-15T12:49:26Z</time>
      </trkpt>
      <trkpt lat="49.32344" lon="3.27566">
        <ele>143.37</ele>
        <time>2012-09-15T12:49:35Z</time>
      </trkpt>
      <trkpt lat="49.32347" lon="3.27575">
        <ele>143.37</ele>
        <time>2012-09-15T12:49:36Z</time>
      </trkpt>
      <trkpt lat="49.32379" lon="3.27673">
        <ele>143.37</ele>
        <time>2012-09-15T12:49:47Z</time>
      </trkpt>
      <trkpt lat="49.32408" lon="3.27763">
        <ele>143.85</ele>
        <time>2012-09-15T12:49:58Z</time>
      </trkpt>
      <trkpt lat="49.32433" lon="3.27837">
        <ele>144.82</ele>
        <time>2012-09-15T12:50:08Z</time>
      </trkpt>
      <trkpt lat="49.32452" lon="3.27896">
        <ele>147.22</ele>
        <time>2012-09-15T12:50:16Z</time>
      </trkpt>
      <trkpt lat="49.32481" lon="3.27985">
        <ele>149.62</ele>
        <time>2012-09-15T12:50:28Z</time>
      </trkpt>
      <trkpt lat="49.32483" lon="3.27993">
        <ele>149.62</ele>
        <time>2012-09-15T12:50:29Z</time>
      </trkpt>
      <trkpt lat="49.32508" lon="3.28069">
        <ele>151.54</ele>
        <time>2012-09-15T12:50:40Z</time>
      </trkpt>
      <trkpt lat="49.32529" lon="3.28134">
        <ele>152.03</ele>
        <time>2012-09-15T12:50:50Z</time>
      </trkpt>
      <trkpt lat="49.32555" lon="3.28215">
        <ele>151.54</ele>
        <time>2012-09-15T12:51:05Z</time>
      </trkpt>
      <trkpt lat="49.32562" lon="3.28237">
        <ele>150.58</ele>
        <time>2012-09-15T12:51:09Z</time>
      </trkpt>
      <trkpt lat="49.32566" lon="3.28248">
        <ele>150.58</ele>
        <time>2012-09-15T12:51:11Z</time>
      </trkpt>
      <trkpt lat="49.32584" lon="3.2831">
        <ele>149.14</ele>
        <time>2012-09-15T12:51:21Z</time>
      </trkpt>
      <trkpt lat="49.32584" lon="3.28317">
        <ele>149.14</ele>
        <time>2012-09-15T12:51:22Z</time>
      </trkpt>
      <trkpt lat="49.32585" lon="3.28325">
        <ele>149.14</ele>
        <time>2012-09-15T12:51:23Z</time>
      </trkpt>
      <trkpt lat="49.32584" lon="3.28375">
        <ele>149.14</ele>
        <time>2012-09-15T12:51:29Z</time>
      </trkpt>
      <trkpt lat="49.32583" lon="3.28391">
        <ele>149.14</ele>
        <time>2012-09-15T12:51:31Z</time>
      </trkpt>
      <trkpt lat="49.32581" lon="3.28457">
        <ele>149.62</ele>
        <time>2012-09-15T12:51:39Z</time>
      </trkpt>
      <trkpt lat="49.3258" lon="3.28483">
        <ele>149.62</ele>
        <time>2012-09-15T12:51:42Z</time>
      </trkpt>
      <trkpt lat="49.3258" lon="3.28517">
        <ele>149.62</ele>
        <time>2012-09-15T12:51:46Z</time>
      </trkpt>
      <trkpt lat="49.32579" lon="3.2856">
        <ele>149.62</ele>
        <time>2012-09-15T12:51:51Z</time>
      </trkpt>
      <trkpt lat="49.3258" lon="3.28653">
        <ele>148.66</ele>
        <time>2012-09-15T12:52:02Z</time>
      </trkpt>
      <trkpt lat="49.32587" lon="3.28735">
        <ele>149.62</ele>
        <time>2012-09-15T12:52:12Z</time>
      </trkpt>
      <trkpt lat="49.3259" lon="3.28768">
        <ele>150.1</ele>
        <time>2012-09-15T12:52:16Z</time>
      </trkpt>
      <trkpt lat="49.326" lon="3.28842">
        <ele>150.1</ele>
        <time>2012-09-15T12:52:25Z</time>
      </trkpt>
      <trkpt lat="49.32614" lon="3.28947">
        <ele>148.18</ele>
        <time>2012-09-15T12:52:39Z</time>
      </trkpt>
      <trkpt lat="49.32615" lon="3.28953">
        <ele>147.7</ele>
        <time>2012-09-15T12:52:40Z</time>
      </trkpt>
      <trkpt lat="49.32625" lon="3.29012">
        <ele>148.66</ele>
        <time>2012-09-15T12:52:52Z</time>
      </trkpt>
      <trkpt lat="49.32627" lon="3.29016">
        <ele>147.7</ele>
        <time>2012-09-15T12:53:04Z</time>
      </trkpt>
      <trkpt lat="49.32627" lon="3.29016">
        <ele>146.74</ele>
        <time>2012-09-15T12:53:24Z</time>
      </trkpt>
      <trkpt lat="49.32627" lon="3.29017">
        <ele>145.78</ele>
        <time>2012-09-15T12:54:03Z</time>
      </trkpt>
      <trkpt lat="49.32627" lon="3.29017">
        <ele>145.78</ele>
        <time>2012-09-15T12:54:12Z</time>
      </trkpt>
      <trkpt lat="49.32616" lon="3.29018">
        <ele>144.82</ele>
        <time>2012-09-15T12:54:17Z</time>
      </trkpt>
      <trkpt lat="49.3257" lon="3.2903">
        <ele>143.37</ele>
        <time>2012-09-15T12:54:29Z</time>
      </trkpt>
      <trkpt lat="49.3252" lon="3.29047">
        <ele>143.85</ele>
        <time>2012-09-15T12:54:41Z</time>
      </trkpt>
      <trkpt lat="49.32475" lon="3.29061">
        <ele>144.82</ele>
        <time>2012-09-15T12:54:52Z</time>
      </trkpt>
      <trkpt lat="49.32463" lon="3.29062">
        <ele>145.78</ele>
        <time>2012-09-15T12:55:02Z</time>
      </trkpt>
      <trkpt lat="49.32463" lon="3.29061">
        <ele>146.74</ele>
        <time>2012-09-15T12:55:23Z</time>
      </trkpt>
      <trkpt lat="49.32464" lon="3.29047">
        <ele>146.74</ele>
        <time>2012-09-15T12:55:28Z</time>
      </trkpt>
      <trkpt lat="49.32448" lon="3.28985">
        <ele>146.26</ele>
        <time>2012-09-15T12:55:41Z</time>
      </trkpt>
      <trkpt lat="49.32446" lon="3.28979">
        <ele>146.74</ele>
        <time>2012-09-15T12:55:49Z</time>
      </trkpt>
      <trkpt lat="49.32449" lon="3.2899">
        <ele>146.74</ele>
        <time>2012-09-15T12:55:53Z</time>
      </trkpt>
      <trkpt lat="49.32466" lon="3.29043">
        <ele>147.7</ele>
        <time>2012-09-15T12:56:08Z</time>
      </trkpt>
      <trkpt lat="49.32472" lon="3.29045">
        <ele>147.22</ele>
        <time>2012-09-15T12:56:21Z</time>
      </trkpt>
      <trkpt lat="49.32472" lon="3.29046">
        <ele>146.74</ele>
        <time>2012-09-15T12:56:34Z</time>
      </trkpt>
      <trkpt lat="49.32472" lon="3.29046">
        <ele>146.74</ele>
        <time>2012-09-15T12:56:52Z</time>
      </trkpt>
      <trkpt lat="49.32473" lon="3.29046">
        <ele>147.22</ele>
        <time>2012-09-15T13:18:48Z</time>
      </trkpt>
      <trkpt lat="49.32472" lon="3.29044">
        <ele>145.3</ele>
        <time>2012-09-15T13:19:19Z</time>
      </trkpt>
      <trkpt lat="49.32471" lon="3.29044">
        <ele>146.26</ele>
        <time>2012-09-15T13:19:55Z</time>
      </trkpt>
      <trkpt lat="49.32471" lon="3.29047">
        <ele>144.82</ele>
        <time>2012-09-15T13:20:09Z</time>
      </trkpt>
      <trkpt lat="49.32472" lon="3.29046">
        <ele>144.82</ele>
        <time>2012-09-15T13:20:42Z</time>
      </trkpt>
      <trkpt lat="49.32472" lon="3.29047">
        <ele>145.3</ele>
        <time>2012-09-15T13:21:21Z</time>
      </trkpt>
      <trkpt lat="49.32473" lon="3.29048">
        <ele>145.78</ele>
        <time>2012-09-15T13:21:50Z</time>
      </trkpt>
      <trkpt lat="49.32471" lon="3.29049">
        <ele>145.78</ele>
        <time>2012-09-15T13:21:55Z</time>
      </trkpt>
      <trkpt lat="49.32469" lon="3.29058">
        <ele>145.78</ele>
        <time>2012-09-15T13:21:58Z</time>
      </trkpt>
      <trkpt lat="49.3246" lon="3.29071">
        <ele>146.26</ele>
        <time>2012-09-15T13:22:02Z</time>
      </trkpt>
      <trkpt lat="49.32438" lon="3.2911">
        <ele>146.26</ele>
        <time>2012-09-15T13:22:10Z</time>
      </trkpt>
      <trkpt lat="49.32428" lon="3.29157">
        <ele>146.26</ele>
        <time>2012-09-15T13:22:17Z</time>
      </trkpt>
      <trkpt lat="49.3241" lon="3.29266">
        <ele>146.26</ele>
        <time>2012-09-15T13:22:30Z</time>
      </trkpt>
      <trkpt lat="49.32387" lon="3.29383">
        <ele>146.74</ele>
        <time>2012-09-15T13:22:43Z</time>
      </trkpt>
      <trkpt lat="49.32365" lon="3.29501">
        <ele>146.74</ele>
        <time>2012-09-15T13:22:56Z</time>
      </trkpt>
      <trkpt lat="49.32345" lon="3.29606">
        <ele>146.74</ele>
        <time>2012-09-15T13:23:07Z</time>
      </trkpt>
      <trkpt lat="49.32324" lon="3.2971">
        <ele>146.74</ele>
        <time>2012-09-15T13:23:19Z</time>
      </trkpt>
      <trkpt lat="49.32304" lon="3.29816">
        <ele>146.74</ele>
        <time>2012-09-15T13:23:31Z</time>
      </trkpt>
      <trkpt lat="49.32284" lon="3.2992">
        <ele>145.78</ele>
        <time>2012-09-15T13:23:43Z</time>
      </trkpt>
      <trkpt lat="49.32275" lon="3.29968">
        <ele>145.3</ele>
        <time>2012-09-15T13:23:49Z</time>
      </trkpt>
      <trkpt lat="49.32256" lon="3.30064">
        <ele>145.3</ele>
        <time>2012-09-15T13:24:03Z</time>
      </trkpt>
      <trkpt lat="49.32241" lon="3.30146">
        <ele>146.74</ele>
        <time>2012-09-15T13:24:17Z</time>
      </trkpt>
      <trkpt lat="49.32226" lon="3.30216">
        <ele>148.18</ele>
        <time>2012-09-15T13:24:33Z</time>
      </trkpt>
      <trkpt lat="49.3222" lon="3.30246">
        <ele>148.66</ele>
        <time>2012-09-15T13:24:41Z</time>
      </trkpt>
      <trkpt lat="49.32216" lon="3.3025">
        <ele>148.18</ele>
        <time>2012-09-15T13:24:44Z</time>
      </trkpt>
      <trkpt lat="49.32195" lon="3.30258">
        <ele>146.74</ele>
        <time>2012-09-15T13:24:57Z</time>
      </trkpt>
      <trkpt lat="49.32174" lon="3.30251">
        <ele>143.85</ele>
        <time>2012-09-15T13:25:12Z</time>
      </trkpt>
      <trkpt lat="49.32158" lon="3.30244">
        <ele>142.41</ele>
        <time>2012-09-15T13:25:23Z</time>
      </trkpt>
      <trkpt lat="49.32157" lon="3.30243">
        <ele>141.93</ele>
        <time>2012-09-15T13:25:24Z</time>
      </trkpt>
      <trkpt lat="49.32156" lon="3.30242">
        <ele>141.45</ele>
        <time>2012-09-15T13:25:25Z</time>
      </trkpt>
      <trkpt lat="49.32154" lon="3.30242">
        <ele>141.45</ele>
        <time>2012-09-15T13:25:26Z</time>
      </trkpt>
      <trkpt lat="49.32152" lon="3.30241">
        <ele>141.45</ele>
        <time>2012-09-15T13:25:27Z</time>
      </trkpt>
      <trkpt lat="49.32151" lon="3.30239">
        <ele>140.97</ele>
        <time>2012-09-15T13:25:28Z</time>
      </trkpt>
      <trkpt lat="49.3215" lon="3.30238">
        <ele>140.49</ele>
        <time>2012-09-15T13:25:29Z</time>
      </trkpt>
      <trkpt lat="49.32117" lon="3.30228">
        <ele>137.61</ele>
        <time>2012-09-15T13:25:42Z</time>
      </trkpt>
      <trkpt lat="49.32094" lon="3.30216">
        <ele>136.64</ele>
        <time>2012-09-15T13:25:47Z</time>
      </trkpt>
      <trkpt lat="49.32089" lon="3.30214">
        <ele>136.64</ele>
        <time>2012-09-15T13:25:48Z</time>
      </trkpt>
      <trkpt lat="49.32084" lon="3.30212">
        <ele>136.16</ele>
        <time>2012-09-15T13:25:49Z</time>
      </trkpt>
      <trkpt lat="49.32018" lon="3.30183">
        <ele>134.72</ele>
        <time>2012-09-15T13:26:00Z</time>
      </trkpt>
      <trkpt lat="49.32012" lon="3.30177">
        <ele>134.72</ele>
        <time>2012-09-15T13:26:01Z</time>
      </trkpt>
      <trkpt lat="49.32007" lon="3.3017">
        <ele>134.72</ele>
        <time>2012-09-15T13:26:02Z</time>
      </trkpt>
      <trkpt lat="49.32003" lon="3.30162">
        <ele>134.24</ele>
        <time>2012-09-15T13:26:03Z</time>
      </trkpt>
      <trkpt lat="49.31998" lon="3.30152">
        <ele>134.24</ele>
        <time>2012-09-15T13:26:04Z</time>
      </trkpt>
      <trkpt lat="49.31995" lon="3.30142">
        <ele>133.76</ele>
        <time>2012-09-15T13:26:05Z</time>
      </trkpt>
      <trkpt lat="49.31992" lon="3.3013">
        <ele>133.76</ele>
        <time>2012-09-15T13:26:06Z</time>
      </trkpt>
      <trkpt lat="49.3199" lon="3.30119">
        <ele>133.28</ele>
        <time>2012-09-15T13:26:07Z</time>
      </trkpt>
      <trkpt lat="49.3199" lon="3.30106">
        <ele>133.28</ele>
        <time>2012-09-15T13:26:08Z</time>
      </trkpt>
      <trkpt lat="49.3199" lon="3.30093">
        <ele>132.8</ele>
        <time>2012-09-15T13:26:09Z</time>
      </trkpt>
      <trkpt lat="49.31991" lon="3.3008">
        <ele>132.8</ele>
        <time>2012-09-15T13:26:10Z</time>
      </trkpt>
      <trkpt lat="49.31993" lon="3.30067">
        <ele>132.32</ele>
        <time>2012-09-15T13:26:11Z</time>
      </trkpt>
      <trkpt lat="49.32002" lon="3.29896">
        <ele>129.43</ele>
        <time>2012-09-15T13:26:24Z</time>
      </trkpt>
      <trkpt lat="49.31998" lon="3.29868">
        <ele>128.95</ele>
        <time>2012-09-15T13:26:28Z</time>
      </trkpt>
      <trkpt lat="49.31995" lon="3.29866">
        <ele>128.95</ele>
        <time>2012-09-15T13:26:29Z</time>
      </trkpt>
      <trkpt lat="49.31993" lon="3.29866">
        <ele>128.95</ele>
        <time>2012-09-15T13:26:30Z</time>
      </trkpt>
      <trkpt lat="49.3199" lon="3.29867">
        <ele>128.95</ele>
        <time>2012-09-15T13:26:31Z</time>
      </trkpt>
      <trkpt lat="49.31884" lon="3.29898">
        <ele>126.07</ele>
        <time>2012-09-15T13:26:32Z</time>
      </trkpt>
      <trkpt lat="49.31869" lon="3.29893">
        <ele>130.88</ele>
        <time>2012-09-15T13:26:33Z</time>
      </trkpt>
      <trkpt lat="49.31856" lon="3.29889">
        <ele>132.8</ele>
        <time>2012-09-15T13:26:34Z</time>
      </trkpt>
      <trkpt lat="49.31845" lon="3.29883">
        <ele>134.24</ele>
        <time>2012-09-15T13:26:35Z</time>
      </trkpt>
      <trkpt lat="49.31834" lon="3.29877">
        <ele>136.16</ele>
        <time>2012-09-15T13:26:36Z</time>
      </trkpt>
      <trkpt lat="49.31824" lon="3.2987">
        <ele>137.61</ele>
        <time>2012-09-15T13:26:37Z</time>
      </trkpt>
      <trkpt lat="49.3176" lon="3.29815">
        <ele>136.64</ele>
        <time>2012-09-15T13:26:43Z</time>
      </trkpt>
      <trkpt lat="49.3175" lon="3.2981">
        <ele>135.2</ele>
        <time>2012-09-15T13:26:44Z</time>
      </trkpt>
      <trkpt lat="49.31738" lon="3.29807">
        <ele>135.2</ele>
        <time>2012-09-15T13:26:45Z</time>
      </trkpt>
      <trkpt lat="49.31712" lon="3.29803">
        <ele>133.76</ele>
        <time>2012-09-15T13:26:47Z</time>
      </trkpt>
      <trkpt lat="49.31701" lon="3.29808">
        <ele>131.84</ele>
        <time>2012-09-15T13:26:48Z</time>
      </trkpt>
      <trkpt lat="49.3169" lon="3.29813">
        <ele>130.88</ele>
        <time>2012-09-15T13:26:49Z</time>
      </trkpt>
      <trkpt lat="49.31679" lon="3.29821">
        <ele>129.43</ele>
        <time>2012-09-15T13:26:50Z</time>
      </trkpt>
      <trkpt lat="49.3167" lon="3.29831">
        <ele>127.99</ele>
        <time>2012-09-15T13:26:51Z</time>
      </trkpt>
      <trkpt lat="49.31661" lon="3.29842">
        <ele>125.59</ele>
        <time>2012-09-15T13:26:52Z</time>
      </trkpt>
      <trkpt lat="49.31652" lon="3.29852">
        <ele>123.19</ele>
        <time>2012-09-15T13:26:53Z</time>
      </trkpt>
      <trkpt lat="49.31566" lon="3.29894">
        <ele>116.46</ele>
        <time>2012-09-15T13:27:01Z</time>
      </trkpt>
      <trkpt lat="49.31461" lon="3.29952">
        <ele>106.36</ele>
        <time>2012-09-15T13:27:11Z</time>
      </trkpt>
      <trkpt lat="49.31404" lon="3.30003">
        <ele>93.87</ele>
        <time>2012-09-15T13:27:19Z</time>
      </trkpt>
      <trkpt lat="49.31402" lon="3.30006">
        <ele>91.46</ele>
        <time>2012-09-15T13:27:21Z</time>
      </trkpt>
      <trkpt lat="49.31398" lon="3.30005">
        <ele>90.5</ele>
        <time>2012-09-15T13:27:23Z</time>
      </trkpt>
      <trkpt lat="49.31396" lon="3.30006">
        <ele>90.5</ele>
        <time>2012-09-15T13:27:24Z</time>
      </trkpt>
      <trkpt lat="49.31394" lon="3.30009">
        <ele>90.02</ele>
        <time>2012-09-15T13:27:25Z</time>
      </trkpt>
      <trkpt lat="49.31392" lon="3.30011">
        <ele>89.54</ele>
        <time>2012-09-15T13:27:26Z</time>
      </trkpt>
      <trkpt lat="49.31389" lon="3.30014">
        <ele>89.54</ele>
        <time>2012-09-15T13:27:27Z</time>
      </trkpt>
      <trkpt lat="49.31357" lon="3.3008">
        <ele>87.14</ele>
        <time>2012-09-15T13:27:36Z</time>
      </trkpt>
      <trkpt lat="49.31338" lon="3.30114">
        <ele>86.18</ele>
        <time>2012-09-15T13:27:40Z</time>
      </trkpt>
      <trkpt lat="49.31332" lon="3.30117">
        <ele>85.69</ele>
        <time>2012-09-15T13:27:41Z</time>
      </trkpt>
      <trkpt lat="49.31326" lon="3.30117">
        <ele>85.21</ele>
        <time>2012-09-15T13:27:42Z</time>
      </trkpt>
      <trkpt lat="49.31321" lon="3.30116">
        <ele>85.21</ele>
        <time>2012-09-15T13:27:43Z</time>
      </trkpt>
      <trkpt lat="49.31315" lon="3.30112">
        <ele>84.73</ele>
        <time>2012-09-15T13:27:44Z</time>
      </trkpt>
      <trkpt lat="49.3131" lon="3.30107">
        <ele>84.25</ele>
        <time>2012-09-15T13:27:45Z</time>
      </trkpt>
      <trkpt lat="49.31306" lon="3.301">
        <ele>83.77</ele>
        <time>2012-09-15T13:27:46Z</time>
      </trkpt>
      <trkpt lat="49.31302" lon="3.3009">
        <ele>83.29</ele>
        <time>2012-09-15T13:27:47Z</time>
      </trkpt>
      <trkpt lat="49.31296" lon="3.30072">
        <ele>83.29</ele>
        <time>2012-09-15T13:27:48Z</time>
      </trkpt>
      <trkpt lat="49.3129" lon="3.30043">
        <ele>82.81</ele>
        <time>2012-09-15T13:27:50Z</time>
      </trkpt>
      <trkpt lat="49.31263" lon="3.29894">
        <ele>76.56</ele>
        <time>2012-09-15T13:28:03Z</time>
      </trkpt>
      <trkpt lat="49.31255" lon="3.29854">
        <ele>74.16</ele>
        <time>2012-09-15T13:28:08Z</time>
      </trkpt>
      <trkpt lat="49.31256" lon="3.29779">
        <ele>70.31</ele>
        <time>2012-09-15T13:28:21Z</time>
      </trkpt>
      <trkpt lat="49.31281" lon="3.2972">
        <ele>66.95</ele>
        <time>2012-09-15T13:28:34Z</time>
      </trkpt>
      <trkpt lat="49.31309" lon="3.29696">
        <ele>65.51</ele>
        <time>2012-09-15T13:28:41Z</time>
      </trkpt>
      <trkpt lat="49.31313" lon="3.29692">
        <ele>65.51</ele>
        <time>2012-09-15T13:28:42Z</time>
      </trkpt>
      <trkpt lat="49.31315" lon="3.29687">
        <ele>65.51</ele>
        <time>2012-09-15T13:28:43Z</time>
      </trkpt>
      <trkpt lat="49.31316" lon="3.29681">
        <ele>65.51</ele>
        <time>2012-09-15T13:28:44Z</time>
      </trkpt>
      <trkpt lat="49.31317" lon="3.29676">
        <ele>65.51</ele>
        <time>2012-09-15T13:28:45Z</time>
      </trkpt>
      <trkpt lat="49.31318" lon="3.2967">
        <ele>65.03</ele>
        <time>2012-09-15T13:28:46Z</time>
      </trkpt>
      <trkpt lat="49.31318" lon="3.29664">
        <ele>65.03</ele>
        <time>2012-09-15T13:28:47Z</time>
      </trkpt>
      <trkpt lat="49.31318" lon="3.29658">
        <ele>65.03</ele>
        <time>2012-09-15T13:28:48Z</time>
      </trkpt>
      <trkpt lat="49.31316" lon="3.29653">
        <ele>65.03</ele>
        <time>2012-09-15T13:28:49Z</time>
      </trkpt>
      <trkpt lat="49.31315" lon="3.29647">
        <ele>65.03</ele>
        <time>2012-09-15T13:28:50Z</time>
      </trkpt>
      <trkpt lat="49.31313" lon="3.29642">
        <ele>65.03</ele>
        <time>2012-09-15T13:28:51Z</time>
      </trkpt>
      <trkpt lat="49.3131" lon="3.29638">
        <ele>65.03</ele>
        <time>2012-09-15T13:28:52Z</time>
      </trkpt>
      <trkpt lat="49.31307" lon="3.29635">
        <ele>65.51</ele>
        <time>2012-09-15T13:28:53Z</time>
      </trkpt>
      <trkpt lat="49.31305" lon="3.29632">
        <ele>65.99</ele>
        <time>2012-09-15T13:28:54Z</time>
      </trkpt>
      <trkpt lat="49.31301" lon="3.29629">
        <ele>66.47</ele>
        <time>2012-09-15T13:28:55Z</time>
      </trkpt>
      <trkpt lat="49.31299" lon="3.29628">
        <ele>66.47</ele>
        <time>2012-09-15T13:28:56Z</time>
      </trkpt>
      <trkpt lat="49.31296" lon="3.29627">
        <ele>66.47</ele>
        <time>2012-09-15T13:28:57Z</time>
      </trkpt>
      <trkpt lat="49.31291" lon="3.29627">
        <ele>66.95</ele>
        <time>2012-09-15T13:28:58Z</time>
      </trkpt>
      <trkpt lat="49.31287" lon="3.29628">
        <ele>67.43</ele>
        <time>2012-09-15T13:28:59Z</time>
      </trkpt>
      <trkpt lat="49.31283" lon="3.29629">
        <ele>67.43</ele>
        <time>2012-09-15T13:29:00Z</time>
      </trkpt>
      <trkpt lat="49.31224" lon="3.29662">
        <ele>74.64</ele>
        <time>2012-09-15T13:29:12Z</time>
      </trkpt>
      <trkpt lat="49.3119" lon="3.29695">
        <ele>84.25</ele>
        <time>2012-09-15T13:29:23Z</time>
      </trkpt>
      <trkpt lat="49.31157" lon="3.29726">
        <ele>87.62</ele>
        <time>2012-09-15T13:29:34Z</time>
      </trkpt>
      <trkpt lat="49.31128" lon="3.29727">
        <ele>90.98</ele>
        <time>2012-09-15T13:29:44Z</time>
      </trkpt>
      <trkpt lat="49.31087" lon="3.29708">
        <ele>91.46</ele>
        <time>2012-09-15T13:29:58Z</time>
      </trkpt>
      <trkpt lat="49.31073" lon="3.29707">
        <ele>90.98</ele>
        <time>2012-09-15T13:30:02Z</time>
      </trkpt>
      <trkpt lat="49.31052" lon="3.29702">
        <ele>90.5</ele>
        <time>2012-09-15T13:30:06Z</time>
      </trkpt>
      <trkpt lat="49.31035" lon="3.29695">
        <ele>89.54</ele>
        <time>2012-09-15T13:30:09Z</time>
      </trkpt>
      <trkpt lat="49.31029" lon="3.29692">
        <ele>89.54</ele>
        <time>2012-09-15T13:30:10Z</time>
      </trkpt>
      <trkpt lat="49.31018" lon="3.29686">
        <ele>89.06</ele>
        <time>2012-09-15T13:30:12Z</time>
      </trkpt>
      <trkpt lat="49.30984" lon="3.29672">
        <ele>88.1</ele>
        <time>2012-09-15T13:30:18Z</time>
      </trkpt>
      <trkpt lat="49.30912" lon="3.29669">
        <ele>89.54</ele>
        <time>2012-09-15T13:30:31Z</time>
      </trkpt>
      <trkpt lat="49.30865" lon="3.29653">
        <ele>95.31</ele>
        <time>2012-09-15T13:30:42Z</time>
      </trkpt>
      <trkpt lat="49.30829" lon="3.29628">
        <ele>101.56</ele>
        <time>2012-09-15T13:30:52Z</time>
      </trkpt>
      <trkpt lat="49.30826" lon="3.29624">
        <ele>102.52</ele>
        <time>2012-09-15T13:30:53Z</time>
      </trkpt>
      <trkpt lat="49.30818" lon="3.29614">
        <ele>103.48</ele>
        <time>2012-09-15T13:30:55Z</time>
      </trkpt>
      <trkpt lat="49.30815" lon="3.2961">
        <ele>103.96</ele>
        <time>2012-09-15T13:30:56Z</time>
      </trkpt>
      <trkpt lat="49.30811" lon="3.29605">
        <ele>104.44</ele>
        <time>2012-09-15T13:30:57Z</time>
      </trkpt>
      <trkpt lat="49.30805" lon="3.29595">
        <ele>105.4</ele>
        <time>2012-09-15T13:30:59Z</time>
      </trkpt>
      <trkpt lat="49.30796" lon="3.29569">
        <ele>105.88</ele>
        <time>2012-09-15T13:31:03Z</time>
      </trkpt>
      <trkpt lat="49.30796" lon="3.29562">
        <ele>105.88</ele>
        <time>2012-09-15T13:31:04Z</time>
      </trkpt>
      <trkpt lat="49.30796" lon="3.29555">
        <ele>105.4</ele>
        <time>2012-09-15T13:31:05Z</time>
      </trkpt>
      <trkpt lat="49.30794" lon="3.29493">
        <ele>103.96</ele>
        <time>2012-09-15T13:31:17Z</time>
      </trkpt>
      <trkpt lat="49.30782" lon="3.29443">
        <ele>104.44</ele>
        <time>2012-09-15T13:31:28Z</time>
      </trkpt>
      <trkpt lat="49.30771" lon="3.29394">
        <ele>106.36</ele>
        <time>2012-09-15T13:31:39Z</time>
      </trkpt>
      <trkpt lat="49.30762" lon="3.29361">
        <ele>107.32</ele>
        <time>2012-09-15T13:31:51Z</time>
      </trkpt>
      <trkpt lat="49.30754" lon="3.29333">
        <ele>108.29</ele>
        <time>2012-09-15T13:32:02Z</time>
      </trkpt>
      <trkpt lat="49.30747" lon="3.293">
        <ele>109.25</ele>
        <time>2012-09-15T13:32:12Z</time>
      </trkpt>
      <trkpt lat="49.30736" lon="3.29264">
        <ele>110.21</ele>
        <time>2012-09-15T13:32:23Z</time>
      </trkpt>
      <trkpt lat="49.30727" lon="3.29227">
        <ele>115.5</ele>
        <time>2012-09-15T13:32:37Z</time>
      </trkpt>
      <trkpt lat="49.30717" lon="3.29201">
        <ele>123.19</ele>
        <time>2012-09-15T13:32:50Z</time>
      </trkpt>
      <trkpt lat="49.30713" lon="3.29178">
        <ele>128.95</ele>
        <time>2012-09-15T13:33:01Z</time>
      </trkpt>
      <trkpt lat="49.30711" lon="3.29137">
        <ele>130.4</ele>
        <time>2012-09-15T13:33:14Z</time>
      </trkpt>
      <trkpt lat="49.3071" lon="3.29101">
        <ele>130.88</ele>
        <time>2012-09-15T13:33:25Z</time>
      </trkpt>
      <trkpt lat="49.3071" lon="3.29065">
        <ele>130.88</ele>
        <time>2012-09-15T13:33:34Z</time>
      </trkpt>
      <trkpt lat="49.30694" lon="3.29027">
        <ele>130.88</ele>
        <time>2012-09-15T13:33:45Z</time>
      </trkpt>
      <trkpt lat="49.30677" lon="3.28987">
        <ele>130.4</ele>
        <time>2012-09-15T13:33:58Z</time>
      </trkpt>
      <trkpt lat="49.30665" lon="3.28953">
        <ele>132.32</ele>
        <time>2012-09-15T13:34:09Z</time>
      </trkpt>
      <trkpt lat="49.30654" lon="3.28919">
        <ele>134.72</ele>
        <time>2012-09-15T13:34:20Z</time>
      </trkpt>
      <trkpt lat="49.30642" lon="3.28885">
        <ele>136.16</ele>
        <time>2012-09-15T13:34:30Z</time>
      </trkpt>
      <trkpt lat="49.30629" lon="3.28848">
        <ele>136.64</ele>
        <time>2012-09-15T13:34:41Z</time>
      </trkpt>
      <trkpt lat="49.30617" lon="3.28813">
        <ele>139.53</ele>
        <time>2012-09-15T13:34:51Z</time>
      </trkpt>
      <trkpt lat="49.30606" lon="3.28781">
        <ele>141.93</ele>
        <time>2012-09-15T13:35:01Z</time>
      </trkpt>
      <trkpt lat="49.30591" lon="3.28737">
        <ele>142.41</ele>
        <time>2012-09-15T13:35:13Z</time>
      </trkpt>
      <trkpt lat="49.30576" lon="3.28693">
        <ele>142.89</ele>
        <time>2012-09-15T13:35:22Z</time>
      </trkpt>
      <trkpt lat="49.30557" lon="3.28643">
        <ele>143.37</ele>
        <time>2012-09-15T13:35:32Z</time>
      </trkpt>
      <trkpt lat="49.30543" lon="3.28597">
        <ele>144.34</ele>
        <time>2012-09-15T13:35:45Z</time>
      </trkpt>
      <trkpt lat="49.30538" lon="3.28581">
        <ele>144.34</ele>
        <time>2012-09-15T13:35:50Z</time>
      </trkpt>
      <trkpt lat="49.30537" lon="3.28579">
        <ele>144.34</ele>
        <time>2012-09-15T13:35:51Z</time>
      </trkpt>
      <trkpt lat="49.30536" lon="3.28577">
        <ele>144.34</ele>
        <time>2012-09-15T13:35:52Z</time>
      </trkpt>
      <trkpt lat="49.30535" lon="3.28574">
        <ele>144.34</ele>
        <time>2012-09-15T13:35:53Z</time>
      </trkpt>
      <trkpt lat="49.30534" lon="3.28571">
        <ele>144.34</ele>
        <time>2012-09-15T13:35:54Z</time>
      </trkpt>
      <trkpt lat="49.30534" lon="3.28568">
        <ele>144.34</ele>
        <time>2012-09-15T13:35:55Z</time>
      </trkpt>
      <trkpt lat="49.30533" lon="3.28566">
        <ele>144.34</ele>
        <time>2012-09-15T13:35:56Z</time>
      </trkpt>
      <trkpt lat="49.30532" lon="3.28563">
        <ele>144.34</ele>
        <time>2012-09-15T13:35:57Z</time>
      </trkpt>
      <trkpt lat="49.30531" lon="3.2856">
        <ele>144.82</ele>
        <time>2012-09-15T13:35:58Z</time>
      </trkpt>
      <trkpt lat="49.30542" lon="3.28525">
        <ele>146.26</ele>
        <time>2012-09-15T13:36:08Z</time>
      </trkpt>
      <trkpt lat="49.30554" lon="3.2851">
        <ele>146.74</ele>
        <time>2012-09-15T13:36:12Z</time>
      </trkpt>
      <trkpt lat="49.30565" lon="3.28498">
        <ele>146.74</ele>
        <time>2012-09-15T13:36:15Z</time>
      </trkpt>
      <trkpt lat="49.30628" lon="3.28409">
        <ele>146.74</ele>
        <time>2012-09-15T13:36:30Z</time>
      </trkpt>
      <trkpt lat="49.30641" lon="3.28388">
        <ele>146.74</ele>
        <time>2012-09-15T13:36:33Z</time>
      </trkpt>
      <trkpt lat="49.30646" lon="3.28382">
        <ele>146.26</ele>
        <time>2012-09-15T13:36:34Z</time>
      </trkpt>
      <trkpt lat="49.30682" lon="3.28325">
        <ele>146.26</ele>
        <time>2012-09-15T13:36:43Z</time>
      </trkpt>
      <trkpt lat="49.30686" lon="3.28319">
        <ele>146.26</ele>
        <time>2012-09-15T13:36:44Z</time>
      </trkpt>
      <trkpt lat="49.3069" lon="3.28313">
        <ele>146.26</ele>
        <time>2012-09-15T13:36:45Z</time>
      </trkpt>
      <trkpt lat="49.30731" lon="3.28252">
        <ele>146.74</ele>
        <time>2012-09-15T13:36:56Z</time>
      </trkpt>
      <trkpt lat="49.3078" lon="3.28178">
        <ele>147.7</ele>
        <time>2012-09-15T13:37:09Z</time>
      </trkpt>
      <trkpt lat="49.30825" lon="3.28113">
        <ele>149.62</ele>
        <time>2012-09-15T13:37:21Z</time>
      </trkpt>
      <trkpt lat="49.30839" lon="3.28091">
        <ele>150.58</ele>
        <time>2012-09-15T13:37:25Z</time>
      </trkpt>
      <trkpt lat="49.30874" lon="3.28038">
        <ele>151.54</ele>
        <time>2012-09-15T13:37:34Z</time>
      </trkpt>
      <trkpt lat="49.30878" lon="3.28032">
        <ele>151.54</ele>
        <time>2012-09-15T13:37:35Z</time>
      </trkpt>
      <trkpt lat="49.30882" lon="3.28026">
        <ele>151.54</ele>
        <time>2012-09-15T13:37:36Z</time>
      </trkpt>
      <trkpt lat="49.30886" lon="3.2802">
        <ele>151.54</ele>
        <time>2012-09-15T13:37:37Z</time>
      </trkpt>
      <trkpt lat="49.30891" lon="3.28014">
        <ele>151.54</ele>
        <time>2012-09-15T13:37:38Z</time>
      </trkpt>
      <trkpt lat="49.30943" lon="3.27942">
        <ele>152.51</ele>
        <time>2012-09-15T13:37:50Z</time>
      </trkpt>
      <trkpt lat="49.30996" lon="3.27868">
        <ele>153.47</ele>
        <time>2012-09-15T13:38:03Z</time>
      </trkpt>
      <trkpt lat="49.31041" lon="3.2781">
        <ele>152.51</ele>
        <time>2012-09-15T13:38:15Z</time>
      </trkpt>
      <trkpt lat="49.31054" lon="3.27794">
        <ele>152.51</ele>
        <time>2012-09-15T13:38:19Z</time>
      </trkpt>
      <trkpt lat="49.311" lon="3.27739">
        <ele>152.99</ele>
        <time>2012-09-15T13:38:31Z</time>
      </trkpt>
      <trkpt lat="49.31129" lon="3.27703">
        <ele>152.99</ele>
        <time>2012-09-15T13:38:38Z</time>
      </trkpt>
      <trkpt lat="49.3118" lon="3.27639">
        <ele>152.03</ele>
        <time>2012-09-15T13:38:49Z</time>
      </trkpt>
      <trkpt lat="49.31234" lon="3.27571">
        <ele>151.06</ele>
        <time>2012-09-15T13:39:00Z</time>
      </trkpt>
      <trkpt lat="49.31238" lon="3.27565">
        <ele>150.58</ele>
        <time>2012-09-15T13:39:01Z</time>
      </trkpt>
      <trkpt lat="49.31262" lon="3.27534">
        <ele>150.58</ele>
        <time>2012-09-15T13:39:06Z</time>
      </trkpt>
      <trkpt lat="49.31267" lon="3.27528">
        <ele>150.58</ele>
        <time>2012-09-15T13:39:07Z</time>
      </trkpt>
      <trkpt lat="49.31285" lon="3.27504">
        <ele>150.1</ele>
        <time>2012-09-15T13:39:11Z</time>
      </trkpt>
      <trkpt lat="49.31336" lon="3.27443">
        <ele>149.62</ele>
        <time>2012-09-15T13:39:22Z</time>
      </trkpt>
      <trkpt lat="49.3134" lon="3.27437">
        <ele>149.62</ele>
        <time>2012-09-15T13:39:23Z</time>
      </trkpt>
      <trkpt lat="49.31345" lon="3.27432">
        <ele>149.62</ele>
        <time>2012-09-15T13:39:24Z</time>
      </trkpt>
      <trkpt lat="49.31394" lon="3.27371">
        <ele>149.62</ele>
        <time>2012-09-15T13:39:35Z</time>
      </trkpt>
      <trkpt lat="49.31451" lon="3.27304">
        <ele>148.66</ele>
        <time>2012-09-15T13:39:49Z</time>
      </trkpt>
      <trkpt lat="49.315" lon="3.27241">
        <ele>148.18</ele>
        <time>2012-09-15T13:40:00Z</time>
      </trkpt>
      <trkpt lat="49.3155" lon="3.27178">
        <ele>147.22</ele>
        <time>2012-09-15T13:40:10Z</time>
      </trkpt>
      <trkpt lat="49.31555" lon="3.27171">
        <ele>147.22</ele>
        <time>2012-09-15T13:40:11Z</time>
      </trkpt>
      <trkpt lat="49.31601" lon="3.27111">
        <ele>146.26</ele>
        <time>2012-09-15T13:40:21Z</time>
      </trkpt>
      <trkpt lat="49.3161" lon="3.27101">
        <ele>146.26</ele>
        <time>2012-09-15T13:40:23Z</time>
      </trkpt>
      <trkpt lat="49.31615" lon="3.27096">
        <ele>146.26</ele>
        <time>2012-09-15T13:40:24Z</time>
      </trkpt>
      <trkpt lat="49.31664" lon="3.27034">
        <ele>145.3</ele>
        <time>2012-09-15T13:40:37Z</time>
      </trkpt>
      <trkpt lat="49.31679" lon="3.27013">
        <ele>145.3</ele>
        <time>2012-09-15T13:40:41Z</time>
      </trkpt>
      <trkpt lat="49.31683" lon="3.27008">
        <ele>145.3</ele>
        <time>2012-09-15T13:40:42Z</time>
      </trkpt>
      <trkpt lat="49.31708" lon="3.2698">
        <ele>145.3</ele>
        <time>2012-09-15T13:40:48Z</time>
      </trkpt>
      <trkpt lat="49.31747" lon="3.26924">
        <ele>145.78</ele>
        <time>2012-09-15T13:41:03Z</time>
      </trkpt>
      <trkpt lat="49.31752" lon="3.26913">
        <ele>145.78</ele>
        <time>2012-09-15T13:41:05Z</time>
      </trkpt>
      <trkpt lat="49.31784" lon="3.26825">
        <ele>147.22</ele>
        <time>2012-09-15T13:41:18Z</time>
      </trkpt>
      <trkpt lat="49.31823" lon="3.26724">
        <ele>149.14</ele>
        <time>2012-09-15T13:41:33Z</time>
      </trkpt>
      <trkpt lat="49.31835" lon="3.26702">
        <ele>149.62</ele>
        <time>2012-09-15T13:41:37Z</time>
      </trkpt>
      <trkpt lat="49.3186" lon="3.26656">
        <ele>151.06</ele>
        <time>2012-09-15T13:41:46Z</time>
      </trkpt>
      <trkpt lat="49.31894" lon="3.26604">
        <ele>152.03</ele>
        <time>2012-09-15T13:41:59Z</time>
      </trkpt>
      <trkpt lat="49.31899" lon="3.26584">
        <ele>152.51</ele>
        <time>2012-09-15T13:42:05Z</time>
      </trkpt>
      <trkpt lat="49.31898" lon="3.26582">
        <ele>152.99</ele>
        <time>2012-09-15T13:42:06Z</time>
      </trkpt>
      <trkpt lat="49.31896" lon="3.26581">
        <ele>152.99</ele>
        <time>2012-09-15T13:42:07Z</time>
      </trkpt>
      <trkpt lat="49.31894" lon="3.26579">
        <ele>152.99</ele>
        <time>2012-09-15T13:42:08Z</time>
      </trkpt>
      <trkpt lat="49.31892" lon="3.26579">
        <ele>153.47</ele>
        <time>2012-09-15T13:42:09Z</time>
      </trkpt>
      <trkpt lat="49.31843" lon="3.2654">
        <ele>155.39</ele>
        <time>2012-09-15T13:42:21Z</time>
      </trkpt>
      <trkpt lat="49.31798" lon="3.2651">
        <ele>158.27</ele>
        <time>2012-09-15T13:42:29Z</time>
      </trkpt>
      <trkpt lat="49.31784" lon="3.26497">
        <ele>159.24</ele>
        <time>2012-09-15T13:42:31Z</time>
      </trkpt>
      <trkpt lat="49.31778" lon="3.26494">
        <ele>159.72</ele>
        <time>2012-09-15T13:42:32Z</time>
      </trkpt>
      <trkpt lat="49.31771" lon="3.26491">
        <ele>160.2</ele>
        <time>2012-09-15T13:42:33Z</time>
      </trkpt>
      <trkpt lat="49.31765" lon="3.26491">
        <ele>160.2</ele>
        <time>2012-09-15T13:42:34Z</time>
      </trkpt>
      <trkpt lat="49.31758" lon="3.26492">
        <ele>160.68</ele>
        <time>2012-09-15T13:42:35Z</time>
      </trkpt>
      <trkpt lat="49.31752" lon="3.26492">
        <ele>161.16</ele>
        <time>2012-09-15T13:42:36Z</time>
      </trkpt>
      <trkpt lat="49.31745" lon="3.26491">
        <ele>161.16</ele>
        <time>2012-09-15T13:42:37Z</time>
      </trkpt>
      <trkpt lat="49.31739" lon="3.26489">
        <ele>161.64</ele>
        <time>2012-09-15T13:42:38Z</time>
      </trkpt>
      <trkpt lat="49.31732" lon="3.26485">
        <ele>162.12</ele>
        <time>2012-09-15T13:42:39Z</time>
      </trkpt>
      <trkpt lat="49.31725" lon="3.26481">
        <ele>162.6</ele>
        <time>2012-09-15T13:42:40Z</time>
      </trkpt>
      <trkpt lat="49.31639" lon="3.26411">
        <ele>163.56</ele>
        <time>2012-09-15T13:42:54Z</time>
      </trkpt>
      <trkpt lat="49.31582" lon="3.2636">
        <ele>161.64</ele>
        <time>2012-09-15T13:43:05Z</time>
      </trkpt>
      <trkpt lat="49.31515" lon="3.26255">
        <ele>158.75</ele>
        <time>2012-09-15T13:43:20Z</time>
      </trkpt>
      <trkpt lat="49.31477" lon="3.26159">
        <ele>157.31</ele>
        <time>2012-09-15T13:43:32Z</time>
      </trkpt>
      <trkpt lat="49.31452" lon="3.26011">
        <ele>155.39</ele>
        <time>2012-09-15T13:43:47Z</time>
      </trkpt>
      <trkpt lat="49.31448" lon="3.25876">
        <ele>154.91</ele>
        <time>2012-09-15T13:44:00Z</time>
      </trkpt>
      <trkpt lat="49.31443" lon="3.25775">
        <ele>153.95</ele>
        <time>2012-09-15T13:44:11Z</time>
      </trkpt>
      <trkpt lat="49.31437" lon="3.25716">
        <ele>154.43</ele>
        <time>2012-09-15T13:44:18Z</time>
      </trkpt>
      <trkpt lat="49.31435" lon="3.25708">
        <ele>154.43</ele>
        <time>2012-09-15T13:44:19Z</time>
      </trkpt>
      <trkpt lat="49.31433" lon="3.257">
        <ele>154.43</ele>
        <time>2012-09-15T13:44:20Z</time>
      </trkpt>
      <trkpt lat="49.3143" lon="3.25693">
        <ele>154.43</ele>
        <time>2012-09-15T13:44:21Z</time>
      </trkpt>
      <trkpt lat="49.31426" lon="3.25686">
        <ele>153.95</ele>
        <time>2012-09-15T13:44:22Z</time>
      </trkpt>
      <trkpt lat="49.31372" lon="3.25607">
        <ele>153.47</ele>
        <time>2012-09-15T13:44:35Z</time>
      </trkpt>
      <trkpt lat="49.3131" lon="3.25522">
        <ele>152.51</ele>
        <time>2012-09-15T13:44:53Z</time>
      </trkpt>
      <trkpt lat="49.31255" lon="3.25449">
        <ele>152.03</ele>
        <time>2012-09-15T13:45:09Z</time>
      </trkpt>
      <trkpt lat="49.31196" lon="3.25368">
        <ele>151.06</ele>
        <time>2012-09-15T13:45:24Z</time>
      </trkpt>
      <trkpt lat="49.31132" lon="3.25275">
        <ele>150.1</ele>
        <time>2012-09-15T13:45:38Z</time>
      </trkpt>
      <trkpt lat="49.31054" lon="3.25181">
        <ele>149.14</ele>
        <time>2012-09-15T13:45:51Z</time>
      </trkpt>
      <trkpt lat="49.30983" lon="3.25092">
        <ele>149.62</ele>
        <time>2012-09-15T13:46:04Z</time>
      </trkpt>
      <trkpt lat="49.30919" lon="3.25015">
        <ele>151.54</ele>
        <time>2012-09-15T13:46:18Z</time>
      </trkpt>
      <trkpt lat="49.30845" lon="3.24924">
        <ele>150.58</ele>
        <time>2012-09-15T13:46:36Z</time>
      </trkpt>
      <trkpt lat="49.30764" lon="3.24823">
        <ele>143.37</ele>
        <time>2012-09-15T13:46:52Z</time>
      </trkpt>
      <trkpt lat="49.30689" lon="3.24735">
        <ele>140.49</ele>
        <time>2012-09-15T13:47:07Z</time>
      </trkpt>
      <trkpt lat="49.30639" lon="3.24675">
        <ele>141.93</ele>
        <time>2012-09-15T13:47:19Z</time>
      </trkpt>
      <trkpt lat="49.30588" lon="3.24613">
        <ele>143.85</ele>
        <time>2012-09-15T13:47:32Z</time>
      </trkpt>
      <trkpt lat="49.30538" lon="3.24551">
        <ele>146.74</ele>
        <time>2012-09-15T13:47:44Z</time>
      </trkpt>
      <trkpt lat="49.30471" lon="3.24468">
        <ele>150.58</ele>
        <time>2012-09-15T13:48:01Z</time>
      </trkpt>
      <trkpt lat="49.3044" lon="3.2443">
        <ele>149.62</ele>
        <time>2012-09-15T13:48:13Z</time>
      </trkpt>
      <trkpt lat="49.30406" lon="3.2439">
        <ele>149.14</ele>
        <time>2012-09-15T13:48:23Z</time>
      </trkpt>
      <trkpt lat="49.30352" lon="3.24325">
        <ele>152.03</ele>
        <time>2012-09-15T13:48:37Z</time>
      </trkpt>
      <trkpt lat="49.30303" lon="3.24283">
        <ele>152.99</ele>
        <time>2012-09-15T13:48:52Z</time>
      </trkpt>
      <trkpt lat="49.30242" lon="3.24239">
        <ele>152.03</ele>
        <time>2012-09-15T13:49:08Z</time>
      </trkpt>
      <trkpt lat="49.30169" lon="3.24203">
        <ele>149.62</ele>
        <time>2012-09-15T13:49:23Z</time>
      </trkpt>
      <trkpt lat="49.30085" lon="3.24165">
        <ele>146.74</ele>
        <time>2012-09-15T13:49:36Z</time>
      </trkpt>
      <trkpt lat="49.29966" lon="3.24112">
        <ele>142.89</ele>
        <time>2012-09-15T13:49:54Z</time>
      </trkpt>
      <trkpt lat="49.29886" lon="3.24075">
        <ele>141.45</ele>
        <time>2012-09-15T13:50:05Z</time>
      </trkpt>
      <trkpt lat="49.2977" lon="3.24011">
        <ele>137.61</ele>
        <time>2012-09-15T13:50:21Z</time>
      </trkpt>
      <trkpt lat="49.29758" lon="3.24005">
        <ele>137.13</ele>
        <time>2012-09-15T13:50:23Z</time>
      </trkpt>
      <trkpt lat="49.29747" lon="3.24003">
        <ele>137.13</ele>
        <time>2012-09-15T13:50:25Z</time>
      </trkpt>
      <trkpt lat="49.29744" lon="3.24008">
        <ele>136.64</ele>
        <time>2012-09-15T13:50:26Z</time>
      </trkpt>
      <trkpt lat="49.29743" lon="3.24015">
        <ele>136.64</ele>
        <time>2012-09-15T13:50:27Z</time>
      </trkpt>
      <trkpt lat="49.29742" lon="3.24021">
        <ele>136.16</ele>
        <time>2012-09-15T13:50:28Z</time>
      </trkpt>
      <trkpt lat="49.29741" lon="3.24026">
        <ele>136.16</ele>
        <time>2012-09-15T13:50:29Z</time>
      </trkpt>
      <trkpt lat="49.29739" lon="3.24032">
        <ele>136.16</ele>
        <time>2012-09-15T13:50:30Z</time>
      </trkpt>
      <trkpt lat="49.29737" lon="3.24036">
        <ele>136.16</ele>
        <time>2012-09-15T13:50:31Z</time>
      </trkpt>
      <trkpt lat="49.29735" lon="3.24041">
        <ele>135.68</ele>
        <time>2012-09-15T13:50:32Z</time>
      </trkpt>
      <trkpt lat="49.29733" lon="3.24046">
        <ele>135.68</ele>
        <time>2012-09-15T13:50:33Z</time>
      </trkpt>
      <trkpt lat="49.29716" lon="3.24097">
        <ele>134.72</ele>
        <time>2012-09-15T13:50:42Z</time>
      </trkpt>
      <trkpt lat="49.29704" lon="3.2413">
        <ele>132.8</ele>
        <time>2012-09-15T13:50:53Z</time>
      </trkpt>
      <trkpt lat="49.29703" lon="3.24133">
        <ele>132.32</ele>
        <time>2012-09-15T13:50:54Z</time>
      </trkpt>
      <trkpt lat="49.29704" lon="3.24135">
        <ele>132.32</ele>
        <time>2012-09-15T13:50:55Z</time>
      </trkpt>
      <trkpt lat="49.29706" lon="3.24133">
        <ele>131.84</ele>
        <time>2012-09-15T13:50:56Z</time>
      </trkpt>
      <trkpt lat="49.29707" lon="3.2413">
        <ele>131.84</ele>
        <time>2012-09-15T13:50:57Z</time>
      </trkpt>
      <trkpt lat="49.29708" lon="3.24128">
        <ele>131.84</ele>
        <time>2012-09-15T13:50:58Z</time>
      </trkpt>
      <trkpt lat="49.29708" lon="3.24125">
        <ele>131.84</ele>
        <time>2012-09-15T13:50:59Z</time>
      </trkpt>
      <trkpt lat="49.29708" lon="3.24123">
        <ele>132.32</ele>
        <time>2012-09-15T13:51:00Z</time>
      </trkpt>
      <trkpt lat="49.29709" lon="3.24121">
        <ele>132.32</ele>
        <time>2012-09-15T13:51:01Z</time>
      </trkpt>
      <trkpt lat="49.2971" lon="3.24118">
        <ele>132.32</ele>
        <time>2012-09-15T13:51:02Z</time>
      </trkpt>
      <trkpt lat="49.2971" lon="3.24116">
        <ele>132.32</ele>
        <time>2012-09-15T13:51:03Z</time>
      </trkpt>
      <trkpt lat="49.29731" lon="3.24073">
        <ele>132.8</ele>
        <time>2012-09-15T13:51:17Z</time>
      </trkpt>
      <trkpt lat="49.29732" lon="3.24068">
        <ele>132.8</ele>
        <time>2012-09-15T13:51:18Z</time>
      </trkpt>
      <trkpt lat="49.29747" lon="3.24024">
        <ele>133.28</ele>
        <time>2012-09-15T13:51:25Z</time>
      </trkpt>
      <trkpt lat="49.29748" lon="3.24017">
        <ele>133.28</ele>
        <time>2012-09-15T13:51:26Z</time>
      </trkpt>
      <trkpt lat="49.29748" lon="3.24009">
        <ele>133.28</ele>
        <time>2012-09-15T13:51:27Z</time>
      </trkpt>
      <trkpt lat="49.29746" lon="3.24003">
        <ele>133.28</ele>
        <time>2012-09-15T13:51:28Z</time>
      </trkpt>
      <trkpt lat="49.29744" lon="3.23997">
        <ele>133.28</ele>
        <time>2012-09-15T13:51:29Z</time>
      </trkpt>
      <trkpt lat="49.29741" lon="3.23993">
        <ele>133.76</ele>
        <time>2012-09-15T13:51:30Z</time>
      </trkpt>
      <trkpt lat="49.29737" lon="3.23989">
        <ele>133.28</ele>
        <time>2012-09-15T13:51:31Z</time>
      </trkpt>
      <trkpt lat="49.29733" lon="3.23986">
        <ele>133.28</ele>
        <time>2012-09-15T13:51:32Z</time>
      </trkpt>
      <trkpt lat="49.29728" lon="3.23983">
        <ele>133.28</ele>
        <time>2012-09-15T13:51:33Z</time>
      </trkpt>
      <trkpt lat="49.29634" lon="3.23929">
        <ele>135.2</ele>
        <time>2012-09-15T13:51:50Z</time>
      </trkpt>
      <trkpt lat="49.29609" lon="3.23912">
        <ele>136.64</ele>
        <time>2012-09-15T13:51:55Z</time>
      </trkpt>
      <trkpt lat="49.29604" lon="3.23908">
        <ele>137.13</ele>
        <time>2012-09-15T13:51:56Z</time>
      </trkpt>
      <trkpt lat="49.29551" lon="3.23861">
        <ele>140.49</ele>
        <time>2012-09-15T13:52:07Z</time>
      </trkpt>
      <trkpt lat="49.29546" lon="3.23856">
        <ele>140.97</ele>
        <time>2012-09-15T13:52:08Z</time>
      </trkpt>
      <trkpt lat="49.29541" lon="3.23851">
        <ele>141.45</ele>
        <time>2012-09-15T13:52:09Z</time>
      </trkpt>
      <trkpt lat="49.29537" lon="3.23847">
        <ele>141.45</ele>
        <time>2012-09-15T13:52:10Z</time>
      </trkpt>
      <trkpt lat="49.29469" lon="3.23778">
        <ele>145.3</ele>
        <time>2012-09-15T13:52:25Z</time>
      </trkpt>
      <trkpt lat="49.29456" lon="3.2377">
        <ele>146.26</ele>
        <time>2012-09-15T13:52:28Z</time>
      </trkpt>
      <trkpt lat="49.29399" lon="3.23743">
        <ele>146.74</ele>
        <time>2012-09-15T13:52:40Z</time>
      </trkpt>
      <trkpt lat="49.29312" lon="3.23703">
        <ele>143.85</ele>
        <time>2012-09-15T13:52:55Z</time>
      </trkpt>
      <trkpt lat="49.29251" lon="3.23678">
        <ele>143.37</ele>
        <time>2012-09-15T13:53:05Z</time>
      </trkpt>
      <trkpt lat="49.29186" lon="3.23656">
        <ele>143.37</ele>
        <time>2012-09-15T13:53:16Z</time>
      </trkpt>
      <trkpt lat="49.29106" lon="3.23662">
        <ele>140.49</ele>
        <time>2012-09-15T13:53:29Z</time>
      </trkpt>
      <trkpt lat="49.29023" lon="3.2366">
        <ele>137.13</ele>
        <time>2012-09-15T13:53:40Z</time>
      </trkpt>
      <trkpt lat="49.28935" lon="3.23598">
        <ele>132.8</ele>
        <time>2012-09-15T13:53:52Z</time>
      </trkpt>
      <trkpt lat="49.28853" lon="3.23533">
        <ele>129.43</ele>
        <time>2012-09-15T13:54:05Z</time>
      </trkpt>
      <trkpt lat="49.28784" lon="3.2349">
        <ele>129.92</ele>
        <time>2012-09-15T13:54:19Z</time>
      </trkpt>
      <trkpt lat="49.28732" lon="3.23461">
        <ele>132.32</ele>
        <time>2012-09-15T13:54:31Z</time>
      </trkpt>
      <trkpt lat="49.28699" lon="3.23441">
        <ele>134.24</ele>
        <time>2012-09-15T13:54:39Z</time>
      </trkpt>
      <trkpt lat="49.28695" lon="3.23438">
        <ele>134.72</ele>
        <time>2012-09-15T13:54:40Z</time>
      </trkpt>
      <trkpt lat="49.28686" lon="3.23433">
        <ele>135.68</ele>
        <time>2012-09-15T13:54:42Z</time>
      </trkpt>
      <trkpt lat="49.28682" lon="3.23431">
        <ele>136.16</ele>
        <time>2012-09-15T13:54:43Z</time>
      </trkpt>
      <trkpt lat="49.28639" lon="3.23407">
        <ele>136.16</ele>
        <time>2012-09-15T13:54:53Z</time>
      </trkpt>
      <trkpt lat="49.28596" lon="3.23382">
        <ele>137.61</ele>
        <time>2012-09-15T13:55:05Z</time>
      </trkpt>
      <trkpt lat="49.28556" lon="3.23356">
        <ele>138.57</ele>
        <time>2012-09-15T13:55:16Z</time>
      </trkpt>
      <trkpt lat="49.28551" lon="3.23353">
        <ele>138.57</ele>
        <time>2012-09-15T13:55:17Z</time>
      </trkpt>
      <trkpt lat="49.28476" lon="3.23309">
        <ele>138.57</ele>
        <time>2012-09-15T13:55:32Z</time>
      </trkpt>
      <trkpt lat="49.28405" lon="3.23275">
        <ele>135.68</ele>
        <time>2012-09-15T13:55:47Z</time>
      </trkpt>
      <trkpt lat="49.28395" lon="3.2327">
        <ele>134.72</ele>
        <time>2012-09-15T13:55:49Z</time>
      </trkpt>
      <trkpt lat="49.28386" lon="3.23266">
        <ele>134.24</ele>
        <time>2012-09-15T13:55:51Z</time>
      </trkpt>
      <trkpt lat="49.28369" lon="3.23256">
        <ele>133.28</ele>
        <time>2012-09-15T13:55:55Z</time>
      </trkpt>
      <trkpt lat="49.28356" lon="3.2325">
        <ele>132.8</ele>
        <time>2012-09-15T13:55:58Z</time>
      </trkpt>
      <trkpt lat="49.28352" lon="3.23248">
        <ele>132.8</ele>
        <time>2012-09-15T13:55:59Z</time>
      </trkpt>
      <trkpt lat="49.28348" lon="3.23246">
        <ele>132.8</ele>
        <time>2012-09-15T13:56:00Z</time>
      </trkpt>
      <trkpt lat="49.28344" lon="3.23244">
        <ele>132.32</ele>
        <time>2012-09-15T13:56:01Z</time>
      </trkpt>
      <trkpt lat="49.2834" lon="3.23242">
        <ele>132.32</ele>
        <time>2012-09-15T13:56:02Z</time>
      </trkpt>
      <trkpt lat="49.28336" lon="3.23241">
        <ele>132.32</ele>
        <time>2012-09-15T13:56:03Z</time>
      </trkpt>
      <trkpt lat="49.2825" lon="3.23199">
        <ele>128.47</ele>
        <time>2012-09-15T13:56:22Z</time>
      </trkpt>
      <trkpt lat="49.28231" lon="3.23191">
        <ele>127.99</ele>
        <time>2012-09-15T13:56:26Z</time>
      </trkpt>
      <trkpt lat="49.28226" lon="3.23188">
        <ele>127.51</ele>
        <time>2012-09-15T13:56:27Z</time>
      </trkpt>
      <trkpt lat="49.28221" lon="3.23186">
        <ele>127.51</ele>
        <time>2012-09-15T13:56:28Z</time>
      </trkpt>
      <trkpt lat="49.28217" lon="3.23182">
        <ele>127.51</ele>
        <time>2012-09-15T13:56:29Z</time>
      </trkpt>
      <trkpt lat="49.28213" lon="3.23178">
        <ele>127.03</ele>
        <time>2012-09-15T13:56:30Z</time>
      </trkpt>
      <trkpt lat="49.28211" lon="3.23172">
        <ele>127.03</ele>
        <time>2012-09-15T13:56:31Z</time>
      </trkpt>
      <trkpt lat="49.2821" lon="3.23166">
        <ele>127.03</ele>
        <time>2012-09-15T13:56:32Z</time>
      </trkpt>
      <trkpt lat="49.28211" lon="3.2316">
        <ele>126.55</ele>
        <time>2012-09-15T13:56:33Z</time>
      </trkpt>
      <trkpt lat="49.28214" lon="3.23156">
        <ele>126.55</ele>
        <time>2012-09-15T13:56:34Z</time>
      </trkpt>
      <trkpt lat="49.28218" lon="3.23154">
        <ele>126.55</ele>
        <time>2012-09-15T13:56:35Z</time>
      </trkpt>
      <trkpt lat="49.28223" lon="3.23152">
        <ele>126.07</ele>
        <time>2012-09-15T13:56:36Z</time>
      </trkpt>
      <trkpt lat="49.28227" lon="3.2315">
        <ele>126.07</ele>
        <time>2012-09-15T13:56:37Z</time>
      </trkpt>
      <trkpt lat="49.28231" lon="3.23149">
        <ele>126.07</ele>
        <time>2012-09-15T13:56:38Z</time>
      </trkpt>
      <trkpt lat="49.28234" lon="3.23147">
        <ele>126.07</ele>
        <time>2012-09-15T13:56:39Z</time>
      </trkpt>
      <trkpt lat="49.28242" lon="3.23142">
        <ele>127.03</ele>
        <time>2012-09-15T13:56:50Z</time>
      </trkpt>
      <trkpt lat="49.2824" lon="3.23143">
        <ele>127.03</ele>
        <time>2012-09-15T13:56:52Z</time>
      </trkpt>
      <trkpt lat="49.28212" lon="3.23161">
        <ele>125.59</ele>
        <time>2012-09-15T13:57:01Z</time>
      </trkpt>
      <trkpt lat="49.28208" lon="3.23164">
        <ele>125.59</ele>
        <time>2012-09-15T13:57:02Z</time>
      </trkpt>
      <trkpt lat="49.28203" lon="3.23166">
        <ele>125.11</ele>
        <time>2012-09-15T13:57:03Z</time>
      </trkpt>
      <trkpt lat="49.28199" lon="3.23167">
        <ele>125.11</ele>
        <time>2012-09-15T13:57:04Z</time>
      </trkpt>
      <trkpt lat="49.28194" lon="3.23168">
        <ele>125.11</ele>
        <time>2012-09-15T13:57:05Z</time>
      </trkpt>
      <trkpt lat="49.28189" lon="3.23168">
        <ele>125.11</ele>
        <time>2012-09-15T13:57:06Z</time>
      </trkpt>
      <trkpt lat="49.28121" lon="3.23154">
        <ele>122.71</ele>
        <time>2012-09-15T13:57:18Z</time>
      </trkpt>
      <trkpt lat="49.28115" lon="3.2315">
        <ele>122.71</ele>
        <time>2012-09-15T13:57:19Z</time>
      </trkpt>
      <trkpt lat="49.28109" lon="3.23144">
        <ele>122.22</ele>
        <time>2012-09-15T13:57:20Z</time>
      </trkpt>
      <trkpt lat="49.28103" lon="3.23138">
        <ele>122.22</ele>
        <time>2012-09-15T13:57:21Z</time>
      </trkpt>
      <trkpt lat="49.28097" lon="3.23132">
        <ele>121.74</ele>
        <time>2012-09-15T13:57:22Z</time>
      </trkpt>
      <trkpt lat="49.28091" lon="3.23128">
        <ele>121.74</ele>
        <time>2012-09-15T13:57:23Z</time>
      </trkpt>
      <trkpt lat="49.28085" lon="3.23124">
        <ele>121.26</ele>
        <time>2012-09-15T13:57:24Z</time>
      </trkpt>
      <trkpt lat="49.28079" lon="3.23117">
        <ele>121.26</ele>
        <time>2012-09-15T13:57:25Z</time>
      </trkpt>
      <trkpt lat="49.28073" lon="3.2311">
        <ele>120.78</ele>
        <time>2012-09-15T13:57:26Z</time>
      </trkpt>
      <trkpt lat="49.28002" lon="3.23019">
        <ele>117.9</ele>
        <time>2012-09-15T13:57:37Z</time>
      </trkpt>
      <trkpt lat="49.27944" lon="3.22941">
        <ele>114.53</ele>
        <time>2012-09-15T13:57:45Z</time>
      </trkpt>
      <trkpt lat="49.27858" lon="3.22843">
        <ele>109.73</ele>
        <time>2012-09-15T13:57:56Z</time>
      </trkpt>
      <trkpt lat="49.2784" lon="3.2283">
        <ele>109.25</ele>
        <time>2012-09-15T13:57:58Z</time>
      </trkpt>
      <trkpt lat="49.27801" lon="3.22812">
        <ele>107.81</ele>
        <time>2012-09-15T13:58:02Z</time>
      </trkpt>
      <trkpt lat="49.27791" lon="3.2281">
        <ele>107.32</ele>
        <time>2012-09-15T13:58:03Z</time>
      </trkpt>
      <trkpt lat="49.27738" lon="3.22806">
        <ele>105.88</ele>
        <time>2012-09-15T13:58:08Z</time>
      </trkpt>
      <trkpt lat="49.27728" lon="3.22802">
        <ele>105.4</ele>
        <time>2012-09-15T13:58:09Z</time>
      </trkpt>
      <trkpt lat="49.27708" lon="3.22794">
        <ele>104.44</ele>
        <time>2012-09-15T13:58:11Z</time>
      </trkpt>
      <trkpt lat="49.2769" lon="3.22783">
        <ele>103.48</ele>
        <time>2012-09-15T13:58:13Z</time>
      </trkpt>
      <trkpt lat="49.27673" lon="3.22768">
        <ele>103</ele>
        <time>2012-09-15T13:58:15Z</time>
      </trkpt>
      <trkpt lat="49.27592" lon="3.22679">
        <ele>100.6</ele>
        <time>2012-09-15T13:58:27Z</time>
      </trkpt>
      <trkpt lat="49.2754" lon="3.2257">
        <ele>100.11</ele>
        <time>2012-09-15T13:58:37Z</time>
      </trkpt>
      <trkpt lat="49.27528" lon="3.2251">
        <ele>100.11</ele>
        <time>2012-09-15T13:58:41Z</time>
      </trkpt>
      <trkpt lat="49.27528" lon="3.224">
        <ele>100.11</ele>
        <time>2012-09-15T13:58:47Z</time>
      </trkpt>
      <trkpt lat="49.27531" lon="3.22346">
        <ele>99.63</ele>
        <time>2012-09-15T13:58:50Z</time>
      </trkpt>
      <trkpt lat="49.27538" lon="3.22255">
        <ele>99.15</ele>
        <time>2012-09-15T13:58:55Z</time>
      </trkpt>
      <trkpt lat="49.27535" lon="3.22237">
        <ele>98.67</ele>
        <time>2012-09-15T13:58:56Z</time>
      </trkpt>
      <trkpt lat="49.27529" lon="3.22224">
        <ele>98.19</ele>
        <time>2012-09-15T13:58:57Z</time>
      </trkpt>
      <trkpt lat="49.2752" lon="3.22214">
        <ele>98.19</ele>
        <time>2012-09-15T13:58:58Z</time>
      </trkpt>
      <trkpt lat="49.27509" lon="3.22206">
        <ele>97.71</ele>
        <time>2012-09-15T13:58:59Z</time>
      </trkpt>
      <trkpt lat="49.27499" lon="3.222">
        <ele>97.23</ele>
        <time>2012-09-15T13:59:00Z</time>
      </trkpt>
      <trkpt lat="49.27434" lon="3.22166">
        <ele>96.75</ele>
        <time>2012-09-15T13:59:08Z</time>
      </trkpt>
      <trkpt lat="49.27395" lon="3.22142">
        <ele>98.19</ele>
        <time>2012-09-15T13:59:19Z</time>
      </trkpt>
      <trkpt lat="49.2739" lon="3.22141">
        <ele>94.83</ele>
        <time>2012-09-15T13:59:30Z</time>
      </trkpt>
      <trkpt lat="49.2737" lon="3.22095">
        <ele>94.35</ele>
        <time>2012-09-15T13:59:42Z</time>
      </trkpt>
      <trkpt lat="49.27344" lon="3.2203">
        <ele>96.27</ele>
        <time>2012-09-15T13:59:58Z</time>
      </trkpt>
      <trkpt lat="49.27331" lon="3.22011">
        <ele>95.79</ele>
        <time>2012-09-15T14:00:05Z</time>
      </trkpt>
      <trkpt lat="49.27324" lon="3.22006">
        <ele>96.75</ele>
        <time>2012-09-15T14:00:09Z</time>
      </trkpt>
      <trkpt lat="49.27319" lon="3.22007">
        <ele>97.23</ele>
        <time>2012-09-15T14:00:11Z</time>
      </trkpt>
      <trkpt lat="49.27313" lon="3.22008">
        <ele>88.58</ele>
        <time>2012-09-15T14:00:26Z</time>
      </trkpt>
      <trkpt lat="49.27314" lon="3.22008">
        <ele>88.58</ele>
        <time>2012-09-15T14:00:58Z</time>
      </trkpt>
      <trkpt lat="49.27314" lon="3.22008">
        <ele>86.66</ele>
        <time>2012-09-15T14:01:30Z</time>
      </trkpt>
      <trkpt lat="49.27314" lon="3.22008">
        <ele>85.69</ele>
        <time>2012-09-15T14:01:58Z</time>
      </trkpt>
      <trkpt lat="49.27313" lon="3.22009">
        <ele>85.21</ele>
        <time>2012-09-15T14:02:20Z</time>
      </trkpt>
      <trkpt lat="49.27312" lon="3.22011">
        <ele>85.21</ele>
        <time>2012-09-15T14:02:26Z</time>
      </trkpt>
      <trkpt lat="49.27311" lon="3.22029">
        <ele>82.81</ele>
        <time>2012-09-15T14:02:39Z</time>
      </trkpt>
      <trkpt lat="49.27312" lon="3.22029">
        <ele>81.37</ele>
        <time>2012-09-15T14:03:13Z</time>
      </trkpt>
      <trkpt lat="49.27313" lon="3.22029">
        <ele>81.85</ele>
        <time>2012-09-15T14:03:35Z</time>
      </trkpt>
      <trkpt lat="49.27312" lon="3.22023">
        <ele>82.33</ele>
        <time>2012-09-15T14:03:40Z</time>
      </trkpt>
      <trkpt lat="49.27312" lon="3.22011">
        <ele>83.77</ele>
        <time>2012-09-15T14:03:50Z</time>
      </trkpt>
      <trkpt lat="49.27313" lon="3.2201">
        <ele>84.25</ele>
        <time>2012-09-15T14:04:11Z</time>
      </trkpt>
      <trkpt lat="49.27313" lon="3.22009">
        <ele>84.73</ele>
        <time>2012-09-15T14:04:12Z</time>
      </trkpt>
      <trkpt lat="49.27324" lon="3.21981">
        <ele>87.62</ele>
        <time>2012-09-15T14:04:27Z</time>
      </trkpt>
      <trkpt lat="49.27349" lon="3.21939">
        <ele>90.5</ele>
        <time>2012-09-15T14:04:40Z</time>
      </trkpt>
      <trkpt lat="49.27375" lon="3.21874">
        <ele>93.39</ele>
        <time>2012-09-15T14:04:55Z</time>
      </trkpt>
      <trkpt lat="49.27398" lon="3.21811">
        <ele>86.66</ele>
        <time>2012-09-15T14:05:08Z</time>
      </trkpt>
      <trkpt lat="49.27407" lon="3.21784">
        <ele>85.21</ele>
        <time>2012-09-15T14:05:13Z</time>
      </trkpt>
      <trkpt lat="49.27407" lon="3.21777">
        <ele>85.21</ele>
        <time>2012-09-15T14:05:14Z</time>
      </trkpt>
      <trkpt lat="49.27409" lon="3.21744">
        <ele>85.21</ele>
        <time>2012-09-15T14:05:18Z</time>
      </trkpt>
      <trkpt lat="49.27408" lon="3.21633">
        <ele>85.69</ele>
        <time>2012-09-15T14:05:30Z</time>
      </trkpt>
      <trkpt lat="49.27409" lon="3.21625">
        <ele>85.69</ele>
        <time>2012-09-15T14:05:31Z</time>
      </trkpt>
      <trkpt lat="49.2741" lon="3.21617">
        <ele>85.69</ele>
        <time>2012-09-15T14:05:32Z</time>
      </trkpt>
      <trkpt lat="49.27413" lon="3.21611">
        <ele>86.18</ele>
        <time>2012-09-15T14:05:33Z</time>
      </trkpt>
      <trkpt lat="49.27427" lon="3.21606">
        <ele>86.18</ele>
        <time>2012-09-15T14:05:36Z</time>
      </trkpt>
      <trkpt lat="49.2751" lon="3.21637">
        <ele>86.66</ele>
        <time>2012-09-15T14:05:48Z</time>
      </trkpt>
      <trkpt lat="49.27524" lon="3.21641">
        <ele>86.66</ele>
        <time>2012-09-15T14:05:50Z</time>
      </trkpt>
      <trkpt lat="49.27575" lon="3.21614">
        <ele>87.14</ele>
        <time>2012-09-15T14:05:58Z</time>
      </trkpt>
      <trkpt lat="49.27584" lon="3.21599">
        <ele>87.62</ele>
        <time>2012-09-15T14:06:00Z</time>
      </trkpt>
      <trkpt lat="49.27609" lon="3.21542">
        <ele>87.62</ele>
        <time>2012-09-15T14:06:08Z</time>
      </trkpt>
      <trkpt lat="49.27616" lon="3.21523">
        <ele>88.1</ele>
        <time>2012-09-15T14:06:11Z</time>
      </trkpt>
      <trkpt lat="49.27628" lon="3.21495">
        <ele>88.58</ele>
        <time>2012-09-15T14:06:16Z</time>
      </trkpt>
      <trkpt lat="49.27652" lon="3.21459">
        <ele>88.1</ele>
        <time>2012-09-15T14:06:23Z</time>
      </trkpt>
      <trkpt lat="49.27681" lon="3.21434">
        <ele>87.62</ele>
        <time>2012-09-15T14:06:29Z</time>
      </trkpt>
      <trkpt lat="49.2772" lon="3.21425">
        <ele>87.62</ele>
        <time>2012-09-15T14:06:36Z</time>
      </trkpt>
      <trkpt lat="49.27748" lon="3.21427">
        <ele>88.1</ele>
        <time>2012-09-15T14:06:44Z</time>
      </trkpt>
      <trkpt lat="49.27746" lon="3.21429">
        <ele>88.1</ele>
        <time>2012-09-15T14:07:01Z</time>
      </trkpt>
      <trkpt lat="49.27747" lon="3.21427">
        <ele>89.06</ele>
        <time>2012-09-15T14:07:17Z</time>
      </trkpt>
      <trkpt lat="49.27747" lon="3.21424">
        <ele>90.98</ele>
        <time>2012-09-15T14:07:46Z</time>
      </trkpt>
      <trkpt lat="49.27748" lon="3.21423">
        <ele>92.42</ele>
        <time>2012-09-15T14:08:11Z</time>
      </trkpt>
      <trkpt lat="49.27748" lon="3.21423">
        <ele>92.42</ele>
        <time>2012-09-15T14:08:34Z</time>
      </trkpt>
      <trkpt lat="49.27747" lon="3.21424">
        <ele>92.9</ele>
        <time>2012-09-15T14:08:53Z</time>
      </trkpt>
      <trkpt lat="49.27748" lon="3.21426">
        <ele>92.42</ele>
        <time>2012-09-15T14:09:23Z</time>
      </trkpt>
      <trkpt lat="49.27748" lon="3.21426">
        <ele>90.98</ele>
        <time>2012-09-15T14:09:48Z</time>
      </trkpt>
      <trkpt lat="49.27748" lon="3.21426">
        <ele>91.46</ele>
        <time>2012-09-15T14:10:06Z</time>
      </trkpt>
      <trkpt lat="49.27739" lon="3.21427">
        <ele>91.46</ele>
        <time>2012-09-15T14:10:11Z</time>
      </trkpt>
      <trkpt lat="49.27721" lon="3.21424">
        <ele>90.5</ele>
        <time>2012-09-15T14:10:15Z</time>
      </trkpt>
      <trkpt lat="49.27669" lon="3.21442">
        <ele>89.54</ele>
        <time>2012-09-15T14:10:24Z</time>
      </trkpt>
      <trkpt lat="49.27617" lon="3.21515">
        <ele>89.06</ele>
        <time>2012-09-15T14:10:37Z</time>
      </trkpt>
      <trkpt lat="49.27575" lon="3.21606">
        <ele>87.14</ele>
        <time>2012-09-15T14:10:50Z</time>
      </trkpt>
      <trkpt lat="49.27562" lon="3.21627">
        <ele>86.66</ele>
        <time>2012-09-15T14:10:53Z</time>
      </trkpt>
      <trkpt lat="49.27515" lon="3.21646">
        <ele>86.18</ele>
        <time>2012-09-15T14:11:02Z</time>
      </trkpt>
      <trkpt lat="49.27422" lon="3.21612">
        <ele>86.18</ele>
        <time>2012-09-15T14:11:20Z</time>
      </trkpt>
      <trkpt lat="49.27413" lon="3.21607">
        <ele>86.66</ele>
        <time>2012-09-15T14:11:22Z</time>
      </trkpt>
      <trkpt lat="49.2741" lon="3.21602">
        <ele>87.14</ele>
        <time>2012-09-15T14:11:23Z</time>
      </trkpt>
      <trkpt lat="49.27408" lon="3.21597">
        <ele>87.14</ele>
        <time>2012-09-15T14:11:24Z</time>
      </trkpt>
      <trkpt lat="49.27406" lon="3.21592">
        <ele>87.14</ele>
        <time>2012-09-15T14:11:25Z</time>
      </trkpt>
      <trkpt lat="49.27405" lon="3.21586">
        <ele>87.14</ele>
        <time>2012-09-15T14:11:26Z</time>
      </trkpt>
      <trkpt lat="49.27399" lon="3.21552">
        <ele>87.62</ele>
        <time>2012-09-15T14:11:31Z</time>
      </trkpt>
      <trkpt lat="49.27364" lon="3.21454">
        <ele>90.5</ele>
        <time>2012-09-15T14:11:46Z</time>
      </trkpt>
      <trkpt lat="49.27328" lon="3.21346">
        <ele>95.31</ele>
        <time>2012-09-15T14:12:00Z</time>
      </trkpt>
      <trkpt lat="49.27283" lon="3.21221">
        <ele>103.48</ele>
        <time>2012-09-15T14:12:18Z</time>
      </trkpt>
      <trkpt lat="49.27261" lon="3.21142">
        <ele>107.32</ele>
        <time>2012-09-15T14:12:31Z</time>
      </trkpt>
      <trkpt lat="49.27247" lon="3.21087">
        <ele>110.69</ele>
        <time>2012-09-15T14:12:42Z</time>
      </trkpt>
      <trkpt lat="49.27229" lon="3.2103">
        <ele>113.57</ele>
        <time>2012-09-15T14:12:55Z</time>
      </trkpt>
      <trkpt lat="49.27209" lon="3.20961">
        <ele>114.53</ele>
        <time>2012-09-15T14:13:08Z</time>
      </trkpt>
      <trkpt lat="49.2719" lon="3.20908">
        <ele>113.57</ele>
        <time>2012-09-15T14:13:22Z</time>
      </trkpt>
      <trkpt lat="49.27178" lon="3.20873">
        <ele>117.42</ele>
        <time>2012-09-15T14:13:37Z</time>
      </trkpt>
      <trkpt lat="49.27159" lon="3.20808">
        <ele>127.03</ele>
        <time>2012-09-15T14:13:52Z</time>
      </trkpt>
      <trkpt lat="49.27148" lon="3.207">
        <ele>130.4</ele>
        <time>2012-09-15T14:14:11Z</time>
      </trkpt>
      <trkpt lat="49.27167" lon="3.20639">
        <ele>123.19</ele>
        <time>2012-09-15T14:14:26Z</time>
      </trkpt>
      <trkpt lat="49.27168" lon="3.20632">
        <ele>122.22</ele>
        <time>2012-09-15T14:14:29Z</time>
      </trkpt>
      <trkpt lat="49.27167" lon="3.2063">
        <ele>122.22</ele>
        <time>2012-09-15T14:14:30Z</time>
      </trkpt>
      <trkpt lat="49.27161" lon="3.20622">
        <ele>122.71</ele>
        <time>2012-09-15T14:14:34Z</time>
      </trkpt>
      <trkpt lat="49.27158" lon="3.20613">
        <ele>124.15</ele>
        <time>2012-09-15T14:14:37Z</time>
      </trkpt>
      <trkpt lat="49.27151" lon="3.20608">
        <ele>125.59</ele>
        <time>2012-09-15T14:14:41Z</time>
      </trkpt>
      <trkpt lat="49.27142" lon="3.2061">
        <ele>129.43</ele>
        <time>2012-09-15T14:14:52Z</time>
      </trkpt>
      <trkpt lat="49.27144" lon="3.20612">
        <ele>130.4</ele>
        <time>2012-09-15T14:15:03Z</time>
      </trkpt>
      <trkpt lat="49.27146" lon="3.20615">
        <ele>132.8</ele>
        <time>2012-09-15T14:15:12Z</time>
      </trkpt>
      <trkpt lat="49.27145" lon="3.20605">
        <ele>133.76</ele>
        <time>2012-09-15T14:15:25Z</time>
      </trkpt>
      <trkpt lat="49.27147" lon="3.2058">
        <ele>127.51</ele>
        <time>2012-09-15T14:15:41Z</time>
      </trkpt>
      <trkpt lat="49.27143" lon="3.20576">
        <ele>126.07</ele>
        <time>2012-09-15T14:16:01Z</time>
      </trkpt>
      <trkpt lat="49.27159" lon="3.20587">
        <ele>126.55</ele>
        <time>2012-09-15T14:30:34Z</time>
      </trkpt>
      <trkpt lat="49.2715" lon="3.20585">
        <ele>117.9</ele>
        <time>2012-09-15T14:30:49Z</time>
      </trkpt>
      <trkpt lat="49.27149" lon="3.20582">
        <ele>116.94</ele>
        <time>2012-09-15T14:31:17Z</time>
      </trkpt>
      <trkpt lat="49.27145" lon="3.20577">
        <ele>117.9</ele>
        <time>2012-09-15T14:31:32Z</time>
      </trkpt>
      <trkpt lat="49.27149" lon="3.20582">
        <ele>118.38</ele>
        <time>2012-09-15T14:31:47Z</time>
      </trkpt>
      <trkpt lat="49.27149" lon="3.20589">
        <ele>119.34</ele>
        <time>2012-09-15T14:32:05Z</time>
      </trkpt>
      <trkpt lat="49.27139" lon="3.20614">
        <ele>119.82</ele>
        <time>2012-09-15T14:32:25Z</time>
      </trkpt>
      <trkpt lat="49.27136" lon="3.20616">
        <ele>122.22</ele>
        <time>2012-09-15T14:32:36Z</time>
      </trkpt>
      <trkpt lat="49.27141" lon="3.20638">
        <ele>122.71</ele>
        <time>2012-09-15T14:32:42Z</time>
      </trkpt>
      <trkpt lat="49.27147" lon="3.20642">
        <ele>123.19</ele>
        <time>2012-09-15T14:32:44Z</time>
      </trkpt>
      <trkpt lat="49.2715" lon="3.20641">
        <ele>122.71</ele>
        <time>2012-09-15T14:32:45Z</time>
      </trkpt>
      <trkpt lat="49.27159" lon="3.20635">
        <ele>123.19</ele>
        <time>2012-09-15T14:32:50Z</time>
      </trkpt>
      <trkpt lat="49.27162" lon="3.20635">
        <ele>123.67</ele>
        <time>2012-09-15T14:32:59Z</time>
      </trkpt>
      <trkpt lat="49.27162" lon="3.20636">
        <ele>123.19</ele>
        <time>2012-09-15T14:33:00Z</time>
      </trkpt>
      <trkpt lat="49.27161" lon="3.20638">
        <ele>123.19</ele>
        <time>2012-09-15T14:33:01Z</time>
      </trkpt>
      <trkpt lat="49.27136" lon="3.20693">
        <ele>121.26</ele>
        <time>2012-09-15T14:33:11Z</time>
      </trkpt>
      <trkpt lat="49.27135" lon="3.20703">
        <ele>121.26</ele>
        <time>2012-09-15T14:33:12Z</time>
      </trkpt>
      <trkpt lat="49.27135" lon="3.20713">
        <ele>120.78</ele>
        <time>2012-09-15T14:33:13Z</time>
      </trkpt>
      <trkpt lat="49.27163" lon="3.20857">
        <ele>119.82</ele>
        <time>2012-09-15T14:33:25Z</time>
      </trkpt>
      <trkpt lat="49.27229" lon="3.21087">
        <ele>115.98</ele>
        <time>2012-09-15T14:33:40Z</time>
      </trkpt>
      <trkpt lat="49.27301" lon="3.21298">
        <ele>109.25</ele>
        <time>2012-09-15T14:33:53Z</time>
      </trkpt>
      <trkpt lat="49.27363" lon="3.21462">
        <ele>102.04</ele>
        <time>2012-09-15T14:34:06Z</time>
      </trkpt>
      <trkpt lat="49.27405" lon="3.21582">
        <ele>96.27</ele>
        <time>2012-09-15T14:34:17Z</time>
      </trkpt>
      <trkpt lat="49.27407" lon="3.21595">
        <ele>95.79</ele>
        <time>2012-09-15T14:34:18Z</time>
      </trkpt>
      <trkpt lat="49.27409" lon="3.21607">
        <ele>95.31</ele>
        <time>2012-09-15T14:34:19Z</time>
      </trkpt>
      <trkpt lat="49.27413" lon="3.21618">
        <ele>94.83</ele>
        <time>2012-09-15T14:34:20Z</time>
      </trkpt>
      <trkpt lat="49.27418" lon="3.21625">
        <ele>94.83</ele>
        <time>2012-09-15T14:34:21Z</time>
      </trkpt>
      <trkpt lat="49.27431" lon="3.21634">
        <ele>95.31</ele>
        <time>2012-09-15T14:34:23Z</time>
      </trkpt>
      <trkpt lat="49.27497" lon="3.21647">
        <ele>96.27</ele>
        <time>2012-09-15T14:34:34Z</time>
      </trkpt>
      <trkpt lat="49.27556" lon="3.21635">
        <ele>89.54</ele>
        <time>2012-09-15T14:34:47Z</time>
      </trkpt>
      <trkpt lat="49.27577" lon="3.21611">
        <ele>88.1</ele>
        <time>2012-09-15T14:34:58Z</time>
      </trkpt>
      <trkpt lat="49.27583" lon="3.21597">
        <ele>87.62</ele>
        <time>2012-09-15T14:35:05Z</time>
      </trkpt>
      <trkpt lat="49.27587" lon="3.21592">
        <ele>87.62</ele>
        <time>2012-09-15T14:35:09Z</time>
      </trkpt>
      <trkpt lat="49.27597" lon="3.21567">
        <ele>86.66</ele>
        <time>2012-09-15T14:35:17Z</time>
      </trkpt>
      <trkpt lat="49.27606" lon="3.21541">
        <ele>86.66</ele>
        <time>2012-09-15T14:35:21Z</time>
      </trkpt>
      <trkpt lat="49.27646" lon="3.2147">
        <ele>88.1</ele>
        <time>2012-09-15T14:35:32Z</time>
      </trkpt>
      <trkpt lat="49.27659" lon="3.21455">
        <ele>88.1</ele>
        <time>2012-09-15T14:35:35Z</time>
      </trkpt>
      <trkpt lat="49.27666" lon="3.21445">
        <ele>88.58</ele>
        <time>2012-09-15T14:35:37Z</time>
      </trkpt>
      <trkpt lat="49.27713" lon="3.21421">
        <ele>89.54</ele>
        <time>2012-09-15T14:35:47Z</time>
      </trkpt>
      <trkpt lat="49.27749" lon="3.21422">
        <ele>90.98</ele>
        <time>2012-09-15T14:35:59Z</time>
      </trkpt>
      <trkpt lat="49.2775" lon="3.21421">
        <ele>90.02</ele>
        <time>2012-09-15T14:36:12Z</time>
      </trkpt>
      <trkpt lat="49.27751" lon="3.21419">
        <ele>89.06</ele>
        <time>2012-09-15T14:36:25Z</time>
      </trkpt>
      <trkpt lat="49.27754" lon="3.21409">
        <ele>87.62</ele>
        <time>2012-09-15T14:36:37Z</time>
      </trkpt>
      <trkpt lat="49.27755" lon="3.21395">
        <ele>88.58</ele>
        <time>2012-09-15T14:36:47Z</time>
      </trkpt>
      <trkpt lat="49.27755" lon="3.21395">
        <ele>88.1</ele>
        <time>2012-09-15T14:36:57Z</time>
      </trkpt>
      <trkpt lat="49.27751" lon="3.21396">
        <ele>88.1</ele>
        <time>2012-09-15T14:37:10Z</time>
      </trkpt>
      <trkpt lat="49.27751" lon="3.21388">
        <ele>88.1</ele>
        <time>2012-09-15T14:37:22Z</time>
      </trkpt>
    </trkseg>
  </trk>
  <trk>
    <name><![CDATA[Tracé actuel: 29 SEPT 2012 08:40]]></name>
    <trkseg>
      <trkpt lat="48.79583" lon="2.31487">
        <ele>87.14</ele>
        <time>2012-09-29T06:40:34Z</time>
      </trkpt>
      <trkpt lat="48.79583" lon="2.31485">
        <ele>98.67</ele>
        <time>2012-09-29T06:40:48Z</time>
      </trkpt>
      <trkpt lat="48.79582" lon="2.31482">
        <ele>102.04</ele>
        <time>2012-09-29T06:41:06Z</time>
      </trkpt>
      <trkpt lat="48.79581" lon="2.31484">
        <ele>103.48</ele>
        <time>2012-09-29T06:41:11Z</time>
      </trkpt>
      <trkpt lat="48.725" lon="2.31262">
        <ele>85.21</ele>
        <time>2012-09-29T07:01:16Z</time>
      </trkpt>
      <trkpt lat="48.72128" lon="2.31122">
        <ele>90.98</ele>
        <time>2012-09-29T07:01:32Z</time>
      </trkpt>
      <trkpt lat="48.7187" lon="2.31034">
        <ele>92.42</ele>
        <time>2012-09-29T07:01:43Z</time>
      </trkpt>
      <trkpt lat="48.7146" lon="2.30889">
        <ele>92.42</ele>
        <time>2012-09-29T07:01:59Z</time>
      </trkpt>
      <trkpt lat="48.71023" lon="2.30726">
        <ele>91.46</ele>
        <time>2012-09-29T07:02:16Z</time>
      </trkpt>
      <trkpt lat="48.70659" lon="2.30598">
        <ele>87.62</ele>
        <time>2012-09-29T07:02:30Z</time>
      </trkpt>
      <trkpt lat="48.70474" lon="2.30614">
        <ele>83.77</ele>
        <time>2012-09-29T07:02:37Z</time>
      </trkpt>
      <trkpt lat="48.70293" lon="2.30711">
        <ele>82.33</ele>
        <time>2012-09-29T07:02:44Z</time>
      </trkpt>
      <trkpt lat="48.7027" lon="2.30733">
        <ele>82.33</ele>
        <time>2012-09-29T07:02:45Z</time>
      </trkpt>
      <trkpt lat="48.70127" lon="2.30919">
        <ele>81.37</ele>
        <time>2012-09-29T07:02:52Z</time>
      </trkpt>
      <trkpt lat="48.699" lon="2.3127">
        <ele>78</ele>
        <time>2012-09-29T07:03:04Z</time>
      </trkpt>
      <trkpt lat="48.69616" lon="2.31701">
        <ele>72.72</ele>
        <time>2012-09-29T07:03:19Z</time>
      </trkpt>
      <trkpt lat="48.69371" lon="2.32016">
        <ele>72.24</ele>
        <time>2012-09-29T07:03:31Z</time>
      </trkpt>
      <trkpt lat="48.6914" lon="2.32217">
        <ele>78</ele>
        <time>2012-09-29T07:03:41Z</time>
      </trkpt>
      <trkpt lat="48.68952" lon="2.32378">
        <ele>85.69</ele>
        <time>2012-09-29T07:03:49Z</time>
      </trkpt>
      <trkpt lat="48.68628" lon="2.32666">
        <ele>90.98</ele>
        <time>2012-09-29T07:04:03Z</time>
      </trkpt>
      <trkpt lat="48.68343" lon="2.32902">
        <ele>85.21</ele>
        <time>2012-09-29T07:04:15Z</time>
      </trkpt>
      <trkpt lat="48.6821" lon="2.33008">
        <ele>81.85</ele>
        <time>2012-09-29T07:04:20Z</time>
      </trkpt>
      <trkpt lat="48.66595" lon="2.36108">
        <ele>65.99</ele>
        <time>2012-09-29T07:06:00Z</time>
      </trkpt>
      <trkpt lat="48.66478" lon="2.36415">
        <ele>73.68</ele>
        <time>2012-09-29T07:06:10Z</time>
      </trkpt>
      <trkpt lat="48.66246" lon="2.36832">
        <ele>78.48</ele>
        <time>2012-09-29T07:06:25Z</time>
      </trkpt>
      <trkpt lat="48.66019" lon="2.37226">
        <ele>78.97</ele>
        <time>2012-09-29T07:06:39Z</time>
      </trkpt>
      <trkpt lat="48.65799" lon="2.37598">
        <ele>79.93</ele>
        <time>2012-09-29T07:06:51Z</time>
      </trkpt>
      <trkpt lat="48.65563" lon="2.37881">
        <ele>81.37</ele>
        <time>2012-09-29T07:07:02Z</time>
      </trkpt>
      <trkpt lat="48.65319" lon="2.38118">
        <ele>82.33</ele>
        <time>2012-09-29T07:07:13Z</time>
      </trkpt>
      <trkpt lat="48.64972" lon="2.3846">
        <ele>84.25</ele>
        <time>2012-09-29T07:07:29Z</time>
      </trkpt>
      <trkpt lat="48.6452" lon="2.38916">
        <ele>87.62</ele>
        <time>2012-09-29T07:07:50Z</time>
      </trkpt>
      <trkpt lat="48.64306" lon="2.39132">
        <ele>89.54</ele>
        <time>2012-09-29T07:07:59Z</time>
      </trkpt>
    </trkseg>
  </trk>
  <trk>
    <name><![CDATA[Tracé actuel: 29 SEPT 2012 10:12]]></name>
    <trkseg>
      <trkpt lat="48.47513" lon="2.69185">
        <ele>81.85</ele>
        <time>2012-09-29T08:12:07Z</time>
      </trkpt>
      <trkpt lat="48.47512" lon="2.6919">
        <ele>75.12</ele>
        <time>2012-09-29T08:12:32Z</time>
      </trkpt>
      <trkpt lat="48.4751" lon="2.69191">
        <ele>80.41</ele>
        <time>2012-09-29T08:13:09Z</time>
      </trkpt>
      <trkpt lat="48.47513" lon="2.6919">
        <ele>80.89</ele>
        <time>2012-09-29T08:13:40Z</time>
      </trkpt>
      <trkpt lat="48.47512" lon="2.6919">
        <ele>80.41</ele>
        <time>2012-09-29T08:14:11Z</time>
      </trkpt>
      <trkpt lat="48.47511" lon="2.69193">
        <ele>80.41</ele>
        <time>2012-09-29T08:14:43Z</time>
      </trkpt>
      <trkpt lat="48.47511" lon="2.69192">
        <ele>78.97</ele>
        <time>2012-09-29T08:15:24Z</time>
      </trkpt>
      <trkpt lat="48.4751" lon="2.69191">
        <ele>78.97</ele>
        <time>2012-09-29T08:16:04Z</time>
      </trkpt>
      <trkpt lat="48.47511" lon="2.69193">
        <ele>79.93</ele>
        <time>2012-09-29T08:16:36Z</time>
      </trkpt>
      <trkpt lat="48.4751" lon="2.69192">
        <ele>78.97</ele>
        <time>2012-09-29T08:17:08Z</time>
      </trkpt>
      <trkpt lat="48.4751" lon="2.69191">
        <ele>78</ele>
        <time>2012-09-29T08:17:38Z</time>
      </trkpt>
      <trkpt lat="48.47509" lon="2.69192">
        <ele>77.52</ele>
        <time>2012-09-29T08:18:16Z</time>
      </trkpt>
      <trkpt lat="48.47508" lon="2.69173">
        <ele>83.29</ele>
        <time>2012-09-29T08:30:19Z</time>
      </trkpt>
      <trkpt lat="48.47505" lon="2.69176">
        <ele>82.81</ele>
        <time>2012-09-29T08:30:20Z</time>
      </trkpt>
      <trkpt lat="48.47504" lon="2.6918">
        <ele>82.81</ele>
        <time>2012-09-29T08:30:21Z</time>
      </trkpt>
      <trkpt lat="48.47504" lon="2.69184">
        <ele>82.33</ele>
        <time>2012-09-29T08:30:22Z</time>
      </trkpt>
      <trkpt lat="48.47504" lon="2.69187">
        <ele>82.33</ele>
        <time>2012-09-29T08:30:23Z</time>
      </trkpt>
      <trkpt lat="48.47505" lon="2.6919">
        <ele>82.33</ele>
        <time>2012-09-29T08:30:24Z</time>
      </trkpt>
      <trkpt lat="48.47506" lon="2.69193">
        <ele>82.81</ele>
        <time>2012-09-29T08:30:25Z</time>
      </trkpt>
      <trkpt lat="48.47514" lon="2.69197">
        <ele>81.85</ele>
        <time>2012-09-29T08:30:30Z</time>
      </trkpt>
      <trkpt lat="48.47515" lon="2.69196">
        <ele>81.85</ele>
        <time>2012-09-29T08:30:31Z</time>
      </trkpt>
      <trkpt lat="48.47516" lon="2.69193">
        <ele>81.85</ele>
        <time>2012-09-29T08:30:32Z</time>
      </trkpt>
      <trkpt lat="48.47516" lon="2.69189">
        <ele>81.37</ele>
        <time>2012-09-29T08:30:33Z</time>
      </trkpt>
      <trkpt lat="48.47514" lon="2.69185">
        <ele>81.37</ele>
        <time>2012-09-29T08:30:34Z</time>
      </trkpt>
      <trkpt lat="48.47512" lon="2.69181">
        <ele>80.89</ele>
        <time>2012-09-29T08:30:35Z</time>
      </trkpt>
      <trkpt lat="48.47509" lon="2.69178">
        <ele>80.89</ele>
        <time>2012-09-29T08:30:36Z</time>
      </trkpt>
      <trkpt lat="48.47505" lon="2.69175">
        <ele>80.41</ele>
        <time>2012-09-29T08:30:37Z</time>
      </trkpt>
      <trkpt lat="48.47502" lon="2.69172">
        <ele>80.41</ele>
        <time>2012-09-29T08:30:38Z</time>
      </trkpt>
      <trkpt lat="48.47498" lon="2.6917">
        <ele>79.93</ele>
        <time>2012-09-29T08:30:39Z</time>
      </trkpt>
      <trkpt lat="48.47494" lon="2.69169">
        <ele>79.93</ele>
        <time>2012-09-29T08:30:40Z</time>
      </trkpt>
      <trkpt lat="48.4749" lon="2.69166">
        <ele>79.93</ele>
        <time>2012-09-29T08:30:41Z</time>
      </trkpt>
      <trkpt lat="48.47486" lon="2.69163">
        <ele>79.93</ele>
        <time>2012-09-29T08:30:42Z</time>
      </trkpt>
      <trkpt lat="48.47484" lon="2.69161">
        <ele>79.93</ele>
        <time>2012-09-29T08:30:43Z</time>
      </trkpt>
      <trkpt lat="48.47482" lon="2.69162">
        <ele>79.93</ele>
        <time>2012-09-29T08:30:44Z</time>
      </trkpt>
      <trkpt lat="48.4748" lon="2.69163">
        <ele>79.93</ele>
        <time>2012-09-29T08:30:45Z</time>
      </trkpt>
      <trkpt lat="48.47479" lon="2.69165">
        <ele>79.93</ele>
        <time>2012-09-29T08:30:46Z</time>
      </trkpt>
      <trkpt lat="48.47473" lon="2.69175">
        <ele>80.41</ele>
        <time>2012-09-29T08:30:53Z</time>
      </trkpt>
      <trkpt lat="48.4747" lon="2.69176">
        <ele>80.41</ele>
        <time>2012-09-29T08:30:54Z</time>
      </trkpt>
      <trkpt lat="48.47467" lon="2.6918">
        <ele>80.41</ele>
        <time>2012-09-29T08:30:55Z</time>
      </trkpt>
      <trkpt lat="48.47465" lon="2.69186">
        <ele>80.41</ele>
        <time>2012-09-29T08:30:56Z</time>
      </trkpt>
      <trkpt lat="48.47463" lon="2.69191">
        <ele>80.41</ele>
        <time>2012-09-29T08:30:57Z</time>
      </trkpt>
      <trkpt lat="48.47452" lon="2.69219">
        <ele>80.89</ele>
        <time>2012-09-29T08:31:02Z</time>
      </trkpt>
      <trkpt lat="48.47434" lon="2.69277">
        <ele>79.93</ele>
        <time>2012-09-29T08:31:10Z</time>
      </trkpt>
      <trkpt lat="48.4743" lon="2.69284">
        <ele>79.93</ele>
        <time>2012-09-29T08:31:11Z</time>
      </trkpt>
      <trkpt lat="48.47425" lon="2.69289">
        <ele>80.41</ele>
        <time>2012-09-29T08:31:12Z</time>
      </trkpt>
      <trkpt lat="48.4742" lon="2.69293">
        <ele>80.41</ele>
        <time>2012-09-29T08:31:13Z</time>
      </trkpt>
      <trkpt lat="48.47414" lon="2.69295">
        <ele>80.89</ele>
        <time>2012-09-29T08:31:14Z</time>
      </trkpt>
      <trkpt lat="48.47409" lon="2.69295">
        <ele>81.37</ele>
        <time>2012-09-29T08:31:15Z</time>
      </trkpt>
      <trkpt lat="48.47404" lon="2.69292">
        <ele>81.37</ele>
        <time>2012-09-29T08:31:16Z</time>
      </trkpt>
      <trkpt lat="48.4735" lon="2.69272">
        <ele>84.25</ele>
        <time>2012-09-29T08:31:29Z</time>
      </trkpt>
      <trkpt lat="48.47329" lon="2.69267">
        <ele>85.21</ele>
        <time>2012-09-29T08:31:34Z</time>
      </trkpt>
      <trkpt lat="48.4729" lon="2.69254">
        <ele>87.62</ele>
        <time>2012-09-29T08:31:44Z</time>
      </trkpt>
      <trkpt lat="48.47285" lon="2.69252">
        <ele>87.62</ele>
        <time>2012-09-29T08:31:45Z</time>
      </trkpt>
      <trkpt lat="48.47219" lon="2.69229">
        <ele>88.58</ele>
        <time>2012-09-29T08:32:01Z</time>
      </trkpt>
      <trkpt lat="48.47148" lon="2.69204">
        <ele>90.98</ele>
        <time>2012-09-29T08:32:18Z</time>
      </trkpt>
      <trkpt lat="48.4714" lon="2.69204">
        <ele>90.5</ele>
        <time>2012-09-29T08:32:20Z</time>
      </trkpt>
      <trkpt lat="48.47136" lon="2.69203">
        <ele>90.5</ele>
        <time>2012-09-29T08:32:21Z</time>
      </trkpt>
      <trkpt lat="48.47123" lon="2.69198">
        <ele>90.98</ele>
        <time>2012-09-29T08:32:24Z</time>
      </trkpt>
      <trkpt lat="48.47119" lon="2.69197">
        <ele>90.98</ele>
        <time>2012-09-29T08:32:25Z</time>
      </trkpt>
      <trkpt lat="48.47047" lon="2.69172">
        <ele>90.5</ele>
        <time>2012-09-29T08:32:41Z</time>
      </trkpt>
      <trkpt lat="48.46965" lon="2.69146">
        <ele>90.5</ele>
        <time>2012-09-29T08:32:59Z</time>
      </trkpt>
      <trkpt lat="48.46883" lon="2.6912">
        <ele>91.94</ele>
        <time>2012-09-29T08:33:16Z</time>
      </trkpt>
      <trkpt lat="48.46856" lon="2.69114">
        <ele>92.42</ele>
        <time>2012-09-29T08:33:22Z</time>
      </trkpt>
      <trkpt lat="48.46791" lon="2.69093">
        <ele>93.39</ele>
        <time>2012-09-29T08:33:37Z</time>
      </trkpt>
      <trkpt lat="48.46739" lon="2.6907">
        <ele>92.42</ele>
        <time>2012-09-29T08:33:50Z</time>
      </trkpt>
      <trkpt lat="48.46722" lon="2.69061">
        <ele>92.42</ele>
        <time>2012-09-29T08:33:54Z</time>
      </trkpt>
      <trkpt lat="48.4666" lon="2.69005">
        <ele>88.58</ele>
        <time>2012-09-29T08:34:08Z</time>
      </trkpt>
      <trkpt lat="48.46654" lon="2.68991">
        <ele>87.14</ele>
        <time>2012-09-29T08:34:16Z</time>
      </trkpt>
      <trkpt lat="48.46638" lon="2.68966">
        <ele>87.14</ele>
        <time>2012-09-29T08:34:25Z</time>
      </trkpt>
      <trkpt lat="48.46619" lon="2.68964">
        <ele>86.66</ele>
        <time>2012-09-29T08:34:32Z</time>
      </trkpt>
      <trkpt lat="48.46613" lon="2.68955">
        <ele>86.66</ele>
        <time>2012-09-29T08:34:35Z</time>
      </trkpt>
      <trkpt lat="48.46584" lon="2.68923">
        <ele>84.73</ele>
        <time>2012-09-29T08:34:42Z</time>
      </trkpt>
      <trkpt lat="48.46561" lon="2.68898">
        <ele>83.77</ele>
        <time>2012-09-29T08:34:47Z</time>
      </trkpt>
      <trkpt lat="48.46548" lon="2.68885">
        <ele>83.29</ele>
        <time>2012-09-29T08:34:50Z</time>
      </trkpt>
      <trkpt lat="48.46475" lon="2.68787">
        <ele>79.45</ele>
        <time>2012-09-29T08:35:07Z</time>
      </trkpt>
      <trkpt lat="48.46409" lon="2.68709">
        <ele>76.08</ele>
        <time>2012-09-29T08:35:22Z</time>
      </trkpt>
      <trkpt lat="48.46344" lon="2.68629">
        <ele>78</ele>
        <time>2012-09-29T08:35:37Z</time>
      </trkpt>
      <trkpt lat="48.4633" lon="2.68615">
        <ele>78.48</ele>
        <time>2012-09-29T08:35:40Z</time>
      </trkpt>
      <trkpt lat="48.46314" lon="2.68597">
        <ele>79.45</ele>
        <time>2012-09-29T08:35:44Z</time>
      </trkpt>
      <trkpt lat="48.46262" lon="2.68541">
        <ele>82.81</ele>
        <time>2012-09-29T08:35:58Z</time>
      </trkpt>
      <trkpt lat="48.46198" lon="2.68462">
        <ele>86.18</ele>
        <time>2012-09-29T08:36:15Z</time>
      </trkpt>
      <trkpt lat="48.46158" lon="2.68422">
        <ele>88.1</ele>
        <time>2012-09-29T08:36:26Z</time>
      </trkpt>
      <trkpt lat="48.46139" lon="2.684">
        <ele>87.14</ele>
        <time>2012-09-29T08:36:31Z</time>
      </trkpt>
      <trkpt lat="48.46086" lon="2.68329">
        <ele>83.77</ele>
        <time>2012-09-29T08:36:47Z</time>
      </trkpt>
      <trkpt lat="48.46055" lon="2.68291">
        <ele>81.85</ele>
        <time>2012-09-29T08:36:59Z</time>
      </trkpt>
      <trkpt lat="48.46037" lon="2.68252">
        <ele>82.33</ele>
        <time>2012-09-29T08:37:09Z</time>
      </trkpt>
      <trkpt lat="48.46025" lon="2.68221">
        <ele>82.81</ele>
        <time>2012-09-29T08:37:19Z</time>
      </trkpt>
      <trkpt lat="48.46022" lon="2.68202">
        <ele>83.77</ele>
        <time>2012-09-29T08:37:22Z</time>
      </trkpt>
      <trkpt lat="48.46021" lon="2.68195">
        <ele>83.77</ele>
        <time>2012-09-29T08:37:23Z</time>
      </trkpt>
      <trkpt lat="48.46014" lon="2.68144">
        <ele>86.66</ele>
        <time>2012-09-29T08:37:30Z</time>
      </trkpt>
      <trkpt lat="48.46001" lon="2.68072">
        <ele>89.06</ele>
        <time>2012-09-29T08:37:40Z</time>
      </trkpt>
      <trkpt lat="48.45999" lon="2.68064">
        <ele>89.54</ele>
        <time>2012-09-29T08:37:41Z</time>
      </trkpt>
      <trkpt lat="48.45998" lon="2.68058">
        <ele>89.54</ele>
        <time>2012-09-29T08:37:42Z</time>
      </trkpt>
      <trkpt lat="48.45996" lon="2.68051">
        <ele>90.02</ele>
        <time>2012-09-29T08:37:43Z</time>
      </trkpt>
      <trkpt lat="48.45995" lon="2.68045">
        <ele>90.02</ele>
        <time>2012-09-29T08:37:44Z</time>
      </trkpt>
      <trkpt lat="48.4599" lon="2.68013">
        <ele>91.46</ele>
        <time>2012-09-29T08:37:49Z</time>
      </trkpt>
      <trkpt lat="48.45989" lon="2.68007">
        <ele>91.46</ele>
        <time>2012-09-29T08:37:50Z</time>
      </trkpt>
      <trkpt lat="48.45988" lon="2.68001">
        <ele>91.46</ele>
        <time>2012-09-29T08:37:51Z</time>
      </trkpt>
      <trkpt lat="48.45987" lon="2.67994">
        <ele>91.94</ele>
        <time>2012-09-29T08:37:52Z</time>
      </trkpt>
      <trkpt lat="48.45986" lon="2.67988">
        <ele>91.94</ele>
        <time>2012-09-29T08:37:53Z</time>
      </trkpt>
      <trkpt lat="48.45985" lon="2.67983">
        <ele>91.94</ele>
        <time>2012-09-29T08:37:54Z</time>
      </trkpt>
      <trkpt lat="48.45983" lon="2.67978">
        <ele>91.94</ele>
        <time>2012-09-29T08:37:55Z</time>
      </trkpt>
      <trkpt lat="48.45972" lon="2.67912">
        <ele>92.9</ele>
        <time>2012-09-29T08:38:07Z</time>
      </trkpt>
      <trkpt lat="48.45957" lon="2.67838">
        <ele>92.42</ele>
        <time>2012-09-29T08:38:19Z</time>
      </trkpt>
      <trkpt lat="48.45949" lon="2.67798">
        <ele>91.94</ele>
        <time>2012-09-29T08:38:26Z</time>
      </trkpt>
      <trkpt lat="48.45948" lon="2.67792">
        <ele>91.94</ele>
        <time>2012-09-29T08:38:27Z</time>
      </trkpt>
      <trkpt lat="48.45937" lon="2.67714">
        <ele>93.87</ele>
        <time>2012-09-29T08:38:40Z</time>
      </trkpt>
      <trkpt lat="48.45934" lon="2.67704">
        <ele>93.87</ele>
        <time>2012-09-29T08:38:42Z</time>
      </trkpt>
      <trkpt lat="48.45934" lon="2.67698">
        <ele>94.35</ele>
        <time>2012-09-29T08:38:43Z</time>
      </trkpt>
      <trkpt lat="48.45933" lon="2.67693">
        <ele>94.83</ele>
        <time>2012-09-29T08:38:44Z</time>
      </trkpt>
      <trkpt lat="48.45932" lon="2.67688">
        <ele>95.31</ele>
        <time>2012-09-29T08:38:45Z</time>
      </trkpt>
      <trkpt lat="48.4593" lon="2.67683">
        <ele>95.31</ele>
        <time>2012-09-29T08:38:46Z</time>
      </trkpt>
      <trkpt lat="48.45928" lon="2.67679">
        <ele>95.31</ele>
        <time>2012-09-29T08:38:47Z</time>
      </trkpt>
      <trkpt lat="48.45927" lon="2.67674">
        <ele>95.31</ele>
        <time>2012-09-29T08:38:48Z</time>
      </trkpt>
      <trkpt lat="48.45917" lon="2.67622">
        <ele>96.75</ele>
        <time>2012-09-29T08:39:01Z</time>
      </trkpt>
      <trkpt lat="48.45901" lon="2.67557">
        <ele>93.87</ele>
        <time>2012-09-29T08:39:16Z</time>
      </trkpt>
      <trkpt lat="48.45895" lon="2.67527">
        <ele>94.35</ele>
        <time>2012-09-29T08:39:24Z</time>
      </trkpt>
      <trkpt lat="48.45895" lon="2.67524">
        <ele>94.83</ele>
        <time>2012-09-29T08:39:25Z</time>
      </trkpt>
      <trkpt lat="48.45894" lon="2.6752">
        <ele>95.31</ele>
        <time>2012-09-29T08:39:26Z</time>
      </trkpt>
      <trkpt lat="48.45894" lon="2.67516">
        <ele>95.79</ele>
        <time>2012-09-29T08:39:27Z</time>
      </trkpt>
      <trkpt lat="48.45893" lon="2.67511">
        <ele>95.79</ele>
        <time>2012-09-29T08:39:28Z</time>
      </trkpt>
      <trkpt lat="48.45892" lon="2.67508">
        <ele>95.79</ele>
        <time>2012-09-29T08:39:29Z</time>
      </trkpt>
      <trkpt lat="48.45891" lon="2.67506">
        <ele>95.79</ele>
        <time>2012-09-29T08:39:30Z</time>
      </trkpt>
      <trkpt lat="48.45891" lon="2.67501">
        <ele>95.79</ele>
        <time>2012-09-29T08:39:31Z</time>
      </trkpt>
      <trkpt lat="48.45889" lon="2.67498">
        <ele>95.79</ele>
        <time>2012-09-29T08:39:32Z</time>
      </trkpt>
      <trkpt lat="48.45888" lon="2.67494">
        <ele>95.79</ele>
        <time>2012-09-29T08:39:33Z</time>
      </trkpt>
      <trkpt lat="48.45887" lon="2.67489">
        <ele>95.79</ele>
        <time>2012-09-29T08:39:34Z</time>
      </trkpt>
      <trkpt lat="48.45886" lon="2.67484">
        <ele>95.79</ele>
        <time>2012-09-29T08:39:35Z</time>
      </trkpt>
      <trkpt lat="48.45877" lon="2.6744">
        <ele>97.23</ele>
        <time>2012-09-29T08:39:45Z</time>
      </trkpt>
      <trkpt lat="48.45875" lon="2.67424">
        <ele>97.71</ele>
        <time>2012-09-29T08:39:50Z</time>
      </trkpt>
      <trkpt lat="48.45874" lon="2.67423">
        <ele>97.23</ele>
        <time>2012-09-29T08:39:51Z</time>
      </trkpt>
      <trkpt lat="48.45873" lon="2.6742">
        <ele>97.23</ele>
        <time>2012-09-29T08:39:52Z</time>
      </trkpt>
      <trkpt lat="48.45868" lon="2.67393">
        <ele>95.79</ele>
        <time>2012-09-29T08:39:59Z</time>
      </trkpt>
      <trkpt lat="48.45868" lon="2.67387">
        <ele>95.79</ele>
        <time>2012-09-29T08:40:00Z</time>
      </trkpt>
      <trkpt lat="48.45868" lon="2.67382">
        <ele>95.79</ele>
        <time>2012-09-29T08:40:01Z</time>
      </trkpt>
      <trkpt lat="48.4586" lon="2.67326">
        <ele>97.23</ele>
        <time>2012-09-29T08:40:12Z</time>
      </trkpt>
      <trkpt lat="48.45846" lon="2.67275">
        <ele>95.79</ele>
        <time>2012-09-29T08:40:24Z</time>
      </trkpt>
      <trkpt lat="48.45832" lon="2.67245">
        <ele>93.87</ele>
        <time>2012-09-29T08:40:35Z</time>
      </trkpt>
      <trkpt lat="48.45827" lon="2.67232">
        <ele>91.46</ele>
        <time>2012-09-29T08:40:46Z</time>
      </trkpt>
      <trkpt lat="48.45827" lon="2.67231">
        <ele>91.46</ele>
        <time>2012-09-29T08:41:08Z</time>
      </trkpt>
      <trkpt lat="48.45828" lon="2.67229">
        <ele>90.98</ele>
        <time>2012-09-29T08:41:30Z</time>
      </trkpt>
      <trkpt lat="48.45826" lon="2.6722">
        <ele>93.39</ele>
        <time>2012-09-29T08:41:50Z</time>
      </trkpt>
      <trkpt lat="48.45805" lon="2.67178">
        <ele>93.39</ele>
        <time>2012-09-29T08:42:01Z</time>
      </trkpt>
      <trkpt lat="48.45773" lon="2.67114">
        <ele>90.02</ele>
        <time>2012-09-29T08:42:15Z</time>
      </trkpt>
      <trkpt lat="48.45748" lon="2.67066">
        <ele>88.1</ele>
        <time>2012-09-29T08:42:27Z</time>
      </trkpt>
      <trkpt lat="48.4573" lon="2.67021">
        <ele>86.18</ele>
        <time>2012-09-29T08:42:38Z</time>
      </trkpt>
      <trkpt lat="48.45732" lon="2.67018">
        <ele>86.18</ele>
        <time>2012-09-29T08:42:40Z</time>
      </trkpt>
      <trkpt lat="48.45733" lon="2.67016">
        <ele>86.18</ele>
        <time>2012-09-29T08:42:41Z</time>
      </trkpt>
      <trkpt lat="48.45733" lon="2.67009">
        <ele>87.14</ele>
        <time>2012-09-29T08:42:44Z</time>
      </trkpt>
      <trkpt lat="48.45732" lon="2.67005">
        <ele>87.14</ele>
        <time>2012-09-29T08:42:45Z</time>
      </trkpt>
      <trkpt lat="48.4573" lon="2.67002">
        <ele>87.62</ele>
        <time>2012-09-29T08:42:46Z</time>
      </trkpt>
      <trkpt lat="48.45727" lon="2.67">
        <ele>87.62</ele>
        <time>2012-09-29T08:42:47Z</time>
      </trkpt>
      <trkpt lat="48.45724" lon="2.66998">
        <ele>88.1</ele>
        <time>2012-09-29T08:42:48Z</time>
      </trkpt>
      <trkpt lat="48.45721" lon="2.66997">
        <ele>88.58</ele>
        <time>2012-09-29T08:42:49Z</time>
      </trkpt>
      <trkpt lat="48.45719" lon="2.66994">
        <ele>88.58</ele>
        <time>2012-09-29T08:42:50Z</time>
      </trkpt>
      <trkpt lat="48.45717" lon="2.66989">
        <ele>89.06</ele>
        <time>2012-09-29T08:42:51Z</time>
      </trkpt>
      <trkpt lat="48.45715" lon="2.66985">
        <ele>89.06</ele>
        <time>2012-09-29T08:42:52Z</time>
      </trkpt>
      <trkpt lat="48.45714" lon="2.66981">
        <ele>89.06</ele>
        <time>2012-09-29T08:42:53Z</time>
      </trkpt>
      <trkpt lat="48.45713" lon="2.66978">
        <ele>89.54</ele>
        <time>2012-09-29T08:42:54Z</time>
      </trkpt>
      <trkpt lat="48.45711" lon="2.66977">
        <ele>89.54</ele>
        <time>2012-09-29T08:42:55Z</time>
      </trkpt>
      <trkpt lat="48.45709" lon="2.66974">
        <ele>89.54</ele>
        <time>2012-09-29T08:42:56Z</time>
      </trkpt>
      <trkpt lat="48.45708" lon="2.66971">
        <ele>89.54</ele>
        <time>2012-09-29T08:42:57Z</time>
      </trkpt>
      <trkpt lat="48.45705" lon="2.66966">
        <ele>90.02</ele>
        <time>2012-09-29T08:42:58Z</time>
      </trkpt>
      <trkpt lat="48.45702" lon="2.66962">
        <ele>90.02</ele>
        <time>2012-09-29T08:42:59Z</time>
      </trkpt>
      <trkpt lat="48.45699" lon="2.66958">
        <ele>90.02</ele>
        <time>2012-09-29T08:43:00Z</time>
      </trkpt>
      <trkpt lat="48.45696" lon="2.66954">
        <ele>90.02</ele>
        <time>2012-09-29T08:43:01Z</time>
      </trkpt>
      <trkpt lat="48.45693" lon="2.6695">
        <ele>90.02</ele>
        <time>2012-09-29T08:43:02Z</time>
      </trkpt>
      <trkpt lat="48.45666" lon="2.66898">
        <ele>90.98</ele>
        <time>2012-09-29T08:43:13Z</time>
      </trkpt>
      <trkpt lat="48.45651" lon="2.66838">
        <ele>93.87</ele>
        <time>2012-09-29T08:43:24Z</time>
      </trkpt>
      <trkpt lat="48.4563" lon="2.66788">
        <ele>93.87</ele>
        <time>2012-09-29T08:43:35Z</time>
      </trkpt>
      <trkpt lat="48.45627" lon="2.66787">
        <ele>94.35</ele>
        <time>2012-09-29T08:43:36Z</time>
      </trkpt>
      <trkpt lat="48.45624" lon="2.66789">
        <ele>94.83</ele>
        <time>2012-09-29T08:43:37Z</time>
      </trkpt>
      <trkpt lat="48.45621" lon="2.6679">
        <ele>94.83</ele>
        <time>2012-09-29T08:43:38Z</time>
      </trkpt>
      <trkpt lat="48.45618" lon="2.66792">
        <ele>94.83</ele>
        <time>2012-09-29T08:43:39Z</time>
      </trkpt>
      <trkpt lat="48.45614" lon="2.66794">
        <ele>95.31</ele>
        <time>2012-09-29T08:43:40Z</time>
      </trkpt>
      <trkpt lat="48.45611" lon="2.66797">
        <ele>95.31</ele>
        <time>2012-09-29T08:43:41Z</time>
      </trkpt>
      <trkpt lat="48.45603" lon="2.66801">
        <ele>96.27</ele>
        <time>2012-09-29T08:43:44Z</time>
      </trkpt>
      <trkpt lat="48.456" lon="2.668">
        <ele>96.27</ele>
        <time>2012-09-29T08:43:45Z</time>
      </trkpt>
      <trkpt lat="48.45568" lon="2.6681">
        <ele>100.11</ele>
        <time>2012-09-29T08:43:55Z</time>
      </trkpt>
      <trkpt lat="48.45561" lon="2.66815">
        <ele>101.56</ele>
        <time>2012-09-29T08:43:59Z</time>
      </trkpt>
      <trkpt lat="48.45559" lon="2.66817">
        <ele>102.04</ele>
        <time>2012-09-29T08:44:00Z</time>
      </trkpt>
      <trkpt lat="48.45557" lon="2.66819">
        <ele>102.04</ele>
        <time>2012-09-29T08:44:01Z</time>
      </trkpt>
      <trkpt lat="48.45556" lon="2.66821">
        <ele>102.04</ele>
        <time>2012-09-29T08:44:02Z</time>
      </trkpt>
      <trkpt lat="48.45554" lon="2.66824">
        <ele>102.52</ele>
        <time>2012-09-29T08:44:03Z</time>
      </trkpt>
      <trkpt lat="48.45553" lon="2.66826">
        <ele>103</ele>
        <time>2012-09-29T08:44:04Z</time>
      </trkpt>
      <trkpt lat="48.45552" lon="2.6683">
        <ele>103.48</ele>
        <time>2012-09-29T08:44:05Z</time>
      </trkpt>
      <trkpt lat="48.45549" lon="2.6684">
        <ele>105.4</ele>
        <time>2012-09-29T08:44:09Z</time>
      </trkpt>
      <trkpt lat="48.45549" lon="2.66842">
        <ele>105.88</ele>
        <time>2012-09-29T08:44:10Z</time>
      </trkpt>
      <trkpt lat="48.45548" lon="2.66846">
        <ele>106.84</ele>
        <time>2012-09-29T08:44:11Z</time>
      </trkpt>
      <trkpt lat="48.45542" lon="2.66897">
        <ele>111.17</ele>
        <time>2012-09-29T08:44:22Z</time>
      </trkpt>
      <trkpt lat="48.45529" lon="2.66938">
        <ele>117.9</ele>
        <time>2012-09-29T08:44:33Z</time>
      </trkpt>
      <trkpt lat="48.45511" lon="2.66959">
        <ele>120.78</ele>
        <time>2012-09-29T08:44:42Z</time>
      </trkpt>
      <trkpt lat="48.4551" lon="2.6696">
        <ele>120.78</ele>
        <time>2012-09-29T08:44:56Z</time>
      </trkpt>
      <trkpt lat="48.45509" lon="2.66962">
        <ele>121.26</ele>
        <time>2012-09-29T08:45:18Z</time>
      </trkpt>
      <trkpt lat="48.455" lon="2.66967">
        <ele>120.78</ele>
        <time>2012-09-29T08:45:36Z</time>
      </trkpt>
      <trkpt lat="48.45496" lon="2.66971">
        <ele>120.78</ele>
        <time>2012-09-29T08:45:38Z</time>
      </trkpt>
      <trkpt lat="48.45473" lon="2.6697">
        <ele>122.71</ele>
        <time>2012-09-29T08:45:47Z</time>
      </trkpt>
      <trkpt lat="48.45451" lon="2.66966">
        <ele>121.26</ele>
        <time>2012-09-29T08:45:52Z</time>
      </trkpt>
      <trkpt lat="48.45447" lon="2.66965">
        <ele>121.26</ele>
        <time>2012-09-29T08:45:53Z</time>
      </trkpt>
      <trkpt lat="48.45443" lon="2.66964">
        <ele>120.78</ele>
        <time>2012-09-29T08:45:54Z</time>
      </trkpt>
      <trkpt lat="48.4543" lon="2.66959">
        <ele>119.82</ele>
        <time>2012-09-29T08:45:57Z</time>
      </trkpt>
      <trkpt lat="48.45414" lon="2.66947">
        <ele>118.38</ele>
        <time>2012-09-29T08:46:00Z</time>
      </trkpt>
      <trkpt lat="48.45407" lon="2.66947">
        <ele>117.9</ele>
        <time>2012-09-29T08:46:01Z</time>
      </trkpt>
      <trkpt lat="48.45401" lon="2.66949">
        <ele>117.42</ele>
        <time>2012-09-29T08:46:02Z</time>
      </trkpt>
      <trkpt lat="48.45396" lon="2.66952">
        <ele>116.94</ele>
        <time>2012-09-29T08:46:03Z</time>
      </trkpt>
      <trkpt lat="48.45391" lon="2.66953">
        <ele>116.94</ele>
        <time>2012-09-29T08:46:04Z</time>
      </trkpt>
      <trkpt lat="48.45388" lon="2.66953">
        <ele>117.42</ele>
        <time>2012-09-29T08:46:05Z</time>
      </trkpt>
      <trkpt lat="48.45381" lon="2.66956">
        <ele>118.38</ele>
        <time>2012-09-29T08:46:08Z</time>
      </trkpt>
      <trkpt lat="48.4537" lon="2.66964">
        <ele>123.67</ele>
        <time>2012-09-29T08:46:20Z</time>
      </trkpt>
      <trkpt lat="48.45369" lon="2.66965">
        <ele>124.15</ele>
        <time>2012-09-29T08:46:21Z</time>
      </trkpt>
      <trkpt lat="48.45366" lon="2.66968">
        <ele>125.59</ele>
        <time>2012-09-29T08:46:25Z</time>
      </trkpt>
      <trkpt lat="48.45365" lon="2.66969">
        <ele>125.59</ele>
        <time>2012-09-29T08:46:26Z</time>
      </trkpt>
      <trkpt lat="48.45364" lon="2.66971">
        <ele>126.07</ele>
        <time>2012-09-29T08:46:27Z</time>
      </trkpt>
      <trkpt lat="48.45363" lon="2.66972">
        <ele>126.07</ele>
        <time>2012-09-29T08:46:28Z</time>
      </trkpt>
      <trkpt lat="48.45355" lon="2.66985">
        <ele>129.92</ele>
        <time>2012-09-29T08:46:38Z</time>
      </trkpt>
      <trkpt lat="48.45353" lon="2.66992">
        <ele>131.84</ele>
        <time>2012-09-29T08:46:43Z</time>
      </trkpt>
      <trkpt lat="48.45347" lon="2.67001">
        <ele>134.72</ele>
        <time>2012-09-29T08:46:51Z</time>
      </trkpt>
      <trkpt lat="48.45346" lon="2.67003">
        <ele>134.72</ele>
        <time>2012-09-29T08:46:52Z</time>
      </trkpt>
      <trkpt lat="48.45345" lon="2.67005">
        <ele>134.72</ele>
        <time>2012-09-29T08:46:53Z</time>
      </trkpt>
      <trkpt lat="48.45338" lon="2.67017">
        <ele>136.64</ele>
        <time>2012-09-29T08:47:06Z</time>
      </trkpt>
      <trkpt lat="48.4533" lon="2.67029">
        <ele>137.61</ele>
        <time>2012-09-29T08:47:15Z</time>
      </trkpt>
      <trkpt lat="48.45323" lon="2.67037">
        <ele>138.09</ele>
        <time>2012-09-29T08:47:24Z</time>
      </trkpt>
      <trkpt lat="48.45322" lon="2.67039">
        <ele>138.57</ele>
        <time>2012-09-29T08:47:25Z</time>
      </trkpt>
      <trkpt lat="48.45321" lon="2.6704">
        <ele>138.09</ele>
        <time>2012-09-29T08:47:26Z</time>
      </trkpt>
      <trkpt lat="48.4532" lon="2.67043">
        <ele>138.09</ele>
        <time>2012-09-29T08:47:28Z</time>
      </trkpt>
      <trkpt lat="48.45319" lon="2.67045">
        <ele>138.09</ele>
        <time>2012-09-29T08:47:29Z</time>
      </trkpt>
      <trkpt lat="48.45318" lon="2.67046">
        <ele>138.09</ele>
        <time>2012-09-29T08:47:30Z</time>
      </trkpt>
      <trkpt lat="48.45317" lon="2.67048">
        <ele>138.09</ele>
        <time>2012-09-29T08:47:31Z</time>
      </trkpt>
      <trkpt lat="48.45316" lon="2.67049">
        <ele>138.09</ele>
        <time>2012-09-29T08:47:32Z</time>
      </trkpt>
      <trkpt lat="48.45312" lon="2.6705">
        <ele>136.64</ele>
        <time>2012-09-29T08:47:44Z</time>
      </trkpt>
      <trkpt lat="48.45311" lon="2.67052">
        <ele>138.09</ele>
        <time>2012-09-29T08:48:12Z</time>
      </trkpt>
      <trkpt lat="48.4531" lon="2.67052">
        <ele>139.05</ele>
        <time>2012-09-29T08:48:35Z</time>
      </trkpt>
      <trkpt lat="48.45311" lon="2.67054">
        <ele>137.61</ele>
        <time>2012-09-29T08:49:01Z</time>
      </trkpt>
      <trkpt lat="48.45311" lon="2.67054">
        <ele>137.13</ele>
        <time>2012-09-29T08:49:25Z</time>
      </trkpt>
      <trkpt lat="48.45314" lon="2.67064">
        <ele>137.61</ele>
        <time>2012-09-29T08:49:31Z</time>
      </trkpt>
      <trkpt lat="48.45314" lon="2.67067">
        <ele>137.61</ele>
        <time>2012-09-29T08:49:32Z</time>
      </trkpt>
      <trkpt lat="48.45314" lon="2.6707">
        <ele>137.61</ele>
        <time>2012-09-29T08:49:33Z</time>
      </trkpt>
      <trkpt lat="48.45315" lon="2.67073">
        <ele>137.61</ele>
        <time>2012-09-29T08:49:34Z</time>
      </trkpt>
      <trkpt lat="48.45312" lon="2.67108">
        <ele>137.13</ele>
        <time>2012-09-29T08:49:44Z</time>
      </trkpt>
      <trkpt lat="48.45312" lon="2.67124">
        <ele>136.64</ele>
        <time>2012-09-29T08:49:47Z</time>
      </trkpt>
      <trkpt lat="48.45317" lon="2.67143">
        <ele>137.13</ele>
        <time>2012-09-29T08:49:56Z</time>
      </trkpt>
      <trkpt lat="48.45318" lon="2.67145">
        <ele>135.2</ele>
        <time>2012-09-29T08:50:14Z</time>
      </trkpt>
      <trkpt lat="48.45313" lon="2.67158">
        <ele>136.16</ele>
        <time>2012-09-29T08:50:28Z</time>
      </trkpt>
      <trkpt lat="48.45312" lon="2.67158">
        <ele>135.2</ele>
        <time>2012-09-29T08:50:36Z</time>
      </trkpt>
      <trkpt lat="48.45292" lon="2.67154">
        <ele>133.76</ele>
        <time>2012-09-29T08:50:46Z</time>
      </trkpt>
      <trkpt lat="48.45289" lon="2.67152">
        <ele>133.76</ele>
        <time>2012-09-29T08:50:47Z</time>
      </trkpt>
      <trkpt lat="48.45285" lon="2.67152">
        <ele>133.28</ele>
        <time>2012-09-29T08:50:48Z</time>
      </trkpt>
      <trkpt lat="48.45276" lon="2.67152">
        <ele>133.28</ele>
        <time>2012-09-29T08:50:51Z</time>
      </trkpt>
      <trkpt lat="48.45275" lon="2.67155">
        <ele>133.28</ele>
        <time>2012-09-29T08:50:52Z</time>
      </trkpt>
      <trkpt lat="48.45274" lon="2.67158">
        <ele>133.76</ele>
        <time>2012-09-29T08:50:53Z</time>
      </trkpt>
      <trkpt lat="48.45273" lon="2.67162">
        <ele>134.24</ele>
        <time>2012-09-29T08:50:54Z</time>
      </trkpt>
      <trkpt lat="48.45272" lon="2.67166">
        <ele>134.72</ele>
        <time>2012-09-29T08:50:55Z</time>
      </trkpt>
      <trkpt lat="48.4527" lon="2.67169">
        <ele>135.2</ele>
        <time>2012-09-29T08:50:56Z</time>
      </trkpt>
      <trkpt lat="48.45268" lon="2.67172">
        <ele>135.2</ele>
        <time>2012-09-29T08:50:57Z</time>
      </trkpt>
      <trkpt lat="48.45265" lon="2.67174">
        <ele>135.2</ele>
        <time>2012-09-29T08:50:58Z</time>
      </trkpt>
      <trkpt lat="48.45263" lon="2.67175">
        <ele>135.2</ele>
        <time>2012-09-29T08:50:59Z</time>
      </trkpt>
      <trkpt lat="48.45262" lon="2.67178">
        <ele>135.2</ele>
        <time>2012-09-29T08:51:00Z</time>
      </trkpt>
      <trkpt lat="48.45262" lon="2.67181">
        <ele>135.2</ele>
        <time>2012-09-29T08:51:01Z</time>
      </trkpt>
      <trkpt lat="48.45262" lon="2.67185">
        <ele>135.2</ele>
        <time>2012-09-29T08:51:02Z</time>
      </trkpt>
      <trkpt lat="48.4526" lon="2.67187">
        <ele>134.72</ele>
        <time>2012-09-29T08:51:03Z</time>
      </trkpt>
      <trkpt lat="48.45257" lon="2.67189">
        <ele>134.72</ele>
        <time>2012-09-29T08:51:04Z</time>
      </trkpt>
      <trkpt lat="48.45254" lon="2.67191">
        <ele>134.72</ele>
        <time>2012-09-29T08:51:05Z</time>
      </trkpt>
      <trkpt lat="48.45234" lon="2.67201">
        <ele>135.68</ele>
        <time>2012-09-29T08:51:11Z</time>
      </trkpt>
      <trkpt lat="48.45231" lon="2.67205">
        <ele>136.16</ele>
        <time>2012-09-29T08:51:12Z</time>
      </trkpt>
      <trkpt lat="48.45228" lon="2.67208">
        <ele>136.16</ele>
        <time>2012-09-29T08:51:13Z</time>
      </trkpt>
      <trkpt lat="48.45212" lon="2.6722">
        <ele>136.64</ele>
        <time>2012-09-29T08:51:18Z</time>
      </trkpt>
      <trkpt lat="48.4521" lon="2.67224">
        <ele>136.64</ele>
        <time>2012-09-29T08:51:19Z</time>
      </trkpt>
      <trkpt lat="48.45207" lon="2.67227">
        <ele>136.64</ele>
        <time>2012-09-29T08:51:20Z</time>
      </trkpt>
      <trkpt lat="48.45197" lon="2.67237">
        <ele>136.64</ele>
        <time>2012-09-29T08:51:23Z</time>
      </trkpt>
      <trkpt lat="48.45163" lon="2.67251">
        <ele>134.72</ele>
        <time>2012-09-29T08:51:33Z</time>
      </trkpt>
      <trkpt lat="48.45134" lon="2.67294">
        <ele>135.68</ele>
        <time>2012-09-29T08:51:45Z</time>
      </trkpt>
      <trkpt lat="48.45121" lon="2.67305">
        <ele>137.13</ele>
        <time>2012-09-29T08:51:51Z</time>
      </trkpt>
      <trkpt lat="48.45119" lon="2.67305">
        <ele>137.61</ele>
        <time>2012-09-29T08:51:52Z</time>
      </trkpt>
      <trkpt lat="48.45116" lon="2.67307">
        <ele>138.09</ele>
        <time>2012-09-29T08:51:53Z</time>
      </trkpt>
      <trkpt lat="48.45113" lon="2.67309">
        <ele>138.57</ele>
        <time>2012-09-29T08:51:54Z</time>
      </trkpt>
      <trkpt lat="48.4511" lon="2.67312">
        <ele>138.57</ele>
        <time>2012-09-29T08:51:55Z</time>
      </trkpt>
      <trkpt lat="48.45108" lon="2.67314">
        <ele>139.05</ele>
        <time>2012-09-29T08:51:56Z</time>
      </trkpt>
      <trkpt lat="48.45106" lon="2.67316">
        <ele>139.05</ele>
        <time>2012-09-29T08:51:57Z</time>
      </trkpt>
      <trkpt lat="48.45104" lon="2.67318">
        <ele>139.53</ele>
        <time>2012-09-29T08:51:58Z</time>
      </trkpt>
      <trkpt lat="48.45084" lon="2.67349">
        <ele>141.93</ele>
        <time>2012-09-29T08:52:07Z</time>
      </trkpt>
      <trkpt lat="48.4508" lon="2.6736">
        <ele>141.93</ele>
        <time>2012-09-29T08:52:09Z</time>
      </trkpt>
      <trkpt lat="48.45079" lon="2.67378">
        <ele>140.97</ele>
        <time>2012-09-29T08:52:12Z</time>
      </trkpt>
      <trkpt lat="48.45077" lon="2.67381">
        <ele>141.45</ele>
        <time>2012-09-29T08:52:13Z</time>
      </trkpt>
      <trkpt lat="48.45068" lon="2.67407">
        <ele>144.34</ele>
        <time>2012-09-29T08:52:25Z</time>
      </trkpt>
      <trkpt lat="48.4507" lon="2.67413">
        <ele>143.37</ele>
        <time>2012-09-29T08:52:34Z</time>
      </trkpt>
      <trkpt lat="48.4507" lon="2.67415">
        <ele>142.89</ele>
        <time>2012-09-29T08:52:35Z</time>
      </trkpt>
      <trkpt lat="48.4507" lon="2.67418">
        <ele>142.89</ele>
        <time>2012-09-29T08:52:36Z</time>
      </trkpt>
      <trkpt lat="48.45069" lon="2.6742">
        <ele>142.41</ele>
        <time>2012-09-29T08:52:37Z</time>
      </trkpt>
      <trkpt lat="48.45069" lon="2.67423">
        <ele>141.93</ele>
        <time>2012-09-29T08:52:38Z</time>
      </trkpt>
      <trkpt lat="48.4507" lon="2.67425">
        <ele>141.93</ele>
        <time>2012-09-29T08:52:39Z</time>
      </trkpt>
      <trkpt lat="48.45071" lon="2.67433">
        <ele>140.97</ele>
        <time>2012-09-29T08:52:42Z</time>
      </trkpt>
      <trkpt lat="48.45073" lon="2.67436">
        <ele>140.97</ele>
        <time>2012-09-29T08:52:43Z</time>
      </trkpt>
      <trkpt lat="48.45074" lon="2.67438">
        <ele>140.97</ele>
        <time>2012-09-29T08:52:44Z</time>
      </trkpt>
      <trkpt lat="48.45076" lon="2.67443">
        <ele>140.97</ele>
        <time>2012-09-29T08:52:45Z</time>
      </trkpt>
      <trkpt lat="48.45077" lon="2.67447">
        <ele>140.49</ele>
        <time>2012-09-29T08:52:46Z</time>
      </trkpt>
      <trkpt lat="48.45078" lon="2.6745">
        <ele>140.49</ele>
        <time>2012-09-29T08:52:47Z</time>
      </trkpt>
      <trkpt lat="48.45077" lon="2.67455">
        <ele>137.61</ele>
        <time>2012-09-29T08:53:00Z</time>
      </trkpt>
      <trkpt lat="48.45076" lon="2.67459">
        <ele>136.16</ele>
        <time>2012-09-29T08:53:19Z</time>
      </trkpt>
      <trkpt lat="48.45076" lon="2.67465">
        <ele>136.16</ele>
        <time>2012-09-29T08:53:24Z</time>
      </trkpt>
      <trkpt lat="48.45076" lon="2.67468">
        <ele>136.16</ele>
        <time>2012-09-29T08:53:25Z</time>
      </trkpt>
      <trkpt lat="48.45076" lon="2.67471">
        <ele>135.68</ele>
        <time>2012-09-29T08:53:26Z</time>
      </trkpt>
      <trkpt lat="48.45076" lon="2.67475">
        <ele>135.68</ele>
        <time>2012-09-29T08:53:27Z</time>
      </trkpt>
      <trkpt lat="48.45076" lon="2.67479">
        <ele>135.68</ele>
        <time>2012-09-29T08:53:28Z</time>
      </trkpt>
      <trkpt lat="48.45076" lon="2.67482">
        <ele>135.68</ele>
        <time>2012-09-29T08:53:29Z</time>
      </trkpt>
      <trkpt lat="48.45077" lon="2.67484">
        <ele>135.68</ele>
        <time>2012-09-29T08:53:30Z</time>
      </trkpt>
      <trkpt lat="48.45078" lon="2.67487">
        <ele>135.2</ele>
        <time>2012-09-29T08:53:31Z</time>
      </trkpt>
      <trkpt lat="48.45079" lon="2.67489">
        <ele>135.2</ele>
        <time>2012-09-29T08:53:32Z</time>
      </trkpt>
      <trkpt lat="48.4508" lon="2.67491">
        <ele>134.72</ele>
        <time>2012-09-29T08:53:33Z</time>
      </trkpt>
      <trkpt lat="48.45081" lon="2.67493">
        <ele>134.24</ele>
        <time>2012-09-29T08:53:34Z</time>
      </trkpt>
      <trkpt lat="48.45083" lon="2.67494">
        <ele>134.24</ele>
        <time>2012-09-29T08:53:35Z</time>
      </trkpt>
      <trkpt lat="48.45085" lon="2.67495">
        <ele>134.24</ele>
        <time>2012-09-29T08:53:36Z</time>
      </trkpt>
      <trkpt lat="48.45098" lon="2.67519">
        <ele>133.28</ele>
        <time>2012-09-29T08:53:44Z</time>
      </trkpt>
      <trkpt lat="48.45099" lon="2.67523">
        <ele>133.28</ele>
        <time>2012-09-29T08:53:45Z</time>
      </trkpt>
      <trkpt lat="48.451" lon="2.67527">
        <ele>133.76</ele>
        <time>2012-09-29T08:53:46Z</time>
      </trkpt>
      <trkpt lat="48.451" lon="2.67531">
        <ele>134.24</ele>
        <time>2012-09-29T08:53:47Z</time>
      </trkpt>
      <trkpt lat="48.45101" lon="2.67535">
        <ele>134.72</ele>
        <time>2012-09-29T08:53:48Z</time>
      </trkpt>
      <trkpt lat="48.45102" lon="2.67539">
        <ele>134.72</ele>
        <time>2012-09-29T08:53:49Z</time>
      </trkpt>
      <trkpt lat="48.45104" lon="2.67543">
        <ele>134.72</ele>
        <time>2012-09-29T08:53:50Z</time>
      </trkpt>
      <trkpt lat="48.45111" lon="2.67562">
        <ele>133.76</ele>
        <time>2012-09-29T08:53:56Z</time>
      </trkpt>
      <trkpt lat="48.45111" lon="2.67564">
        <ele>133.76</ele>
        <time>2012-09-29T08:53:57Z</time>
      </trkpt>
      <trkpt lat="48.45111" lon="2.67568">
        <ele>133.76</ele>
        <time>2012-09-29T08:53:58Z</time>
      </trkpt>
      <trkpt lat="48.45111" lon="2.67571">
        <ele>133.76</ele>
        <time>2012-09-29T08:53:59Z</time>
      </trkpt>
      <trkpt lat="48.45111" lon="2.67575">
        <ele>133.28</ele>
        <time>2012-09-29T08:54:00Z</time>
      </trkpt>
      <trkpt lat="48.4511" lon="2.67579">
        <ele>133.76</ele>
        <time>2012-09-29T08:54:01Z</time>
      </trkpt>
      <trkpt lat="48.4511" lon="2.67584">
        <ele>133.76</ele>
        <time>2012-09-29T08:54:02Z</time>
      </trkpt>
      <trkpt lat="48.4511" lon="2.67588">
        <ele>133.76</ele>
        <time>2012-09-29T08:54:03Z</time>
      </trkpt>
      <trkpt lat="48.45112" lon="2.67595">
        <ele>133.76</ele>
        <time>2012-09-29T08:54:04Z</time>
      </trkpt>
      <trkpt lat="48.45112" lon="2.67601">
        <ele>133.76</ele>
        <time>2012-09-29T08:54:05Z</time>
      </trkpt>
      <trkpt lat="48.45112" lon="2.67605">
        <ele>134.24</ele>
        <time>2012-09-29T08:54:06Z</time>
      </trkpt>
      <trkpt lat="48.45112" lon="2.67608">
        <ele>135.2</ele>
        <time>2012-09-29T08:54:07Z</time>
      </trkpt>
      <trkpt lat="48.45112" lon="2.67611">
        <ele>135.68</ele>
        <time>2012-09-29T08:54:08Z</time>
      </trkpt>
      <trkpt lat="48.45113" lon="2.67614">
        <ele>136.64</ele>
        <time>2012-09-29T08:54:09Z</time>
      </trkpt>
      <trkpt lat="48.45114" lon="2.67618">
        <ele>137.13</ele>
        <time>2012-09-29T08:54:10Z</time>
      </trkpt>
      <trkpt lat="48.45114" lon="2.67621">
        <ele>137.61</ele>
        <time>2012-09-29T08:54:11Z</time>
      </trkpt>
      <trkpt lat="48.45115" lon="2.67624">
        <ele>138.09</ele>
        <time>2012-09-29T08:54:12Z</time>
      </trkpt>
      <trkpt lat="48.45116" lon="2.67628">
        <ele>138.57</ele>
        <time>2012-09-29T08:54:13Z</time>
      </trkpt>
      <trkpt lat="48.45117" lon="2.67631">
        <ele>139.05</ele>
        <time>2012-09-29T08:54:14Z</time>
      </trkpt>
      <trkpt lat="48.45118" lon="2.67635">
        <ele>139.05</ele>
        <time>2012-09-29T08:54:15Z</time>
      </trkpt>
      <trkpt lat="48.45124" lon="2.67648">
        <ele>140.49</ele>
        <time>2012-09-29T08:54:19Z</time>
      </trkpt>
      <trkpt lat="48.45125" lon="2.67653">
        <ele>140.49</ele>
        <time>2012-09-29T08:54:20Z</time>
      </trkpt>
      <trkpt lat="48.45126" lon="2.67658">
        <ele>140.97</ele>
        <time>2012-09-29T08:54:21Z</time>
      </trkpt>
      <trkpt lat="48.45129" lon="2.67675">
        <ele>140.01</ele>
        <time>2012-09-29T08:54:24Z</time>
      </trkpt>
      <trkpt lat="48.45128" lon="2.67681">
        <ele>140.01</ele>
        <time>2012-09-29T08:54:25Z</time>
      </trkpt>
      <trkpt lat="48.45128" lon="2.67684">
        <ele>140.01</ele>
        <time>2012-09-29T08:54:26Z</time>
      </trkpt>
      <trkpt lat="48.45125" lon="2.67705">
        <ele>139.05</ele>
        <time>2012-09-29T08:54:30Z</time>
      </trkpt>
      <trkpt lat="48.45123" lon="2.67708">
        <ele>138.57</ele>
        <time>2012-09-29T08:54:31Z</time>
      </trkpt>
      <trkpt lat="48.45122" lon="2.67712">
        <ele>138.09</ele>
        <time>2012-09-29T08:54:32Z</time>
      </trkpt>
      <trkpt lat="48.45119" lon="2.67716">
        <ele>137.61</ele>
        <time>2012-09-29T08:54:33Z</time>
      </trkpt>
      <trkpt lat="48.45116" lon="2.67718">
        <ele>137.61</ele>
        <time>2012-09-29T08:54:34Z</time>
      </trkpt>
      <trkpt lat="48.45114" lon="2.67719">
        <ele>137.13</ele>
        <time>2012-09-29T08:54:35Z</time>
      </trkpt>
      <trkpt lat="48.45111" lon="2.67721">
        <ele>137.13</ele>
        <time>2012-09-29T08:54:36Z</time>
      </trkpt>
      <trkpt lat="48.4511" lon="2.67723">
        <ele>136.64</ele>
        <time>2012-09-29T08:54:37Z</time>
      </trkpt>
      <trkpt lat="48.45108" lon="2.67725">
        <ele>136.16</ele>
        <time>2012-09-29T08:54:38Z</time>
      </trkpt>
      <trkpt lat="48.45106" lon="2.67727">
        <ele>135.68</ele>
        <time>2012-09-29T08:54:39Z</time>
      </trkpt>
      <trkpt lat="48.45104" lon="2.67728">
        <ele>135.68</ele>
        <time>2012-09-29T08:54:40Z</time>
      </trkpt>
      <trkpt lat="48.45101" lon="2.67728">
        <ele>135.68</ele>
        <time>2012-09-29T08:54:41Z</time>
      </trkpt>
      <trkpt lat="48.45092" lon="2.67723">
        <ele>135.2</ele>
        <time>2012-09-29T08:54:46Z</time>
      </trkpt>
      <trkpt lat="48.45085" lon="2.67723">
        <ele>134.24</ele>
        <time>2012-09-29T08:54:48Z</time>
      </trkpt>
      <trkpt lat="48.45081" lon="2.67722">
        <ele>134.24</ele>
        <time>2012-09-29T08:54:49Z</time>
      </trkpt>
      <trkpt lat="48.45076" lon="2.67719">
        <ele>133.76</ele>
        <time>2012-09-29T08:54:50Z</time>
      </trkpt>
      <trkpt lat="48.45072" lon="2.67715">
        <ele>133.28</ele>
        <time>2012-09-29T08:54:51Z</time>
      </trkpt>
      <trkpt lat="48.45068" lon="2.6771">
        <ele>132.8</ele>
        <time>2012-09-29T08:54:52Z</time>
      </trkpt>
      <trkpt lat="48.45065" lon="2.67706">
        <ele>132.8</ele>
        <time>2012-09-29T08:54:53Z</time>
      </trkpt>
      <trkpt lat="48.45063" lon="2.67702">
        <ele>132.32</ele>
        <time>2012-09-29T08:54:54Z</time>
      </trkpt>
      <trkpt lat="48.45061" lon="2.67698">
        <ele>131.84</ele>
        <time>2012-09-29T08:54:55Z</time>
      </trkpt>
      <trkpt lat="48.45058" lon="2.67695">
        <ele>131.36</ele>
        <time>2012-09-29T08:54:56Z</time>
      </trkpt>
      <trkpt lat="48.45055" lon="2.67692">
        <ele>130.88</ele>
        <time>2012-09-29T08:54:57Z</time>
      </trkpt>
      <trkpt lat="48.45052" lon="2.67688">
        <ele>130.88</ele>
        <time>2012-09-29T08:54:58Z</time>
      </trkpt>
      <trkpt lat="48.45048" lon="2.67686">
        <ele>130.4</ele>
        <time>2012-09-29T08:54:59Z</time>
      </trkpt>
      <trkpt lat="48.45045" lon="2.67682">
        <ele>129.92</ele>
        <time>2012-09-29T08:55:00Z</time>
      </trkpt>
      <trkpt lat="48.45042" lon="2.67679">
        <ele>129.92</ele>
        <time>2012-09-29T08:55:01Z</time>
      </trkpt>
      <trkpt lat="48.4504" lon="2.67677">
        <ele>129.43</ele>
        <time>2012-09-29T08:55:02Z</time>
      </trkpt>
      <trkpt lat="48.45038" lon="2.67674">
        <ele>128.95</ele>
        <time>2012-09-29T08:55:03Z</time>
      </trkpt>
      <trkpt lat="48.45037" lon="2.67672">
        <ele>128.47</ele>
        <time>2012-09-29T08:55:04Z</time>
      </trkpt>
      <trkpt lat="48.45018" lon="2.67643">
        <ele>126.55</ele>
        <time>2012-09-29T08:55:14Z</time>
      </trkpt>
      <trkpt lat="48.44996" lon="2.67603">
        <ele>124.15</ele>
        <time>2012-09-29T08:55:24Z</time>
      </trkpt>
      <trkpt lat="48.44988" lon="2.67593">
        <ele>124.15</ele>
        <time>2012-09-29T08:55:32Z</time>
      </trkpt>
      <trkpt lat="48.44984" lon="2.67589">
        <ele>127.03</ele>
        <time>2012-09-29T08:55:51Z</time>
      </trkpt>
      <trkpt lat="48.44983" lon="2.67587">
        <ele>128.95</ele>
        <time>2012-09-29T08:56:20Z</time>
      </trkpt>
      <trkpt lat="48.44983" lon="2.6759">
        <ele>132.8</ele>
        <time>2012-09-29T08:56:51Z</time>
      </trkpt>
      <trkpt lat="48.44982" lon="2.67594">
        <ele>136.64</ele>
        <time>2012-09-29T08:57:25Z</time>
      </trkpt>
      <trkpt lat="48.44983" lon="2.67593">
        <ele>137.61</ele>
        <time>2012-09-29T08:57:53Z</time>
      </trkpt>
      <trkpt lat="48.44983" lon="2.67593">
        <ele>138.57</ele>
        <time>2012-09-29T08:58:26Z</time>
      </trkpt>
      <trkpt lat="48.44983" lon="2.67591">
        <ele>141.93</ele>
        <time>2012-09-29T08:58:59Z</time>
      </trkpt>
      <trkpt lat="48.44983" lon="2.67592">
        <ele>142.41</ele>
        <time>2012-09-29T08:59:33Z</time>
      </trkpt>
      <trkpt lat="48.44983" lon="2.67593">
        <ele>142.89</ele>
        <time>2012-09-29T09:00:03Z</time>
      </trkpt>
      <trkpt lat="48.44983" lon="2.67593">
        <ele>142.41</ele>
        <time>2012-09-29T09:00:22Z</time>
      </trkpt>
      <trkpt lat="48.44987" lon="2.67594">
        <ele>140.01</ele>
        <time>2012-09-29T09:00:52Z</time>
      </trkpt>
      <trkpt lat="48.44986" lon="2.67594">
        <ele>140.49</ele>
        <time>2012-09-29T09:01:08Z</time>
      </trkpt>
      <trkpt lat="48.44985" lon="2.67591">
        <ele>140.49</ele>
        <time>2012-09-29T09:01:27Z</time>
      </trkpt>
      <trkpt lat="48.44985" lon="2.67586">
        <ele>140.97</ele>
        <time>2012-09-29T09:01:29Z</time>
      </trkpt>
      <trkpt lat="48.44984" lon="2.67585">
        <ele>140.97</ele>
        <time>2012-09-29T09:01:30Z</time>
      </trkpt>
      <trkpt lat="48.44982" lon="2.67584">
        <ele>140.97</ele>
        <time>2012-09-29T09:01:31Z</time>
      </trkpt>
      <trkpt lat="48.44981" lon="2.67583">
        <ele>140.97</ele>
        <time>2012-09-29T09:01:32Z</time>
      </trkpt>
      <trkpt lat="48.44979" lon="2.67582">
        <ele>140.97</ele>
        <time>2012-09-29T09:01:33Z</time>
      </trkpt>
      <trkpt lat="48.44977" lon="2.67582">
        <ele>140.97</ele>
        <time>2012-09-29T09:01:34Z</time>
      </trkpt>
      <trkpt lat="48.44942" lon="2.67579">
        <ele>140.49</ele>
        <time>2012-09-29T09:01:44Z</time>
      </trkpt>
      <trkpt lat="48.44934" lon="2.67576">
        <ele>140.49</ele>
        <time>2012-09-29T09:01:46Z</time>
      </trkpt>
      <trkpt lat="48.44929" lon="2.67575">
        <ele>140.49</ele>
        <time>2012-09-29T09:01:47Z</time>
      </trkpt>
      <trkpt lat="48.44925" lon="2.67573">
        <ele>140.49</ele>
        <time>2012-09-29T09:01:48Z</time>
      </trkpt>
      <trkpt lat="48.44921" lon="2.67571">
        <ele>140.49</ele>
        <time>2012-09-29T09:01:49Z</time>
      </trkpt>
      <trkpt lat="48.44917" lon="2.6757">
        <ele>140.49</ele>
        <time>2012-09-29T09:01:50Z</time>
      </trkpt>
      <trkpt lat="48.44914" lon="2.67568">
        <ele>140.49</ele>
        <time>2012-09-29T09:01:51Z</time>
      </trkpt>
      <trkpt lat="48.44911" lon="2.67566">
        <ele>140.49</ele>
        <time>2012-09-29T09:01:52Z</time>
      </trkpt>
      <trkpt lat="48.44907" lon="2.67563">
        <ele>140.49</ele>
        <time>2012-09-29T09:01:53Z</time>
      </trkpt>
      <trkpt lat="48.44898" lon="2.67555">
        <ele>140.49</ele>
        <time>2012-09-29T09:01:56Z</time>
      </trkpt>
      <trkpt lat="48.44848" lon="2.67536">
        <ele>141.45</ele>
        <time>2012-09-29T09:02:10Z</time>
      </trkpt>
      <trkpt lat="48.44808" lon="2.67521">
        <ele>142.41</ele>
        <time>2012-09-29T09:02:22Z</time>
      </trkpt>
      <trkpt lat="48.44766" lon="2.675">
        <ele>140.01</ele>
        <time>2012-09-29T09:02:33Z</time>
      </trkpt>
      <trkpt lat="48.44746" lon="2.67492">
        <ele>139.05</ele>
        <time>2012-09-29T09:02:38Z</time>
      </trkpt>
      <trkpt lat="48.44726" lon="2.67482">
        <ele>139.05</ele>
        <time>2012-09-29T09:02:43Z</time>
      </trkpt>
      <trkpt lat="48.44691" lon="2.67462">
        <ele>138.57</ele>
        <time>2012-09-29T09:02:54Z</time>
      </trkpt>
      <trkpt lat="48.44687" lon="2.67457">
        <ele>137.61</ele>
        <time>2012-09-29T09:02:56Z</time>
      </trkpt>
      <trkpt lat="48.44676" lon="2.67441">
        <ele>136.16</ele>
        <time>2012-09-29T09:03:03Z</time>
      </trkpt>
      <trkpt lat="48.44673" lon="2.67436">
        <ele>136.16</ele>
        <time>2012-09-29T09:03:18Z</time>
      </trkpt>
      <trkpt lat="48.44673" lon="2.67438">
        <ele>135.68</ele>
        <time>2012-09-29T09:03:44Z</time>
      </trkpt>
      <trkpt lat="48.44668" lon="2.67431">
        <ele>136.64</ele>
        <time>2012-09-29T09:03:58Z</time>
      </trkpt>
      <trkpt lat="48.44665" lon="2.67426">
        <ele>137.13</ele>
        <time>2012-09-29T09:04:02Z</time>
      </trkpt>
      <trkpt lat="48.44664" lon="2.67424">
        <ele>137.13</ele>
        <time>2012-09-29T09:04:03Z</time>
      </trkpt>
      <trkpt lat="48.44662" lon="2.67421">
        <ele>137.13</ele>
        <time>2012-09-29T09:04:04Z</time>
      </trkpt>
      <trkpt lat="48.4466" lon="2.67418">
        <ele>137.13</ele>
        <time>2012-09-29T09:04:05Z</time>
      </trkpt>
      <trkpt lat="48.44658" lon="2.67415">
        <ele>137.13</ele>
        <time>2012-09-29T09:04:06Z</time>
      </trkpt>
      <trkpt lat="48.44624" lon="2.67379">
        <ele>135.2</ele>
        <time>2012-09-29T09:04:18Z</time>
      </trkpt>
      <trkpt lat="48.44618" lon="2.6737">
        <ele>136.16</ele>
        <time>2012-09-29T09:04:22Z</time>
      </trkpt>
      <trkpt lat="48.44617" lon="2.67369">
        <ele>137.13</ele>
        <time>2012-09-29T09:04:34Z</time>
      </trkpt>
      <trkpt lat="48.44617" lon="2.67369">
        <ele>137.61</ele>
        <time>2012-09-29T09:04:37Z</time>
      </trkpt>
      <trkpt lat="48.44617" lon="2.6737">
        <ele>137.61</ele>
        <time>2012-09-29T09:04:38Z</time>
      </trkpt>
      <trkpt lat="48.44618" lon="2.67372">
        <ele>137.61</ele>
        <time>2012-09-29T09:04:39Z</time>
      </trkpt>
      <trkpt lat="48.44619" lon="2.67374">
        <ele>137.13</ele>
        <time>2012-09-29T09:04:40Z</time>
      </trkpt>
      <trkpt lat="48.44619" lon="2.67376">
        <ele>137.13</ele>
        <time>2012-09-29T09:04:41Z</time>
      </trkpt>
      <trkpt lat="48.44619" lon="2.67378">
        <ele>136.64</ele>
        <time>2012-09-29T09:04:42Z</time>
      </trkpt>
      <trkpt lat="48.44618" lon="2.6738">
        <ele>136.64</ele>
        <time>2012-09-29T09:04:43Z</time>
      </trkpt>
      <trkpt lat="48.44602" lon="2.67386">
        <ele>137.13</ele>
        <time>2012-09-29T09:04:52Z</time>
      </trkpt>
      <trkpt lat="48.44583" lon="2.67402">
        <ele>139.53</ele>
        <time>2012-09-29T09:05:01Z</time>
      </trkpt>
      <trkpt lat="48.44563" lon="2.67425">
        <ele>140.97</ele>
        <time>2012-09-29T09:05:10Z</time>
      </trkpt>
      <trkpt lat="48.44532" lon="2.67456">
        <ele>144.82</ele>
        <time>2012-09-29T09:05:22Z</time>
      </trkpt>
      <trkpt lat="48.44504" lon="2.67488">
        <ele>150.1</ele>
        <time>2012-09-29T09:05:33Z</time>
      </trkpt>
      <trkpt lat="48.44487" lon="2.67507">
        <ele>153.47</ele>
        <time>2012-09-29T09:05:46Z</time>
      </trkpt>
      <trkpt lat="48.44463" lon="2.67532">
        <ele>154.91</ele>
        <time>2012-09-29T09:05:57Z</time>
      </trkpt>
      <trkpt lat="48.44442" lon="2.67553">
        <ele>154.91</ele>
        <time>2012-09-29T09:06:06Z</time>
      </trkpt>
      <trkpt lat="48.44404" lon="2.67597">
        <ele>160.2</ele>
        <time>2012-09-29T09:06:17Z</time>
      </trkpt>
      <trkpt lat="48.44366" lon="2.67636">
        <ele>157.31</ele>
        <time>2012-09-29T09:06:28Z</time>
      </trkpt>
      <trkpt lat="48.44343" lon="2.67676">
        <ele>157.31</ele>
        <time>2012-09-29T09:06:36Z</time>
      </trkpt>
      <trkpt lat="48.44341" lon="2.67682">
        <ele>156.83</ele>
        <time>2012-09-29T09:06:37Z</time>
      </trkpt>
      <trkpt lat="48.4434" lon="2.67688">
        <ele>156.83</ele>
        <time>2012-09-29T09:06:38Z</time>
      </trkpt>
      <trkpt lat="48.44338" lon="2.67695">
        <ele>156.83</ele>
        <time>2012-09-29T09:06:39Z</time>
      </trkpt>
      <trkpt lat="48.44337" lon="2.67702">
        <ele>156.35</ele>
        <time>2012-09-29T09:06:40Z</time>
      </trkpt>
      <trkpt lat="48.44336" lon="2.67708">
        <ele>156.35</ele>
        <time>2012-09-29T09:06:41Z</time>
      </trkpt>
      <trkpt lat="48.44334" lon="2.6772">
        <ele>156.35</ele>
        <time>2012-09-29T09:06:43Z</time>
      </trkpt>
      <trkpt lat="48.44327" lon="2.67757">
        <ele>155.87</ele>
        <time>2012-09-29T09:06:48Z</time>
      </trkpt>
      <trkpt lat="48.44322" lon="2.67792">
        <ele>154.91</ele>
        <time>2012-09-29T09:06:53Z</time>
      </trkpt>
      <trkpt lat="48.44319" lon="2.67816">
        <ele>154.43</ele>
        <time>2012-09-29T09:06:56Z</time>
      </trkpt>
      <trkpt lat="48.4432" lon="2.67831">
        <ele>153.95</ele>
        <time>2012-09-29T09:06:58Z</time>
      </trkpt>
      <trkpt lat="48.44321" lon="2.67839">
        <ele>153.47</ele>
        <time>2012-09-29T09:06:59Z</time>
      </trkpt>
      <trkpt lat="48.44322" lon="2.67847">
        <ele>153.47</ele>
        <time>2012-09-29T09:07:00Z</time>
      </trkpt>
      <trkpt lat="48.44323" lon="2.67855">
        <ele>152.99</ele>
        <time>2012-09-29T09:07:01Z</time>
      </trkpt>
      <trkpt lat="48.44324" lon="2.67863">
        <ele>152.51</ele>
        <time>2012-09-29T09:07:02Z</time>
      </trkpt>
      <trkpt lat="48.44325" lon="2.67867">
        <ele>152.51</ele>
        <time>2012-09-29T09:07:03Z</time>
      </trkpt>
      <trkpt lat="48.44321" lon="2.67872">
        <ele>149.62</ele>
        <time>2012-09-29T09:07:16Z</time>
      </trkpt>
      <trkpt lat="48.44321" lon="2.67875">
        <ele>147.22</ele>
        <time>2012-09-29T09:07:29Z</time>
      </trkpt>
      <trkpt lat="48.44321" lon="2.67877">
        <ele>145.78</ele>
        <time>2012-09-29T09:07:41Z</time>
      </trkpt>
      <trkpt lat="48.44322" lon="2.67876">
        <ele>146.74</ele>
        <time>2012-09-29T09:07:56Z</time>
      </trkpt>
      <trkpt lat="48.44316" lon="2.67874">
        <ele>144.82</ele>
        <time>2012-09-29T09:08:17Z</time>
      </trkpt>
      <trkpt lat="48.44318" lon="2.67877">
        <ele>143.85</ele>
        <time>2012-09-29T09:08:36Z</time>
      </trkpt>
      <trkpt lat="48.44322" lon="2.67896">
        <ele>144.34</ele>
        <time>2012-09-29T09:08:51Z</time>
      </trkpt>
      <trkpt lat="48.44308" lon="2.6794">
        <ele>145.78</ele>
        <time>2012-09-29T09:09:00Z</time>
      </trkpt>
      <trkpt lat="48.44294" lon="2.67965">
        <ele>145.78</ele>
        <time>2012-09-29T09:09:05Z</time>
      </trkpt>
      <trkpt lat="48.44283" lon="2.67998">
        <ele>144.82</ele>
        <time>2012-09-29T09:09:14Z</time>
      </trkpt>
      <trkpt lat="48.44284" lon="2.68">
        <ele>142.89</ele>
        <time>2012-09-29T09:09:27Z</time>
      </trkpt>
      <trkpt lat="48.44271" lon="2.6801">
        <ele>141.45</ele>
        <time>2012-09-29T09:09:33Z</time>
      </trkpt>
      <trkpt lat="48.4427" lon="2.68014">
        <ele>141.45</ele>
        <time>2012-09-29T09:09:34Z</time>
      </trkpt>
      <trkpt lat="48.44269" lon="2.68017">
        <ele>141.45</ele>
        <time>2012-09-29T09:09:35Z</time>
      </trkpt>
      <trkpt lat="48.44267" lon="2.68018">
        <ele>141.45</ele>
        <time>2012-09-29T09:09:36Z</time>
      </trkpt>
      <trkpt lat="48.44265" lon="2.68019">
        <ele>141.45</ele>
        <time>2012-09-29T09:09:37Z</time>
      </trkpt>
      <trkpt lat="48.44262" lon="2.68022">
        <ele>142.41</ele>
        <time>2012-09-29T09:09:49Z</time>
      </trkpt>
      <trkpt lat="48.44261" lon="2.68022">
        <ele>142.41</ele>
        <time>2012-09-29T09:09:51Z</time>
      </trkpt>
      <trkpt lat="48.44259" lon="2.68021">
        <ele>141.93</ele>
        <time>2012-09-29T09:09:53Z</time>
      </trkpt>
      <trkpt lat="48.44238" lon="2.6804">
        <ele>141.45</ele>
        <time>2012-09-29T09:10:03Z</time>
      </trkpt>
      <trkpt lat="48.4423" lon="2.68045">
        <ele>142.41</ele>
        <time>2012-09-29T09:10:14Z</time>
      </trkpt>
      <trkpt lat="48.44227" lon="2.68043">
        <ele>140.49</ele>
        <time>2012-09-29T09:10:34Z</time>
      </trkpt>
      <trkpt lat="48.44226" lon="2.68042">
        <ele>139.53</ele>
        <time>2012-09-29T09:11:05Z</time>
      </trkpt>
      <trkpt lat="48.44227" lon="2.68037">
        <ele>138.57</ele>
        <time>2012-09-29T09:11:44Z</time>
      </trkpt>
      <trkpt lat="48.44225" lon="2.68036">
        <ele>139.53</ele>
        <time>2012-09-29T09:12:21Z</time>
      </trkpt>
      <trkpt lat="48.44224" lon="2.68039">
        <ele>141.93</ele>
        <time>2012-09-29T09:12:45Z</time>
      </trkpt>
      <trkpt lat="48.44223" lon="2.6804">
        <ele>142.89</ele>
        <time>2012-09-29T09:13:10Z</time>
      </trkpt>
      <trkpt lat="48.44224" lon="2.68043">
        <ele>142.41</ele>
        <time>2012-09-29T09:13:22Z</time>
      </trkpt>
      <trkpt lat="48.44227" lon="2.68044">
        <ele>141.93</ele>
        <time>2012-09-29T09:13:26Z</time>
      </trkpt>
      <trkpt lat="48.44231" lon="2.68039">
        <ele>140.49</ele>
        <time>2012-09-29T09:13:30Z</time>
      </trkpt>
      <trkpt lat="48.44233" lon="2.68036">
        <ele>140.01</ele>
        <time>2012-09-29T09:13:31Z</time>
      </trkpt>
      <trkpt lat="48.44235" lon="2.68033">
        <ele>140.01</ele>
        <time>2012-09-29T09:13:32Z</time>
      </trkpt>
      <trkpt lat="48.44237" lon="2.6803">
        <ele>139.53</ele>
        <time>2012-09-29T09:13:33Z</time>
      </trkpt>
      <trkpt lat="48.4424" lon="2.68027">
        <ele>139.53</ele>
        <time>2012-09-29T09:13:34Z</time>
      </trkpt>
      <trkpt lat="48.44243" lon="2.68025">
        <ele>139.53</ele>
        <time>2012-09-29T09:13:35Z</time>
      </trkpt>
      <trkpt lat="48.44246" lon="2.68024">
        <ele>139.53</ele>
        <time>2012-09-29T09:13:36Z</time>
      </trkpt>
      <trkpt lat="48.44249" lon="2.68023">
        <ele>140.01</ele>
        <time>2012-09-29T09:13:37Z</time>
      </trkpt>
      <trkpt lat="48.44253" lon="2.68021">
        <ele>140.49</ele>
        <time>2012-09-29T09:13:39Z</time>
      </trkpt>
      <trkpt lat="48.44262" lon="2.68021">
        <ele>141.45</ele>
        <time>2012-09-29T09:13:43Z</time>
      </trkpt>
      <trkpt lat="48.44264" lon="2.68018">
        <ele>140.97</ele>
        <time>2012-09-29T09:13:44Z</time>
      </trkpt>
      <trkpt lat="48.44266" lon="2.68014">
        <ele>140.49</ele>
        <time>2012-09-29T09:13:45Z</time>
      </trkpt>
      <trkpt lat="48.44269" lon="2.6801">
        <ele>140.49</ele>
        <time>2012-09-29T09:13:46Z</time>
      </trkpt>
      <trkpt lat="48.44271" lon="2.68006">
        <ele>140.01</ele>
        <time>2012-09-29T09:13:47Z</time>
      </trkpt>
      <trkpt lat="48.44274" lon="2.68004">
        <ele>140.01</ele>
        <time>2012-09-29T09:13:48Z</time>
      </trkpt>
      <trkpt lat="48.44276" lon="2.68003">
        <ele>139.53</ele>
        <time>2012-09-29T09:13:49Z</time>
      </trkpt>
      <trkpt lat="48.44279" lon="2.68003">
        <ele>139.53</ele>
        <time>2012-09-29T09:13:50Z</time>
      </trkpt>
      <trkpt lat="48.44281" lon="2.68003">
        <ele>139.53</ele>
        <time>2012-09-29T09:13:51Z</time>
      </trkpt>
      <trkpt lat="48.44282" lon="2.68005">
        <ele>139.53</ele>
        <time>2012-09-29T09:13:52Z</time>
      </trkpt>
      <trkpt lat="48.44283" lon="2.68007">
        <ele>139.53</ele>
        <time>2012-09-29T09:13:53Z</time>
      </trkpt>
      <trkpt lat="48.44283" lon="2.68015">
        <ele>139.05</ele>
        <time>2012-09-29T09:13:56Z</time>
      </trkpt>
      <trkpt lat="48.44283" lon="2.68019">
        <ele>139.05</ele>
        <time>2012-09-29T09:13:57Z</time>
      </trkpt>
      <trkpt lat="48.44283" lon="2.68024">
        <ele>138.57</ele>
        <time>2012-09-29T09:13:58Z</time>
      </trkpt>
      <trkpt lat="48.44284" lon="2.68029">
        <ele>138.57</ele>
        <time>2012-09-29T09:13:59Z</time>
      </trkpt>
      <trkpt lat="48.44285" lon="2.68034">
        <ele>138.09</ele>
        <time>2012-09-29T09:14:00Z</time>
      </trkpt>
      <trkpt lat="48.44297" lon="2.68093">
        <ele>136.64</ele>
        <time>2012-09-29T09:14:07Z</time>
      </trkpt>
      <trkpt lat="48.44295" lon="2.68106">
        <ele>136.16</ele>
        <time>2012-09-29T09:14:08Z</time>
      </trkpt>
      <trkpt lat="48.44292" lon="2.68122">
        <ele>135.2</ele>
        <time>2012-09-29T09:14:09Z</time>
      </trkpt>
      <trkpt lat="48.44288" lon="2.68138">
        <ele>134.24</ele>
        <time>2012-09-29T09:14:10Z</time>
      </trkpt>
      <trkpt lat="48.44285" lon="2.68154">
        <ele>133.28</ele>
        <time>2012-09-29T09:14:11Z</time>
      </trkpt>
      <trkpt lat="48.44283" lon="2.68171">
        <ele>131.84</ele>
        <time>2012-09-29T09:14:12Z</time>
      </trkpt>
      <trkpt lat="48.44282" lon="2.68187">
        <ele>130.4</ele>
        <time>2012-09-29T09:14:13Z</time>
      </trkpt>
      <trkpt lat="48.44282" lon="2.68202">
        <ele>129.43</ele>
        <time>2012-09-29T09:14:14Z</time>
      </trkpt>
      <trkpt lat="48.44268" lon="2.68338">
        <ele>120.3</ele>
        <time>2012-09-29T09:14:23Z</time>
      </trkpt>
      <trkpt lat="48.44261" lon="2.68402">
        <ele>115.01</ele>
        <time>2012-09-29T09:14:28Z</time>
      </trkpt>
      <trkpt lat="48.44256" lon="2.68558">
        <ele>103</ele>
        <time>2012-09-29T09:14:39Z</time>
      </trkpt>
      <trkpt lat="48.44248" lon="2.68597">
        <ele>100.6</ele>
        <time>2012-09-29T09:14:42Z</time>
      </trkpt>
      <trkpt lat="48.44247" lon="2.68611">
        <ele>99.63</ele>
        <time>2012-09-29T09:14:43Z</time>
      </trkpt>
      <trkpt lat="48.44247" lon="2.68625">
        <ele>98.67</ele>
        <time>2012-09-29T09:14:44Z</time>
      </trkpt>
      <trkpt lat="48.4425" lon="2.6881">
        <ele>88.58</ele>
        <time>2012-09-29T09:15:00Z</time>
      </trkpt>
      <trkpt lat="48.44251" lon="2.68821">
        <ele>88.58</ele>
        <time>2012-09-29T09:15:01Z</time>
      </trkpt>
      <trkpt lat="48.44251" lon="2.68841">
        <ele>88.1</ele>
        <time>2012-09-29T09:15:03Z</time>
      </trkpt>
      <trkpt lat="48.44255" lon="2.68936">
        <ele>84.73</ele>
        <time>2012-09-29T09:15:13Z</time>
      </trkpt>
      <trkpt lat="48.44261" lon="2.68976">
        <ele>83.77</ele>
        <time>2012-09-29T09:15:23Z</time>
      </trkpt>
      <trkpt lat="48.44261" lon="2.68982">
        <ele>83.77</ele>
        <time>2012-09-29T09:15:26Z</time>
      </trkpt>
      <trkpt lat="48.44262" lon="2.68985">
        <ele>83.77</ele>
        <time>2012-09-29T09:15:27Z</time>
      </trkpt>
      <trkpt lat="48.44262" lon="2.68991">
        <ele>83.29</ele>
        <time>2012-09-29T09:15:28Z</time>
      </trkpt>
      <trkpt lat="48.44262" lon="2.68997">
        <ele>83.29</ele>
        <time>2012-09-29T09:15:29Z</time>
      </trkpt>
      <trkpt lat="48.44264" lon="2.69003">
        <ele>82.81</ele>
        <time>2012-09-29T09:15:30Z</time>
      </trkpt>
      <trkpt lat="48.44266" lon="2.6901">
        <ele>82.33</ele>
        <time>2012-09-29T09:15:31Z</time>
      </trkpt>
      <trkpt lat="48.44268" lon="2.69018">
        <ele>82.33</ele>
        <time>2012-09-29T09:15:32Z</time>
      </trkpt>
      <trkpt lat="48.44269" lon="2.69025">
        <ele>82.33</ele>
        <time>2012-09-29T09:15:33Z</time>
      </trkpt>
      <trkpt lat="48.44271" lon="2.69033">
        <ele>82.33</ele>
        <time>2012-09-29T09:15:34Z</time>
      </trkpt>
      <trkpt lat="48.44273" lon="2.6904">
        <ele>82.33</ele>
        <time>2012-09-29T09:15:35Z</time>
      </trkpt>
      <trkpt lat="48.44275" lon="2.69048">
        <ele>81.85</ele>
        <time>2012-09-29T09:15:36Z</time>
      </trkpt>
      <trkpt lat="48.44276" lon="2.69055">
        <ele>81.85</ele>
        <time>2012-09-29T09:15:37Z</time>
      </trkpt>
      <trkpt lat="48.44279" lon="2.69071">
        <ele>81.37</ele>
        <time>2012-09-29T09:15:39Z</time>
      </trkpt>
      <trkpt lat="48.44304" lon="2.69181">
        <ele>80.41</ele>
        <time>2012-09-29T09:15:53Z</time>
      </trkpt>
      <trkpt lat="48.44306" lon="2.69187">
        <ele>79.93</ele>
        <time>2012-09-29T09:15:54Z</time>
      </trkpt>
      <trkpt lat="48.44307" lon="2.69195">
        <ele>79.93</ele>
        <time>2012-09-29T09:15:55Z</time>
      </trkpt>
      <trkpt lat="48.44308" lon="2.69202">
        <ele>79.93</ele>
        <time>2012-09-29T09:15:56Z</time>
      </trkpt>
      <trkpt lat="48.4431" lon="2.69209">
        <ele>79.93</ele>
        <time>2012-09-29T09:15:57Z</time>
      </trkpt>
      <trkpt lat="48.44311" lon="2.69216">
        <ele>80.41</ele>
        <time>2012-09-29T09:15:58Z</time>
      </trkpt>
      <trkpt lat="48.44312" lon="2.69222">
        <ele>80.41</ele>
        <time>2012-09-29T09:15:59Z</time>
      </trkpt>
      <trkpt lat="48.4432" lon="2.69259">
        <ele>80.89</ele>
        <time>2012-09-29T09:16:05Z</time>
      </trkpt>
      <trkpt lat="48.44327" lon="2.69291">
        <ele>80.89</ele>
        <time>2012-09-29T09:16:10Z</time>
      </trkpt>
      <trkpt lat="48.4434" lon="2.69346">
        <ele>81.37</ele>
        <time>2012-09-29T09:16:19Z</time>
      </trkpt>
      <trkpt lat="48.44341" lon="2.69352">
        <ele>81.37</ele>
        <time>2012-09-29T09:16:20Z</time>
      </trkpt>
      <trkpt lat="48.44346" lon="2.69368">
        <ele>81.37</ele>
        <time>2012-09-29T09:16:23Z</time>
      </trkpt>
      <trkpt lat="48.44348" lon="2.69372">
        <ele>80.89</ele>
        <time>2012-09-29T09:16:24Z</time>
      </trkpt>
      <trkpt lat="48.4435" lon="2.69377">
        <ele>80.89</ele>
        <time>2012-09-29T09:16:25Z</time>
      </trkpt>
      <trkpt lat="48.44351" lon="2.69382">
        <ele>80.89</ele>
        <time>2012-09-29T09:16:26Z</time>
      </trkpt>
      <trkpt lat="48.44353" lon="2.69387">
        <ele>80.89</ele>
        <time>2012-09-29T09:16:27Z</time>
      </trkpt>
      <trkpt lat="48.44354" lon="2.69393">
        <ele>80.89</ele>
        <time>2012-09-29T09:16:28Z</time>
      </trkpt>
      <trkpt lat="48.44356" lon="2.69399">
        <ele>80.41</ele>
        <time>2012-09-29T09:16:29Z</time>
      </trkpt>
      <trkpt lat="48.44368" lon="2.6945">
        <ele>80.89</ele>
        <time>2012-09-29T09:16:40Z</time>
      </trkpt>
      <trkpt lat="48.44382" lon="2.69498">
        <ele>80.89</ele>
        <time>2012-09-29T09:16:51Z</time>
      </trkpt>
      <trkpt lat="48.444" lon="2.69553">
        <ele>84.25</ele>
        <time>2012-09-29T09:17:05Z</time>
      </trkpt>
      <trkpt lat="48.44414" lon="2.69604">
        <ele>86.18</ele>
        <time>2012-09-29T09:17:19Z</time>
      </trkpt>
      <trkpt lat="48.4443" lon="2.69648">
        <ele>89.54</ele>
        <time>2012-09-29T09:17:32Z</time>
      </trkpt>
      <trkpt lat="48.44431" lon="2.69656">
        <ele>90.02</ele>
        <time>2012-09-29T09:17:34Z</time>
      </trkpt>
      <trkpt lat="48.44434" lon="2.69669">
        <ele>89.54</ele>
        <time>2012-09-29T09:17:38Z</time>
      </trkpt>
      <trkpt lat="48.4444" lon="2.69691">
        <ele>90.02</ele>
        <time>2012-09-29T09:17:45Z</time>
      </trkpt>
      <trkpt lat="48.44453" lon="2.6974">
        <ele>90.5</ele>
        <time>2012-09-29T09:17:58Z</time>
      </trkpt>
      <trkpt lat="48.44465" lon="2.69777">
        <ele>91.94</ele>
        <time>2012-09-29T09:18:08Z</time>
      </trkpt>
      <trkpt lat="48.44482" lon="2.69813">
        <ele>90.98</ele>
        <time>2012-09-29T09:18:19Z</time>
      </trkpt>
      <trkpt lat="48.4448" lon="2.6981">
        <ele>90.02</ele>
        <time>2012-09-29T09:18:27Z</time>
      </trkpt>
      <trkpt lat="48.44479" lon="2.69808">
        <ele>89.54</ele>
        <time>2012-09-29T09:18:28Z</time>
      </trkpt>
      <trkpt lat="48.44478" lon="2.69806">
        <ele>89.54</ele>
        <time>2012-09-29T09:18:29Z</time>
      </trkpt>
      <trkpt lat="48.44476" lon="2.69804">
        <ele>89.06</ele>
        <time>2012-09-29T09:18:30Z</time>
      </trkpt>
      <trkpt lat="48.44474" lon="2.69801">
        <ele>88.58</ele>
        <time>2012-09-29T09:18:31Z</time>
      </trkpt>
      <trkpt lat="48.44472" lon="2.69799">
        <ele>88.58</ele>
        <time>2012-09-29T09:18:32Z</time>
      </trkpt>
      <trkpt lat="48.44471" lon="2.69797">
        <ele>88.58</ele>
        <time>2012-09-29T09:18:33Z</time>
      </trkpt>
      <trkpt lat="48.44469" lon="2.69795">
        <ele>88.1</ele>
        <time>2012-09-29T09:18:34Z</time>
      </trkpt>
      <trkpt lat="48.44432" lon="2.69789">
        <ele>89.06</ele>
        <time>2012-09-29T09:18:46Z</time>
      </trkpt>
      <trkpt lat="48.44377" lon="2.69789">
        <ele>93.39</ele>
        <time>2012-09-29T09:19:00Z</time>
      </trkpt>
      <trkpt lat="48.44309" lon="2.6979">
        <ele>94.83</ele>
        <time>2012-09-29T09:19:17Z</time>
      </trkpt>
      <trkpt lat="48.44303" lon="2.69791">
        <ele>94.83</ele>
        <time>2012-09-29T09:19:19Z</time>
      </trkpt>
      <trkpt lat="48.44303" lon="2.69794">
        <ele>94.83</ele>
        <time>2012-09-29T09:19:20Z</time>
      </trkpt>
      <trkpt lat="48.44304" lon="2.69798">
        <ele>94.83</ele>
        <time>2012-09-29T09:19:22Z</time>
      </trkpt>
      <trkpt lat="48.44305" lon="2.698">
        <ele>94.35</ele>
        <time>2012-09-29T09:19:23Z</time>
      </trkpt>
      <trkpt lat="48.44307" lon="2.69803">
        <ele>94.35</ele>
        <time>2012-09-29T09:19:24Z</time>
      </trkpt>
      <trkpt lat="48.44309" lon="2.69804">
        <ele>94.35</ele>
        <time>2012-09-29T09:19:25Z</time>
      </trkpt>
      <trkpt lat="48.4431" lon="2.69808">
        <ele>94.83</ele>
        <time>2012-09-29T09:19:26Z</time>
      </trkpt>
      <trkpt lat="48.44307" lon="2.6982">
        <ele>94.83</ele>
        <time>2012-09-29T09:19:29Z</time>
      </trkpt>
      <trkpt lat="48.44303" lon="2.6983">
        <ele>95.31</ele>
        <time>2012-09-29T09:19:31Z</time>
      </trkpt>
      <trkpt lat="48.44306" lon="2.69852">
        <ele>96.27</ele>
        <time>2012-09-29T09:19:35Z</time>
      </trkpt>
      <trkpt lat="48.44329" lon="2.69893">
        <ele>96.75</ele>
        <time>2012-09-29T09:19:44Z</time>
      </trkpt>
      <trkpt lat="48.44341" lon="2.69917">
        <ele>95.79</ele>
        <time>2012-09-29T09:19:49Z</time>
      </trkpt>
      <trkpt lat="48.44345" lon="2.69946">
        <ele>93.87</ele>
        <time>2012-09-29T09:19:54Z</time>
      </trkpt>
      <trkpt lat="48.44357" lon="2.69967">
        <ele>93.87</ele>
        <time>2012-09-29T09:19:58Z</time>
      </trkpt>
      <trkpt lat="48.44365" lon="2.70009">
        <ele>93.87</ele>
        <time>2012-09-29T09:20:05Z</time>
      </trkpt>
      <trkpt lat="48.44363" lon="2.70037">
        <ele>93.39</ele>
        <time>2012-09-29T09:20:09Z</time>
      </trkpt>
      <trkpt lat="48.44367" lon="2.70078">
        <ele>92.9</ele>
        <time>2012-09-29T09:20:15Z</time>
      </trkpt>
      <trkpt lat="48.44365" lon="2.70124">
        <ele>92.9</ele>
        <time>2012-09-29T09:20:22Z</time>
      </trkpt>
      <trkpt lat="48.44354" lon="2.70198">
        <ele>94.83</ele>
        <time>2012-09-29T09:20:35Z</time>
      </trkpt>
      <trkpt lat="48.44337" lon="2.70244">
        <ele>96.27</ele>
        <time>2012-09-29T09:20:45Z</time>
      </trkpt>
      <trkpt lat="48.44326" lon="2.70274">
        <ele>97.23</ele>
        <time>2012-09-29T09:20:51Z</time>
      </trkpt>
      <trkpt lat="48.44322" lon="2.70289">
        <ele>98.67</ele>
        <time>2012-09-29T09:20:54Z</time>
      </trkpt>
      <trkpt lat="48.44327" lon="2.70313">
        <ele>96.27</ele>
        <time>2012-09-29T09:21:00Z</time>
      </trkpt>
      <trkpt lat="48.44344" lon="2.70367">
        <ele>92.9</ele>
        <time>2012-09-29T09:21:11Z</time>
      </trkpt>
      <trkpt lat="48.44364" lon="2.70432">
        <ele>92.42</ele>
        <time>2012-09-29T09:21:24Z</time>
      </trkpt>
      <trkpt lat="48.44388" lon="2.70468">
        <ele>92.9</ele>
        <time>2012-09-29T09:21:35Z</time>
      </trkpt>
      <trkpt lat="48.44398" lon="2.7048">
        <ele>92.42</ele>
        <time>2012-09-29T09:21:39Z</time>
      </trkpt>
      <trkpt lat="48.44408" lon="2.70492">
        <ele>91.94</ele>
        <time>2012-09-29T09:21:50Z</time>
      </trkpt>
      <trkpt lat="48.44426" lon="2.70509">
        <ele>92.42</ele>
        <time>2012-09-29T09:21:59Z</time>
      </trkpt>
      <trkpt lat="48.44456" lon="2.7055">
        <ele>93.87</ele>
        <time>2012-09-29T09:22:10Z</time>
      </trkpt>
      <trkpt lat="48.44461" lon="2.70566">
        <ele>93.87</ele>
        <time>2012-09-29T09:22:14Z</time>
      </trkpt>
      <trkpt lat="48.44464" lon="2.70569">
        <ele>94.35</ele>
        <time>2012-09-29T09:22:15Z</time>
      </trkpt>
      <trkpt lat="48.44467" lon="2.70573">
        <ele>94.83</ele>
        <time>2012-09-29T09:22:16Z</time>
      </trkpt>
      <trkpt lat="48.44472" lon="2.70597">
        <ele>94.35</ele>
        <time>2012-09-29T09:22:20Z</time>
      </trkpt>
      <trkpt lat="48.44483" lon="2.70633">
        <ele>92.9</ele>
        <time>2012-09-29T09:22:26Z</time>
      </trkpt>
      <trkpt lat="48.4449" lon="2.70644">
        <ele>92.42</ele>
        <time>2012-09-29T09:22:29Z</time>
      </trkpt>
      <trkpt lat="48.44523" lon="2.70642">
        <ele>91.94</ele>
        <time>2012-09-29T09:22:38Z</time>
      </trkpt>
      <trkpt lat="48.44553" lon="2.7067">
        <ele>91.94</ele>
        <time>2012-09-29T09:22:48Z</time>
      </trkpt>
      <trkpt lat="48.44559" lon="2.70675">
        <ele>91.94</ele>
        <time>2012-09-29T09:22:50Z</time>
      </trkpt>
      <trkpt lat="48.44585" lon="2.7068">
        <ele>93.87</ele>
        <time>2012-09-29T09:22:58Z</time>
      </trkpt>
      <trkpt lat="48.44588" lon="2.70682">
        <ele>94.35</ele>
        <time>2012-09-29T09:22:59Z</time>
      </trkpt>
      <trkpt lat="48.44603" lon="2.70688">
        <ele>95.31</ele>
        <time>2012-09-29T09:23:09Z</time>
      </trkpt>
      <trkpt lat="48.44609" lon="2.7069">
        <ele>93.39</ele>
        <time>2012-09-29T09:23:12Z</time>
      </trkpt>
      <trkpt lat="48.44615" lon="2.7069">
        <ele>92.9</ele>
        <time>2012-09-29T09:23:14Z</time>
      </trkpt>
      <trkpt lat="48.44618" lon="2.70689">
        <ele>92.42</ele>
        <time>2012-09-29T09:23:15Z</time>
      </trkpt>
      <trkpt lat="48.44621" lon="2.7069">
        <ele>92.42</ele>
        <time>2012-09-29T09:23:16Z</time>
      </trkpt>
      <trkpt lat="48.44624" lon="2.70693">
        <ele>91.94</ele>
        <time>2012-09-29T09:23:17Z</time>
      </trkpt>
      <trkpt lat="48.44627" lon="2.70697">
        <ele>91.94</ele>
        <time>2012-09-29T09:23:18Z</time>
      </trkpt>
      <trkpt lat="48.44629" lon="2.707">
        <ele>91.46</ele>
        <time>2012-09-29T09:23:19Z</time>
      </trkpt>
      <trkpt lat="48.44629" lon="2.70704">
        <ele>91.46</ele>
        <time>2012-09-29T09:23:20Z</time>
      </trkpt>
      <trkpt lat="48.44628" lon="2.70709">
        <ele>91.94</ele>
        <time>2012-09-29T09:23:21Z</time>
      </trkpt>
      <trkpt lat="48.44628" lon="2.70715">
        <ele>91.94</ele>
        <time>2012-09-29T09:23:22Z</time>
      </trkpt>
      <trkpt lat="48.44628" lon="2.70721">
        <ele>91.94</ele>
        <time>2012-09-29T09:23:23Z</time>
      </trkpt>
      <trkpt lat="48.44629" lon="2.70726">
        <ele>91.46</ele>
        <time>2012-09-29T09:23:24Z</time>
      </trkpt>
      <trkpt lat="48.4463" lon="2.70731">
        <ele>91.46</ele>
        <time>2012-09-29T09:23:25Z</time>
      </trkpt>
      <trkpt lat="48.44631" lon="2.70737">
        <ele>91.46</ele>
        <time>2012-09-29T09:23:26Z</time>
      </trkpt>
      <trkpt lat="48.44632" lon="2.70741">
        <ele>91.94</ele>
        <time>2012-09-29T09:23:27Z</time>
      </trkpt>
      <trkpt lat="48.44643" lon="2.70748">
        <ele>91.46</ele>
        <time>2012-09-29T09:23:32Z</time>
      </trkpt>
      <trkpt lat="48.44642" lon="2.70762">
        <ele>91.46</ele>
        <time>2012-09-29T09:23:35Z</time>
      </trkpt>
      <trkpt lat="48.44646" lon="2.70774">
        <ele>90.98</ele>
        <time>2012-09-29T09:23:38Z</time>
      </trkpt>
      <trkpt lat="48.44648" lon="2.70781">
        <ele>90.5</ele>
        <time>2012-09-29T09:23:40Z</time>
      </trkpt>
      <trkpt lat="48.44648" lon="2.70786">
        <ele>90.5</ele>
        <time>2012-09-29T09:23:41Z</time>
      </trkpt>
      <trkpt lat="48.44648" lon="2.7079">
        <ele>90.5</ele>
        <time>2012-09-29T09:23:42Z</time>
      </trkpt>
      <trkpt lat="48.44649" lon="2.70794">
        <ele>90.02</ele>
        <time>2012-09-29T09:23:43Z</time>
      </trkpt>
      <trkpt lat="48.44668" lon="2.70847">
        <ele>87.14</ele>
        <time>2012-09-29T09:23:54Z</time>
      </trkpt>
      <trkpt lat="48.44666" lon="2.70911">
        <ele>86.18</ele>
        <time>2012-09-29T09:24:06Z</time>
      </trkpt>
      <trkpt lat="48.44663" lon="2.70922">
        <ele>85.69</ele>
        <time>2012-09-29T09:24:08Z</time>
      </trkpt>
      <trkpt lat="48.4466" lon="2.7094">
        <ele>85.69</ele>
        <time>2012-09-29T09:24:11Z</time>
      </trkpt>
      <trkpt lat="48.44647" lon="2.7099">
        <ele>84.25</ele>
        <time>2012-09-29T09:24:20Z</time>
      </trkpt>
      <trkpt lat="48.44637" lon="2.71031">
        <ele>85.69</ele>
        <time>2012-09-29T09:24:29Z</time>
      </trkpt>
      <trkpt lat="48.4464" lon="2.71081">
        <ele>85.21</ele>
        <time>2012-09-29T09:24:38Z</time>
      </trkpt>
      <trkpt lat="48.44641" lon="2.71097">
        <ele>85.69</ele>
        <time>2012-09-29T09:24:41Z</time>
      </trkpt>
      <trkpt lat="48.44636" lon="2.7113">
        <ele>86.66</ele>
        <time>2012-09-29T09:24:51Z</time>
      </trkpt>
      <trkpt lat="48.44623" lon="2.71138">
        <ele>88.58</ele>
        <time>2012-09-29T09:24:58Z</time>
      </trkpt>
      <trkpt lat="48.44608" lon="2.71163">
        <ele>90.5</ele>
        <time>2012-09-29T09:25:04Z</time>
      </trkpt>
      <trkpt lat="48.44609" lon="2.71181">
        <ele>92.42</ele>
        <time>2012-09-29T09:25:08Z</time>
      </trkpt>
      <trkpt lat="48.44611" lon="2.71191">
        <ele>92.9</ele>
        <time>2012-09-29T09:25:10Z</time>
      </trkpt>
      <trkpt lat="48.44612" lon="2.71211">
        <ele>93.39</ele>
        <time>2012-09-29T09:25:15Z</time>
      </trkpt>
      <trkpt lat="48.44614" lon="2.71229">
        <ele>94.35</ele>
        <time>2012-09-29T09:25:25Z</time>
      </trkpt>
      <trkpt lat="48.44613" lon="2.71229">
        <ele>93.39</ele>
        <time>2012-09-29T09:25:33Z</time>
      </trkpt>
      <trkpt lat="48.44622" lon="2.71244">
        <ele>92.42</ele>
        <time>2012-09-29T09:25:40Z</time>
      </trkpt>
      <trkpt lat="48.44626" lon="2.71251">
        <ele>92.42</ele>
        <time>2012-09-29T09:25:42Z</time>
      </trkpt>
      <trkpt lat="48.44636" lon="2.71302">
        <ele>90.02</ele>
        <time>2012-09-29T09:25:52Z</time>
      </trkpt>
      <trkpt lat="48.44638" lon="2.71347">
        <ele>88.58</ele>
        <time>2012-09-29T09:26:00Z</time>
      </trkpt>
      <trkpt lat="48.44646" lon="2.71371">
        <ele>88.1</ele>
        <time>2012-09-29T09:26:05Z</time>
      </trkpt>
      <trkpt lat="48.44654" lon="2.714">
        <ele>88.58</ele>
        <time>2012-09-29T09:26:11Z</time>
      </trkpt>
      <trkpt lat="48.44674" lon="2.7141">
        <ele>90.02</ele>
        <time>2012-09-29T09:26:18Z</time>
      </trkpt>
      <trkpt lat="48.44682" lon="2.71404">
        <ele>90.5</ele>
        <time>2012-09-29T09:26:21Z</time>
      </trkpt>
      <trkpt lat="48.44701" lon="2.71416">
        <ele>91.46</ele>
        <time>2012-09-29T09:26:29Z</time>
      </trkpt>
      <trkpt lat="48.44712" lon="2.71426">
        <ele>94.35</ele>
        <time>2012-09-29T09:26:41Z</time>
      </trkpt>
      <trkpt lat="48.44715" lon="2.7143">
        <ele>94.83</ele>
        <time>2012-09-29T09:26:48Z</time>
      </trkpt>
      <trkpt lat="48.44723" lon="2.71431">
        <ele>96.27</ele>
        <time>2012-09-29T09:26:53Z</time>
      </trkpt>
      <trkpt lat="48.44725" lon="2.71433">
        <ele>96.27</ele>
        <time>2012-09-29T09:26:54Z</time>
      </trkpt>
      <trkpt lat="48.44731" lon="2.71436">
        <ele>95.79</ele>
        <time>2012-09-29T09:26:56Z</time>
      </trkpt>
      <trkpt lat="48.44734" lon="2.71438">
        <ele>95.31</ele>
        <time>2012-09-29T09:26:57Z</time>
      </trkpt>
      <trkpt lat="48.44751" lon="2.71443">
        <ele>96.27</ele>
        <time>2012-09-29T09:27:05Z</time>
      </trkpt>
      <trkpt lat="48.44753" lon="2.71443">
        <ele>96.75</ele>
        <time>2012-09-29T09:27:06Z</time>
      </trkpt>
      <trkpt lat="48.44763" lon="2.71437">
        <ele>97.71</ele>
        <time>2012-09-29T09:27:11Z</time>
      </trkpt>
      <trkpt lat="48.44784" lon="2.71437">
        <ele>96.75</ele>
        <time>2012-09-29T09:27:18Z</time>
      </trkpt>
      <trkpt lat="48.44816" lon="2.71456">
        <ele>95.79</ele>
        <time>2012-09-29T09:27:27Z</time>
      </trkpt>
      <trkpt lat="48.4482" lon="2.7148">
        <ele>95.31</ele>
        <time>2012-09-29T09:27:34Z</time>
      </trkpt>
      <trkpt lat="48.44806" lon="2.71536">
        <ele>96.75</ele>
        <time>2012-09-29T09:27:46Z</time>
      </trkpt>
      <trkpt lat="48.44804" lon="2.71555">
        <ele>98.19</ele>
        <time>2012-09-29T09:27:50Z</time>
      </trkpt>
      <trkpt lat="48.44798" lon="2.71582">
        <ele>102.04</ele>
        <time>2012-09-29T09:27:57Z</time>
      </trkpt>
      <trkpt lat="48.44796" lon="2.71587">
        <ele>102.52</ele>
        <time>2012-09-29T09:27:59Z</time>
      </trkpt>
      <trkpt lat="48.44793" lon="2.71591">
        <ele>102.52</ele>
        <time>2012-09-29T09:28:02Z</time>
      </trkpt>
      <trkpt lat="48.44781" lon="2.71613">
        <ele>103</ele>
        <time>2012-09-29T09:28:11Z</time>
      </trkpt>
      <trkpt lat="48.44777" lon="2.71623">
        <ele>102.52</ele>
        <time>2012-09-29T09:28:15Z</time>
      </trkpt>
      <trkpt lat="48.44762" lon="2.71638">
        <ele>104.44</ele>
        <time>2012-09-29T09:28:21Z</time>
      </trkpt>
      <trkpt lat="48.44752" lon="2.71652">
        <ele>105.4</ele>
        <time>2012-09-29T09:28:25Z</time>
      </trkpt>
      <trkpt lat="48.44757" lon="2.71695">
        <ele>107.32</ele>
        <time>2012-09-29T09:28:35Z</time>
      </trkpt>
      <trkpt lat="48.44758" lon="2.71705">
        <ele>107.32</ele>
        <time>2012-09-29T09:28:37Z</time>
      </trkpt>
      <trkpt lat="48.44756" lon="2.71748">
        <ele>108.29</ele>
        <time>2012-09-29T09:28:47Z</time>
      </trkpt>
      <trkpt lat="48.44754" lon="2.71792">
        <ele>110.21</ele>
        <time>2012-09-29T09:28:55Z</time>
      </trkpt>
      <trkpt lat="48.44756" lon="2.71808">
        <ele>109.73</ele>
        <time>2012-09-29T09:28:58Z</time>
      </trkpt>
      <trkpt lat="48.44771" lon="2.7182">
        <ele>108.29</ele>
        <time>2012-09-29T09:29:09Z</time>
      </trkpt>
      <trkpt lat="48.44784" lon="2.71834">
        <ele>105.88</ele>
        <time>2012-09-29T09:29:17Z</time>
      </trkpt>
      <trkpt lat="48.44785" lon="2.71874">
        <ele>105.4</ele>
        <time>2012-09-29T09:29:25Z</time>
      </trkpt>
      <trkpt lat="48.44781" lon="2.71893">
        <ele>105.4</ele>
        <time>2012-09-29T09:29:29Z</time>
      </trkpt>
      <trkpt lat="48.44779" lon="2.71907">
        <ele>105.4</ele>
        <time>2012-09-29T09:29:32Z</time>
      </trkpt>
      <trkpt lat="48.44759" lon="2.71921">
        <ele>109.73</ele>
        <time>2012-09-29T09:29:41Z</time>
      </trkpt>
      <trkpt lat="48.44736" lon="2.71901">
        <ele>113.09</ele>
        <time>2012-09-29T09:29:50Z</time>
      </trkpt>
      <trkpt lat="48.44726" lon="2.71893">
        <ele>113.09</ele>
        <time>2012-09-29T09:29:55Z</time>
      </trkpt>
      <trkpt lat="48.44715" lon="2.71889">
        <ele>113.09</ele>
        <time>2012-09-29T09:29:59Z</time>
      </trkpt>
      <trkpt lat="48.44706" lon="2.71907">
        <ele>113.57</ele>
        <time>2012-09-29T09:30:05Z</time>
      </trkpt>
      <trkpt lat="48.44715" lon="2.71958">
        <ele>109.73</ele>
        <time>2012-09-29T09:30:18Z</time>
      </trkpt>
      <trkpt lat="48.44709" lon="2.71996">
        <ele>106.36</ele>
        <time>2012-09-29T09:30:28Z</time>
      </trkpt>
      <trkpt lat="48.44702" lon="2.72022">
        <ele>104.44</ele>
        <time>2012-09-29T09:30:33Z</time>
      </trkpt>
      <trkpt lat="48.447" lon="2.72026">
        <ele>104.44</ele>
        <time>2012-09-29T09:30:34Z</time>
      </trkpt>
      <trkpt lat="48.44699" lon="2.72031">
        <ele>104.44</ele>
        <time>2012-09-29T09:30:35Z</time>
      </trkpt>
      <trkpt lat="48.44698" lon="2.72036">
        <ele>104.44</ele>
        <time>2012-09-29T09:30:36Z</time>
      </trkpt>
      <trkpt lat="48.447" lon="2.72056">
        <ele>103.48</ele>
        <time>2012-09-29T09:30:40Z</time>
      </trkpt>
      <trkpt lat="48.44702" lon="2.72102">
        <ele>103</ele>
        <time>2012-09-29T09:30:51Z</time>
      </trkpt>
      <trkpt lat="48.44718" lon="2.72125">
        <ele>102.04</ele>
        <time>2012-09-29T09:30:57Z</time>
      </trkpt>
      <trkpt lat="48.44746" lon="2.7215">
        <ele>101.08</ele>
        <time>2012-09-29T09:31:07Z</time>
      </trkpt>
      <trkpt lat="48.44771" lon="2.72168">
        <ele>100.6</ele>
        <time>2012-09-29T09:31:15Z</time>
      </trkpt>
      <trkpt lat="48.44774" lon="2.7217">
        <ele>100.6</ele>
        <time>2012-09-29T09:31:16Z</time>
      </trkpt>
      <trkpt lat="48.44787" lon="2.72177">
        <ele>99.63</ele>
        <time>2012-09-29T09:31:25Z</time>
      </trkpt>
      <trkpt lat="48.44791" lon="2.72189">
        <ele>98.67</ele>
        <time>2012-09-29T09:31:30Z</time>
      </trkpt>
      <trkpt lat="48.44795" lon="2.72194">
        <ele>99.63</ele>
        <time>2012-09-29T09:31:32Z</time>
      </trkpt>
      <trkpt lat="48.44799" lon="2.72209">
        <ele>101.56</ele>
        <time>2012-09-29T09:31:37Z</time>
      </trkpt>
      <trkpt lat="48.44799" lon="2.72213">
        <ele>101.56</ele>
        <time>2012-09-29T09:31:38Z</time>
      </trkpt>
      <trkpt lat="48.44799" lon="2.72217">
        <ele>102.04</ele>
        <time>2012-09-29T09:31:39Z</time>
      </trkpt>
      <trkpt lat="48.448" lon="2.72219">
        <ele>102.52</ele>
        <time>2012-09-29T09:31:40Z</time>
      </trkpt>
      <trkpt lat="48.448" lon="2.72222">
        <ele>102.52</ele>
        <time>2012-09-29T09:31:41Z</time>
      </trkpt>
      <trkpt lat="48.44801" lon="2.72235">
        <ele>103</ele>
        <time>2012-09-29T09:31:46Z</time>
      </trkpt>
      <trkpt lat="48.44802" lon="2.7224">
        <ele>103</ele>
        <time>2012-09-29T09:31:48Z</time>
      </trkpt>
      <trkpt lat="48.44803" lon="2.72247">
        <ele>103</ele>
        <time>2012-09-29T09:31:50Z</time>
      </trkpt>
      <trkpt lat="48.44807" lon="2.72261">
        <ele>101.56</ele>
        <time>2012-09-29T09:31:55Z</time>
      </trkpt>
      <trkpt lat="48.44811" lon="2.72278">
        <ele>100.11</ele>
        <time>2012-09-29T09:32:01Z</time>
      </trkpt>
      <trkpt lat="48.44836" lon="2.72343">
        <ele>98.19</ele>
        <time>2012-09-29T09:32:15Z</time>
      </trkpt>
      <trkpt lat="48.44859" lon="2.72395">
        <ele>97.71</ele>
        <time>2012-09-29T09:32:26Z</time>
      </trkpt>
      <trkpt lat="48.44862" lon="2.72425">
        <ele>97.71</ele>
        <time>2012-09-29T09:32:31Z</time>
      </trkpt>
      <trkpt lat="48.44862" lon="2.72448">
        <ele>96.27</ele>
        <time>2012-09-29T09:32:35Z</time>
      </trkpt>
      <trkpt lat="48.44866" lon="2.72497">
        <ele>94.35</ele>
        <time>2012-09-29T09:32:45Z</time>
      </trkpt>
      <trkpt lat="48.44874" lon="2.72528">
        <ele>92.9</ele>
        <time>2012-09-29T09:32:51Z</time>
      </trkpt>
      <trkpt lat="48.44866" lon="2.72592">
        <ele>95.79</ele>
        <time>2012-09-29T09:33:03Z</time>
      </trkpt>
      <trkpt lat="48.44858" lon="2.72651">
        <ele>97.71</ele>
        <time>2012-09-29T09:33:13Z</time>
      </trkpt>
      <trkpt lat="48.44867" lon="2.72711">
        <ele>97.71</ele>
        <time>2012-09-29T09:33:24Z</time>
      </trkpt>
      <trkpt lat="48.44874" lon="2.72748">
        <ele>97.23</ele>
        <time>2012-09-29T09:33:30Z</time>
      </trkpt>
      <trkpt lat="48.44877" lon="2.72751">
        <ele>94.83</ele>
        <time>2012-09-29T09:33:44Z</time>
      </trkpt>
      <trkpt lat="48.44879" lon="2.7275">
        <ele>92.9</ele>
        <time>2012-09-29T09:34:05Z</time>
      </trkpt>
      <trkpt lat="48.4488" lon="2.72748">
        <ele>90.5</ele>
        <time>2012-09-29T09:34:21Z</time>
      </trkpt>
      <trkpt lat="48.44882" lon="2.72747">
        <ele>90.98</ele>
        <time>2012-09-29T09:34:57Z</time>
      </trkpt>
      <trkpt lat="48.44883" lon="2.72747">
        <ele>92.42</ele>
        <time>2012-09-29T09:35:28Z</time>
      </trkpt>
      <trkpt lat="48.44881" lon="2.72747">
        <ele>93.39</ele>
        <time>2012-09-29T09:35:54Z</time>
      </trkpt>
      <trkpt lat="48.44881" lon="2.72748">
        <ele>94.35</ele>
        <time>2012-09-29T09:36:12Z</time>
      </trkpt>
      <trkpt lat="48.44881" lon="2.72749">
        <ele>93.87</ele>
        <time>2012-09-29T09:36:40Z</time>
      </trkpt>
      <trkpt lat="48.44882" lon="2.72753">
        <ele>94.35</ele>
        <time>2012-09-29T09:36:58Z</time>
      </trkpt>
      <trkpt lat="48.44884" lon="2.72759">
        <ele>93.39</ele>
        <time>2012-09-29T09:37:12Z</time>
      </trkpt>
      <trkpt lat="48.44883" lon="2.72775">
        <ele>92.42</ele>
        <time>2012-09-29T09:37:17Z</time>
      </trkpt>
      <trkpt lat="48.44881" lon="2.7278">
        <ele>92.42</ele>
        <time>2012-09-29T09:37:18Z</time>
      </trkpt>
      <trkpt lat="48.44878" lon="2.72784">
        <ele>91.94</ele>
        <time>2012-09-29T09:37:19Z</time>
      </trkpt>
      <trkpt lat="48.44874" lon="2.72788">
        <ele>91.94</ele>
        <time>2012-09-29T09:37:20Z</time>
      </trkpt>
      <trkpt lat="48.44871" lon="2.72792">
        <ele>91.94</ele>
        <time>2012-09-29T09:37:21Z</time>
      </trkpt>
      <trkpt lat="48.44867" lon="2.72797">
        <ele>91.46</ele>
        <time>2012-09-29T09:37:22Z</time>
      </trkpt>
      <trkpt lat="48.44864" lon="2.72803">
        <ele>91.94</ele>
        <time>2012-09-29T09:37:23Z</time>
      </trkpt>
      <trkpt lat="48.44861" lon="2.72808">
        <ele>91.94</ele>
        <time>2012-09-29T09:37:24Z</time>
      </trkpt>
      <trkpt lat="48.44859" lon="2.72814">
        <ele>91.94</ele>
        <time>2012-09-29T09:37:25Z</time>
      </trkpt>
      <trkpt lat="48.44859" lon="2.7282">
        <ele>91.94</ele>
        <time>2012-09-29T09:37:26Z</time>
      </trkpt>
      <trkpt lat="48.44864" lon="2.7283">
        <ele>91.94</ele>
        <time>2012-09-29T09:37:29Z</time>
      </trkpt>
      <trkpt lat="48.44884" lon="2.72847">
        <ele>93.39</ele>
        <time>2012-09-29T09:37:37Z</time>
      </trkpt>
      <trkpt lat="48.4492" lon="2.72879">
        <ele>94.83</ele>
        <time>2012-09-29T09:37:51Z</time>
      </trkpt>
      <trkpt lat="48.44925" lon="2.72884">
        <ele>95.31</ele>
        <time>2012-09-29T09:37:55Z</time>
      </trkpt>
      <trkpt lat="48.44946" lon="2.72905">
        <ele>93.87</ele>
        <time>2012-09-29T09:38:04Z</time>
      </trkpt>
      <trkpt lat="48.44972" lon="2.72941">
        <ele>95.31</ele>
        <time>2012-09-29T09:38:19Z</time>
      </trkpt>
      <trkpt lat="48.44979" lon="2.72978">
        <ele>94.35</ele>
        <time>2012-09-29T09:38:31Z</time>
      </trkpt>
      <trkpt lat="48.4498" lon="2.72999">
        <ele>93.39</ele>
        <time>2012-09-29T09:38:46Z</time>
      </trkpt>
      <trkpt lat="48.44985" lon="2.7306">
        <ele>94.35</ele>
        <time>2012-09-29T09:38:56Z</time>
      </trkpt>
      <trkpt lat="48.44994" lon="2.73138">
        <ele>96.75</ele>
        <time>2012-09-29T09:39:10Z</time>
      </trkpt>
      <trkpt lat="48.45005" lon="2.73214">
        <ele>94.83</ele>
        <time>2012-09-29T09:39:23Z</time>
      </trkpt>
      <trkpt lat="48.45007" lon="2.73314">
        <ele>92.9</ele>
        <time>2012-09-29T09:39:39Z</time>
      </trkpt>
      <trkpt lat="48.45008" lon="2.73326">
        <ele>92.9</ele>
        <time>2012-09-29T09:39:41Z</time>
      </trkpt>
      <trkpt lat="48.45009" lon="2.73349">
        <ele>94.35</ele>
        <time>2012-09-29T09:39:45Z</time>
      </trkpt>
      <trkpt lat="48.45018" lon="2.73429">
        <ele>92.9</ele>
        <time>2012-09-29T09:39:58Z</time>
      </trkpt>
      <trkpt lat="48.45022" lon="2.73454">
        <ele>92.9</ele>
        <time>2012-09-29T09:40:02Z</time>
      </trkpt>
      <trkpt lat="48.45022" lon="2.73521">
        <ele>92.9</ele>
        <time>2012-09-29T09:40:12Z</time>
      </trkpt>
      <trkpt lat="48.45024" lon="2.73593">
        <ele>94.83</ele>
        <time>2012-09-29T09:40:26Z</time>
      </trkpt>
      <trkpt lat="48.45024" lon="2.73607">
        <ele>95.31</ele>
        <time>2012-09-29T09:40:37Z</time>
      </trkpt>
      <trkpt lat="48.45021" lon="2.73608">
        <ele>95.31</ele>
        <time>2012-09-29T09:40:44Z</time>
      </trkpt>
      <trkpt lat="48.4501" lon="2.73615">
        <ele>93.39</ele>
        <time>2012-09-29T09:40:53Z</time>
      </trkpt>
      <trkpt lat="48.44987" lon="2.73643">
        <ele>96.75</ele>
        <time>2012-09-29T09:41:05Z</time>
      </trkpt>
      <trkpt lat="48.44984" lon="2.73644">
        <ele>96.75</ele>
        <time>2012-09-29T09:41:06Z</time>
      </trkpt>
      <trkpt lat="48.44981" lon="2.73646">
        <ele>97.71</ele>
        <time>2012-09-29T09:41:07Z</time>
      </trkpt>
      <trkpt lat="48.44979" lon="2.7365">
        <ele>98.19</ele>
        <time>2012-09-29T09:41:08Z</time>
      </trkpt>
      <trkpt lat="48.44977" lon="2.73654">
        <ele>98.67</ele>
        <time>2012-09-29T09:41:09Z</time>
      </trkpt>
      <trkpt lat="48.44942" lon="2.73689">
        <ele>102.52</ele>
        <time>2012-09-29T09:41:20Z</time>
      </trkpt>
      <trkpt lat="48.44902" lon="2.73731">
        <ele>107.32</ele>
        <time>2012-09-29T09:41:33Z</time>
      </trkpt>
      <trkpt lat="48.44874" lon="2.73766">
        <ele>110.21</ele>
        <time>2012-09-29T09:41:43Z</time>
      </trkpt>
      <trkpt lat="48.44837" lon="2.73801">
        <ele>109.25</ele>
        <time>2012-09-29T09:41:55Z</time>
      </trkpt>
      <trkpt lat="48.44808" lon="2.73829">
        <ele>106.36</ele>
        <time>2012-09-29T09:42:05Z</time>
      </trkpt>
      <trkpt lat="48.44807" lon="2.73831">
        <ele>105.88</ele>
        <time>2012-09-29T09:42:06Z</time>
      </trkpt>
      <trkpt lat="48.44804" lon="2.73834">
        <ele>105.88</ele>
        <time>2012-09-29T09:42:07Z</time>
      </trkpt>
      <trkpt lat="48.44778" lon="2.7386">
        <ele>105.88</ele>
        <time>2012-09-29T09:42:19Z</time>
      </trkpt>
      <trkpt lat="48.44748" lon="2.73889">
        <ele>105.4</ele>
        <time>2012-09-29T09:42:31Z</time>
      </trkpt>
      <trkpt lat="48.44726" lon="2.73915">
        <ele>106.84</ele>
        <time>2012-09-29T09:42:44Z</time>
      </trkpt>
      <trkpt lat="48.44693" lon="2.73947">
        <ele>106.36</ele>
        <time>2012-09-29T09:42:57Z</time>
      </trkpt>
      <trkpt lat="48.44655" lon="2.73984">
        <ele>105.4</ele>
        <time>2012-09-29T09:43:08Z</time>
      </trkpt>
      <trkpt lat="48.44628" lon="2.74017">
        <ele>105.88</ele>
        <time>2012-09-29T09:43:20Z</time>
      </trkpt>
      <trkpt lat="48.44582" lon="2.74059">
        <ele>103</ele>
        <time>2012-09-29T09:43:35Z</time>
      </trkpt>
      <trkpt lat="48.44569" lon="2.74074">
        <ele>103.48</ele>
        <time>2012-09-29T09:43:40Z</time>
      </trkpt>
      <trkpt lat="48.44566" lon="2.74076">
        <ele>103</ele>
        <time>2012-09-29T09:43:41Z</time>
      </trkpt>
      <trkpt lat="48.44563" lon="2.74079">
        <ele>103.48</ele>
        <time>2012-09-29T09:43:42Z</time>
      </trkpt>
      <trkpt lat="48.44525" lon="2.74122">
        <ele>103.96</ele>
        <time>2012-09-29T09:43:55Z</time>
      </trkpt>
      <trkpt lat="48.44495" lon="2.74152">
        <ele>104.92</ele>
        <time>2012-09-29T09:44:05Z</time>
      </trkpt>
      <trkpt lat="48.44455" lon="2.74187">
        <ele>103.48</ele>
        <time>2012-09-29T09:44:17Z</time>
      </trkpt>
      <trkpt lat="48.44446" lon="2.74197">
        <ele>103</ele>
        <time>2012-09-29T09:44:27Z</time>
      </trkpt>
      <trkpt lat="48.4445" lon="2.74198">
        <ele>102.04</ele>
        <time>2012-09-29T09:44:48Z</time>
      </trkpt>
      <trkpt lat="48.4445" lon="2.74196">
        <ele>104.44</ele>
        <time>2012-09-29T09:45:23Z</time>
      </trkpt>
      <trkpt lat="48.44448" lon="2.74196">
        <ele>103.96</ele>
        <time>2012-09-29T09:46:05Z</time>
      </trkpt>
      <trkpt lat="48.44448" lon="2.74198">
        <ele>103.48</ele>
        <time>2012-09-29T09:46:28Z</time>
      </trkpt>
      <trkpt lat="48.44448" lon="2.74197">
        <ele>103.48</ele>
        <time>2012-09-29T09:46:38Z</time>
      </trkpt>
      <trkpt lat="48.4444" lon="2.7416">
        <ele>97.23</ele>
        <time>2012-09-29T09:46:50Z</time>
      </trkpt>
      <trkpt lat="48.44429" lon="2.74111">
        <ele>92.9</ele>
        <time>2012-09-29T09:47:01Z</time>
      </trkpt>
      <trkpt lat="48.44429" lon="2.741">
        <ele>92.9</ele>
        <time>2012-09-29T09:47:03Z</time>
      </trkpt>
      <trkpt lat="48.44422" lon="2.74037">
        <ele>93.39</ele>
        <time>2012-09-29T09:47:14Z</time>
      </trkpt>
      <trkpt lat="48.4441" lon="2.74009">
        <ele>93.39</ele>
        <time>2012-09-29T09:47:19Z</time>
      </trkpt>
      <trkpt lat="48.444" lon="2.73979">
        <ele>92.9</ele>
        <time>2012-09-29T09:47:24Z</time>
      </trkpt>
      <trkpt lat="48.44392" lon="2.73963">
        <ele>91.46</ele>
        <time>2012-09-29T09:47:27Z</time>
      </trkpt>
      <trkpt lat="48.4436" lon="2.73938">
        <ele>91.94</ele>
        <time>2012-09-29T09:47:35Z</time>
      </trkpt>
      <trkpt lat="48.44341" lon="2.73935">
        <ele>91.46</ele>
        <time>2012-09-29T09:47:38Z</time>
      </trkpt>
      <trkpt lat="48.44329" lon="2.73935">
        <ele>90.98</ele>
        <time>2012-09-29T09:47:40Z</time>
      </trkpt>
      <trkpt lat="48.44294" lon="2.73915">
        <ele>89.06</ele>
        <time>2012-09-29T09:47:48Z</time>
      </trkpt>
      <trkpt lat="48.44268" lon="2.73911">
        <ele>90.02</ele>
        <time>2012-09-29T09:47:55Z</time>
      </trkpt>
      <trkpt lat="48.44239" lon="2.73899">
        <ele>90.02</ele>
        <time>2012-09-29T09:48:03Z</time>
      </trkpt>
      <trkpt lat="48.44216" lon="2.73907">
        <ele>90.02</ele>
        <time>2012-09-29T09:48:14Z</time>
      </trkpt>
      <trkpt lat="48.44194" lon="2.73903">
        <ele>90.5</ele>
        <time>2012-09-29T09:48:23Z</time>
      </trkpt>
      <trkpt lat="48.44176" lon="2.73899">
        <ele>90.98</ele>
        <time>2012-09-29T09:48:29Z</time>
      </trkpt>
      <trkpt lat="48.44164" lon="2.739">
        <ele>90.98</ele>
        <time>2012-09-29T09:48:33Z</time>
      </trkpt>
      <trkpt lat="48.44151" lon="2.73902">
        <ele>90.98</ele>
        <time>2012-09-29T09:48:36Z</time>
      </trkpt>
      <trkpt lat="48.44138" lon="2.73887">
        <ele>91.46</ele>
        <time>2012-09-29T09:48:40Z</time>
      </trkpt>
      <trkpt lat="48.4413" lon="2.73859">
        <ele>91.46</ele>
        <time>2012-09-29T09:48:44Z</time>
      </trkpt>
      <trkpt lat="48.44114" lon="2.73835">
        <ele>90.5</ele>
        <time>2012-09-29T09:48:49Z</time>
      </trkpt>
      <trkpt lat="48.44099" lon="2.73805">
        <ele>90.5</ele>
        <time>2012-09-29T09:48:54Z</time>
      </trkpt>
      <trkpt lat="48.44096" lon="2.73772">
        <ele>90.5</ele>
        <time>2012-09-29T09:48:59Z</time>
      </trkpt>
      <trkpt lat="48.44115" lon="2.73729">
        <ele>90.5</ele>
        <time>2012-09-29T09:49:11Z</time>
      </trkpt>
      <trkpt lat="48.44118" lon="2.73725">
        <ele>92.42</ele>
        <time>2012-09-29T09:49:26Z</time>
      </trkpt>
      <trkpt lat="48.4412" lon="2.73717">
        <ele>90.98</ele>
        <time>2012-09-29T09:49:46Z</time>
      </trkpt>
      <trkpt lat="48.44144" lon="2.73682">
        <ele>89.06</ele>
        <time>2012-09-29T09:49:57Z</time>
      </trkpt>
      <trkpt lat="48.44155" lon="2.73657">
        <ele>89.54</ele>
        <time>2012-09-29T09:50:02Z</time>
      </trkpt>
      <trkpt lat="48.44164" lon="2.73622">
        <ele>88.58</ele>
        <time>2012-09-29T09:50:09Z</time>
      </trkpt>
      <trkpt lat="48.44158" lon="2.73588">
        <ele>85.21</ele>
        <time>2012-09-29T09:50:14Z</time>
      </trkpt>
      <trkpt lat="48.44141" lon="2.73557">
        <ele>84.73</ele>
        <time>2012-09-29T09:50:22Z</time>
      </trkpt>
      <trkpt lat="48.44133" lon="2.73549">
        <ele>86.66</ele>
        <time>2012-09-29T09:50:28Z</time>
      </trkpt>
      <trkpt lat="48.4413" lon="2.73548">
        <ele>86.66</ele>
        <time>2012-09-29T09:50:29Z</time>
      </trkpt>
      <trkpt lat="48.44127" lon="2.73546">
        <ele>86.18</ele>
        <time>2012-09-29T09:50:30Z</time>
      </trkpt>
      <trkpt lat="48.44125" lon="2.73544">
        <ele>86.18</ele>
        <time>2012-09-29T09:50:31Z</time>
      </trkpt>
      <trkpt lat="48.44123" lon="2.73541">
        <ele>86.18</ele>
        <time>2012-09-29T09:50:32Z</time>
      </trkpt>
      <trkpt lat="48.4412" lon="2.73536">
        <ele>86.66</ele>
        <time>2012-09-29T09:50:34Z</time>
      </trkpt>
      <trkpt lat="48.44118" lon="2.73535">
        <ele>86.66</ele>
        <time>2012-09-29T09:50:35Z</time>
      </trkpt>
      <trkpt lat="48.4409" lon="2.73509">
        <ele>86.18</ele>
        <time>2012-09-29T09:50:46Z</time>
      </trkpt>
      <trkpt lat="48.44054" lon="2.73467">
        <ele>88.1</ele>
        <time>2012-09-29T09:50:58Z</time>
      </trkpt>
      <trkpt lat="48.44018" lon="2.73425">
        <ele>88.58</ele>
        <time>2012-09-29T09:51:10Z</time>
      </trkpt>
      <trkpt lat="48.43985" lon="2.73385">
        <ele>90.02</ele>
        <time>2012-09-29T09:51:21Z</time>
      </trkpt>
      <trkpt lat="48.43954" lon="2.73354">
        <ele>90.02</ele>
        <time>2012-09-29T09:51:29Z</time>
      </trkpt>
      <trkpt lat="48.43947" lon="2.73346">
        <ele>90.5</ele>
        <time>2012-09-29T09:51:31Z</time>
      </trkpt>
      <trkpt lat="48.43936" lon="2.73334">
        <ele>90.02</ele>
        <time>2012-09-29T09:51:34Z</time>
      </trkpt>
      <trkpt lat="48.43932" lon="2.7333">
        <ele>90.02</ele>
        <time>2012-09-29T09:51:35Z</time>
      </trkpt>
      <trkpt lat="48.43879" lon="2.73272">
        <ele>90.5</ele>
        <time>2012-09-29T09:51:49Z</time>
      </trkpt>
      <trkpt lat="48.43875" lon="2.73268">
        <ele>90.5</ele>
        <time>2012-09-29T09:51:50Z</time>
      </trkpt>
      <trkpt lat="48.43864" lon="2.73256">
        <ele>90.02</ele>
        <time>2012-09-29T09:51:53Z</time>
      </trkpt>
      <trkpt lat="48.4386" lon="2.73252">
        <ele>89.54</ele>
        <time>2012-09-29T09:51:54Z</time>
      </trkpt>
      <trkpt lat="48.43856" lon="2.73248">
        <ele>89.54</ele>
        <time>2012-09-29T09:51:55Z</time>
      </trkpt>
      <trkpt lat="48.43853" lon="2.73244">
        <ele>89.54</ele>
        <time>2012-09-29T09:51:56Z</time>
      </trkpt>
      <trkpt lat="48.43849" lon="2.7324">
        <ele>89.54</ele>
        <time>2012-09-29T09:51:57Z</time>
      </trkpt>
      <trkpt lat="48.43833" lon="2.7322">
        <ele>90.5</ele>
        <time>2012-09-29T09:52:02Z</time>
      </trkpt>
      <trkpt lat="48.43829" lon="2.73216">
        <ele>90.5</ele>
        <time>2012-09-29T09:52:03Z</time>
      </trkpt>
      <trkpt lat="48.4379" lon="2.73173">
        <ele>90.02</ele>
        <time>2012-09-29T09:52:15Z</time>
      </trkpt>
      <trkpt lat="48.43785" lon="2.73167">
        <ele>89.54</ele>
        <time>2012-09-29T09:52:17Z</time>
      </trkpt>
      <trkpt lat="48.43776" lon="2.73157">
        <ele>90.02</ele>
        <time>2012-09-29T09:52:27Z</time>
      </trkpt>
      <trkpt lat="48.43773" lon="2.73151">
        <ele>90.02</ele>
        <time>2012-09-29T09:52:42Z</time>
      </trkpt>
      <trkpt lat="48.43769" lon="2.73143">
        <ele>89.54</ele>
        <time>2012-09-29T09:52:53Z</time>
      </trkpt>
      <trkpt lat="48.43764" lon="2.7314">
        <ele>90.5</ele>
        <time>2012-09-29T09:53:18Z</time>
      </trkpt>
      <trkpt lat="48.43744" lon="2.73114">
        <ele>89.06</ele>
        <time>2012-09-29T09:53:27Z</time>
      </trkpt>
      <trkpt lat="48.43712" lon="2.73078">
        <ele>90.5</ele>
        <time>2012-09-29T09:53:38Z</time>
      </trkpt>
      <trkpt lat="48.43686" lon="2.7305">
        <ele>91.94</ele>
        <time>2012-09-29T09:53:47Z</time>
      </trkpt>
      <trkpt lat="48.43663" lon="2.73024">
        <ele>93.87</ele>
        <time>2012-09-29T09:53:59Z</time>
      </trkpt>
      <trkpt lat="48.43648" lon="2.73005">
        <ele>93.87</ele>
        <time>2012-09-29T09:54:05Z</time>
      </trkpt>
      <trkpt lat="48.43631" lon="2.72988">
        <ele>92.9</ele>
        <time>2012-09-29T09:54:09Z</time>
      </trkpt>
      <trkpt lat="48.43613" lon="2.72964">
        <ele>90.98</ele>
        <time>2012-09-29T09:54:14Z</time>
      </trkpt>
      <trkpt lat="48.43599" lon="2.72949">
        <ele>90.5</ele>
        <time>2012-09-29T09:54:18Z</time>
      </trkpt>
      <trkpt lat="48.43591" lon="2.72942">
        <ele>90.02</ele>
        <time>2012-09-29T09:54:20Z</time>
      </trkpt>
      <trkpt lat="48.43587" lon="2.72938">
        <ele>90.02</ele>
        <time>2012-09-29T09:54:21Z</time>
      </trkpt>
      <trkpt lat="48.43585" lon="2.72934">
        <ele>89.54</ele>
        <time>2012-09-29T09:54:22Z</time>
      </trkpt>
      <trkpt lat="48.43583" lon="2.72931">
        <ele>89.54</ele>
        <time>2012-09-29T09:54:23Z</time>
      </trkpt>
      <trkpt lat="48.43581" lon="2.72928">
        <ele>89.54</ele>
        <time>2012-09-29T09:54:24Z</time>
      </trkpt>
      <trkpt lat="48.43578" lon="2.72925">
        <ele>90.02</ele>
        <time>2012-09-29T09:54:25Z</time>
      </trkpt>
      <trkpt lat="48.43576" lon="2.72923">
        <ele>90.02</ele>
        <time>2012-09-29T09:54:26Z</time>
      </trkpt>
      <trkpt lat="48.43573" lon="2.72921">
        <ele>90.5</ele>
        <time>2012-09-29T09:54:27Z</time>
      </trkpt>
      <trkpt lat="48.43571" lon="2.7292">
        <ele>90.98</ele>
        <time>2012-09-29T09:54:28Z</time>
      </trkpt>
      <trkpt lat="48.43569" lon="2.72917">
        <ele>90.98</ele>
        <time>2012-09-29T09:54:29Z</time>
      </trkpt>
      <trkpt lat="48.43567" lon="2.72915">
        <ele>91.46</ele>
        <time>2012-09-29T09:54:30Z</time>
      </trkpt>
      <trkpt lat="48.43565" lon="2.72913">
        <ele>91.46</ele>
        <time>2012-09-29T09:54:31Z</time>
      </trkpt>
      <trkpt lat="48.43563" lon="2.72911">
        <ele>91.94</ele>
        <time>2012-09-29T09:54:32Z</time>
      </trkpt>
      <trkpt lat="48.43545" lon="2.7289">
        <ele>92.9</ele>
        <time>2012-09-29T09:54:42Z</time>
      </trkpt>
      <trkpt lat="48.43542" lon="2.72887">
        <ele>93.39</ele>
        <time>2012-09-29T09:54:43Z</time>
      </trkpt>
      <trkpt lat="48.4354" lon="2.72884">
        <ele>93.39</ele>
        <time>2012-09-29T09:54:44Z</time>
      </trkpt>
      <trkpt lat="48.43514" lon="2.72847">
        <ele>96.27</ele>
        <time>2012-09-29T09:54:56Z</time>
      </trkpt>
      <trkpt lat="48.435" lon="2.72836">
        <ele>98.19</ele>
        <time>2012-09-29T09:55:02Z</time>
      </trkpt>
      <trkpt lat="48.43475" lon="2.7282">
        <ele>104.44</ele>
        <time>2012-09-29T09:55:14Z</time>
      </trkpt>
      <trkpt lat="48.43454" lon="2.72807">
        <ele>107.81</ele>
        <time>2012-09-29T09:55:25Z</time>
      </trkpt>
      <trkpt lat="48.43438" lon="2.7279">
        <ele>110.69</ele>
        <time>2012-09-29T09:55:36Z</time>
      </trkpt>
      <trkpt lat="48.43422" lon="2.72784">
        <ele>113.09</ele>
        <time>2012-09-29T09:55:47Z</time>
      </trkpt>
      <trkpt lat="48.43409" lon="2.72781">
        <ele>115.5</ele>
        <time>2012-09-29T09:55:58Z</time>
      </trkpt>
      <trkpt lat="48.43405" lon="2.72782">
        <ele>115.5</ele>
        <time>2012-09-29T09:56:02Z</time>
      </trkpt>
      <trkpt lat="48.43403" lon="2.72782">
        <ele>115.5</ele>
        <time>2012-09-29T09:56:03Z</time>
      </trkpt>
      <trkpt lat="48.43401" lon="2.72782">
        <ele>115.98</ele>
        <time>2012-09-29T09:56:04Z</time>
      </trkpt>
      <trkpt lat="48.43388" lon="2.72784">
        <ele>116.94</ele>
        <time>2012-09-29T09:56:18Z</time>
      </trkpt>
      <trkpt lat="48.43386" lon="2.72783">
        <ele>116.94</ele>
        <time>2012-09-29T09:56:43Z</time>
      </trkpt>
      <trkpt lat="48.43385" lon="2.72782">
        <ele>116.94</ele>
        <time>2012-09-29T09:56:44Z</time>
      </trkpt>
      <trkpt lat="48.43383" lon="2.7278">
        <ele>116.94</ele>
        <time>2012-09-29T09:56:45Z</time>
      </trkpt>
      <trkpt lat="48.43382" lon="2.72779">
        <ele>116.94</ele>
        <time>2012-09-29T09:56:46Z</time>
      </trkpt>
      <trkpt lat="48.43383" lon="2.72773">
        <ele>116.46</ele>
        <time>2012-09-29T09:56:58Z</time>
      </trkpt>
      <trkpt lat="48.43383" lon="2.72757">
        <ele>117.42</ele>
        <time>2012-09-29T09:57:12Z</time>
      </trkpt>
      <trkpt lat="48.43384" lon="2.72738">
        <ele>116.46</ele>
        <time>2012-09-29T09:57:22Z</time>
      </trkpt>
      <trkpt lat="48.43384" lon="2.72729">
        <ele>116.46</ele>
        <time>2012-09-29T09:57:26Z</time>
      </trkpt>
      <trkpt lat="48.43377" lon="2.72713">
        <ele>118.38</ele>
        <time>2012-09-29T09:57:34Z</time>
      </trkpt>
      <trkpt lat="48.43373" lon="2.72704">
        <ele>121.74</ele>
        <time>2012-09-29T09:57:45Z</time>
      </trkpt>
      <trkpt lat="48.43373" lon="2.72704">
        <ele>122.71</ele>
        <time>2012-09-29T09:58:00Z</time>
      </trkpt>
      <trkpt lat="48.43373" lon="2.72697">
        <ele>124.15</ele>
        <time>2012-09-29T09:58:19Z</time>
      </trkpt>
      <trkpt lat="48.4338" lon="2.72692">
        <ele>126.55</ele>
        <time>2012-09-29T09:58:33Z</time>
      </trkpt>
      <trkpt lat="48.43381" lon="2.72681">
        <ele>128.95</ele>
        <time>2012-09-29T09:58:47Z</time>
      </trkpt>
      <trkpt lat="48.43381" lon="2.72672">
        <ele>129.92</ele>
        <time>2012-09-29T09:59:01Z</time>
      </trkpt>
      <trkpt lat="48.43381" lon="2.72668">
        <ele>130.4</ele>
        <time>2012-09-29T09:59:13Z</time>
      </trkpt>
      <trkpt lat="48.43381" lon="2.72668">
        <ele>129.92</ele>
        <time>2012-09-29T09:59:39Z</time>
      </trkpt>
      <trkpt lat="48.4338" lon="2.72668">
        <ele>129.43</ele>
        <time>2012-09-29T10:00:10Z</time>
      </trkpt>
      <trkpt lat="48.4338" lon="2.72668">
        <ele>129.92</ele>
        <time>2012-09-29T10:00:46Z</time>
      </trkpt>
      <trkpt lat="48.4338" lon="2.72668">
        <ele>130.4</ele>
        <time>2012-09-29T10:01:07Z</time>
      </trkpt>
      <trkpt lat="48.43381" lon="2.72664">
        <ele>130.88</ele>
        <time>2012-09-29T10:01:25Z</time>
      </trkpt>
      <trkpt lat="48.43381" lon="2.72665">
        <ele>130.4</ele>
        <time>2012-09-29T10:01:49Z</time>
      </trkpt>
      <trkpt lat="48.4338" lon="2.72664">
        <ele>130.4</ele>
        <time>2012-09-29T10:01:53Z</time>
      </trkpt>
      <trkpt lat="48.43378" lon="2.72664">
        <ele>130.4</ele>
        <time>2012-09-29T10:02:04Z</time>
      </trkpt>
      <trkpt lat="48.43378" lon="2.72665">
        <ele>129.92</ele>
        <time>2012-09-29T10:02:27Z</time>
      </trkpt>
      <trkpt lat="48.43379" lon="2.72664">
        <ele>130.4</ele>
        <time>2012-09-29T10:02:34Z</time>
      </trkpt>
      <trkpt lat="48.43381" lon="2.72664">
        <ele>130.88</ele>
        <time>2012-09-29T10:02:36Z</time>
      </trkpt>
      <trkpt lat="48.434" lon="2.72638">
        <ele>132.8</ele>
        <time>2012-09-29T10:02:47Z</time>
      </trkpt>
      <trkpt lat="48.43401" lon="2.72627">
        <ele>133.28</ele>
        <time>2012-09-29T10:02:50Z</time>
      </trkpt>
      <trkpt lat="48.43391" lon="2.72599">
        <ele>134.72</ele>
        <time>2012-09-29T10:02:59Z</time>
      </trkpt>
      <trkpt lat="48.43389" lon="2.72598">
        <ele>135.2</ele>
        <time>2012-09-29T10:03:00Z</time>
      </trkpt>
      <trkpt lat="48.43388" lon="2.72598">
        <ele>135.2</ele>
        <time>2012-09-29T10:03:01Z</time>
      </trkpt>
      <trkpt lat="48.43378" lon="2.72585">
        <ele>135.68</ele>
        <time>2012-09-29T10:03:07Z</time>
      </trkpt>
      <trkpt lat="48.43377" lon="2.72583">
        <ele>135.68</ele>
        <time>2012-09-29T10:03:08Z</time>
      </trkpt>
      <trkpt lat="48.43377" lon="2.72581">
        <ele>135.2</ele>
        <time>2012-09-29T10:03:09Z</time>
      </trkpt>
      <trkpt lat="48.43377" lon="2.72579">
        <ele>135.2</ele>
        <time>2012-09-29T10:03:10Z</time>
      </trkpt>
      <trkpt lat="48.43379" lon="2.72579">
        <ele>135.68</ele>
        <time>2012-09-29T10:03:21Z</time>
      </trkpt>
      <trkpt lat="48.43378" lon="2.72583">
        <ele>134.72</ele>
        <time>2012-09-29T10:03:32Z</time>
      </trkpt>
      <trkpt lat="48.43378" lon="2.72584">
        <ele>134.72</ele>
        <time>2012-09-29T10:03:33Z</time>
      </trkpt>
      <trkpt lat="48.43376" lon="2.72585">
        <ele>135.2</ele>
        <time>2012-09-29T10:03:48Z</time>
      </trkpt>
      <trkpt lat="48.43376" lon="2.72586">
        <ele>135.2</ele>
        <time>2012-09-29T10:04:11Z</time>
      </trkpt>
      <trkpt lat="48.43375" lon="2.72585">
        <ele>134.72</ele>
        <time>2012-09-29T10:04:34Z</time>
      </trkpt>
      <trkpt lat="48.43374" lon="2.72586">
        <ele>134.72</ele>
        <time>2012-09-29T10:05:02Z</time>
      </trkpt>
      <trkpt lat="48.43375" lon="2.72586">
        <ele>134.24</ele>
        <time>2012-09-29T10:05:40Z</time>
      </trkpt>
      <trkpt lat="48.43375" lon="2.72586">
        <ele>133.76</ele>
        <time>2012-09-29T10:06:10Z</time>
      </trkpt>
      <trkpt lat="48.43376" lon="2.72585">
        <ele>133.28</ele>
        <time>2012-09-29T10:06:44Z</time>
      </trkpt>
      <trkpt lat="48.43375" lon="2.72585">
        <ele>133.28</ele>
        <time>2012-09-29T10:07:12Z</time>
      </trkpt>
      <trkpt lat="48.43374" lon="2.72585">
        <ele>133.76</ele>
        <time>2012-09-29T10:07:35Z</time>
      </trkpt>
      <trkpt lat="48.43374" lon="2.72585">
        <ele>134.72</ele>
        <time>2012-09-29T10:08:09Z</time>
      </trkpt>
      <trkpt lat="48.43375" lon="2.72585">
        <ele>134.72</ele>
        <time>2012-09-29T10:08:18Z</time>
      </trkpt>
      <trkpt lat="48.43396" lon="2.72598">
        <ele>133.76</ele>
        <time>2012-09-29T10:08:30Z</time>
      </trkpt>
      <trkpt lat="48.43399" lon="2.72621">
        <ele>132.32</ele>
        <time>2012-09-29T10:08:37Z</time>
      </trkpt>
      <trkpt lat="48.43398" lon="2.72628">
        <ele>131.84</ele>
        <time>2012-09-29T10:08:38Z</time>
      </trkpt>
      <trkpt lat="48.43381" lon="2.72659">
        <ele>128.95</ele>
        <time>2012-09-29T10:08:47Z</time>
      </trkpt>
      <trkpt lat="48.43374" lon="2.72659">
        <ele>128.47</ele>
        <time>2012-09-29T10:08:49Z</time>
      </trkpt>
      <trkpt lat="48.43355" lon="2.72611">
        <ele>126.07</ele>
        <time>2012-09-29T10:08:57Z</time>
      </trkpt>
      <trkpt lat="48.43351" lon="2.72537">
        <ele>122.22</ele>
        <time>2012-09-29T10:09:04Z</time>
      </trkpt>
      <trkpt lat="48.43315" lon="2.72449">
        <ele>115.5</ele>
        <time>2012-09-29T10:09:13Z</time>
      </trkpt>
      <trkpt lat="48.43266" lon="2.7245">
        <ele>112.61</ele>
        <time>2012-09-29T10:09:19Z</time>
      </trkpt>
      <trkpt lat="48.43251" lon="2.72467">
        <ele>111.65</ele>
        <time>2012-09-29T10:09:21Z</time>
      </trkpt>
      <trkpt lat="48.43228" lon="2.725">
        <ele>109.25</ele>
        <time>2012-09-29T10:09:25Z</time>
      </trkpt>
      <trkpt lat="48.43185" lon="2.72564">
        <ele>106.36</ele>
        <time>2012-09-29T10:09:36Z</time>
      </trkpt>
      <trkpt lat="48.43181" lon="2.72567">
        <ele>106.36</ele>
        <time>2012-09-29T10:09:38Z</time>
      </trkpt>
      <trkpt lat="48.43183" lon="2.72562">
        <ele>108.77</ele>
        <time>2012-09-29T10:09:46Z</time>
      </trkpt>
      <trkpt lat="48.43193" lon="2.7253">
        <ele>111.17</ele>
        <time>2012-09-29T10:09:56Z</time>
      </trkpt>
      <trkpt lat="48.43209" lon="2.72471">
        <ele>112.13</ele>
        <time>2012-09-29T10:10:09Z</time>
      </trkpt>
      <trkpt lat="48.4323" lon="2.72413">
        <ele>113.57</ele>
        <time>2012-09-29T10:10:22Z</time>
      </trkpt>
      <trkpt lat="48.43253" lon="2.72344">
        <ele>112.61</ele>
        <time>2012-09-29T10:10:34Z</time>
      </trkpt>
      <trkpt lat="48.43255" lon="2.72338">
        <ele>112.61</ele>
        <time>2012-09-29T10:10:35Z</time>
      </trkpt>
      <trkpt lat="48.43289" lon="2.7223">
        <ele>107.81</ele>
        <time>2012-09-29T10:10:51Z</time>
      </trkpt>
      <trkpt lat="48.43296" lon="2.72209">
        <ele>106.84</ele>
        <time>2012-09-29T10:10:54Z</time>
      </trkpt>
      <trkpt lat="48.43314" lon="2.72151">
        <ele>103.96</ele>
        <time>2012-09-29T10:11:02Z</time>
      </trkpt>
      <trkpt lat="48.43316" lon="2.72145">
        <ele>103.48</ele>
        <time>2012-09-29T10:11:03Z</time>
      </trkpt>
      <trkpt lat="48.43319" lon="2.72132">
        <ele>103</ele>
        <time>2012-09-29T10:11:06Z</time>
      </trkpt>
      <trkpt lat="48.43319" lon="2.72128">
        <ele>103.48</ele>
        <time>2012-09-29T10:11:07Z</time>
      </trkpt>
      <trkpt lat="48.43317" lon="2.72128">
        <ele>103</ele>
        <time>2012-09-29T10:11:21Z</time>
      </trkpt>
      <trkpt lat="48.43315" lon="2.72125">
        <ele>107.32</ele>
        <time>2012-09-29T10:11:29Z</time>
      </trkpt>
      <trkpt lat="48.43315" lon="2.72124">
        <ele>107.81</ele>
        <time>2012-09-29T10:11:30Z</time>
      </trkpt>
      <trkpt lat="48.43317" lon="2.72124">
        <ele>107.81</ele>
        <time>2012-09-29T10:11:31Z</time>
      </trkpt>
      <trkpt lat="48.43318" lon="2.72124">
        <ele>108.29</ele>
        <time>2012-09-29T10:11:32Z</time>
      </trkpt>
      <trkpt lat="48.43323" lon="2.7212">
        <ele>110.69</ele>
        <time>2012-09-29T10:11:39Z</time>
      </trkpt>
      <trkpt lat="48.43324" lon="2.72118">
        <ele>111.17</ele>
        <time>2012-09-29T10:11:40Z</time>
      </trkpt>
      <trkpt lat="48.43323" lon="2.72116">
        <ele>111.65</ele>
        <time>2012-09-29T10:11:41Z</time>
      </trkpt>
      <trkpt lat="48.43323" lon="2.72114">
        <ele>112.13</ele>
        <time>2012-09-29T10:11:42Z</time>
      </trkpt>
      <trkpt lat="48.43322" lon="2.72113">
        <ele>112.61</ele>
        <time>2012-09-29T10:11:43Z</time>
      </trkpt>
      <trkpt lat="48.43316" lon="2.72116">
        <ele>115.01</ele>
        <time>2012-09-29T10:11:51Z</time>
      </trkpt>
      <trkpt lat="48.43315" lon="2.72115">
        <ele>115.01</ele>
        <time>2012-09-29T10:11:52Z</time>
      </trkpt>
      <trkpt lat="48.43302" lon="2.72088">
        <ele>115.98</ele>
        <time>2012-09-29T10:12:04Z</time>
      </trkpt>
      <trkpt lat="48.4329" lon="2.72053">
        <ele>121.26</ele>
        <time>2012-09-29T10:12:16Z</time>
      </trkpt>
      <trkpt lat="48.43278" lon="2.7202">
        <ele>124.15</ele>
        <time>2012-09-29T10:12:28Z</time>
      </trkpt>
      <trkpt lat="48.43259" lon="2.71977">
        <ele>125.11</ele>
        <time>2012-09-29T10:12:40Z</time>
      </trkpt>
      <trkpt lat="48.43242" lon="2.71939">
        <ele>126.07</ele>
        <time>2012-09-29T10:12:52Z</time>
      </trkpt>
      <trkpt lat="48.43231" lon="2.71913">
        <ele>127.03</ele>
        <time>2012-09-29T10:13:04Z</time>
      </trkpt>
      <trkpt lat="48.43208" lon="2.7186">
        <ele>127.51</ele>
        <time>2012-09-29T10:13:16Z</time>
      </trkpt>
      <trkpt lat="48.43195" lon="2.71822">
        <ele>128.95</ele>
        <time>2012-09-29T10:13:28Z</time>
      </trkpt>
      <trkpt lat="48.43193" lon="2.71821">
        <ele>128.95</ele>
        <time>2012-09-29T10:13:30Z</time>
      </trkpt>
      <trkpt lat="48.43187" lon="2.7181">
        <ele>130.88</ele>
        <time>2012-09-29T10:13:42Z</time>
      </trkpt>
      <trkpt lat="48.43182" lon="2.71796">
        <ele>133.28</ele>
        <time>2012-09-29T10:13:59Z</time>
      </trkpt>
      <trkpt lat="48.4318" lon="2.71791">
        <ele>133.76</ele>
        <time>2012-09-29T10:14:16Z</time>
      </trkpt>
      <trkpt lat="48.4318" lon="2.7179">
        <ele>133.76</ele>
        <time>2012-09-29T10:14:17Z</time>
      </trkpt>
      <trkpt lat="48.43172" lon="2.71768">
        <ele>131.84</ele>
        <time>2012-09-29T10:14:25Z</time>
      </trkpt>
      <trkpt lat="48.4316" lon="2.71733">
        <ele>131.84</ele>
        <time>2012-09-29T10:14:38Z</time>
      </trkpt>
      <trkpt lat="48.43147" lon="2.71708">
        <ele>133.76</ele>
        <time>2012-09-29T10:14:48Z</time>
      </trkpt>
      <trkpt lat="48.43142" lon="2.71695">
        <ele>136.16</ele>
        <time>2012-09-29T10:14:52Z</time>
      </trkpt>
      <trkpt lat="48.43122" lon="2.71639">
        <ele>136.16</ele>
        <time>2012-09-29T10:15:03Z</time>
      </trkpt>
      <trkpt lat="48.43101" lon="2.71586">
        <ele>133.76</ele>
        <time>2012-09-29T10:15:08Z</time>
      </trkpt>
      <trkpt lat="48.4309" lon="2.71566">
        <ele>132.8</ele>
        <time>2012-09-29T10:15:10Z</time>
      </trkpt>
      <trkpt lat="48.43064" lon="2.71547">
        <ele>130.4</ele>
        <time>2012-09-29T10:15:16Z</time>
      </trkpt>
      <trkpt lat="48.43034" lon="2.71547">
        <ele>133.76</ele>
        <time>2012-09-29T10:15:30Z</time>
      </trkpt>
      <trkpt lat="48.43029" lon="2.71547">
        <ele>134.72</ele>
        <time>2012-09-29T10:15:33Z</time>
      </trkpt>
      <trkpt lat="48.4302" lon="2.71549">
        <ele>135.2</ele>
        <time>2012-09-29T10:15:38Z</time>
      </trkpt>
      <trkpt lat="48.43013" lon="2.71549">
        <ele>135.2</ele>
        <time>2012-09-29T10:15:42Z</time>
      </trkpt>
      <trkpt lat="48.42993" lon="2.71555">
        <ele>137.13</ele>
        <time>2012-09-29T10:15:52Z</time>
      </trkpt>
      <trkpt lat="48.42979" lon="2.71561">
        <ele>140.01</ele>
        <time>2012-09-29T10:16:02Z</time>
      </trkpt>
      <trkpt lat="48.42974" lon="2.71564">
        <ele>140.97</ele>
        <time>2012-09-29T10:16:15Z</time>
      </trkpt>
      <trkpt lat="48.42972" lon="2.71565">
        <ele>145.3</ele>
        <time>2012-09-29T10:16:44Z</time>
      </trkpt>
      <trkpt lat="48.42971" lon="2.71564">
        <ele>144.34</ele>
        <time>2012-09-29T10:17:19Z</time>
      </trkpt>
      <trkpt lat="48.42972" lon="2.71565">
        <ele>145.78</ele>
        <time>2012-09-29T10:17:48Z</time>
      </trkpt>
      <trkpt lat="48.4297" lon="2.71567">
        <ele>146.74</ele>
        <time>2012-09-29T10:18:09Z</time>
      </trkpt>
      <trkpt lat="48.42969" lon="2.71567">
        <ele>146.74</ele>
        <time>2012-09-29T10:18:12Z</time>
      </trkpt>
      <trkpt lat="48.42957" lon="2.71571">
        <ele>146.26</ele>
        <time>2012-09-29T10:18:21Z</time>
      </trkpt>
      <trkpt lat="48.42949" lon="2.71571">
        <ele>146.26</ele>
        <time>2012-09-29T10:18:26Z</time>
      </trkpt>
      <trkpt lat="48.42949" lon="2.71568">
        <ele>146.26</ele>
        <time>2012-09-29T10:18:27Z</time>
      </trkpt>
      <trkpt lat="48.42948" lon="2.71566">
        <ele>146.26</ele>
        <time>2012-09-29T10:18:28Z</time>
      </trkpt>
      <trkpt lat="48.42943" lon="2.71527">
        <ele>146.26</ele>
        <time>2012-09-29T10:18:40Z</time>
      </trkpt>
      <trkpt lat="48.42938" lon="2.71467">
        <ele>149.14</ele>
        <time>2012-09-29T10:18:53Z</time>
      </trkpt>
      <trkpt lat="48.42933" lon="2.71414">
        <ele>148.18</ele>
        <time>2012-09-29T10:19:05Z</time>
      </trkpt>
      <trkpt lat="48.42932" lon="2.71401">
        <ele>148.66</ele>
        <time>2012-09-29T10:19:07Z</time>
      </trkpt>
      <trkpt lat="48.42932" lon="2.71394">
        <ele>148.66</ele>
        <time>2012-09-29T10:19:08Z</time>
      </trkpt>
      <trkpt lat="48.42928" lon="2.71318">
        <ele>150.1</ele>
        <time>2012-09-29T10:19:19Z</time>
      </trkpt>
      <trkpt lat="48.42926" lon="2.71281">
        <ele>149.62</ele>
        <time>2012-09-29T10:19:24Z</time>
      </trkpt>
      <trkpt lat="48.42917" lon="2.71189">
        <ele>149.62</ele>
        <time>2012-09-29T10:19:38Z</time>
      </trkpt>
      <trkpt lat="48.4291" lon="2.71116">
        <ele>151.06</ele>
        <time>2012-09-29T10:19:51Z</time>
      </trkpt>
      <trkpt lat="48.42908" lon="2.71115">
        <ele>151.06</ele>
        <time>2012-09-29T10:19:52Z</time>
      </trkpt>
      <trkpt lat="48.42907" lon="2.71115">
        <ele>151.06</ele>
        <time>2012-09-29T10:19:53Z</time>
      </trkpt>
      <trkpt lat="48.42905" lon="2.71114">
        <ele>151.54</ele>
        <time>2012-09-29T10:19:54Z</time>
      </trkpt>
      <trkpt lat="48.42904" lon="2.71112">
        <ele>151.54</ele>
        <time>2012-09-29T10:19:55Z</time>
      </trkpt>
      <trkpt lat="48.42903" lon="2.71109">
        <ele>151.54</ele>
        <time>2012-09-29T10:19:56Z</time>
      </trkpt>
      <trkpt lat="48.42902" lon="2.71105">
        <ele>151.54</ele>
        <time>2012-09-29T10:19:57Z</time>
      </trkpt>
      <trkpt lat="48.42898" lon="2.71098">
        <ele>151.54</ele>
        <time>2012-09-29T10:19:59Z</time>
      </trkpt>
      <trkpt lat="48.42894" lon="2.71096">
        <ele>152.03</ele>
        <time>2012-09-29T10:20:00Z</time>
      </trkpt>
      <trkpt lat="48.42875" lon="2.71086">
        <ele>152.51</ele>
        <time>2012-09-29T10:20:05Z</time>
      </trkpt>
      <trkpt lat="48.42871" lon="2.71084">
        <ele>152.99</ele>
        <time>2012-09-29T10:20:06Z</time>
      </trkpt>
      <trkpt lat="48.42803" lon="2.71048">
        <ele>154.91</ele>
        <time>2012-09-29T10:20:22Z</time>
      </trkpt>
      <trkpt lat="48.42747" lon="2.71019">
        <ele>155.87</ele>
        <time>2012-09-29T10:20:35Z</time>
      </trkpt>
      <trkpt lat="48.42674" lon="2.70985">
        <ele>156.83</ele>
        <time>2012-09-29T10:20:51Z</time>
      </trkpt>
      <trkpt lat="48.42599" lon="2.70948">
        <ele>155.87</ele>
        <time>2012-09-29T10:21:05Z</time>
      </trkpt>
      <trkpt lat="48.42555" lon="2.70928">
        <ele>155.39</ele>
        <time>2012-09-29T10:21:13Z</time>
      </trkpt>
      <trkpt lat="48.42472" lon="2.70864">
        <ele>152.03</ele>
        <time>2012-09-29T10:21:29Z</time>
      </trkpt>
      <trkpt lat="48.4242" lon="2.70807">
        <ele>145.78</ele>
        <time>2012-09-29T10:21:42Z</time>
      </trkpt>
      <trkpt lat="48.42413" lon="2.708">
        <ele>145.3</ele>
        <time>2012-09-29T10:21:44Z</time>
      </trkpt>
      <trkpt lat="48.42406" lon="2.70793">
        <ele>144.34</ele>
        <time>2012-09-29T10:21:46Z</time>
      </trkpt>
      <trkpt lat="48.42403" lon="2.7079">
        <ele>144.34</ele>
        <time>2012-09-29T10:21:47Z</time>
      </trkpt>
      <trkpt lat="48.42399" lon="2.70787">
        <ele>143.85</ele>
        <time>2012-09-29T10:21:48Z</time>
      </trkpt>
      <trkpt lat="48.42396" lon="2.70785">
        <ele>143.85</ele>
        <time>2012-09-29T10:21:49Z</time>
      </trkpt>
      <trkpt lat="48.42393" lon="2.70783">
        <ele>143.37</ele>
        <time>2012-09-29T10:21:50Z</time>
      </trkpt>
      <trkpt lat="48.42391" lon="2.70781">
        <ele>143.37</ele>
        <time>2012-09-29T10:21:51Z</time>
      </trkpt>
      <trkpt lat="48.4239" lon="2.70778">
        <ele>143.37</ele>
        <time>2012-09-29T10:22:01Z</time>
      </trkpt>
      <trkpt lat="48.42389" lon="2.70779">
        <ele>142.89</ele>
        <time>2012-09-29T10:22:26Z</time>
      </trkpt>
      <trkpt lat="48.42389" lon="2.70778">
        <ele>142.41</ele>
        <time>2012-09-29T10:22:32Z</time>
      </trkpt>
      <trkpt lat="48.42388" lon="2.70776">
        <ele>142.41</ele>
        <time>2012-09-29T10:22:33Z</time>
      </trkpt>
      <trkpt lat="48.42387" lon="2.70773">
        <ele>142.41</ele>
        <time>2012-09-29T10:22:34Z</time>
      </trkpt>
      <trkpt lat="48.42385" lon="2.70769">
        <ele>142.41</ele>
        <time>2012-09-29T10:22:35Z</time>
      </trkpt>
      <trkpt lat="48.42382" lon="2.70766">
        <ele>141.93</ele>
        <time>2012-09-29T10:22:36Z</time>
      </trkpt>
      <trkpt lat="48.42379" lon="2.70762">
        <ele>141.93</ele>
        <time>2012-09-29T10:22:37Z</time>
      </trkpt>
      <trkpt lat="48.42376" lon="2.70757">
        <ele>141.93</ele>
        <time>2012-09-29T10:22:38Z</time>
      </trkpt>
      <trkpt lat="48.42373" lon="2.70752">
        <ele>141.45</ele>
        <time>2012-09-29T10:22:39Z</time>
      </trkpt>
      <trkpt lat="48.42371" lon="2.70747">
        <ele>141.45</ele>
        <time>2012-09-29T10:22:40Z</time>
      </trkpt>
      <trkpt lat="48.42346" lon="2.707">
        <ele>140.49</ele>
        <time>2012-09-29T10:22:49Z</time>
      </trkpt>
      <trkpt lat="48.42344" lon="2.70694">
        <ele>140.01</ele>
        <time>2012-09-29T10:22:50Z</time>
      </trkpt>
      <trkpt lat="48.42341" lon="2.70679">
        <ele>140.01</ele>
        <time>2012-09-29T10:22:52Z</time>
      </trkpt>
      <trkpt lat="48.4234" lon="2.70672">
        <ele>139.53</ele>
        <time>2012-09-29T10:22:53Z</time>
      </trkpt>
      <trkpt lat="48.4234" lon="2.70664">
        <ele>139.53</ele>
        <time>2012-09-29T10:22:54Z</time>
      </trkpt>
      <trkpt lat="48.42343" lon="2.70614">
        <ele>137.61</ele>
        <time>2012-09-29T10:23:00Z</time>
      </trkpt>
      <trkpt lat="48.4235" lon="2.70507">
        <ele>132.8</ele>
        <time>2012-09-29T10:23:12Z</time>
      </trkpt>
      <trkpt lat="48.4235" lon="2.70498">
        <ele>132.32</ele>
        <time>2012-09-29T10:23:13Z</time>
      </trkpt>
      <trkpt lat="48.4235" lon="2.70489">
        <ele>131.84</ele>
        <time>2012-09-29T10:23:14Z</time>
      </trkpt>
      <trkpt lat="48.42349" lon="2.70479">
        <ele>131.84</ele>
        <time>2012-09-29T10:23:15Z</time>
      </trkpt>
      <trkpt lat="48.42348" lon="2.70469">
        <ele>131.36</ele>
        <time>2012-09-29T10:23:16Z</time>
      </trkpt>
      <trkpt lat="48.42345" lon="2.7046">
        <ele>130.88</ele>
        <time>2012-09-29T10:23:17Z</time>
      </trkpt>
      <trkpt lat="48.42342" lon="2.70451">
        <ele>130.88</ele>
        <time>2012-09-29T10:23:18Z</time>
      </trkpt>
      <trkpt lat="48.42339" lon="2.70442">
        <ele>130.4</ele>
        <time>2012-09-29T10:23:19Z</time>
      </trkpt>
      <trkpt lat="48.42326" lon="2.7041">
        <ele>129.43</ele>
        <time>2012-09-29T10:23:23Z</time>
      </trkpt>
      <trkpt lat="48.42322" lon="2.70403">
        <ele>128.95</ele>
        <time>2012-09-29T10:23:24Z</time>
      </trkpt>
      <trkpt lat="48.42308" lon="2.70369">
        <ele>128.47</ele>
        <time>2012-09-29T10:23:28Z</time>
      </trkpt>
      <trkpt lat="48.42306" lon="2.7036">
        <ele>128.95</ele>
        <time>2012-09-29T10:23:29Z</time>
      </trkpt>
      <trkpt lat="48.42305" lon="2.70339">
        <ele>128.95</ele>
        <time>2012-09-29T10:23:31Z</time>
      </trkpt>
      <trkpt lat="48.42304" lon="2.70329">
        <ele>128.47</ele>
        <time>2012-09-29T10:23:32Z</time>
      </trkpt>
      <trkpt lat="48.42303" lon="2.70318">
        <ele>128.47</ele>
        <time>2012-09-29T10:23:33Z</time>
      </trkpt>
      <trkpt lat="48.42291" lon="2.70258">
        <ele>127.51</ele>
        <time>2012-09-29T10:23:38Z</time>
      </trkpt>
      <trkpt lat="48.42287" lon="2.70247">
        <ele>127.51</ele>
        <time>2012-09-29T10:23:39Z</time>
      </trkpt>
      <trkpt lat="48.4227" lon="2.70211">
        <ele>126.55</ele>
        <time>2012-09-29T10:23:42Z</time>
      </trkpt>
      <trkpt lat="48.42265" lon="2.70196">
        <ele>126.55</ele>
        <time>2012-09-29T10:23:43Z</time>
      </trkpt>
      <trkpt lat="48.42261" lon="2.7018">
        <ele>126.07</ele>
        <time>2012-09-29T10:23:44Z</time>
      </trkpt>
      <trkpt lat="48.42259" lon="2.70163">
        <ele>125.59</ele>
        <time>2012-09-29T10:23:45Z</time>
      </trkpt>
      <trkpt lat="48.42257" lon="2.70147">
        <ele>125.11</ele>
        <time>2012-09-29T10:23:46Z</time>
      </trkpt>
      <trkpt lat="48.42253" lon="2.70132">
        <ele>124.63</ele>
        <time>2012-09-29T10:23:47Z</time>
      </trkpt>
      <trkpt lat="48.42247" lon="2.70117">
        <ele>124.15</ele>
        <time>2012-09-29T10:23:48Z</time>
      </trkpt>
      <trkpt lat="48.42241" lon="2.70102">
        <ele>123.19</ele>
        <time>2012-09-29T10:23:49Z</time>
      </trkpt>
      <trkpt lat="48.42228" lon="2.7007">
        <ele>122.22</ele>
        <time>2012-09-29T10:23:51Z</time>
      </trkpt>
      <trkpt lat="48.42221" lon="2.70056">
        <ele>121.26</ele>
        <time>2012-09-29T10:23:52Z</time>
      </trkpt>
      <trkpt lat="48.42125" lon="2.69918">
        <ele>113.57</ele>
        <time>2012-09-29T10:24:03Z</time>
      </trkpt>
      <trkpt lat="48.42082" lon="2.69872">
        <ele>109.25</ele>
        <time>2012-09-29T10:24:09Z</time>
      </trkpt>
      <trkpt lat="48.42074" lon="2.69868">
        <ele>108.29</ele>
        <time>2012-09-29T10:24:10Z</time>
      </trkpt>
      <trkpt lat="48.42067" lon="2.69865">
        <ele>107.81</ele>
        <time>2012-09-29T10:24:11Z</time>
      </trkpt>
      <trkpt lat="48.41978" lon="2.69849">
        <ele>103.48</ele>
        <time>2012-09-29T10:24:21Z</time>
      </trkpt>
      <trkpt lat="48.41854" lon="2.69828">
        <ele>99.15</ele>
        <time>2012-09-29T10:24:36Z</time>
      </trkpt>
      <trkpt lat="48.41828" lon="2.69824">
        <ele>98.67</ele>
        <time>2012-09-29T10:24:40Z</time>
      </trkpt>
      <trkpt lat="48.41816" lon="2.69822">
        <ele>98.19</ele>
        <time>2012-09-29T10:24:42Z</time>
      </trkpt>
      <trkpt lat="48.41743" lon="2.69808">
        <ele>96.75</ele>
        <time>2012-09-29T10:24:54Z</time>
      </trkpt>
      <trkpt lat="48.41672" lon="2.69799">
        <ele>97.71</ele>
        <time>2012-09-29T10:25:09Z</time>
      </trkpt>
      <trkpt lat="48.41607" lon="2.6979">
        <ele>100.6</ele>
        <time>2012-09-29T10:25:25Z</time>
      </trkpt>
      <trkpt lat="48.4156" lon="2.69784">
        <ele>102.04</ele>
        <time>2012-09-29T10:25:38Z</time>
      </trkpt>
      <trkpt lat="48.41514" lon="2.69778">
        <ele>100.6</ele>
        <time>2012-09-29T10:25:54Z</time>
      </trkpt>
      <trkpt lat="48.41504" lon="2.69776">
        <ele>100.6</ele>
        <time>2012-09-29T10:25:58Z</time>
      </trkpt>
      <trkpt lat="48.41502" lon="2.69776">
        <ele>101.08</ele>
        <time>2012-09-29T10:25:59Z</time>
      </trkpt>
      <trkpt lat="48.41475" lon="2.69774">
        <ele>100.6</ele>
        <time>2012-09-29T10:26:09Z</time>
      </trkpt>
      <trkpt lat="48.41423" lon="2.69776">
        <ele>97.23</ele>
        <time>2012-09-29T10:26:24Z</time>
      </trkpt>
      <trkpt lat="48.41374" lon="2.69777">
        <ele>94.83</ele>
        <time>2012-09-29T10:26:34Z</time>
      </trkpt>
      <trkpt lat="48.41368" lon="2.69777">
        <ele>94.83</ele>
        <time>2012-09-29T10:26:35Z</time>
      </trkpt>
      <trkpt lat="48.41363" lon="2.69777">
        <ele>94.35</ele>
        <time>2012-09-29T10:26:36Z</time>
      </trkpt>
      <trkpt lat="48.41357" lon="2.69777">
        <ele>94.35</ele>
        <time>2012-09-29T10:26:37Z</time>
      </trkpt>
      <trkpt lat="48.41351" lon="2.69778">
        <ele>93.87</ele>
        <time>2012-09-29T10:26:38Z</time>
      </trkpt>
      <trkpt lat="48.4127" lon="2.6978">
        <ele>91.46</ele>
        <time>2012-09-29T10:26:53Z</time>
      </trkpt>
      <trkpt lat="48.41257" lon="2.69783">
        <ele>91.94</ele>
        <time>2012-09-29T10:26:56Z</time>
      </trkpt>
      <trkpt lat="48.41254" lon="2.69787">
        <ele>91.94</ele>
        <time>2012-09-29T10:26:57Z</time>
      </trkpt>
      <trkpt lat="48.41253" lon="2.69793">
        <ele>92.42</ele>
        <time>2012-09-29T10:26:58Z</time>
      </trkpt>
      <trkpt lat="48.41252" lon="2.69799">
        <ele>92.42</ele>
        <time>2012-09-29T10:26:59Z</time>
      </trkpt>
      <trkpt lat="48.41254" lon="2.69805">
        <ele>92.42</ele>
        <time>2012-09-29T10:27:00Z</time>
      </trkpt>
      <trkpt lat="48.41256" lon="2.69811">
        <ele>92.42</ele>
        <time>2012-09-29T10:27:01Z</time>
      </trkpt>
      <trkpt lat="48.41271" lon="2.69852">
        <ele>94.83</ele>
        <time>2012-09-29T10:27:13Z</time>
      </trkpt>
      <trkpt lat="48.41272" lon="2.69866">
        <ele>96.75</ele>
        <time>2012-09-29T10:27:25Z</time>
      </trkpt>
      <trkpt lat="48.41272" lon="2.69869">
        <ele>96.75</ele>
        <time>2012-09-29T10:27:36Z</time>
      </trkpt>
      <trkpt lat="48.41272" lon="2.69871">
        <ele>96.75</ele>
        <time>2012-09-29T10:27:37Z</time>
      </trkpt>
      <trkpt lat="48.41273" lon="2.69873">
        <ele>96.75</ele>
        <time>2012-09-29T10:27:38Z</time>
      </trkpt>
      <trkpt lat="48.41274" lon="2.69876">
        <ele>97.23</ele>
        <time>2012-09-29T10:27:39Z</time>
      </trkpt>
      <trkpt lat="48.41276" lon="2.6988">
        <ele>97.23</ele>
        <time>2012-09-29T10:27:40Z</time>
      </trkpt>
      <trkpt lat="48.41277" lon="2.69885">
        <ele>97.23</ele>
        <time>2012-09-29T10:27:41Z</time>
      </trkpt>
      <trkpt lat="48.4128" lon="2.6989">
        <ele>97.71</ele>
        <time>2012-09-29T10:27:42Z</time>
      </trkpt>
      <trkpt lat="48.41282" lon="2.69895">
        <ele>97.71</ele>
        <time>2012-09-29T10:27:43Z</time>
      </trkpt>
      <trkpt lat="48.41284" lon="2.699">
        <ele>97.71</ele>
        <time>2012-09-29T10:27:44Z</time>
      </trkpt>
      <trkpt lat="48.41286" lon="2.69905">
        <ele>97.71</ele>
        <time>2012-09-29T10:27:45Z</time>
      </trkpt>
      <trkpt lat="48.41288" lon="2.6991">
        <ele>97.71</ele>
        <time>2012-09-29T10:27:46Z</time>
      </trkpt>
      <trkpt lat="48.41311" lon="2.69973">
        <ele>96.75</ele>
        <time>2012-09-29T10:27:59Z</time>
      </trkpt>
      <trkpt lat="48.41314" lon="2.69984">
        <ele>95.79</ele>
        <time>2012-09-29T10:28:04Z</time>
      </trkpt>
      <trkpt lat="48.41314" lon="2.69986">
        <ele>95.79</ele>
        <time>2012-09-29T10:28:05Z</time>
      </trkpt>
      <trkpt lat="48.41309" lon="2.69989">
        <ele>95.31</ele>
        <time>2012-09-29T10:28:09Z</time>
      </trkpt>
      <trkpt lat="48.41275" lon="2.70024">
        <ele>92.9</ele>
        <time>2012-09-29T10:28:21Z</time>
      </trkpt>
      <trkpt lat="48.41226" lon="2.70072">
        <ele>91.46</ele>
        <time>2012-09-29T10:28:34Z</time>
      </trkpt>
      <trkpt lat="48.41223" lon="2.7008">
        <ele>91.46</ele>
        <time>2012-09-29T10:28:36Z</time>
      </trkpt>
      <trkpt lat="48.4122" lon="2.70082">
        <ele>91.46</ele>
        <time>2012-09-29T10:28:37Z</time>
      </trkpt>
      <trkpt lat="48.41218" lon="2.70084">
        <ele>91.46</ele>
        <time>2012-09-29T10:28:38Z</time>
      </trkpt>
      <trkpt lat="48.41215" lon="2.70085">
        <ele>90.98</ele>
        <time>2012-09-29T10:28:39Z</time>
      </trkpt>
      <trkpt lat="48.41211" lon="2.70088">
        <ele>90.98</ele>
        <time>2012-09-29T10:28:40Z</time>
      </trkpt>
      <trkpt lat="48.41207" lon="2.70092">
        <ele>90.98</ele>
        <time>2012-09-29T10:28:41Z</time>
      </trkpt>
      <trkpt lat="48.41153" lon="2.70146">
        <ele>89.06</ele>
        <time>2012-09-29T10:28:55Z</time>
      </trkpt>
      <trkpt lat="48.41119" lon="2.70182">
        <ele>88.58</ele>
        <time>2012-09-29T10:29:04Z</time>
      </trkpt>
      <trkpt lat="48.41116" lon="2.70186">
        <ele>88.58</ele>
        <time>2012-09-29T10:29:05Z</time>
      </trkpt>
      <trkpt lat="48.41113" lon="2.70192">
        <ele>88.58</ele>
        <time>2012-09-29T10:29:06Z</time>
      </trkpt>
      <trkpt lat="48.41111" lon="2.70198">
        <ele>88.58</ele>
        <time>2012-09-29T10:29:07Z</time>
      </trkpt>
      <trkpt lat="48.4111" lon="2.70204">
        <ele>87.62</ele>
        <time>2012-09-29T10:29:08Z</time>
      </trkpt>
      <trkpt lat="48.4111" lon="2.70211">
        <ele>87.14</ele>
        <time>2012-09-29T10:29:09Z</time>
      </trkpt>
      <trkpt lat="48.41109" lon="2.70217">
        <ele>86.18</ele>
        <time>2012-09-29T10:29:10Z</time>
      </trkpt>
      <trkpt lat="48.41108" lon="2.70224">
        <ele>86.18</ele>
        <time>2012-09-29T10:29:11Z</time>
      </trkpt>
      <trkpt lat="48.41107" lon="2.7023">
        <ele>86.18</ele>
        <time>2012-09-29T10:29:12Z</time>
      </trkpt>
      <trkpt lat="48.41087" lon="2.70297">
        <ele>84.25</ele>
        <time>2012-09-29T10:29:24Z</time>
      </trkpt>
      <trkpt lat="48.41061" lon="2.704">
        <ele>83.29</ele>
        <time>2012-09-29T10:29:41Z</time>
      </trkpt>
      <trkpt lat="48.41045" lon="2.7047">
        <ele>82.81</ele>
        <time>2012-09-29T10:29:55Z</time>
      </trkpt>
      <trkpt lat="48.41044" lon="2.70474">
        <ele>83.29</ele>
        <time>2012-09-29T10:30:08Z</time>
      </trkpt>
      <trkpt lat="48.41043" lon="2.70475">
        <ele>83.29</ele>
        <time>2012-09-29T10:30:27Z</time>
      </trkpt>
      <trkpt lat="48.41041" lon="2.70476">
        <ele>82.81</ele>
        <time>2012-09-29T10:30:28Z</time>
      </trkpt>
      <trkpt lat="48.41038" lon="2.70476">
        <ele>82.81</ele>
        <time>2012-09-29T10:30:29Z</time>
      </trkpt>
      <trkpt lat="48.40992" lon="2.70453">
        <ele>78</ele>
        <time>2012-09-29T10:30:43Z</time>
      </trkpt>
      <trkpt lat="48.40961" lon="2.7044">
        <ele>77.52</ele>
        <time>2012-09-29T10:30:54Z</time>
      </trkpt>
      <trkpt lat="48.40895" lon="2.70413">
        <ele>77.04</ele>
        <time>2012-09-29T10:31:10Z</time>
      </trkpt>
      <trkpt lat="48.40866" lon="2.70399">
        <ele>79.93</ele>
        <time>2012-09-29T10:31:17Z</time>
      </trkpt>
      <trkpt lat="48.40861" lon="2.70398">
        <ele>80.89</ele>
        <time>2012-09-29T10:31:18Z</time>
      </trkpt>
      <trkpt lat="48.40856" lon="2.70397">
        <ele>82.33</ele>
        <time>2012-09-29T10:31:19Z</time>
      </trkpt>
      <trkpt lat="48.40829" lon="2.70384">
        <ele>85.69</ele>
        <time>2012-09-29T10:31:25Z</time>
      </trkpt>
      <trkpt lat="48.40789" lon="2.70367">
        <ele>85.69</ele>
        <time>2012-09-29T10:31:36Z</time>
      </trkpt>
      <trkpt lat="48.40768" lon="2.70353">
        <ele>85.21</ele>
        <time>2012-09-29T10:31:43Z</time>
      </trkpt>
      <trkpt lat="48.40767" lon="2.70349">
        <ele>84.73</ele>
        <time>2012-09-29T10:31:44Z</time>
      </trkpt>
      <trkpt lat="48.40765" lon="2.70347">
        <ele>84.73</ele>
        <time>2012-09-29T10:31:45Z</time>
      </trkpt>
      <trkpt lat="48.40763" lon="2.70345">
        <ele>84.25</ele>
        <time>2012-09-29T10:31:46Z</time>
      </trkpt>
      <trkpt lat="48.40761" lon="2.70344">
        <ele>84.25</ele>
        <time>2012-09-29T10:31:47Z</time>
      </trkpt>
      <trkpt lat="48.40755" lon="2.70344">
        <ele>84.73</ele>
        <time>2012-09-29T10:31:59Z</time>
      </trkpt>
      <trkpt lat="48.40754" lon="2.7035">
        <ele>89.06</ele>
        <time>2012-09-29T10:32:29Z</time>
      </trkpt>
      <trkpt lat="48.40754" lon="2.70356">
        <ele>93.87</ele>
        <time>2012-09-29T10:33:02Z</time>
      </trkpt>
      <trkpt lat="48.40755" lon="2.7036">
        <ele>95.31</ele>
        <time>2012-09-29T10:33:36Z</time>
      </trkpt>
      <trkpt lat="48.40754" lon="2.70363">
        <ele>97.23</ele>
        <time>2012-09-29T10:34:08Z</time>
      </trkpt>
      <trkpt lat="48.40754" lon="2.70363">
        <ele>96.27</ele>
        <time>2012-09-29T10:34:33Z</time>
      </trkpt>
      <trkpt lat="48.40754" lon="2.70366">
        <ele>96.75</ele>
        <time>2012-09-29T10:35:10Z</time>
      </trkpt>
      <trkpt lat="48.40754" lon="2.70367">
        <ele>97.71</ele>
        <time>2012-09-29T10:35:45Z</time>
      </trkpt>
      <trkpt lat="48.40754" lon="2.70368">
        <ele>99.15</ele>
        <time>2012-09-29T10:36:21Z</time>
      </trkpt>
      <trkpt lat="48.40754" lon="2.70367">
        <ele>100.6</ele>
        <time>2012-09-29T10:36:45Z</time>
      </trkpt>
      <trkpt lat="48.40753" lon="2.70367">
        <ele>100.11</ele>
        <time>2012-09-29T10:37:11Z</time>
      </trkpt>
      <trkpt lat="48.40752" lon="2.70366">
        <ele>100.6</ele>
        <time>2012-09-29T10:37:43Z</time>
      </trkpt>
      <trkpt lat="48.40752" lon="2.70367">
        <ele>101.08</ele>
        <time>2012-09-29T10:38:21Z</time>
      </trkpt>
      <trkpt lat="48.40752" lon="2.70367">
        <ele>101.08</ele>
        <time>2012-09-29T10:38:52Z</time>
      </trkpt>
      <trkpt lat="48.40752" lon="2.70368">
        <ele>101.56</ele>
        <time>2012-09-29T10:39:23Z</time>
      </trkpt>
      <trkpt lat="48.40752" lon="2.70366">
        <ele>103</ele>
        <time>2012-09-29T10:39:52Z</time>
      </trkpt>
      <trkpt lat="48.40753" lon="2.70366">
        <ele>103.48</ele>
        <time>2012-09-29T10:40:20Z</time>
      </trkpt>
      <trkpt lat="48.40753" lon="2.70368">
        <ele>103.96</ele>
        <time>2012-09-29T10:40:51Z</time>
      </trkpt>
      <trkpt lat="48.40753" lon="2.70368">
        <ele>105.4</ele>
        <time>2012-09-29T10:41:25Z</time>
      </trkpt>
      <trkpt lat="48.40752" lon="2.70369">
        <ele>106.36</ele>
        <time>2012-09-29T10:41:57Z</time>
      </trkpt>
      <trkpt lat="48.40752" lon="2.70368">
        <ele>105.88</ele>
        <time>2012-09-29T10:42:31Z</time>
      </trkpt>
      <trkpt lat="48.40752" lon="2.70367">
        <ele>107.32</ele>
        <time>2012-09-29T10:43:03Z</time>
      </trkpt>
      <trkpt lat="48.40753" lon="2.70365">
        <ele>106.36</ele>
        <time>2012-09-29T10:43:37Z</time>
      </trkpt>
      <trkpt lat="48.40752" lon="2.70365">
        <ele>106.84</ele>
        <time>2012-09-29T10:44:15Z</time>
      </trkpt>
      <trkpt lat="48.40752" lon="2.70364">
        <ele>106.36</ele>
        <time>2012-09-29T10:44:54Z</time>
      </trkpt>
      <trkpt lat="48.40752" lon="2.70364">
        <ele>106.84</ele>
        <time>2012-09-29T10:45:32Z</time>
      </trkpt>
      <trkpt lat="48.40752" lon="2.70364">
        <ele>106.84</ele>
        <time>2012-09-29T10:46:09Z</time>
      </trkpt>
      <trkpt lat="48.40752" lon="2.70365">
        <ele>107.32</ele>
        <time>2012-09-29T10:46:43Z</time>
      </trkpt>
      <trkpt lat="48.40752" lon="2.70365">
        <ele>107.32</ele>
        <time>2012-09-29T10:47:10Z</time>
      </trkpt>
      <trkpt lat="48.40753" lon="2.70366">
        <ele>106.84</ele>
        <time>2012-09-29T10:47:19Z</time>
      </trkpt>
      <trkpt lat="48.40754" lon="2.70367">
        <ele>106.84</ele>
        <time>2012-09-29T10:47:20Z</time>
      </trkpt>
      <trkpt lat="48.40757" lon="2.70369">
        <ele>105.88</ele>
        <time>2012-09-29T10:47:23Z</time>
      </trkpt>
      <trkpt lat="48.40758" lon="2.70369">
        <ele>105.88</ele>
        <time>2012-09-29T10:47:24Z</time>
      </trkpt>
      <trkpt lat="48.40766" lon="2.70368">
        <ele>105.4</ele>
        <time>2012-09-29T10:47:37Z</time>
      </trkpt>
      <trkpt lat="48.40767" lon="2.70368">
        <ele>107.32</ele>
        <time>2012-09-29T10:48:11Z</time>
      </trkpt>
      <trkpt lat="48.40767" lon="2.70368">
        <ele>106.84</ele>
        <time>2012-09-29T10:48:36Z</time>
      </trkpt>
      <trkpt lat="48.40768" lon="2.70368">
        <ele>106.84</ele>
        <time>2012-09-29T10:49:09Z</time>
      </trkpt>
      <trkpt lat="48.40768" lon="2.7037">
        <ele>105.4</ele>
        <time>2012-09-29T10:49:44Z</time>
      </trkpt>
      <trkpt lat="48.40768" lon="2.70371">
        <ele>104.92</ele>
        <time>2012-09-29T10:50:03Z</time>
      </trkpt>
      <trkpt lat="48.40768" lon="2.70369">
        <ele>104.44</ele>
        <time>2012-09-29T10:50:17Z</time>
      </trkpt>
      <trkpt lat="48.40769" lon="2.70369">
        <ele>104.44</ele>
        <time>2012-09-29T10:50:42Z</time>
      </trkpt>
      <trkpt lat="48.40768" lon="2.70369">
        <ele>104.92</ele>
        <time>2012-09-29T10:50:50Z</time>
      </trkpt>
      <trkpt lat="48.40736" lon="2.70356">
        <ele>107.81</ele>
        <time>2012-09-29T10:51:01Z</time>
      </trkpt>
      <trkpt lat="48.40714" lon="2.70342">
        <ele>115.01</ele>
        <time>2012-09-29T10:51:09Z</time>
      </trkpt>
      <trkpt lat="48.40708" lon="2.70338">
        <ele>116.94</ele>
        <time>2012-09-29T10:51:12Z</time>
      </trkpt>
      <trkpt lat="48.40706" lon="2.70338">
        <ele>117.42</ele>
        <time>2012-09-29T10:51:13Z</time>
      </trkpt>
      <trkpt lat="48.40701" lon="2.7033">
        <ele>118.38</ele>
        <time>2012-09-29T10:51:16Z</time>
      </trkpt>
      <trkpt lat="48.40676" lon="2.70311">
        <ele>120.3</ele>
        <time>2012-09-29T10:51:29Z</time>
      </trkpt>
      <trkpt lat="48.40674" lon="2.70308">
        <ele>121.26</ele>
        <time>2012-09-29T10:51:41Z</time>
      </trkpt>
      <trkpt lat="48.40672" lon="2.70305">
        <ele>122.71</ele>
        <time>2012-09-29T10:52:14Z</time>
      </trkpt>
      <trkpt lat="48.40672" lon="2.70303">
        <ele>122.22</ele>
        <time>2012-09-29T10:52:44Z</time>
      </trkpt>
      <trkpt lat="48.4067" lon="2.703">
        <ele>120.78</ele>
        <time>2012-09-29T10:53:16Z</time>
      </trkpt>
      <trkpt lat="48.4067" lon="2.70302">
        <ele>118.38</ele>
        <time>2012-09-29T10:53:40Z</time>
      </trkpt>
      <trkpt lat="48.4067" lon="2.70299">
        <ele>115.98</ele>
        <time>2012-09-29T10:54:10Z</time>
      </trkpt>
      <trkpt lat="48.4067" lon="2.70299">
        <ele>115.01</ele>
        <time>2012-09-29T10:54:39Z</time>
      </trkpt>
      <trkpt lat="48.40671" lon="2.70298">
        <ele>115.98</ele>
        <time>2012-09-29T10:55:04Z</time>
      </trkpt>
      <trkpt lat="48.40671" lon="2.70298">
        <ele>115.98</ele>
        <time>2012-09-29T10:55:21Z</time>
      </trkpt>
      <trkpt lat="48.40671" lon="2.70298">
        <ele>115.98</ele>
        <time>2012-09-29T10:55:38Z</time>
      </trkpt>
      <trkpt lat="48.40671" lon="2.70297">
        <ele>115.5</ele>
        <time>2012-09-29T10:55:48Z</time>
      </trkpt>
      <trkpt lat="48.40673" lon="2.70299">
        <ele>115.01</ele>
        <time>2012-09-29T10:55:50Z</time>
      </trkpt>
      <trkpt lat="48.40674" lon="2.70298">
        <ele>114.53</ele>
        <time>2012-09-29T10:55:51Z</time>
      </trkpt>
      <trkpt lat="48.40676" lon="2.70295">
        <ele>113.57</ele>
        <time>2012-09-29T10:55:52Z</time>
      </trkpt>
      <trkpt lat="48.40678" lon="2.70291">
        <ele>113.09</ele>
        <time>2012-09-29T10:55:53Z</time>
      </trkpt>
      <trkpt lat="48.4068" lon="2.70287">
        <ele>112.13</ele>
        <time>2012-09-29T10:55:54Z</time>
      </trkpt>
      <trkpt lat="48.40681" lon="2.70283">
        <ele>111.65</ele>
        <time>2012-09-29T10:55:55Z</time>
      </trkpt>
      <trkpt lat="48.40683" lon="2.7028">
        <ele>111.17</ele>
        <time>2012-09-29T10:55:56Z</time>
      </trkpt>
      <trkpt lat="48.40684" lon="2.70276">
        <ele>110.69</ele>
        <time>2012-09-29T10:55:57Z</time>
      </trkpt>
      <trkpt lat="48.40709" lon="2.70211">
        <ele>103.96</ele>
        <time>2012-09-29T10:56:09Z</time>
      </trkpt>
      <trkpt lat="48.40715" lon="2.70194">
        <ele>101.08</ele>
        <time>2012-09-29T10:56:11Z</time>
      </trkpt>
      <trkpt lat="48.40718" lon="2.70187">
        <ele>100.6</ele>
        <time>2012-09-29T10:56:12Z</time>
      </trkpt>
      <trkpt lat="48.40721" lon="2.7018">
        <ele>100.11</ele>
        <time>2012-09-29T10:56:13Z</time>
      </trkpt>
      <trkpt lat="48.40734" lon="2.70143">
        <ele>97.71</ele>
        <time>2012-09-29T10:56:18Z</time>
      </trkpt>
      <trkpt lat="48.4075" lon="2.701">
        <ele>96.75</ele>
        <time>2012-09-29T10:56:24Z</time>
      </trkpt>
      <trkpt lat="48.40778" lon="2.7001">
        <ele>94.83</ele>
        <time>2012-09-29T10:56:38Z</time>
      </trkpt>
      <trkpt lat="48.408" lon="2.69947">
        <ele>93.39</ele>
        <time>2012-09-29T10:56:48Z</time>
      </trkpt>
      <trkpt lat="48.40823" lon="2.69892">
        <ele>92.9</ele>
        <time>2012-09-29T10:56:57Z</time>
      </trkpt>
      <trkpt lat="48.40836" lon="2.69851">
        <ele>92.42</ele>
        <time>2012-09-29T10:57:08Z</time>
      </trkpt>
      <trkpt lat="48.40835" lon="2.69849">
        <ele>92.42</ele>
        <time>2012-09-29T10:57:10Z</time>
      </trkpt>
      <trkpt lat="48.40835" lon="2.69846">
        <ele>92.42</ele>
        <time>2012-09-29T10:57:11Z</time>
      </trkpt>
      <trkpt lat="48.40833" lon="2.69843">
        <ele>92.42</ele>
        <time>2012-09-29T10:57:12Z</time>
      </trkpt>
      <trkpt lat="48.4083" lon="2.69841">
        <ele>92.42</ele>
        <time>2012-09-29T10:57:13Z</time>
      </trkpt>
      <trkpt lat="48.40827" lon="2.69838">
        <ele>92.9</ele>
        <time>2012-09-29T10:57:14Z</time>
      </trkpt>
      <trkpt lat="48.40796" lon="2.69805">
        <ele>98.67</ele>
        <time>2012-09-29T10:57:25Z</time>
      </trkpt>
      <trkpt lat="48.40801" lon="2.69797">
        <ele>99.15</ele>
        <time>2012-09-29T10:57:28Z</time>
      </trkpt>
      <trkpt lat="48.40809" lon="2.6979">
        <ele>100.11</ele>
        <time>2012-09-29T10:57:30Z</time>
      </trkpt>
      <trkpt lat="48.4087" lon="2.69722">
        <ele>101.08</ele>
        <time>2012-09-29T10:57:45Z</time>
      </trkpt>
      <trkpt lat="48.40934" lon="2.69653">
        <ele>102.04</ele>
        <time>2012-09-29T10:58:01Z</time>
      </trkpt>
      <trkpt lat="48.40945" lon="2.69642">
        <ele>101.56</ele>
        <time>2012-09-29T10:58:04Z</time>
      </trkpt>
      <trkpt lat="48.40956" lon="2.69632">
        <ele>101.08</ele>
        <time>2012-09-29T10:58:07Z</time>
      </trkpt>
      <trkpt lat="48.41012" lon="2.69569">
        <ele>99.63</ele>
        <time>2012-09-29T10:58:23Z</time>
      </trkpt>
      <trkpt lat="48.41036" lon="2.69541">
        <ele>101.08</ele>
        <time>2012-09-29T10:58:33Z</time>
      </trkpt>
      <trkpt lat="48.41035" lon="2.69543">
        <ele>98.19</ele>
        <time>2012-09-29T10:58:51Z</time>
      </trkpt>
      <trkpt lat="48.41035" lon="2.69543">
        <ele>95.79</ele>
        <time>2012-09-29T10:59:14Z</time>
      </trkpt>
      <trkpt lat="48.41034" lon="2.69545">
        <ele>94.35</ele>
        <time>2012-09-29T10:59:35Z</time>
      </trkpt>
      <trkpt lat="48.41034" lon="2.69545">
        <ele>92.9</ele>
        <time>2012-09-29T11:00:06Z</time>
      </trkpt>
      <trkpt lat="48.41033" lon="2.69544">
        <ele>91.94</ele>
        <time>2012-09-29T11:00:37Z</time>
      </trkpt>
      <trkpt lat="48.41033" lon="2.69544">
        <ele>90.98</ele>
        <time>2012-09-29T11:00:57Z</time>
      </trkpt>
      <trkpt lat="48.41036" lon="2.69546">
        <ele>90.98</ele>
        <time>2012-09-29T11:01:01Z</time>
      </trkpt>
      <trkpt lat="48.41038" lon="2.69544">
        <ele>90.5</ele>
        <time>2012-09-29T11:01:02Z</time>
      </trkpt>
      <trkpt lat="48.4104" lon="2.69541">
        <ele>90.5</ele>
        <time>2012-09-29T11:01:03Z</time>
      </trkpt>
      <trkpt lat="48.4107" lon="2.69508">
        <ele>91.94</ele>
        <time>2012-09-29T11:01:13Z</time>
      </trkpt>
      <trkpt lat="48.41119" lon="2.6946">
        <ele>93.87</ele>
        <time>2012-09-29T11:01:30Z</time>
      </trkpt>
      <trkpt lat="48.41124" lon="2.69461">
        <ele>93.39</ele>
        <time>2012-09-29T11:01:36Z</time>
      </trkpt>
      <trkpt lat="48.41126" lon="2.6946">
        <ele>93.87</ele>
        <time>2012-09-29T11:01:37Z</time>
      </trkpt>
      <trkpt lat="48.41128" lon="2.69457">
        <ele>94.35</ele>
        <time>2012-09-29T11:01:38Z</time>
      </trkpt>
      <trkpt lat="48.41153" lon="2.69406">
        <ele>97.71</ele>
        <time>2012-09-29T11:01:50Z</time>
      </trkpt>
      <trkpt lat="48.41178" lon="2.69359">
        <ele>100.11</ele>
        <time>2012-09-29T11:02:03Z</time>
      </trkpt>
      <trkpt lat="48.41203" lon="2.69307">
        <ele>102.52</ele>
        <time>2012-09-29T11:02:18Z</time>
      </trkpt>
      <trkpt lat="48.41225" lon="2.69263">
        <ele>103.48</ele>
        <time>2012-09-29T11:02:32Z</time>
      </trkpt>
      <trkpt lat="48.41237" lon="2.69237">
        <ele>105.4</ele>
        <time>2012-09-29T11:02:40Z</time>
      </trkpt>
      <trkpt lat="48.4124" lon="2.69237">
        <ele>106.36</ele>
        <time>2012-09-29T11:02:44Z</time>
      </trkpt>
      <trkpt lat="48.41242" lon="2.69236">
        <ele>106.36</ele>
        <time>2012-09-29T11:02:45Z</time>
      </trkpt>
      <trkpt lat="48.41243" lon="2.69235">
        <ele>106.84</ele>
        <time>2012-09-29T11:02:46Z</time>
      </trkpt>
      <trkpt lat="48.41244" lon="2.69232">
        <ele>107.32</ele>
        <time>2012-09-29T11:02:47Z</time>
      </trkpt>
      <trkpt lat="48.41246" lon="2.69198">
        <ele>106.36</ele>
        <time>2012-09-29T11:03:00Z</time>
      </trkpt>
      <trkpt lat="48.41247" lon="2.69187">
        <ele>107.32</ele>
        <time>2012-09-29T11:03:12Z</time>
      </trkpt>
      <trkpt lat="48.41247" lon="2.69184">
        <ele>106.36</ele>
        <time>2012-09-29T11:03:30Z</time>
      </trkpt>
      <trkpt lat="48.41246" lon="2.69181">
        <ele>106.84</ele>
        <time>2012-09-29T11:03:32Z</time>
      </trkpt>
      <trkpt lat="48.41245" lon="2.69179">
        <ele>106.84</ele>
        <time>2012-09-29T11:03:33Z</time>
      </trkpt>
      <trkpt lat="48.41244" lon="2.69177">
        <ele>106.84</ele>
        <time>2012-09-29T11:03:34Z</time>
      </trkpt>
      <trkpt lat="48.41244" lon="2.69173">
        <ele>106.84</ele>
        <time>2012-09-29T11:03:35Z</time>
      </trkpt>
      <trkpt lat="48.41243" lon="2.69169">
        <ele>106.36</ele>
        <time>2012-09-29T11:03:36Z</time>
      </trkpt>
      <trkpt lat="48.41242" lon="2.69165">
        <ele>106.36</ele>
        <time>2012-09-29T11:03:37Z</time>
      </trkpt>
      <trkpt lat="48.41241" lon="2.69161">
        <ele>106.36</ele>
        <time>2012-09-29T11:03:38Z</time>
      </trkpt>
      <trkpt lat="48.41241" lon="2.69158">
        <ele>106.36</ele>
        <time>2012-09-29T11:03:39Z</time>
      </trkpt>
      <trkpt lat="48.4124" lon="2.69154">
        <ele>106.36</ele>
        <time>2012-09-29T11:03:40Z</time>
      </trkpt>
      <trkpt lat="48.4124" lon="2.6915">
        <ele>106.84</ele>
        <time>2012-09-29T11:03:41Z</time>
      </trkpt>
      <trkpt lat="48.41234" lon="2.69097">
        <ele>108.29</ele>
        <time>2012-09-29T11:03:53Z</time>
      </trkpt>
      <trkpt lat="48.41226" lon="2.69059">
        <ele>110.69</ele>
        <time>2012-09-29T11:04:07Z</time>
      </trkpt>
      <trkpt lat="48.4122" lon="2.69008">
        <ele>109.73</ele>
        <time>2012-09-29T11:04:15Z</time>
      </trkpt>
      <trkpt lat="48.41219" lon="2.69001">
        <ele>109.73</ele>
        <time>2012-09-29T11:04:16Z</time>
      </trkpt>
      <trkpt lat="48.41218" lon="2.68995">
        <ele>109.25</ele>
        <time>2012-09-29T11:04:17Z</time>
      </trkpt>
      <trkpt lat="48.41217" lon="2.68988">
        <ele>109.25</ele>
        <time>2012-09-29T11:04:18Z</time>
      </trkpt>
      <trkpt lat="48.41217" lon="2.68981">
        <ele>109.25</ele>
        <time>2012-09-29T11:04:19Z</time>
      </trkpt>
      <trkpt lat="48.4121" lon="2.68932">
        <ele>109.25</ele>
        <time>2012-09-29T11:04:30Z</time>
      </trkpt>
      <trkpt lat="48.41204" lon="2.68897">
        <ele>109.73</ele>
        <time>2012-09-29T11:04:37Z</time>
      </trkpt>
      <trkpt lat="48.41204" lon="2.68899">
        <ele>110.21</ele>
        <time>2012-09-29T11:04:47Z</time>
      </trkpt>
      <trkpt lat="48.41201" lon="2.68901">
        <ele>111.65</ele>
        <time>2012-09-29T11:05:11Z</time>
      </trkpt>
      <trkpt lat="48.41201" lon="2.68898">
        <ele>111.17</ele>
        <time>2012-09-29T11:05:30Z</time>
      </trkpt>
      <trkpt lat="48.41199" lon="2.6887">
        <ele>108.77</ele>
        <time>2012-09-29T11:05:41Z</time>
      </trkpt>
      <trkpt lat="48.41195" lon="2.68837">
        <ele>108.29</ele>
        <time>2012-09-29T11:05:51Z</time>
      </trkpt>
      <trkpt lat="48.41188" lon="2.68791">
        <ele>107.81</ele>
        <time>2012-09-29T11:06:01Z</time>
      </trkpt>
      <trkpt lat="48.41181" lon="2.68731">
        <ele>106.36</ele>
        <time>2012-09-29T11:06:12Z</time>
      </trkpt>
      <trkpt lat="48.41179" lon="2.68718">
        <ele>105.88</ele>
        <time>2012-09-29T11:06:14Z</time>
      </trkpt>
      <trkpt lat="48.41179" lon="2.68711">
        <ele>105.88</ele>
        <time>2012-09-29T11:06:15Z</time>
      </trkpt>
      <trkpt lat="48.41173" lon="2.68661">
        <ele>104.92</ele>
        <time>2012-09-29T11:06:22Z</time>
      </trkpt>
      <trkpt lat="48.41172" lon="2.68653">
        <ele>104.44</ele>
        <time>2012-09-29T11:06:23Z</time>
      </trkpt>
      <trkpt lat="48.41162" lon="2.68595">
        <ele>103.48</ele>
        <time>2012-09-29T11:06:34Z</time>
      </trkpt>
      <trkpt lat="48.4116" lon="2.68593">
        <ele>103.48</ele>
        <time>2012-09-29T11:06:45Z</time>
      </trkpt>
      <trkpt lat="48.41158" lon="2.68592">
        <ele>102.52</ele>
        <time>2012-09-29T11:07:23Z</time>
      </trkpt>
      <trkpt lat="48.41157" lon="2.6859">
        <ele>103.48</ele>
        <time>2012-09-29T11:07:44Z</time>
      </trkpt>
      <trkpt lat="48.41157" lon="2.68589">
        <ele>103.96</ele>
        <time>2012-09-29T11:08:14Z</time>
      </trkpt>
      <trkpt lat="48.41155" lon="2.68592">
        <ele>103.48</ele>
        <time>2012-09-29T11:08:49Z</time>
      </trkpt>
      <trkpt lat="48.41155" lon="2.68592">
        <ele>103.96</ele>
        <time>2012-09-29T11:09:25Z</time>
      </trkpt>
      <trkpt lat="48.41151" lon="2.6859">
        <ele>103.48</ele>
        <time>2012-09-29T11:10:04Z</time>
      </trkpt>
      <trkpt lat="48.41152" lon="2.68593">
        <ele>103.48</ele>
        <time>2012-09-29T11:10:43Z</time>
      </trkpt>
      <trkpt lat="48.41152" lon="2.68593">
        <ele>104.44</ele>
        <time>2012-09-29T11:11:14Z</time>
      </trkpt>
      <trkpt lat="48.4115" lon="2.68594">
        <ele>103.48</ele>
        <time>2012-09-29T11:11:58Z</time>
      </trkpt>
      <trkpt lat="48.41151" lon="2.68595">
        <ele>103.96</ele>
        <time>2012-09-29T11:12:39Z</time>
      </trkpt>
      <trkpt lat="48.4115" lon="2.68596">
        <ele>103</ele>
        <time>2012-09-29T11:13:22Z</time>
      </trkpt>
      <trkpt lat="48.4115" lon="2.68599">
        <ele>104.92</ele>
        <time>2012-09-29T11:14:06Z</time>
      </trkpt>
      <trkpt lat="48.41151" lon="2.68598">
        <ele>103.96</ele>
        <time>2012-09-29T11:14:44Z</time>
      </trkpt>
      <trkpt lat="48.41151" lon="2.68596">
        <ele>104.44</ele>
        <time>2012-09-29T11:15:32Z</time>
      </trkpt>
      <trkpt lat="48.41153" lon="2.68596">
        <ele>105.4</ele>
        <time>2012-09-29T11:16:22Z</time>
      </trkpt>
      <trkpt lat="48.41153" lon="2.68596">
        <ele>102.52</ele>
        <time>2012-09-29T11:17:10Z</time>
      </trkpt>
      <trkpt lat="48.41154" lon="2.68594">
        <ele>102.04</ele>
        <time>2012-09-29T11:17:41Z</time>
      </trkpt>
      <trkpt lat="48.41153" lon="2.68592">
        <ele>102.04</ele>
        <time>2012-09-29T11:18:29Z</time>
      </trkpt>
      <trkpt lat="48.41151" lon="2.68594">
        <ele>101.56</ele>
        <time>2012-09-29T11:19:17Z</time>
      </trkpt>
      <trkpt lat="48.41149" lon="2.68595">
        <ele>102.52</ele>
        <time>2012-09-29T11:19:52Z</time>
      </trkpt>
      <trkpt lat="48.4115" lon="2.68593">
        <ele>102.52</ele>
        <time>2012-09-29T11:20:42Z</time>
      </trkpt>
      <trkpt lat="48.41152" lon="2.68594">
        <ele>102.52</ele>
        <time>2012-09-29T11:21:32Z</time>
      </trkpt>
      <trkpt lat="48.41151" lon="2.68593">
        <ele>100.11</ele>
        <time>2012-09-29T11:22:12Z</time>
      </trkpt>
      <trkpt lat="48.41152" lon="2.68593">
        <ele>100.6</ele>
        <time>2012-09-29T11:22:49Z</time>
      </trkpt>
      <trkpt lat="48.41154" lon="2.68595">
        <ele>102.04</ele>
        <time>2012-09-29T11:23:31Z</time>
      </trkpt>
      <trkpt lat="48.41155" lon="2.68596">
        <ele>103</ele>
        <time>2012-09-29T11:24:01Z</time>
      </trkpt>
      <trkpt lat="48.41154" lon="2.68594">
        <ele>103.48</ele>
        <time>2012-09-29T11:24:33Z</time>
      </trkpt>
      <trkpt lat="48.41155" lon="2.68592">
        <ele>104.92</ele>
        <time>2012-09-29T11:25:04Z</time>
      </trkpt>
      <trkpt lat="48.41155" lon="2.68592">
        <ele>104.92</ele>
        <time>2012-09-29T11:25:42Z</time>
      </trkpt>
      <trkpt lat="48.41154" lon="2.68593">
        <ele>103.96</ele>
        <time>2012-09-29T11:26:20Z</time>
      </trkpt>
      <trkpt lat="48.41154" lon="2.68592">
        <ele>103.96</ele>
        <time>2012-09-29T11:26:51Z</time>
      </trkpt>
      <trkpt lat="48.41154" lon="2.68593">
        <ele>103.96</ele>
        <time>2012-09-29T11:27:23Z</time>
      </trkpt>
      <trkpt lat="48.41153" lon="2.68592">
        <ele>103</ele>
        <time>2012-09-29T11:27:54Z</time>
      </trkpt>
      <trkpt lat="48.41154" lon="2.68591">
        <ele>103</ele>
        <time>2012-09-29T11:28:30Z</time>
      </trkpt>
      <trkpt lat="48.41156" lon="2.68594">
        <ele>102.52</ele>
        <time>2012-09-29T11:28:55Z</time>
      </trkpt>
      <trkpt lat="48.41157" lon="2.68593">
        <ele>102.52</ele>
        <time>2012-09-29T11:28:58Z</time>
      </trkpt>
      <trkpt lat="48.41151" lon="2.68582">
        <ele>125.11</ele>
        <time>2012-09-29T11:48:48Z</time>
      </trkpt>
      <trkpt lat="48.41157" lon="2.68591">
        <ele>109.25</ele>
        <time>2012-09-29T11:49:19Z</time>
      </trkpt>
      <trkpt lat="48.41157" lon="2.68589">
        <ele>108.77</ele>
        <time>2012-09-29T11:49:37Z</time>
      </trkpt>
      <trkpt lat="48.41158" lon="2.68593">
        <ele>109.73</ele>
        <time>2012-09-29T11:49:56Z</time>
      </trkpt>
      <trkpt lat="48.41155" lon="2.68592">
        <ele>110.21</ele>
        <time>2012-09-29T11:50:19Z</time>
      </trkpt>
      <trkpt lat="48.41158" lon="2.68594">
        <ele>107.81</ele>
        <time>2012-09-29T11:50:42Z</time>
      </trkpt>
      <trkpt lat="48.41159" lon="2.68594">
        <ele>107.32</ele>
        <time>2012-09-29T11:50:56Z</time>
      </trkpt>
      <trkpt lat="48.41155" lon="2.68548">
        <ele>107.32</ele>
        <time>2012-09-29T11:51:06Z</time>
      </trkpt>
      <trkpt lat="48.41144" lon="2.6847">
        <ele>108.29</ele>
        <time>2012-09-29T11:51:19Z</time>
      </trkpt>
      <trkpt lat="48.41143" lon="2.68464">
        <ele>108.29</ele>
        <time>2012-09-29T11:51:20Z</time>
      </trkpt>
      <trkpt lat="48.41139" lon="2.68437">
        <ele>108.29</ele>
        <time>2012-09-29T11:51:24Z</time>
      </trkpt>
      <trkpt lat="48.41134" lon="2.684">
        <ele>107.81</ele>
        <time>2012-09-29T11:51:30Z</time>
      </trkpt>
      <trkpt lat="48.41133" lon="2.68392">
        <ele>108.29</ele>
        <time>2012-09-29T11:51:31Z</time>
      </trkpt>
      <trkpt lat="48.41133" lon="2.68385">
        <ele>108.29</ele>
        <time>2012-09-29T11:51:32Z</time>
      </trkpt>
      <trkpt lat="48.41132" lon="2.68379">
        <ele>107.81</ele>
        <time>2012-09-29T11:51:33Z</time>
      </trkpt>
      <trkpt lat="48.41132" lon="2.68372">
        <ele>107.81</ele>
        <time>2012-09-29T11:51:34Z</time>
      </trkpt>
      <trkpt lat="48.41124" lon="2.68324">
        <ele>106.36</ele>
        <time>2012-09-29T11:51:43Z</time>
      </trkpt>
      <trkpt lat="48.41121" lon="2.68309">
        <ele>105.88</ele>
        <time>2012-09-29T11:51:47Z</time>
      </trkpt>
      <trkpt lat="48.4112" lon="2.68307">
        <ele>105.88</ele>
        <time>2012-09-29T11:51:48Z</time>
      </trkpt>
      <trkpt lat="48.41119" lon="2.68304">
        <ele>104.92</ele>
        <time>2012-09-29T11:51:50Z</time>
      </trkpt>
      <trkpt lat="48.41118" lon="2.68303">
        <ele>104.44</ele>
        <time>2012-09-29T11:51:51Z</time>
      </trkpt>
      <trkpt lat="48.41105" lon="2.68285">
        <ele>103</ele>
        <time>2012-09-29T11:52:01Z</time>
      </trkpt>
      <trkpt lat="48.41104" lon="2.68285">
        <ele>103</ele>
        <time>2012-09-29T11:52:07Z</time>
      </trkpt>
      <trkpt lat="48.41102" lon="2.68284">
        <ele>103</ele>
        <time>2012-09-29T11:52:08Z</time>
      </trkpt>
      <trkpt lat="48.41089" lon="2.68279">
        <ele>101.56</ele>
        <time>2012-09-29T11:52:15Z</time>
      </trkpt>
      <trkpt lat="48.41086" lon="2.6828">
        <ele>101.56</ele>
        <time>2012-09-29T11:52:16Z</time>
      </trkpt>
      <trkpt lat="48.41084" lon="2.68279">
        <ele>101.08</ele>
        <time>2012-09-29T11:52:17Z</time>
      </trkpt>
      <trkpt lat="48.41081" lon="2.68278">
        <ele>101.08</ele>
        <time>2012-09-29T11:52:18Z</time>
      </trkpt>
      <trkpt lat="48.41056" lon="2.68264">
        <ele>99.63</ele>
        <time>2012-09-29T11:52:25Z</time>
      </trkpt>
      <trkpt lat="48.41033" lon="2.68249">
        <ele>98.19</ele>
        <time>2012-09-29T11:52:31Z</time>
      </trkpt>
      <trkpt lat="48.40976" lon="2.68212">
        <ele>94.35</ele>
        <time>2012-09-29T11:52:44Z</time>
      </trkpt>
      <trkpt lat="48.40944" lon="2.68192">
        <ele>91.94</ele>
        <time>2012-09-29T11:52:56Z</time>
      </trkpt>
      <trkpt lat="48.40942" lon="2.6819">
        <ele>91.94</ele>
        <time>2012-09-29T11:52:57Z</time>
      </trkpt>
      <trkpt lat="48.4092" lon="2.68155">
        <ele>90.5</ele>
        <time>2012-09-29T11:53:06Z</time>
      </trkpt>
      <trkpt lat="48.40915" lon="2.68141">
        <ele>90.02</ele>
        <time>2012-09-29T11:53:08Z</time>
      </trkpt>
      <trkpt lat="48.4091" lon="2.68119">
        <ele>89.06</ele>
        <time>2012-09-29T11:53:11Z</time>
      </trkpt>
      <trkpt lat="48.40885" lon="2.68037">
        <ele>88.58</ele>
        <time>2012-09-29T11:53:24Z</time>
      </trkpt>
      <trkpt lat="48.40877" lon="2.68011">
        <ele>89.06</ele>
        <time>2012-09-29T11:53:30Z</time>
      </trkpt>
      <trkpt lat="48.40874" lon="2.68006">
        <ele>90.5</ele>
        <time>2012-09-29T11:53:41Z</time>
      </trkpt>
      <trkpt lat="48.40873" lon="2.68004">
        <ele>91.46</ele>
        <time>2012-09-29T11:53:43Z</time>
      </trkpt>
      <trkpt lat="48.40862" lon="2.67965">
        <ele>92.42</ele>
        <time>2012-09-29T11:53:52Z</time>
      </trkpt>
      <trkpt lat="48.4086" lon="2.67958">
        <ele>92.9</ele>
        <time>2012-09-29T11:53:53Z</time>
      </trkpt>
      <trkpt lat="48.40857" lon="2.67951">
        <ele>92.9</ele>
        <time>2012-09-29T11:53:54Z</time>
      </trkpt>
      <trkpt lat="48.40855" lon="2.67945">
        <ele>92.9</ele>
        <time>2012-09-29T11:53:55Z</time>
      </trkpt>
      <trkpt lat="48.40836" lon="2.67894">
        <ele>96.27</ele>
        <time>2012-09-29T11:54:06Z</time>
      </trkpt>
      <trkpt lat="48.40828" lon="2.67864">
        <ele>96.75</ele>
        <time>2012-09-29T11:54:11Z</time>
      </trkpt>
      <trkpt lat="48.40826" lon="2.67858">
        <ele>96.75</ele>
        <time>2012-09-29T11:54:12Z</time>
      </trkpt>
      <trkpt lat="48.40821" lon="2.67841">
        <ele>96.75</ele>
        <time>2012-09-29T11:54:15Z</time>
      </trkpt>
      <trkpt lat="48.40819" lon="2.67835">
        <ele>96.75</ele>
        <time>2012-09-29T11:54:16Z</time>
      </trkpt>
      <trkpt lat="48.40802" lon="2.67785">
        <ele>94.83</ele>
        <time>2012-09-29T11:54:25Z</time>
      </trkpt>
      <trkpt lat="48.408" lon="2.67779">
        <ele>94.83</ele>
        <time>2012-09-29T11:54:26Z</time>
      </trkpt>
      <trkpt lat="48.40778" lon="2.67714">
        <ele>93.39</ele>
        <time>2012-09-29T11:54:37Z</time>
      </trkpt>
      <trkpt lat="48.40776" lon="2.67708">
        <ele>93.39</ele>
        <time>2012-09-29T11:54:38Z</time>
      </trkpt>
      <trkpt lat="48.40774" lon="2.67703">
        <ele>93.39</ele>
        <time>2012-09-29T11:54:39Z</time>
      </trkpt>
      <trkpt lat="48.40772" lon="2.67698">
        <ele>93.87</ele>
        <time>2012-09-29T11:54:40Z</time>
      </trkpt>
      <trkpt lat="48.4077" lon="2.67694">
        <ele>93.87</ele>
        <time>2012-09-29T11:54:41Z</time>
      </trkpt>
      <trkpt lat="48.40752" lon="2.67638">
        <ele>98.19</ele>
        <time>2012-09-29T11:54:53Z</time>
      </trkpt>
      <trkpt lat="48.40741" lon="2.67599">
        <ele>101.08</ele>
        <time>2012-09-29T11:55:04Z</time>
      </trkpt>
      <trkpt lat="48.40741" lon="2.67597">
        <ele>100.6</ele>
        <time>2012-09-29T11:55:05Z</time>
      </trkpt>
      <trkpt lat="48.40736" lon="2.67588">
        <ele>99.63</ele>
        <time>2012-09-29T11:55:11Z</time>
      </trkpt>
      <trkpt lat="48.40735" lon="2.67587">
        <ele>99.15</ele>
        <time>2012-09-29T11:55:12Z</time>
      </trkpt>
      <trkpt lat="48.40731" lon="2.67583">
        <ele>97.71</ele>
        <time>2012-09-29T11:55:28Z</time>
      </trkpt>
      <trkpt lat="48.40732" lon="2.67584">
        <ele>96.75</ele>
        <time>2012-09-29T11:55:56Z</time>
      </trkpt>
      <trkpt lat="48.40731" lon="2.67581">
        <ele>95.79</ele>
        <time>2012-09-29T11:56:09Z</time>
      </trkpt>
      <trkpt lat="48.40721" lon="2.67538">
        <ele>96.27</ele>
        <time>2012-09-29T11:56:20Z</time>
      </trkpt>
      <trkpt lat="48.40704" lon="2.67489">
        <ele>97.71</ele>
        <time>2012-09-29T11:56:30Z</time>
      </trkpt>
      <trkpt lat="48.40685" lon="2.67442">
        <ele>96.27</ele>
        <time>2012-09-29T11:56:40Z</time>
      </trkpt>
      <trkpt lat="48.40657" lon="2.67386">
        <ele>95.31</ele>
        <time>2012-09-29T11:56:52Z</time>
      </trkpt>
      <trkpt lat="48.4065" lon="2.67373">
        <ele>94.83</ele>
        <time>2012-09-29T11:56:55Z</time>
      </trkpt>
      <trkpt lat="48.40647" lon="2.67367">
        <ele>94.83</ele>
        <time>2012-09-29T11:56:56Z</time>
      </trkpt>
      <trkpt lat="48.40635" lon="2.67331">
        <ele>93.39</ele>
        <time>2012-09-29T11:57:02Z</time>
      </trkpt>
      <trkpt lat="48.40632" lon="2.67325">
        <ele>93.39</ele>
        <time>2012-09-29T11:57:03Z</time>
      </trkpt>
      <trkpt lat="48.40629" lon="2.6732">
        <ele>92.9</ele>
        <time>2012-09-29T11:57:04Z</time>
      </trkpt>
      <trkpt lat="48.40626" lon="2.67314">
        <ele>92.9</ele>
        <time>2012-09-29T11:57:05Z</time>
      </trkpt>
      <trkpt lat="48.40624" lon="2.67309">
        <ele>92.9</ele>
        <time>2012-09-29T11:57:06Z</time>
      </trkpt>
      <trkpt lat="48.40619" lon="2.67298">
        <ele>92.42</ele>
        <time>2012-09-29T11:57:08Z</time>
      </trkpt>
      <trkpt lat="48.40613" lon="2.67287">
        <ele>91.94</ele>
        <time>2012-09-29T11:57:10Z</time>
      </trkpt>
      <trkpt lat="48.40608" lon="2.67275">
        <ele>91.46</ele>
        <time>2012-09-29T11:57:12Z</time>
      </trkpt>
      <trkpt lat="48.40606" lon="2.67269">
        <ele>91.46</ele>
        <time>2012-09-29T11:57:13Z</time>
      </trkpt>
      <trkpt lat="48.40604" lon="2.67263">
        <ele>90.98</ele>
        <time>2012-09-29T11:57:14Z</time>
      </trkpt>
      <trkpt lat="48.40601" lon="2.67259">
        <ele>90.98</ele>
        <time>2012-09-29T11:57:15Z</time>
      </trkpt>
      <trkpt lat="48.40598" lon="2.67254">
        <ele>90.98</ele>
        <time>2012-09-29T11:57:16Z</time>
      </trkpt>
      <trkpt lat="48.40554" lon="2.67179">
        <ele>88.1</ele>
        <time>2012-09-29T11:57:32Z</time>
      </trkpt>
      <trkpt lat="48.40539" lon="2.67115">
        <ele>86.66</ele>
        <time>2012-09-29T11:57:44Z</time>
      </trkpt>
      <trkpt lat="48.40532" lon="2.67055">
        <ele>87.14</ele>
        <time>2012-09-29T11:57:55Z</time>
      </trkpt>
      <trkpt lat="48.40519" lon="2.66997">
        <ele>88.1</ele>
        <time>2012-09-29T11:58:06Z</time>
      </trkpt>
      <trkpt lat="48.40506" lon="2.66926">
        <ele>90.02</ele>
        <time>2012-09-29T11:58:18Z</time>
      </trkpt>
      <trkpt lat="48.40505" lon="2.6692">
        <ele>90.02</ele>
        <time>2012-09-29T11:58:19Z</time>
      </trkpt>
      <trkpt lat="48.4049" lon="2.66858">
        <ele>90.5</ele>
        <time>2012-09-29T11:58:30Z</time>
      </trkpt>
      <trkpt lat="48.40487" lon="2.66855">
        <ele>90.5</ele>
        <time>2012-09-29T11:58:31Z</time>
      </trkpt>
      <trkpt lat="48.40485" lon="2.66851">
        <ele>90.5</ele>
        <time>2012-09-29T11:58:32Z</time>
      </trkpt>
      <trkpt lat="48.40483" lon="2.66846">
        <ele>90.5</ele>
        <time>2012-09-29T11:58:33Z</time>
      </trkpt>
      <trkpt lat="48.40483" lon="2.66841">
        <ele>90.02</ele>
        <time>2012-09-29T11:58:34Z</time>
      </trkpt>
      <trkpt lat="48.40482" lon="2.66836">
        <ele>90.02</ele>
        <time>2012-09-29T11:58:35Z</time>
      </trkpt>
      <trkpt lat="48.40482" lon="2.66831">
        <ele>90.02</ele>
        <time>2012-09-29T11:58:36Z</time>
      </trkpt>
      <trkpt lat="48.40476" lon="2.66795">
        <ele>90.02</ele>
        <time>2012-09-29T11:58:46Z</time>
      </trkpt>
      <trkpt lat="48.40479" lon="2.6679">
        <ele>90.5</ele>
        <time>2012-09-29T11:58:48Z</time>
      </trkpt>
      <trkpt lat="48.40481" lon="2.66787">
        <ele>90.98</ele>
        <time>2012-09-29T11:58:49Z</time>
      </trkpt>
      <trkpt lat="48.40482" lon="2.66784">
        <ele>91.46</ele>
        <time>2012-09-29T11:58:50Z</time>
      </trkpt>
      <trkpt lat="48.40484" lon="2.66781">
        <ele>91.46</ele>
        <time>2012-09-29T11:58:51Z</time>
      </trkpt>
      <trkpt lat="48.40485" lon="2.66776">
        <ele>91.46</ele>
        <time>2012-09-29T11:58:52Z</time>
      </trkpt>
      <trkpt lat="48.40486" lon="2.66768">
        <ele>91.94</ele>
        <time>2012-09-29T11:58:54Z</time>
      </trkpt>
      <trkpt lat="48.40501" lon="2.66701">
        <ele>93.87</ele>
        <time>2012-09-29T11:59:08Z</time>
      </trkpt>
      <trkpt lat="48.40509" lon="2.66636">
        <ele>94.35</ele>
        <time>2012-09-29T11:59:22Z</time>
      </trkpt>
      <trkpt lat="48.40509" lon="2.66625">
        <ele>94.83</ele>
        <time>2012-09-29T11:59:25Z</time>
      </trkpt>
      <trkpt lat="48.40512" lon="2.66607">
        <ele>96.75</ele>
        <time>2012-09-29T11:59:32Z</time>
      </trkpt>
      <trkpt lat="48.4052" lon="2.6655">
        <ele>97.71</ele>
        <time>2012-09-29T11:59:45Z</time>
      </trkpt>
      <trkpt lat="48.40524" lon="2.66521">
        <ele>97.71</ele>
        <time>2012-09-29T11:59:55Z</time>
      </trkpt>
      <trkpt lat="48.40527" lon="2.6649">
        <ele>98.19</ele>
        <time>2012-09-29T12:00:08Z</time>
      </trkpt>
      <trkpt lat="48.40539" lon="2.6646">
        <ele>98.19</ele>
        <time>2012-09-29T12:00:19Z</time>
      </trkpt>
      <trkpt lat="48.40544" lon="2.66446">
        <ele>97.23</ele>
        <time>2012-09-29T12:00:24Z</time>
      </trkpt>
      <trkpt lat="48.40568" lon="2.66417">
        <ele>98.67</ele>
        <time>2012-09-29T12:00:38Z</time>
      </trkpt>
      <trkpt lat="48.40571" lon="2.6641">
        <ele>99.15</ele>
        <time>2012-09-29T12:00:41Z</time>
      </trkpt>
      <trkpt lat="48.40579" lon="2.66393">
        <ele>102.04</ele>
        <time>2012-09-29T12:00:55Z</time>
      </trkpt>
      <trkpt lat="48.40579" lon="2.66393">
        <ele>102.04</ele>
        <time>2012-09-29T12:01:06Z</time>
      </trkpt>
      <trkpt lat="48.40579" lon="2.66367">
        <ele>102.04</ele>
        <time>2012-09-29T12:01:14Z</time>
      </trkpt>
      <trkpt lat="48.40579" lon="2.66302">
        <ele>101.56</ele>
        <time>2012-09-29T12:01:26Z</time>
      </trkpt>
      <trkpt lat="48.40574" lon="2.66243">
        <ele>102.04</ele>
        <time>2012-09-29T12:01:37Z</time>
      </trkpt>
      <trkpt lat="48.40573" lon="2.66232">
        <ele>102.04</ele>
        <time>2012-09-29T12:01:39Z</time>
      </trkpt>
      <trkpt lat="48.40568" lon="2.66207">
        <ele>102.52</ele>
        <time>2012-09-29T12:01:43Z</time>
      </trkpt>
      <trkpt lat="48.40551" lon="2.66133">
        <ele>103.48</ele>
        <time>2012-09-29T12:01:55Z</time>
      </trkpt>
      <trkpt lat="48.40546" lon="2.66106">
        <ele>102.04</ele>
        <time>2012-09-29T12:01:59Z</time>
      </trkpt>
      <trkpt lat="48.40545" lon="2.66099">
        <ele>102.04</ele>
        <time>2012-09-29T12:02:00Z</time>
      </trkpt>
      <trkpt lat="48.40545" lon="2.66092">
        <ele>102.04</ele>
        <time>2012-09-29T12:02:01Z</time>
      </trkpt>
      <trkpt lat="48.40545" lon="2.66085">
        <ele>101.56</ele>
        <time>2012-09-29T12:02:02Z</time>
      </trkpt>
      <trkpt lat="48.40546" lon="2.66078">
        <ele>101.56</ele>
        <time>2012-09-29T12:02:03Z</time>
      </trkpt>
      <trkpt lat="48.40548" lon="2.66072">
        <ele>101.56</ele>
        <time>2012-09-29T12:02:04Z</time>
      </trkpt>
      <trkpt lat="48.40549" lon="2.66067">
        <ele>102.04</ele>
        <time>2012-09-29T12:02:05Z</time>
      </trkpt>
      <trkpt lat="48.40551" lon="2.66061">
        <ele>102.52</ele>
        <time>2012-09-29T12:02:06Z</time>
      </trkpt>
      <trkpt lat="48.40552" lon="2.66055">
        <ele>102.52</ele>
        <time>2012-09-29T12:02:07Z</time>
      </trkpt>
      <trkpt lat="48.40553" lon="2.66049">
        <ele>103</ele>
        <time>2012-09-29T12:02:08Z</time>
      </trkpt>
      <trkpt lat="48.40554" lon="2.66043">
        <ele>103.48</ele>
        <time>2012-09-29T12:02:09Z</time>
      </trkpt>
      <trkpt lat="48.40555" lon="2.66037">
        <ele>103.48</ele>
        <time>2012-09-29T12:02:10Z</time>
      </trkpt>
      <trkpt lat="48.4056" lon="2.66019">
        <ele>104.44</ele>
        <time>2012-09-29T12:02:13Z</time>
      </trkpt>
      <trkpt lat="48.40561" lon="2.66013">
        <ele>104.44</ele>
        <time>2012-09-29T12:02:14Z</time>
      </trkpt>
      <trkpt lat="48.40568" lon="2.65925">
        <ele>100.6</ele>
        <time>2012-09-29T12:02:29Z</time>
      </trkpt>
      <trkpt lat="48.40562" lon="2.65862">
        <ele>99.15</ele>
        <time>2012-09-29T12:02:42Z</time>
      </trkpt>
      <trkpt lat="48.4055" lon="2.65823">
        <ele>100.11</ele>
        <time>2012-09-29T12:02:53Z</time>
      </trkpt>
      <trkpt lat="48.40521" lon="2.6579">
        <ele>102.52</ele>
        <time>2012-09-29T12:03:07Z</time>
      </trkpt>
      <trkpt lat="48.405" lon="2.65763">
        <ele>107.81</ele>
        <time>2012-09-29T12:03:19Z</time>
      </trkpt>
      <trkpt lat="48.40463" lon="2.65746">
        <ele>111.65</ele>
        <time>2012-09-29T12:03:30Z</time>
      </trkpt>
      <trkpt lat="48.40428" lon="2.6575">
        <ele>115.01</ele>
        <time>2012-09-29T12:03:41Z</time>
      </trkpt>
      <trkpt lat="48.4042" lon="2.6575">
        <ele>114.05</ele>
        <time>2012-09-29T12:03:45Z</time>
      </trkpt>
      <trkpt lat="48.40417" lon="2.65748">
        <ele>113.09</ele>
        <time>2012-09-29T12:03:46Z</time>
      </trkpt>
      <trkpt lat="48.40407" lon="2.65729">
        <ele>109.73</ele>
        <time>2012-09-29T12:03:53Z</time>
      </trkpt>
      <trkpt lat="48.40408" lon="2.65708">
        <ele>105.4</ele>
        <time>2012-09-29T12:04:03Z</time>
      </trkpt>
      <trkpt lat="48.40406" lon="2.65701">
        <ele>104.92</ele>
        <time>2012-09-29T12:04:06Z</time>
      </trkpt>
      <trkpt lat="48.40421" lon="2.6569">
        <ele>103.96</ele>
        <time>2012-09-29T12:04:13Z</time>
      </trkpt>
      <trkpt lat="48.40422" lon="2.65686">
        <ele>104.44</ele>
        <time>2012-09-29T12:04:15Z</time>
      </trkpt>
      <trkpt lat="48.40424" lon="2.65681">
        <ele>104.44</ele>
        <time>2012-09-29T12:04:18Z</time>
      </trkpt>
      <trkpt lat="48.40422" lon="2.65679">
        <ele>104.92</ele>
        <time>2012-09-29T12:04:20Z</time>
      </trkpt>
      <trkpt lat="48.40419" lon="2.65668">
        <ele>105.88</ele>
        <time>2012-09-29T12:04:26Z</time>
      </trkpt>
      <trkpt lat="48.40404" lon="2.65628">
        <ele>108.29</ele>
        <time>2012-09-29T12:04:39Z</time>
      </trkpt>
      <trkpt lat="48.40395" lon="2.65605">
        <ele>110.69</ele>
        <time>2012-09-29T12:04:44Z</time>
      </trkpt>
      <trkpt lat="48.40392" lon="2.65601">
        <ele>110.69</ele>
        <time>2012-09-29T12:04:45Z</time>
      </trkpt>
      <trkpt lat="48.4039" lon="2.65597">
        <ele>111.17</ele>
        <time>2012-09-29T12:04:46Z</time>
      </trkpt>
      <trkpt lat="48.4038" lon="2.6553">
        <ele>109.25</ele>
        <time>2012-09-29T12:04:58Z</time>
      </trkpt>
      <trkpt lat="48.4039" lon="2.65448">
        <ele>103.96</ele>
        <time>2012-09-29T12:05:12Z</time>
      </trkpt>
      <trkpt lat="48.40399" lon="2.65377">
        <ele>98.67</ele>
        <time>2012-09-29T12:05:26Z</time>
      </trkpt>
      <trkpt lat="48.40408" lon="2.65316">
        <ele>98.19</ele>
        <time>2012-09-29T12:05:39Z</time>
      </trkpt>
      <trkpt lat="48.40415" lon="2.65249">
        <ele>97.71</ele>
        <time>2012-09-29T12:05:53Z</time>
      </trkpt>
      <trkpt lat="48.40421" lon="2.65199">
        <ele>100.6</ele>
        <time>2012-09-29T12:06:07Z</time>
      </trkpt>
      <trkpt lat="48.40424" lon="2.65197">
        <ele>99.15</ele>
        <time>2012-09-29T12:06:21Z</time>
      </trkpt>
      <trkpt lat="48.40424" lon="2.65196">
        <ele>99.63</ele>
        <time>2012-09-29T12:06:37Z</time>
      </trkpt>
      <trkpt lat="48.40425" lon="2.65187">
        <ele>99.15</ele>
        <time>2012-09-29T12:06:44Z</time>
      </trkpt>
      <trkpt lat="48.40427" lon="2.6518">
        <ele>98.19</ele>
        <time>2012-09-29T12:06:58Z</time>
      </trkpt>
      <trkpt lat="48.40429" lon="2.65181">
        <ele>99.63</ele>
        <time>2012-09-29T12:07:24Z</time>
      </trkpt>
      <trkpt lat="48.40427" lon="2.65181">
        <ele>99.15</ele>
        <time>2012-09-29T12:07:44Z</time>
      </trkpt>
      <trkpt lat="48.40425" lon="2.65182">
        <ele>98.19</ele>
        <time>2012-09-29T12:08:12Z</time>
      </trkpt>
      <trkpt lat="48.40424" lon="2.65181">
        <ele>97.71</ele>
        <time>2012-09-29T12:08:39Z</time>
      </trkpt>
      <trkpt lat="48.40424" lon="2.6518">
        <ele>97.23</ele>
        <time>2012-09-29T12:09:06Z</time>
      </trkpt>
      <trkpt lat="48.40424" lon="2.65181">
        <ele>96.75</ele>
        <time>2012-09-29T12:09:32Z</time>
      </trkpt>
      <trkpt lat="48.40425" lon="2.65179">
        <ele>97.23</ele>
        <time>2012-09-29T12:09:59Z</time>
      </trkpt>
      <trkpt lat="48.40425" lon="2.65178">
        <ele>97.23</ele>
        <time>2012-09-29T12:10:21Z</time>
      </trkpt>
      <trkpt lat="48.40425" lon="2.65177">
        <ele>96.27</ele>
        <time>2012-09-29T12:10:41Z</time>
      </trkpt>
      <trkpt lat="48.40423" lon="2.65177">
        <ele>96.27</ele>
        <time>2012-09-29T12:11:02Z</time>
      </trkpt>
      <trkpt lat="48.40423" lon="2.65176">
        <ele>95.31</ele>
        <time>2012-09-29T12:11:27Z</time>
      </trkpt>
      <trkpt lat="48.40423" lon="2.65175">
        <ele>95.31</ele>
        <time>2012-09-29T12:11:53Z</time>
      </trkpt>
      <trkpt lat="48.40423" lon="2.65175">
        <ele>96.27</ele>
        <time>2012-09-29T12:12:18Z</time>
      </trkpt>
      <trkpt lat="48.40424" lon="2.65176">
        <ele>96.27</ele>
        <time>2012-09-29T12:12:37Z</time>
      </trkpt>
      <trkpt lat="48.40423" lon="2.65176">
        <ele>96.75</ele>
        <time>2012-09-29T12:12:58Z</time>
      </trkpt>
      <trkpt lat="48.40424" lon="2.65168">
        <ele>98.67</ele>
        <time>2012-09-29T12:13:12Z</time>
      </trkpt>
      <trkpt lat="48.4043" lon="2.65135">
        <ele>100.11</ele>
        <time>2012-09-29T12:13:25Z</time>
      </trkpt>
      <trkpt lat="48.40432" lon="2.65127">
        <ele>100.11</ele>
        <time>2012-09-29T12:13:28Z</time>
      </trkpt>
      <trkpt lat="48.40432" lon="2.65124">
        <ele>100.11</ele>
        <time>2012-09-29T12:13:29Z</time>
      </trkpt>
      <trkpt lat="48.40433" lon="2.65121">
        <ele>99.63</ele>
        <time>2012-09-29T12:13:30Z</time>
      </trkpt>
      <trkpt lat="48.40434" lon="2.65118">
        <ele>99.63</ele>
        <time>2012-09-29T12:13:31Z</time>
      </trkpt>
      <trkpt lat="48.40435" lon="2.65115">
        <ele>99.63</ele>
        <time>2012-09-29T12:13:32Z</time>
      </trkpt>
      <trkpt lat="48.40435" lon="2.65112">
        <ele>100.11</ele>
        <time>2012-09-29T12:13:33Z</time>
      </trkpt>
      <trkpt lat="48.40436" lon="2.65108">
        <ele>100.11</ele>
        <time>2012-09-29T12:13:34Z</time>
      </trkpt>
      <trkpt lat="48.40437" lon="2.65104">
        <ele>100.11</ele>
        <time>2012-09-29T12:13:35Z</time>
      </trkpt>
      <trkpt lat="48.40453" lon="2.65063">
        <ele>100.6</ele>
        <time>2012-09-29T12:13:48Z</time>
      </trkpt>
      <trkpt lat="48.40454" lon="2.6506">
        <ele>100.6</ele>
        <time>2012-09-29T12:13:49Z</time>
      </trkpt>
      <trkpt lat="48.40454" lon="2.65058">
        <ele>100.6</ele>
        <time>2012-09-29T12:13:50Z</time>
      </trkpt>
      <trkpt lat="48.40455" lon="2.65055">
        <ele>100.6</ele>
        <time>2012-09-29T12:13:51Z</time>
      </trkpt>
      <trkpt lat="48.40475" lon="2.65018">
        <ele>102.52</ele>
        <time>2012-09-29T12:14:02Z</time>
      </trkpt>
      <trkpt lat="48.40503" lon="2.64982">
        <ele>103.96</ele>
        <time>2012-09-29T12:14:16Z</time>
      </trkpt>
      <trkpt lat="48.40523" lon="2.64951">
        <ele>106.36</ele>
        <time>2012-09-29T12:14:28Z</time>
      </trkpt>
      <trkpt lat="48.40546" lon="2.64912">
        <ele>107.81</ele>
        <time>2012-09-29T12:14:43Z</time>
      </trkpt>
      <trkpt lat="48.40554" lon="2.64892">
        <ele>108.29</ele>
        <time>2012-09-29T12:14:52Z</time>
      </trkpt>
      <trkpt lat="48.40566" lon="2.64877">
        <ele>109.73</ele>
        <time>2012-09-29T12:14:58Z</time>
      </trkpt>
      <trkpt lat="48.4057" lon="2.64868">
        <ele>110.69</ele>
        <time>2012-09-29T12:15:01Z</time>
      </trkpt>
      <trkpt lat="48.40575" lon="2.64848">
        <ele>111.17</ele>
        <time>2012-09-29T12:15:07Z</time>
      </trkpt>
      <trkpt lat="48.40578" lon="2.64831">
        <ele>110.21</ele>
        <time>2012-09-29T12:15:12Z</time>
      </trkpt>
      <trkpt lat="48.40585" lon="2.64788">
        <ele>109.73</ele>
        <time>2012-09-29T12:15:27Z</time>
      </trkpt>
      <trkpt lat="48.40595" lon="2.64747">
        <ele>110.21</ele>
        <time>2012-09-29T12:15:41Z</time>
      </trkpt>
      <trkpt lat="48.40601" lon="2.64717">
        <ele>110.21</ele>
        <time>2012-09-29T12:15:51Z</time>
      </trkpt>
      <trkpt lat="48.4061" lon="2.6468">
        <ele>113.09</ele>
        <time>2012-09-29T12:16:04Z</time>
      </trkpt>
      <trkpt lat="48.40611" lon="2.64671">
        <ele>114.05</ele>
        <time>2012-09-29T12:16:07Z</time>
      </trkpt>
      <trkpt lat="48.40612" lon="2.64662">
        <ele>114.53</ele>
        <time>2012-09-29T12:16:10Z</time>
      </trkpt>
      <trkpt lat="48.40613" lon="2.64656">
        <ele>114.53</ele>
        <time>2012-09-29T12:16:12Z</time>
      </trkpt>
      <trkpt lat="48.40619" lon="2.64624">
        <ele>115.98</ele>
        <time>2012-09-29T12:16:24Z</time>
      </trkpt>
      <trkpt lat="48.40616" lon="2.64613">
        <ele>117.42</ele>
        <time>2012-09-29T12:16:28Z</time>
      </trkpt>
      <trkpt lat="48.40613" lon="2.64602">
        <ele>117.9</ele>
        <time>2012-09-29T12:16:31Z</time>
      </trkpt>
      <trkpt lat="48.40608" lon="2.64568">
        <ele>118.86</ele>
        <time>2012-09-29T12:16:40Z</time>
      </trkpt>
      <trkpt lat="48.40603" lon="2.64551">
        <ele>118.86</ele>
        <time>2012-09-29T12:16:45Z</time>
      </trkpt>
      <trkpt lat="48.40595" lon="2.64504">
        <ele>120.3</ele>
        <time>2012-09-29T12:16:58Z</time>
      </trkpt>
      <trkpt lat="48.40591" lon="2.64467">
        <ele>122.71</ele>
        <time>2012-09-29T12:17:09Z</time>
      </trkpt>
      <trkpt lat="48.406" lon="2.64443">
        <ele>125.11</ele>
        <time>2012-09-29T12:17:24Z</time>
      </trkpt>
      <trkpt lat="48.40605" lon="2.64434">
        <ele>125.11</ele>
        <time>2012-09-29T12:17:30Z</time>
      </trkpt>
      <trkpt lat="48.40614" lon="2.64427">
        <ele>125.11</ele>
        <time>2012-09-29T12:17:38Z</time>
      </trkpt>
      <trkpt lat="48.40626" lon="2.64406">
        <ele>126.07</ele>
        <time>2012-09-29T12:17:52Z</time>
      </trkpt>
      <trkpt lat="48.40626" lon="2.64404">
        <ele>126.07</ele>
        <time>2012-09-29T12:17:53Z</time>
      </trkpt>
      <trkpt lat="48.4063" lon="2.64373">
        <ele>124.63</ele>
        <time>2012-09-29T12:18:08Z</time>
      </trkpt>
      <trkpt lat="48.40631" lon="2.64345">
        <ele>126.55</ele>
        <time>2012-09-29T12:18:22Z</time>
      </trkpt>
      <trkpt lat="48.40632" lon="2.64314">
        <ele>128.47</ele>
        <time>2012-09-29T12:18:37Z</time>
      </trkpt>
      <trkpt lat="48.40633" lon="2.64288">
        <ele>129.92</ele>
        <time>2012-09-29T12:18:50Z</time>
      </trkpt>
      <trkpt lat="48.40633" lon="2.64276">
        <ele>129.92</ele>
        <time>2012-09-29T12:19:01Z</time>
      </trkpt>
      <trkpt lat="48.40634" lon="2.64267">
        <ele>131.36</ele>
        <time>2012-09-29T12:19:08Z</time>
      </trkpt>
      <trkpt lat="48.40643" lon="2.64261">
        <ele>134.72</ele>
        <time>2012-09-29T12:19:18Z</time>
      </trkpt>
      <trkpt lat="48.40645" lon="2.64255">
        <ele>137.61</ele>
        <time>2012-09-29T12:19:29Z</time>
      </trkpt>
      <trkpt lat="48.40646" lon="2.64243">
        <ele>137.13</ele>
        <time>2012-09-29T12:19:36Z</time>
      </trkpt>
      <trkpt lat="48.40648" lon="2.64228">
        <ele>135.68</ele>
        <time>2012-09-29T12:19:42Z</time>
      </trkpt>
      <trkpt lat="48.40647" lon="2.64175">
        <ele>135.2</ele>
        <time>2012-09-29T12:19:57Z</time>
      </trkpt>
      <trkpt lat="48.40641" lon="2.64148">
        <ele>135.68</ele>
        <time>2012-09-29T12:20:04Z</time>
      </trkpt>
      <trkpt lat="48.40636" lon="2.64096">
        <ele>134.24</ele>
        <time>2012-09-29T12:20:12Z</time>
      </trkpt>
      <trkpt lat="48.40635" lon="2.6409">
        <ele>133.76</ele>
        <time>2012-09-29T12:20:13Z</time>
      </trkpt>
      <trkpt lat="48.40634" lon="2.64084">
        <ele>133.76</ele>
        <time>2012-09-29T12:20:14Z</time>
      </trkpt>
      <trkpt lat="48.40633" lon="2.64079">
        <ele>133.76</ele>
        <time>2012-09-29T12:20:15Z</time>
      </trkpt>
      <trkpt lat="48.40616" lon="2.64014">
        <ele>132.8</ele>
        <time>2012-09-29T12:20:29Z</time>
      </trkpt>
      <trkpt lat="48.40599" lon="2.63938">
        <ele>133.28</ele>
        <time>2012-09-29T12:20:44Z</time>
      </trkpt>
      <trkpt lat="48.40595" lon="2.63923">
        <ele>133.28</ele>
        <time>2012-09-29T12:20:48Z</time>
      </trkpt>
      <trkpt lat="48.40594" lon="2.63906">
        <ele>132.8</ele>
        <time>2012-09-29T12:20:52Z</time>
      </trkpt>
      <trkpt lat="48.40593" lon="2.63901">
        <ele>132.8</ele>
        <time>2012-09-29T12:20:53Z</time>
      </trkpt>
      <trkpt lat="48.40583" lon="2.63852">
        <ele>133.28</ele>
        <time>2012-09-29T12:21:06Z</time>
      </trkpt>
      <trkpt lat="48.40571" lon="2.63798">
        <ele>134.72</ele>
        <time>2012-09-29T12:21:20Z</time>
      </trkpt>
      <trkpt lat="48.40573" lon="2.63787">
        <ele>134.24</ele>
        <time>2012-09-29T12:21:24Z</time>
      </trkpt>
      <trkpt lat="48.40575" lon="2.63757">
        <ele>134.24</ele>
        <time>2012-09-29T12:21:31Z</time>
      </trkpt>
      <trkpt lat="48.40578" lon="2.63712">
        <ele>134.24</ele>
        <time>2012-09-29T12:21:40Z</time>
      </trkpt>
      <trkpt lat="48.40585" lon="2.6366">
        <ele>132.8</ele>
        <time>2012-09-29T12:21:49Z</time>
      </trkpt>
      <trkpt lat="48.40592" lon="2.63606">
        <ele>131.84</ele>
        <time>2012-09-29T12:21:59Z</time>
      </trkpt>
      <trkpt lat="48.40591" lon="2.63602">
        <ele>131.84</ele>
        <time>2012-09-29T12:22:00Z</time>
      </trkpt>
      <trkpt lat="48.40589" lon="2.63599">
        <ele>131.84</ele>
        <time>2012-09-29T12:22:01Z</time>
      </trkpt>
      <trkpt lat="48.40563" lon="2.63574">
        <ele>135.2</ele>
        <time>2012-09-29T12:22:09Z</time>
      </trkpt>
      <trkpt lat="48.40561" lon="2.6357">
        <ele>135.2</ele>
        <time>2012-09-29T12:22:10Z</time>
      </trkpt>
      <trkpt lat="48.40551" lon="2.63543">
        <ele>134.24</ele>
        <time>2012-09-29T12:22:16Z</time>
      </trkpt>
      <trkpt lat="48.40549" lon="2.63541">
        <ele>133.76</ele>
        <time>2012-09-29T12:22:17Z</time>
      </trkpt>
      <trkpt lat="48.40546" lon="2.63539">
        <ele>133.76</ele>
        <time>2012-09-29T12:22:18Z</time>
      </trkpt>
      <trkpt lat="48.40545" lon="2.63538">
        <ele>133.76</ele>
        <time>2012-09-29T12:22:19Z</time>
      </trkpt>
      <trkpt lat="48.40543" lon="2.63538">
        <ele>133.76</ele>
        <time>2012-09-29T12:22:20Z</time>
      </trkpt>
      <trkpt lat="48.40541" lon="2.63536">
        <ele>133.28</ele>
        <time>2012-09-29T12:22:25Z</time>
      </trkpt>
      <trkpt lat="48.4054" lon="2.63534">
        <ele>133.76</ele>
        <time>2012-09-29T12:22:26Z</time>
      </trkpt>
      <trkpt lat="48.40538" lon="2.63533">
        <ele>133.76</ele>
        <time>2012-09-29T12:22:27Z</time>
      </trkpt>
      <trkpt lat="48.40536" lon="2.63532">
        <ele>134.24</ele>
        <time>2012-09-29T12:22:28Z</time>
      </trkpt>
      <trkpt lat="48.40534" lon="2.6353">
        <ele>134.24</ele>
        <time>2012-09-29T12:22:29Z</time>
      </trkpt>
      <trkpt lat="48.40514" lon="2.63519">
        <ele>135.68</ele>
        <time>2012-09-29T12:22:38Z</time>
      </trkpt>
      <trkpt lat="48.40503" lon="2.63489">
        <ele>135.68</ele>
        <time>2012-09-29T12:22:46Z</time>
      </trkpt>
      <trkpt lat="48.40493" lon="2.6347">
        <ele>135.2</ele>
        <time>2012-09-29T12:22:50Z</time>
      </trkpt>
      <trkpt lat="48.40489" lon="2.63466">
        <ele>135.2</ele>
        <time>2012-09-29T12:22:51Z</time>
      </trkpt>
      <trkpt lat="48.40486" lon="2.63462">
        <ele>135.2</ele>
        <time>2012-09-29T12:22:52Z</time>
      </trkpt>
      <trkpt lat="48.40473" lon="2.63444">
        <ele>134.72</ele>
        <time>2012-09-29T12:22:58Z</time>
      </trkpt>
      <trkpt lat="48.40473" lon="2.63439">
        <ele>134.72</ele>
        <time>2012-09-29T12:22:59Z</time>
      </trkpt>
      <trkpt lat="48.40472" lon="2.63433">
        <ele>134.24</ele>
        <time>2012-09-29T12:23:00Z</time>
      </trkpt>
      <trkpt lat="48.40477" lon="2.63385">
        <ele>131.84</ele>
        <time>2012-09-29T12:23:10Z</time>
      </trkpt>
      <trkpt lat="48.4048" lon="2.63359">
        <ele>131.84</ele>
        <time>2012-09-29T12:23:14Z</time>
      </trkpt>
      <trkpt lat="48.40481" lon="2.63343">
        <ele>131.84</ele>
        <time>2012-09-29T12:23:17Z</time>
      </trkpt>
      <trkpt lat="48.40494" lon="2.63252">
        <ele>129.92</ele>
        <time>2012-09-29T12:23:29Z</time>
      </trkpt>
      <trkpt lat="48.40497" lon="2.63236">
        <ele>128.95</ele>
        <time>2012-09-29T12:23:31Z</time>
      </trkpt>
      <trkpt lat="48.40505" lon="2.63144">
        <ele>125.11</ele>
        <time>2012-09-29T12:23:42Z</time>
      </trkpt>
      <trkpt lat="48.40503" lon="2.63106">
        <ele>124.15</ele>
        <time>2012-09-29T12:23:47Z</time>
      </trkpt>
      <trkpt lat="48.40515" lon="2.62997">
        <ele>118.38</ele>
        <time>2012-09-29T12:23:57Z</time>
      </trkpt>
      <trkpt lat="48.40516" lon="2.62862">
        <ele>113.09</ele>
        <time>2012-09-29T12:24:09Z</time>
      </trkpt>
      <trkpt lat="48.40531" lon="2.62731">
        <ele>107.81</ele>
        <time>2012-09-29T12:24:22Z</time>
      </trkpt>
      <trkpt lat="48.40534" lon="2.62703">
        <ele>107.32</ele>
        <time>2012-09-29T12:24:25Z</time>
      </trkpt>
      <trkpt lat="48.40539" lon="2.62657">
        <ele>106.36</ele>
        <time>2012-09-29T12:24:30Z</time>
      </trkpt>
      <trkpt lat="48.40547" lon="2.62597">
        <ele>106.36</ele>
        <time>2012-09-29T12:24:37Z</time>
      </trkpt>
      <trkpt lat="48.40552" lon="2.62567">
        <ele>106.36</ele>
        <time>2012-09-29T12:24:41Z</time>
      </trkpt>
      <trkpt lat="48.40562" lon="2.62502">
        <ele>104.44</ele>
        <time>2012-09-29T12:24:52Z</time>
      </trkpt>
      <trkpt lat="48.40572" lon="2.62414">
        <ele>107.32</ele>
        <time>2012-09-29T12:25:08Z</time>
      </trkpt>
      <trkpt lat="48.40583" lon="2.62355">
        <ele>111.17</ele>
        <time>2012-09-29T12:25:22Z</time>
      </trkpt>
      <trkpt lat="48.40587" lon="2.62307">
        <ele>115.01</ele>
        <time>2012-09-29T12:25:34Z</time>
      </trkpt>
      <trkpt lat="48.40593" lon="2.62258">
        <ele>117.9</ele>
        <time>2012-09-29T12:25:47Z</time>
      </trkpt>
      <trkpt lat="48.40603" lon="2.62186">
        <ele>114.53</ele>
        <time>2012-09-29T12:25:57Z</time>
      </trkpt>
      <trkpt lat="48.40626" lon="2.62046">
        <ele>106.36</ele>
        <time>2012-09-29T12:26:10Z</time>
      </trkpt>
      <trkpt lat="48.40633" lon="2.61985">
        <ele>104.44</ele>
        <time>2012-09-29T12:26:16Z</time>
      </trkpt>
      <trkpt lat="48.40652" lon="2.61856">
        <ele>100.11</ele>
        <time>2012-09-29T12:26:32Z</time>
      </trkpt>
      <trkpt lat="48.40653" lon="2.61843">
        <ele>100.11</ele>
        <time>2012-09-29T12:26:34Z</time>
      </trkpt>
      <trkpt lat="48.40655" lon="2.61801">
        <ele>100.6</ele>
        <time>2012-09-29T12:26:40Z</time>
      </trkpt>
      <trkpt lat="48.40661" lon="2.61757">
        <ele>100.11</ele>
        <time>2012-09-29T12:26:46Z</time>
      </trkpt>
      <trkpt lat="48.40664" lon="2.61726">
        <ele>99.63</ele>
        <time>2012-09-29T12:26:50Z</time>
      </trkpt>
      <trkpt lat="48.40674" lon="2.61627">
        <ele>100.11</ele>
        <time>2012-09-29T12:27:05Z</time>
      </trkpt>
      <trkpt lat="48.40682" lon="2.6158">
        <ele>103.96</ele>
        <time>2012-09-29T12:27:17Z</time>
      </trkpt>
      <trkpt lat="48.40685" lon="2.61568">
        <ele>105.4</ele>
        <time>2012-09-29T12:27:21Z</time>
      </trkpt>
      <trkpt lat="48.40691" lon="2.61527">
        <ele>107.81</ele>
        <time>2012-09-29T12:27:33Z</time>
      </trkpt>
      <trkpt lat="48.40696" lon="2.61481">
        <ele>109.73</ele>
        <time>2012-09-29T12:27:45Z</time>
      </trkpt>
      <trkpt lat="48.40699" lon="2.61449">
        <ele>113.57</ele>
        <time>2012-09-29T12:27:56Z</time>
      </trkpt>
      <trkpt lat="48.40699" lon="2.61446">
        <ele>113.57</ele>
        <time>2012-09-29T12:27:57Z</time>
      </trkpt>
      <trkpt lat="48.407" lon="2.61442">
        <ele>114.53</ele>
        <time>2012-09-29T12:27:59Z</time>
      </trkpt>
      <trkpt lat="48.40704" lon="2.61425">
        <ele>117.9</ele>
        <time>2012-09-29T12:28:06Z</time>
      </trkpt>
      <trkpt lat="48.40705" lon="2.61421">
        <ele>117.9</ele>
        <time>2012-09-29T12:28:07Z</time>
      </trkpt>
      <trkpt lat="48.40716" lon="2.61372">
        <ele>115.01</ele>
        <time>2012-09-29T12:28:15Z</time>
      </trkpt>
      <trkpt lat="48.40721" lon="2.61357">
        <ele>113.57</ele>
        <time>2012-09-29T12:28:17Z</time>
      </trkpt>
      <trkpt lat="48.40723" lon="2.61349">
        <ele>113.09</ele>
        <time>2012-09-29T12:28:18Z</time>
      </trkpt>
      <trkpt lat="48.40735" lon="2.61289">
        <ele>109.25</ele>
        <time>2012-09-29T12:28:25Z</time>
      </trkpt>
      <trkpt lat="48.40743" lon="2.61223">
        <ele>104.92</ele>
        <time>2012-09-29T12:28:32Z</time>
      </trkpt>
      <trkpt lat="48.40752" lon="2.61167">
        <ele>101.56</ele>
        <time>2012-09-29T12:28:38Z</time>
      </trkpt>
      <trkpt lat="48.40754" lon="2.61138">
        <ele>100.6</ele>
        <time>2012-09-29T12:28:41Z</time>
      </trkpt>
      <trkpt lat="48.40753" lon="2.61099">
        <ele>99.15</ele>
        <time>2012-09-29T12:28:45Z</time>
      </trkpt>
      <trkpt lat="48.40755" lon="2.61041">
        <ele>97.71</ele>
        <time>2012-09-29T12:28:51Z</time>
      </trkpt>
      <trkpt lat="48.40757" lon="2.61013">
        <ele>96.27</ele>
        <time>2012-09-29T12:28:54Z</time>
      </trkpt>
      <trkpt lat="48.40766" lon="2.60885">
        <ele>90.02</ele>
        <time>2012-09-29T12:29:08Z</time>
      </trkpt>
      <trkpt lat="48.40772" lon="2.60823">
        <ele>89.54</ele>
        <time>2012-09-29T12:29:16Z</time>
      </trkpt>
      <trkpt lat="48.40775" lon="2.60751">
        <ele>88.58</ele>
        <time>2012-09-29T12:29:28Z</time>
      </trkpt>
      <trkpt lat="48.40777" lon="2.60706">
        <ele>88.58</ele>
        <time>2012-09-29T12:29:37Z</time>
      </trkpt>
      <trkpt lat="48.40776" lon="2.60692">
        <ele>92.42</ele>
        <time>2012-09-29T12:29:49Z</time>
      </trkpt>
      <trkpt lat="48.40777" lon="2.60695">
        <ele>97.23</ele>
        <time>2012-09-29T12:30:14Z</time>
      </trkpt>
      <trkpt lat="48.40776" lon="2.60693">
        <ele>98.67</ele>
        <time>2012-09-29T12:30:35Z</time>
      </trkpt>
      <trkpt lat="48.40778" lon="2.6069">
        <ele>102.04</ele>
        <time>2012-09-29T12:30:59Z</time>
      </trkpt>
      <trkpt lat="48.40778" lon="2.60685">
        <ele>103</ele>
        <time>2012-09-29T12:31:02Z</time>
      </trkpt>
      <trkpt lat="48.40783" lon="2.60635">
        <ele>100.11</ele>
        <time>2012-09-29T12:31:11Z</time>
      </trkpt>
      <trkpt lat="48.40788" lon="2.60597">
        <ele>97.23</ele>
        <time>2012-09-29T12:31:16Z</time>
      </trkpt>
      <trkpt lat="48.4079" lon="2.6058">
        <ele>96.27</ele>
        <time>2012-09-29T12:31:18Z</time>
      </trkpt>
      <trkpt lat="48.40812" lon="2.6043">
        <ele>88.58</ele>
        <time>2012-09-29T12:31:34Z</time>
      </trkpt>
      <trkpt lat="48.40817" lon="2.6039">
        <ele>86.18</ele>
        <time>2012-09-29T12:31:38Z</time>
      </trkpt>
      <trkpt lat="48.40825" lon="2.60286">
        <ele>83.77</ele>
        <time>2012-09-29T12:31:48Z</time>
      </trkpt>
      <trkpt lat="48.40829" lon="2.60252">
        <ele>83.77</ele>
        <time>2012-09-29T12:31:52Z</time>
      </trkpt>
      <trkpt lat="48.40834" lon="2.60216">
        <ele>82.81</ele>
        <time>2012-09-29T12:31:56Z</time>
      </trkpt>
      <trkpt lat="48.40838" lon="2.60159">
        <ele>80.41</ele>
        <time>2012-09-29T12:32:02Z</time>
      </trkpt>
      <trkpt lat="48.40854" lon="2.60081">
        <ele>77.52</ele>
        <time>2012-09-29T12:32:11Z</time>
      </trkpt>
      <trkpt lat="48.40873" lon="2.60012">
        <ele>75.12</ele>
        <time>2012-09-29T12:32:19Z</time>
      </trkpt>
      <trkpt lat="48.40894" lon="2.59942">
        <ele>72.72</ele>
        <time>2012-09-29T12:32:28Z</time>
      </trkpt>
      <trkpt lat="48.40914" lon="2.59882">
        <ele>70.79</ele>
        <time>2012-09-29T12:32:36Z</time>
      </trkpt>
      <trkpt lat="48.40923" lon="2.5983">
        <ele>69.35</ele>
        <time>2012-09-29T12:32:43Z</time>
      </trkpt>
      <trkpt lat="48.40925" lon="2.59824">
        <ele>69.35</ele>
        <time>2012-09-29T12:32:44Z</time>
      </trkpt>
      <trkpt lat="48.40926" lon="2.59818">
        <ele>68.87</ele>
        <time>2012-09-29T12:32:45Z</time>
      </trkpt>
      <trkpt lat="48.40932" lon="2.59782">
        <ele>67.43</ele>
        <time>2012-09-29T12:32:51Z</time>
      </trkpt>
      <trkpt lat="48.40933" lon="2.59776">
        <ele>67.43</ele>
        <time>2012-09-29T12:32:52Z</time>
      </trkpt>
      <trkpt lat="48.40934" lon="2.5977">
        <ele>67.43</ele>
        <time>2012-09-29T12:32:53Z</time>
      </trkpt>
      <trkpt lat="48.40935" lon="2.59764">
        <ele>67.43</ele>
        <time>2012-09-29T12:32:54Z</time>
      </trkpt>
      <trkpt lat="48.40936" lon="2.59758">
        <ele>66.95</ele>
        <time>2012-09-29T12:32:55Z</time>
      </trkpt>
      <trkpt lat="48.40946" lon="2.59677">
        <ele>67.43</ele>
        <time>2012-09-29T12:33:07Z</time>
      </trkpt>
      <trkpt lat="48.40948" lon="2.59655">
        <ele>68.87</ele>
        <time>2012-09-29T12:33:10Z</time>
      </trkpt>
      <trkpt lat="48.40949" lon="2.59647">
        <ele>69.35</ele>
        <time>2012-09-29T12:33:11Z</time>
      </trkpt>
      <trkpt lat="48.40949" lon="2.59639">
        <ele>69.83</ele>
        <time>2012-09-29T12:33:12Z</time>
      </trkpt>
      <trkpt lat="48.4095" lon="2.59632">
        <ele>70.31</ele>
        <time>2012-09-29T12:33:13Z</time>
      </trkpt>
      <trkpt lat="48.40951" lon="2.59626">
        <ele>70.31</ele>
        <time>2012-09-29T12:33:14Z</time>
      </trkpt>
      <trkpt lat="48.40951" lon="2.59618">
        <ele>70.31</ele>
        <time>2012-09-29T12:33:15Z</time>
      </trkpt>
      <trkpt lat="48.40952" lon="2.59611">
        <ele>70.31</ele>
        <time>2012-09-29T12:33:16Z</time>
      </trkpt>
      <trkpt lat="48.40953" lon="2.59605">
        <ele>70.31</ele>
        <time>2012-09-29T12:33:17Z</time>
      </trkpt>
      <trkpt lat="48.40958" lon="2.59565">
        <ele>69.83</ele>
        <time>2012-09-29T12:33:26Z</time>
      </trkpt>
      <trkpt lat="48.40958" lon="2.59544">
        <ele>70.31</ele>
        <time>2012-09-29T12:33:30Z</time>
      </trkpt>
      <trkpt lat="48.40962" lon="2.595">
        <ele>71.76</ele>
        <time>2012-09-29T12:33:36Z</time>
      </trkpt>
      <trkpt lat="48.40962" lon="2.59493">
        <ele>72.24</ele>
        <time>2012-09-29T12:33:37Z</time>
      </trkpt>
      <trkpt lat="48.40968" lon="2.5944">
        <ele>74.16</ele>
        <time>2012-09-29T12:33:44Z</time>
      </trkpt>
      <trkpt lat="48.40972" lon="2.59376">
        <ele>76.08</ele>
        <time>2012-09-29T12:33:54Z</time>
      </trkpt>
      <trkpt lat="48.40978" lon="2.59299">
        <ele>76.56</ele>
        <time>2012-09-29T12:34:08Z</time>
      </trkpt>
      <trkpt lat="48.40983" lon="2.59217">
        <ele>76.08</ele>
        <time>2012-09-29T12:34:23Z</time>
      </trkpt>
      <trkpt lat="48.40991" lon="2.59181">
        <ele>76.08</ele>
        <time>2012-09-29T12:34:34Z</time>
      </trkpt>
      <trkpt lat="48.40994" lon="2.59182">
        <ele>76.08</ele>
        <time>2012-09-29T12:34:35Z</time>
      </trkpt>
      <trkpt lat="48.40997" lon="2.59182">
        <ele>76.08</ele>
        <time>2012-09-29T12:34:36Z</time>
      </trkpt>
      <trkpt lat="48.40999" lon="2.59183">
        <ele>76.56</ele>
        <time>2012-09-29T12:34:37Z</time>
      </trkpt>
      <trkpt lat="48.41003" lon="2.59185">
        <ele>77.04</ele>
        <time>2012-09-29T12:34:38Z</time>
      </trkpt>
      <trkpt lat="48.4106" lon="2.59211">
        <ele>80.41</ele>
        <time>2012-09-29T12:34:51Z</time>
      </trkpt>
      <trkpt lat="48.41128" lon="2.59239">
        <ele>83.29</ele>
        <time>2012-09-29T12:35:05Z</time>
      </trkpt>
      <trkpt lat="48.41133" lon="2.59241">
        <ele>83.29</ele>
        <time>2012-09-29T12:35:06Z</time>
      </trkpt>
      <trkpt lat="48.41193" lon="2.59266">
        <ele>84.25</ele>
        <time>2012-09-29T12:35:18Z</time>
      </trkpt>
      <trkpt lat="48.41197" lon="2.59267">
        <ele>84.25</ele>
        <time>2012-09-29T12:35:19Z</time>
      </trkpt>
      <trkpt lat="48.41256" lon="2.59291">
        <ele>86.66</ele>
        <time>2012-09-29T12:35:32Z</time>
      </trkpt>
      <trkpt lat="48.41307" lon="2.59312">
        <ele>90.5</ele>
        <time>2012-09-29T12:35:45Z</time>
      </trkpt>
      <trkpt lat="48.41366" lon="2.59339">
        <ele>90.5</ele>
        <time>2012-09-29T12:36:02Z</time>
      </trkpt>
      <trkpt lat="48.41431" lon="2.59366">
        <ele>89.54</ele>
        <time>2012-09-29T12:36:19Z</time>
      </trkpt>
      <trkpt lat="48.41475" lon="2.59384">
        <ele>88.58</ele>
        <time>2012-09-29T12:36:31Z</time>
      </trkpt>
      <trkpt lat="48.41515" lon="2.59393">
        <ele>89.54</ele>
        <time>2012-09-29T12:36:44Z</time>
      </trkpt>
      <trkpt lat="48.4152" lon="2.59394">
        <ele>89.54</ele>
        <time>2012-09-29T12:36:46Z</time>
      </trkpt>
      <trkpt lat="48.41522" lon="2.59396">
        <ele>89.54</ele>
        <time>2012-09-29T12:36:47Z</time>
      </trkpt>
      <trkpt lat="48.41524" lon="2.59398">
        <ele>89.54</ele>
        <time>2012-09-29T12:36:48Z</time>
      </trkpt>
      <trkpt lat="48.41526" lon="2.59399">
        <ele>89.54</ele>
        <time>2012-09-29T12:36:49Z</time>
      </trkpt>
      <trkpt lat="48.41528" lon="2.594">
        <ele>90.02</ele>
        <time>2012-09-29T12:36:50Z</time>
      </trkpt>
      <trkpt lat="48.4153" lon="2.59401">
        <ele>90.02</ele>
        <time>2012-09-29T12:36:51Z</time>
      </trkpt>
      <trkpt lat="48.41534" lon="2.59402">
        <ele>89.54</ele>
        <time>2012-09-29T12:36:53Z</time>
      </trkpt>
      <trkpt lat="48.41536" lon="2.59404">
        <ele>89.54</ele>
        <time>2012-09-29T12:36:54Z</time>
      </trkpt>
      <trkpt lat="48.41538" lon="2.59405">
        <ele>89.06</ele>
        <time>2012-09-29T12:36:55Z</time>
      </trkpt>
      <trkpt lat="48.4154" lon="2.59405">
        <ele>88.58</ele>
        <time>2012-09-29T12:36:56Z</time>
      </trkpt>
      <trkpt lat="48.41543" lon="2.59406">
        <ele>88.1</ele>
        <time>2012-09-29T12:36:57Z</time>
      </trkpt>
      <trkpt lat="48.41545" lon="2.59407">
        <ele>88.1</ele>
        <time>2012-09-29T12:36:58Z</time>
      </trkpt>
      <trkpt lat="48.41561" lon="2.59415">
        <ele>88.1</ele>
        <time>2012-09-29T12:37:05Z</time>
      </trkpt>
      <trkpt lat="48.41563" lon="2.59414">
        <ele>88.1</ele>
        <time>2012-09-29T12:37:06Z</time>
      </trkpt>
      <trkpt lat="48.41565" lon="2.59414">
        <ele>88.1</ele>
        <time>2012-09-29T12:37:07Z</time>
      </trkpt>
      <trkpt lat="48.41567" lon="2.59415">
        <ele>88.1</ele>
        <time>2012-09-29T12:37:08Z</time>
      </trkpt>
      <trkpt lat="48.41569" lon="2.59415">
        <ele>88.58</ele>
        <time>2012-09-29T12:37:09Z</time>
      </trkpt>
      <trkpt lat="48.41571" lon="2.59416">
        <ele>88.58</ele>
        <time>2012-09-29T12:37:23Z</time>
      </trkpt>
      <trkpt lat="48.41574" lon="2.59417">
        <ele>87.62</ele>
        <time>2012-09-29T12:37:39Z</time>
      </trkpt>
      <trkpt lat="48.41583" lon="2.59421">
        <ele>87.14</ele>
        <time>2012-09-29T12:37:43Z</time>
      </trkpt>
      <trkpt lat="48.4162" lon="2.59438">
        <ele>87.14</ele>
        <time>2012-09-29T12:37:56Z</time>
      </trkpt>
      <trkpt lat="48.41658" lon="2.59452">
        <ele>88.58</ele>
        <time>2012-09-29T12:38:10Z</time>
      </trkpt>
      <trkpt lat="48.41697" lon="2.59465">
        <ele>89.06</ele>
        <time>2012-09-29T12:38:21Z</time>
      </trkpt>
      <trkpt lat="48.41742" lon="2.5948">
        <ele>90.5</ele>
        <time>2012-09-29T12:38:32Z</time>
      </trkpt>
      <trkpt lat="48.41785" lon="2.59495">
        <ele>93.87</ele>
        <time>2012-09-29T12:38:46Z</time>
      </trkpt>
      <trkpt lat="48.41828" lon="2.5951">
        <ele>93.87</ele>
        <time>2012-09-29T12:39:00Z</time>
      </trkpt>
      <trkpt lat="48.41853" lon="2.59518">
        <ele>95.31</ele>
        <time>2012-09-29T12:39:11Z</time>
      </trkpt>
      <trkpt lat="48.41886" lon="2.59531">
        <ele>97.71</ele>
        <time>2012-09-29T12:39:24Z</time>
      </trkpt>
      <trkpt lat="48.41922" lon="2.59544">
        <ele>97.23</ele>
        <time>2012-09-29T12:39:38Z</time>
      </trkpt>
      <trkpt lat="48.4193" lon="2.59547">
        <ele>96.75</ele>
        <time>2012-09-29T12:39:42Z</time>
      </trkpt>
      <trkpt lat="48.41933" lon="2.59549">
        <ele>95.79</ele>
        <time>2012-09-29T12:39:54Z</time>
      </trkpt>
      <trkpt lat="48.41947" lon="2.59555">
        <ele>95.79</ele>
        <time>2012-09-29T12:40:07Z</time>
      </trkpt>
      <trkpt lat="48.41968" lon="2.59559">
        <ele>94.35</ele>
        <time>2012-09-29T12:40:18Z</time>
      </trkpt>
      <trkpt lat="48.41976" lon="2.59564">
        <ele>91.46</ele>
        <time>2012-09-29T12:40:28Z</time>
      </trkpt>
      <trkpt lat="48.42002" lon="2.59574">
        <ele>92.42</ele>
        <time>2012-09-29T12:40:40Z</time>
      </trkpt>
      <trkpt lat="48.42029" lon="2.59583">
        <ele>93.87</ele>
        <time>2012-09-29T12:40:52Z</time>
      </trkpt>
      <trkpt lat="48.42057" lon="2.59594">
        <ele>93.87</ele>
        <time>2012-09-29T12:41:04Z</time>
      </trkpt>
      <trkpt lat="48.42077" lon="2.596">
        <ele>92.42</ele>
        <time>2012-09-29T12:41:14Z</time>
      </trkpt>
      <trkpt lat="48.42106" lon="2.59611">
        <ele>92.42</ele>
        <time>2012-09-29T12:41:28Z</time>
      </trkpt>
      <trkpt lat="48.4211" lon="2.59612">
        <ele>90.98</ele>
        <time>2012-09-29T12:41:35Z</time>
      </trkpt>
      <trkpt lat="48.42129" lon="2.59619">
        <ele>87.62</ele>
        <time>2012-09-29T12:41:52Z</time>
      </trkpt>
      <trkpt lat="48.42158" lon="2.59632">
        <ele>89.06</ele>
        <time>2012-09-29T12:42:04Z</time>
      </trkpt>
      <trkpt lat="48.42182" lon="2.59641">
        <ele>90.02</ele>
        <time>2012-09-29T12:42:15Z</time>
      </trkpt>
      <trkpt lat="48.42206" lon="2.59647">
        <ele>92.42</ele>
        <time>2012-09-29T12:42:26Z</time>
      </trkpt>
      <trkpt lat="48.42231" lon="2.59656">
        <ele>90.98</ele>
        <time>2012-09-29T12:42:40Z</time>
      </trkpt>
      <trkpt lat="48.42258" lon="2.59669">
        <ele>89.06</ele>
        <time>2012-09-29T12:42:53Z</time>
      </trkpt>
      <trkpt lat="48.42283" lon="2.5968">
        <ele>89.54</ele>
        <time>2012-09-29T12:43:05Z</time>
      </trkpt>
      <trkpt lat="48.42307" lon="2.59695">
        <ele>89.54</ele>
        <time>2012-09-29T12:43:18Z</time>
      </trkpt>
      <trkpt lat="48.42326" lon="2.59704">
        <ele>90.5</ele>
        <time>2012-09-29T12:43:29Z</time>
      </trkpt>
      <trkpt lat="48.42337" lon="2.59709">
        <ele>90.98</ele>
        <time>2012-09-29T12:43:36Z</time>
      </trkpt>
      <trkpt lat="48.42365" lon="2.59723">
        <ele>95.79</ele>
        <time>2012-09-29T12:43:49Z</time>
      </trkpt>
      <trkpt lat="48.4239" lon="2.59734">
        <ele>97.71</ele>
        <time>2012-09-29T12:44:02Z</time>
      </trkpt>
      <trkpt lat="48.42392" lon="2.59734">
        <ele>97.71</ele>
        <time>2012-09-29T12:44:03Z</time>
      </trkpt>
      <trkpt lat="48.42417" lon="2.59748">
        <ele>97.71</ele>
        <time>2012-09-29T12:44:16Z</time>
      </trkpt>
      <trkpt lat="48.42443" lon="2.59758">
        <ele>99.15</ele>
        <time>2012-09-29T12:44:28Z</time>
      </trkpt>
      <trkpt lat="48.42469" lon="2.59769">
        <ele>100.11</ele>
        <time>2012-09-29T12:44:40Z</time>
      </trkpt>
      <trkpt lat="48.42495" lon="2.59779">
        <ele>99.63</ele>
        <time>2012-09-29T12:44:53Z</time>
      </trkpt>
      <trkpt lat="48.42523" lon="2.59793">
        <ele>98.67</ele>
        <time>2012-09-29T12:45:05Z</time>
      </trkpt>
      <trkpt lat="48.42552" lon="2.59804">
        <ele>98.67</ele>
        <time>2012-09-29T12:45:18Z</time>
      </trkpt>
      <trkpt lat="48.42584" lon="2.5982">
        <ele>97.71</ele>
        <time>2012-09-29T12:45:32Z</time>
      </trkpt>
      <trkpt lat="48.42611" lon="2.59835">
        <ele>96.75</ele>
        <time>2012-09-29T12:45:47Z</time>
      </trkpt>
      <trkpt lat="48.42633" lon="2.59843">
        <ele>96.27</ele>
        <time>2012-09-29T12:45:59Z</time>
      </trkpt>
      <trkpt lat="48.42636" lon="2.59843">
        <ele>93.39</ele>
        <time>2012-09-29T12:46:14Z</time>
      </trkpt>
      <trkpt lat="48.42631" lon="2.59841">
        <ele>91.94</ele>
        <time>2012-09-29T12:46:26Z</time>
      </trkpt>
      <trkpt lat="48.42632" lon="2.5984">
        <ele>91.46</ele>
        <time>2012-09-29T12:46:34Z</time>
      </trkpt>
      <trkpt lat="48.42625" lon="2.59841">
        <ele>91.94</ele>
        <time>2012-09-29T12:46:38Z</time>
      </trkpt>
      <trkpt lat="48.42624" lon="2.59844">
        <ele>91.46</ele>
        <time>2012-09-29T12:46:39Z</time>
      </trkpt>
      <trkpt lat="48.42622" lon="2.59846">
        <ele>91.46</ele>
        <time>2012-09-29T12:46:40Z</time>
      </trkpt>
      <trkpt lat="48.42621" lon="2.59848">
        <ele>91.46</ele>
        <time>2012-09-29T12:46:41Z</time>
      </trkpt>
      <trkpt lat="48.4262" lon="2.5985">
        <ele>90.98</ele>
        <time>2012-09-29T12:46:42Z</time>
      </trkpt>
      <trkpt lat="48.42619" lon="2.59853">
        <ele>90.98</ele>
        <time>2012-09-29T12:46:43Z</time>
      </trkpt>
      <trkpt lat="48.42617" lon="2.59855">
        <ele>90.98</ele>
        <time>2012-09-29T12:46:44Z</time>
      </trkpt>
      <trkpt lat="48.42616" lon="2.59858">
        <ele>90.98</ele>
        <time>2012-09-29T12:46:45Z</time>
      </trkpt>
      <trkpt lat="48.42583" lon="2.59924">
        <ele>89.54</ele>
        <time>2012-09-29T12:47:01Z</time>
      </trkpt>
      <trkpt lat="48.42578" lon="2.59934">
        <ele>89.54</ele>
        <time>2012-09-29T12:47:03Z</time>
      </trkpt>
      <trkpt lat="48.42576" lon="2.59939">
        <ele>89.06</ele>
        <time>2012-09-29T12:47:04Z</time>
      </trkpt>
      <trkpt lat="48.42565" lon="2.59966">
        <ele>88.1</ele>
        <time>2012-09-29T12:47:09Z</time>
      </trkpt>
      <trkpt lat="48.42523" lon="2.60059">
        <ele>86.18</ele>
        <time>2012-09-29T12:47:27Z</time>
      </trkpt>
      <trkpt lat="48.42509" lon="2.60107">
        <ele>87.62</ele>
        <time>2012-09-29T12:47:37Z</time>
      </trkpt>
      <trkpt lat="48.4251" lon="2.60111">
        <ele>87.62</ele>
        <time>2012-09-29T12:47:38Z</time>
      </trkpt>
      <trkpt lat="48.4251" lon="2.60115">
        <ele>87.62</ele>
        <time>2012-09-29T12:47:39Z</time>
      </trkpt>
      <trkpt lat="48.4251" lon="2.60117">
        <ele>88.1</ele>
        <time>2012-09-29T12:47:40Z</time>
      </trkpt>
      <trkpt lat="48.4251" lon="2.60119">
        <ele>88.58</ele>
        <time>2012-09-29T12:47:50Z</time>
      </trkpt>
      <trkpt lat="48.42509" lon="2.60116">
        <ele>88.1</ele>
        <time>2012-09-29T12:48:27Z</time>
      </trkpt>
      <trkpt lat="48.4251" lon="2.60116">
        <ele>89.54</ele>
        <time>2012-09-29T12:49:10Z</time>
      </trkpt>
      <trkpt lat="48.4251" lon="2.60117">
        <ele>89.06</ele>
        <time>2012-09-29T12:49:48Z</time>
      </trkpt>
      <trkpt lat="48.4251" lon="2.60117">
        <ele>89.06</ele>
        <time>2012-09-29T12:50:18Z</time>
      </trkpt>
      <trkpt lat="48.42511" lon="2.60122">
        <ele>90.5</ele>
        <time>2012-09-29T12:50:43Z</time>
      </trkpt>
      <trkpt lat="48.42512" lon="2.60123">
        <ele>90.5</ele>
        <time>2012-09-29T12:51:10Z</time>
      </trkpt>
      <trkpt lat="48.42512" lon="2.60124">
        <ele>90.98</ele>
        <time>2012-09-29T12:51:29Z</time>
      </trkpt>
      <trkpt lat="48.42513" lon="2.60124">
        <ele>91.46</ele>
        <time>2012-09-29T12:51:51Z</time>
      </trkpt>
      <trkpt lat="48.42511" lon="2.60129">
        <ele>91.94</ele>
        <time>2012-09-29T12:52:09Z</time>
      </trkpt>
      <trkpt lat="48.42511" lon="2.60132">
        <ele>91.94</ele>
        <time>2012-09-29T12:52:20Z</time>
      </trkpt>
      <trkpt lat="48.42511" lon="2.60134">
        <ele>91.94</ele>
        <time>2012-09-29T12:52:21Z</time>
      </trkpt>
      <trkpt lat="48.4251" lon="2.60136">
        <ele>91.46</ele>
        <time>2012-09-29T12:52:22Z</time>
      </trkpt>
      <trkpt lat="48.4251" lon="2.60139">
        <ele>91.46</ele>
        <time>2012-09-29T12:52:23Z</time>
      </trkpt>
      <trkpt lat="48.4251" lon="2.60143">
        <ele>91.46</ele>
        <time>2012-09-29T12:52:24Z</time>
      </trkpt>
      <trkpt lat="48.42507" lon="2.60186">
        <ele>92.42</ele>
        <time>2012-09-29T12:52:36Z</time>
      </trkpt>
      <trkpt lat="48.42504" lon="2.60222">
        <ele>95.31</ele>
        <time>2012-09-29T12:52:50Z</time>
      </trkpt>
      <trkpt lat="48.42501" lon="2.60253">
        <ele>95.79</ele>
        <time>2012-09-29T12:53:05Z</time>
      </trkpt>
      <trkpt lat="48.42499" lon="2.60284">
        <ele>95.79</ele>
        <time>2012-09-29T12:53:20Z</time>
      </trkpt>
      <trkpt lat="48.42496" lon="2.60317">
        <ele>96.27</ele>
        <time>2012-09-29T12:53:36Z</time>
      </trkpt>
      <trkpt lat="48.42495" lon="2.60326">
        <ele>96.75</ele>
        <time>2012-09-29T12:53:50Z</time>
      </trkpt>
      <trkpt lat="48.42494" lon="2.60328">
        <ele>96.75</ele>
        <time>2012-09-29T12:53:51Z</time>
      </trkpt>
      <trkpt lat="48.42493" lon="2.60355">
        <ele>95.79</ele>
        <time>2012-09-29T12:54:02Z</time>
      </trkpt>
      <trkpt lat="48.4249" lon="2.60392">
        <ele>93.87</ele>
        <time>2012-09-29T12:54:15Z</time>
      </trkpt>
      <trkpt lat="48.4249" lon="2.60398">
        <ele>93.87</ele>
        <time>2012-09-29T12:54:21Z</time>
      </trkpt>
      <trkpt lat="48.42489" lon="2.60418">
        <ele>96.75</ele>
        <time>2012-09-29T12:54:31Z</time>
      </trkpt>
      <trkpt lat="48.42485" lon="2.60429">
        <ele>98.67</ele>
        <time>2012-09-29T12:54:37Z</time>
      </trkpt>
      <trkpt lat="48.42485" lon="2.60454">
        <ele>98.67</ele>
        <time>2012-09-29T12:54:45Z</time>
      </trkpt>
      <trkpt lat="48.42481" lon="2.60506">
        <ele>98.67</ele>
        <time>2012-09-29T12:54:59Z</time>
      </trkpt>
      <trkpt lat="48.4248" lon="2.60544">
        <ele>99.63</ele>
        <time>2012-09-29T12:55:12Z</time>
      </trkpt>
      <trkpt lat="48.4248" lon="2.60547">
        <ele>99.63</ele>
        <time>2012-09-29T12:55:29Z</time>
      </trkpt>
      <trkpt lat="48.42481" lon="2.60567">
        <ele>101.08</ele>
        <time>2012-09-29T12:55:41Z</time>
      </trkpt>
      <trkpt lat="48.42481" lon="2.60569">
        <ele>101.56</ele>
        <time>2012-09-29T12:55:47Z</time>
      </trkpt>
      <trkpt lat="48.42488" lon="2.60569">
        <ele>103</ele>
        <time>2012-09-29T12:55:55Z</time>
      </trkpt>
      <trkpt lat="48.425" lon="2.60572">
        <ele>103.48</ele>
        <time>2012-09-29T12:56:05Z</time>
      </trkpt>
      <trkpt lat="48.42509" lon="2.60578">
        <ele>104.92</ele>
        <time>2012-09-29T12:56:14Z</time>
      </trkpt>
      <trkpt lat="48.42515" lon="2.60588">
        <ele>104.44</ele>
        <time>2012-09-29T12:56:27Z</time>
      </trkpt>
      <trkpt lat="48.42526" lon="2.60594">
        <ele>106.36</ele>
        <time>2012-09-29T12:56:40Z</time>
      </trkpt>
      <trkpt lat="48.42533" lon="2.60598">
        <ele>105.88</ele>
        <time>2012-09-29T12:56:53Z</time>
      </trkpt>
      <trkpt lat="48.42538" lon="2.60603">
        <ele>106.36</ele>
        <time>2012-09-29T12:57:07Z</time>
      </trkpt>
      <trkpt lat="48.42539" lon="2.60604">
        <ele>106.36</ele>
        <time>2012-09-29T12:57:10Z</time>
      </trkpt>
      <trkpt lat="48.42552" lon="2.60609">
        <ele>109.25</ele>
        <time>2012-09-29T12:57:24Z</time>
      </trkpt>
      <trkpt lat="48.42554" lon="2.60609">
        <ele>109.25</ele>
        <time>2012-09-29T12:57:40Z</time>
      </trkpt>
      <trkpt lat="48.42555" lon="2.6061">
        <ele>109.25</ele>
        <time>2012-09-29T12:58:05Z</time>
      </trkpt>
      <trkpt lat="48.42554" lon="2.6061">
        <ele>110.21</ele>
        <time>2012-09-29T12:58:24Z</time>
      </trkpt>
      <trkpt lat="48.42555" lon="2.60612">
        <ele>110.69</ele>
        <time>2012-09-29T12:58:49Z</time>
      </trkpt>
      <trkpt lat="48.42553" lon="2.60612">
        <ele>110.69</ele>
        <time>2012-09-29T12:59:16Z</time>
      </trkpt>
      <trkpt lat="48.42553" lon="2.60621">
        <ele>113.09</ele>
        <time>2012-09-29T12:59:23Z</time>
      </trkpt>
      <trkpt lat="48.4255" lon="2.60631">
        <ele>114.05</ele>
        <time>2012-09-29T12:59:30Z</time>
      </trkpt>
      <trkpt lat="48.42548" lon="2.60636">
        <ele>114.05</ele>
        <time>2012-09-29T12:59:33Z</time>
      </trkpt>
      <trkpt lat="48.42546" lon="2.6065">
        <ele>114.05</ele>
        <time>2012-09-29T12:59:41Z</time>
      </trkpt>
      <trkpt lat="48.42526" lon="2.60663">
        <ele>113.57</ele>
        <time>2012-09-29T12:59:51Z</time>
      </trkpt>
      <trkpt lat="48.42521" lon="2.60667">
        <ele>113.09</ele>
        <time>2012-09-29T12:59:53Z</time>
      </trkpt>
      <trkpt lat="48.42514" lon="2.60676">
        <ele>112.61</ele>
        <time>2012-09-29T12:59:56Z</time>
      </trkpt>
      <trkpt lat="48.42514" lon="2.60697">
        <ele>111.65</ele>
        <time>2012-09-29T13:00:06Z</time>
      </trkpt>
      <trkpt lat="48.42511" lon="2.60704">
        <ele>111.17</ele>
        <time>2012-09-29T13:00:10Z</time>
      </trkpt>
      <trkpt lat="48.42511" lon="2.60708">
        <ele>111.17</ele>
        <time>2012-09-29T13:00:12Z</time>
      </trkpt>
      <trkpt lat="48.4252" lon="2.6072">
        <ele>108.29</ele>
        <time>2012-09-29T13:00:22Z</time>
      </trkpt>
      <trkpt lat="48.42542" lon="2.6074">
        <ele>108.29</ele>
        <time>2012-09-29T13:00:34Z</time>
      </trkpt>
      <trkpt lat="48.42564" lon="2.6076">
        <ele>110.69</ele>
        <time>2012-09-29T13:00:47Z</time>
      </trkpt>
      <trkpt lat="48.42584" lon="2.60778">
        <ele>112.61</ele>
        <time>2012-09-29T13:00:59Z</time>
      </trkpt>
      <trkpt lat="48.426" lon="2.60791">
        <ele>113.57</ele>
        <time>2012-09-29T13:01:11Z</time>
      </trkpt>
      <trkpt lat="48.4262" lon="2.60807">
        <ele>115.98</ele>
        <time>2012-09-29T13:01:25Z</time>
      </trkpt>
      <trkpt lat="48.42636" lon="2.6082">
        <ele>118.38</ele>
        <time>2012-09-29T13:01:38Z</time>
      </trkpt>
      <trkpt lat="48.42652" lon="2.60834">
        <ele>119.34</ele>
        <time>2012-09-29T13:01:49Z</time>
      </trkpt>
      <trkpt lat="48.42669" lon="2.60849">
        <ele>122.71</ele>
        <time>2012-09-29T13:01:59Z</time>
      </trkpt>
      <trkpt lat="48.42686" lon="2.60863">
        <ele>124.15</ele>
        <time>2012-09-29T13:02:11Z</time>
      </trkpt>
      <trkpt lat="48.42691" lon="2.60866">
        <ele>125.11</ele>
        <time>2012-09-29T13:02:17Z</time>
      </trkpt>
      <trkpt lat="48.42692" lon="2.60867">
        <ele>125.11</ele>
        <time>2012-09-29T13:02:18Z</time>
      </trkpt>
      <trkpt lat="48.4271" lon="2.60881">
        <ele>124.15</ele>
        <time>2012-09-29T13:02:32Z</time>
      </trkpt>
      <trkpt lat="48.42735" lon="2.60894">
        <ele>121.26</ele>
        <time>2012-09-29T13:02:45Z</time>
      </trkpt>
      <trkpt lat="48.42737" lon="2.60895">
        <ele>122.22</ele>
        <time>2012-09-29T13:02:50Z</time>
      </trkpt>
      <trkpt lat="48.42746" lon="2.60889">
        <ele>129.43</ele>
        <time>2012-09-29T13:03:03Z</time>
      </trkpt>
      <trkpt lat="48.42758" lon="2.60884">
        <ele>131.84</ele>
        <time>2012-09-29T13:03:21Z</time>
      </trkpt>
      <trkpt lat="48.42762" lon="2.60879">
        <ele>132.32</ele>
        <time>2012-09-29T13:03:39Z</time>
      </trkpt>
      <trkpt lat="48.42764" lon="2.60876">
        <ele>134.24</ele>
        <time>2012-09-29T13:04:03Z</time>
      </trkpt>
      <trkpt lat="48.42764" lon="2.6087">
        <ele>135.68</ele>
        <time>2012-09-29T13:04:07Z</time>
      </trkpt>
      <trkpt lat="48.42768" lon="2.60849">
        <ele>136.16</ele>
        <time>2012-09-29T13:04:22Z</time>
      </trkpt>
      <trkpt lat="48.42777" lon="2.60845">
        <ele>138.09</ele>
        <time>2012-09-29T13:04:36Z</time>
      </trkpt>
      <trkpt lat="48.42786" lon="2.60853">
        <ele>137.13</ele>
        <time>2012-09-29T13:04:49Z</time>
      </trkpt>
      <trkpt lat="48.42789" lon="2.6086">
        <ele>137.13</ele>
        <time>2012-09-29T13:04:54Z</time>
      </trkpt>
      <trkpt lat="48.4279" lon="2.60867">
        <ele>136.64</ele>
        <time>2012-09-29T13:04:59Z</time>
      </trkpt>
      <trkpt lat="48.42795" lon="2.60868">
        <ele>137.13</ele>
        <time>2012-09-29T13:05:10Z</time>
      </trkpt>
      <trkpt lat="48.428" lon="2.60878">
        <ele>137.61</ele>
        <time>2012-09-29T13:05:20Z</time>
      </trkpt>
      <trkpt lat="48.428" lon="2.6088">
        <ele>137.61</ele>
        <time>2012-09-29T13:05:21Z</time>
      </trkpt>
      <trkpt lat="48.42798" lon="2.60891">
        <ele>136.64</ele>
        <time>2012-09-29T13:05:26Z</time>
      </trkpt>
      <trkpt lat="48.42793" lon="2.60905">
        <ele>135.2</ele>
        <time>2012-09-29T13:05:31Z</time>
      </trkpt>
      <trkpt lat="48.42791" lon="2.60908">
        <ele>135.2</ele>
        <time>2012-09-29T13:05:32Z</time>
      </trkpt>
      <trkpt lat="48.4279" lon="2.60911">
        <ele>135.2</ele>
        <time>2012-09-29T13:05:33Z</time>
      </trkpt>
      <trkpt lat="48.42789" lon="2.60915">
        <ele>134.72</ele>
        <time>2012-09-29T13:05:34Z</time>
      </trkpt>
      <trkpt lat="48.42788" lon="2.60918">
        <ele>134.72</ele>
        <time>2012-09-29T13:05:35Z</time>
      </trkpt>
      <trkpt lat="48.42787" lon="2.60921">
        <ele>135.2</ele>
        <time>2012-09-29T13:05:36Z</time>
      </trkpt>
      <trkpt lat="48.42786" lon="2.60924">
        <ele>134.72</ele>
        <time>2012-09-29T13:05:37Z</time>
      </trkpt>
      <trkpt lat="48.42785" lon="2.60928">
        <ele>134.72</ele>
        <time>2012-09-29T13:05:38Z</time>
      </trkpt>
      <trkpt lat="48.42785" lon="2.60932">
        <ele>134.24</ele>
        <time>2012-09-29T13:05:39Z</time>
      </trkpt>
      <trkpt lat="48.42786" lon="2.60936">
        <ele>134.24</ele>
        <time>2012-09-29T13:05:40Z</time>
      </trkpt>
      <trkpt lat="48.42787" lon="2.60941">
        <ele>133.76</ele>
        <time>2012-09-29T13:05:41Z</time>
      </trkpt>
      <trkpt lat="48.42789" lon="2.60944">
        <ele>133.76</ele>
        <time>2012-09-29T13:05:42Z</time>
      </trkpt>
      <trkpt lat="48.42791" lon="2.60947">
        <ele>133.28</ele>
        <time>2012-09-29T13:05:43Z</time>
      </trkpt>
      <trkpt lat="48.42793" lon="2.60949">
        <ele>133.28</ele>
        <time>2012-09-29T13:05:44Z</time>
      </trkpt>
      <trkpt lat="48.42794" lon="2.60951">
        <ele>133.28</ele>
        <time>2012-09-29T13:05:45Z</time>
      </trkpt>
      <trkpt lat="48.42797" lon="2.60954">
        <ele>132.8</ele>
        <time>2012-09-29T13:05:47Z</time>
      </trkpt>
      <trkpt lat="48.42799" lon="2.60955">
        <ele>132.8</ele>
        <time>2012-09-29T13:05:48Z</time>
      </trkpt>
      <trkpt lat="48.428" lon="2.60956">
        <ele>132.8</ele>
        <time>2012-09-29T13:05:49Z</time>
      </trkpt>
      <trkpt lat="48.42801" lon="2.60957">
        <ele>132.8</ele>
        <time>2012-09-29T13:05:50Z</time>
      </trkpt>
      <trkpt lat="48.42803" lon="2.60958">
        <ele>133.28</ele>
        <time>2012-09-29T13:05:51Z</time>
      </trkpt>
      <trkpt lat="48.42804" lon="2.60959">
        <ele>132.8</ele>
        <time>2012-09-29T13:05:52Z</time>
      </trkpt>
      <trkpt lat="48.42823" lon="2.60976">
        <ele>134.72</ele>
        <time>2012-09-29T13:06:04Z</time>
      </trkpt>
      <trkpt lat="48.42859" lon="2.61007">
        <ele>134.72</ele>
        <time>2012-09-29T13:06:18Z</time>
      </trkpt>
      <trkpt lat="48.42887" lon="2.61033">
        <ele>137.13</ele>
        <time>2012-09-29T13:06:30Z</time>
      </trkpt>
      <trkpt lat="48.42912" lon="2.61054">
        <ele>137.13</ele>
        <time>2012-09-29T13:06:41Z</time>
      </trkpt>
      <trkpt lat="48.42939" lon="2.61076">
        <ele>137.61</ele>
        <time>2012-09-29T13:06:51Z</time>
      </trkpt>
      <trkpt lat="48.4297" lon="2.61102">
        <ele>137.13</ele>
        <time>2012-09-29T13:07:03Z</time>
      </trkpt>
      <trkpt lat="48.43003" lon="2.6113">
        <ele>135.68</ele>
        <time>2012-09-29T13:07:14Z</time>
      </trkpt>
      <trkpt lat="48.43025" lon="2.61149">
        <ele>132.8</ele>
        <time>2012-09-29T13:07:24Z</time>
      </trkpt>
      <trkpt lat="48.4306" lon="2.61182">
        <ele>133.28</ele>
        <time>2012-09-29T13:07:37Z</time>
      </trkpt>
      <trkpt lat="48.43095" lon="2.61208">
        <ele>132.8</ele>
        <time>2012-09-29T13:07:50Z</time>
      </trkpt>
      <trkpt lat="48.43126" lon="2.61235">
        <ele>131.84</ele>
        <time>2012-09-29T13:08:02Z</time>
      </trkpt>
      <trkpt lat="48.43166" lon="2.61269">
        <ele>134.24</ele>
        <time>2012-09-29T13:08:19Z</time>
      </trkpt>
      <trkpt lat="48.43182" lon="2.61282">
        <ele>136.16</ele>
        <time>2012-09-29T13:08:31Z</time>
      </trkpt>
      <trkpt lat="48.43208" lon="2.61304">
        <ele>135.2</ele>
        <time>2012-09-29T13:08:43Z</time>
      </trkpt>
      <trkpt lat="48.4323" lon="2.61325">
        <ele>135.2</ele>
        <time>2012-09-29T13:08:57Z</time>
      </trkpt>
      <trkpt lat="48.4323" lon="2.61327">
        <ele>135.68</ele>
        <time>2012-09-29T13:08:58Z</time>
      </trkpt>
      <trkpt lat="48.4323" lon="2.61333">
        <ele>135.68</ele>
        <time>2012-09-29T13:09:00Z</time>
      </trkpt>
      <trkpt lat="48.4323" lon="2.61337">
        <ele>135.68</ele>
        <time>2012-09-29T13:09:01Z</time>
      </trkpt>
      <trkpt lat="48.4323" lon="2.6134">
        <ele>135.68</ele>
        <time>2012-09-29T13:09:02Z</time>
      </trkpt>
      <trkpt lat="48.43232" lon="2.61383">
        <ele>133.76</ele>
        <time>2012-09-29T13:09:13Z</time>
      </trkpt>
      <trkpt lat="48.43235" lon="2.61429">
        <ele>131.84</ele>
        <time>2012-09-29T13:09:24Z</time>
      </trkpt>
      <trkpt lat="48.4324" lon="2.61482">
        <ele>129.92</ele>
        <time>2012-09-29T13:09:35Z</time>
      </trkpt>
      <trkpt lat="48.43244" lon="2.61543">
        <ele>127.51</ele>
        <time>2012-09-29T13:09:46Z</time>
      </trkpt>
      <trkpt lat="48.43252" lon="2.61619">
        <ele>126.07</ele>
        <time>2012-09-29T13:10:00Z</time>
      </trkpt>
      <trkpt lat="48.43258" lon="2.61688">
        <ele>125.59</ele>
        <time>2012-09-29T13:10:13Z</time>
      </trkpt>
      <trkpt lat="48.43263" lon="2.61758">
        <ele>126.07</ele>
        <time>2012-09-29T13:10:25Z</time>
      </trkpt>
      <trkpt lat="48.43267" lon="2.6181">
        <ele>125.11</ele>
        <time>2012-09-29T13:10:37Z</time>
      </trkpt>
      <trkpt lat="48.43271" lon="2.61866">
        <ele>126.55</ele>
        <time>2012-09-29T13:10:49Z</time>
      </trkpt>
      <trkpt lat="48.43272" lon="2.61899">
        <ele>128.95</ele>
        <time>2012-09-29T13:10:57Z</time>
      </trkpt>
      <trkpt lat="48.43277" lon="2.61929">
        <ele>130.88</ele>
        <time>2012-09-29T13:11:08Z</time>
      </trkpt>
      <trkpt lat="48.43277" lon="2.61937">
        <ele>130.4</ele>
        <time>2012-09-29T13:11:11Z</time>
      </trkpt>
      <trkpt lat="48.43277" lon="2.61948">
        <ele>130.88</ele>
        <time>2012-09-29T13:11:15Z</time>
      </trkpt>
      <trkpt lat="48.4328" lon="2.61976">
        <ele>129.43</ele>
        <time>2012-09-29T13:11:25Z</time>
      </trkpt>
      <trkpt lat="48.43282" lon="2.61994">
        <ele>128.95</ele>
        <time>2012-09-29T13:11:31Z</time>
      </trkpt>
      <trkpt lat="48.43283" lon="2.61997">
        <ele>128.95</ele>
        <time>2012-09-29T13:11:32Z</time>
      </trkpt>
      <trkpt lat="48.43284" lon="2.61999">
        <ele>128.95</ele>
        <time>2012-09-29T13:11:33Z</time>
      </trkpt>
      <trkpt lat="48.43288" lon="2.61997">
        <ele>128.95</ele>
        <time>2012-09-29T13:11:36Z</time>
      </trkpt>
      <trkpt lat="48.43289" lon="2.61994">
        <ele>128.95</ele>
        <time>2012-09-29T13:11:37Z</time>
      </trkpt>
      <trkpt lat="48.4329" lon="2.61991">
        <ele>128.95</ele>
        <time>2012-09-29T13:11:38Z</time>
      </trkpt>
      <trkpt lat="48.43296" lon="2.61953">
        <ele>129.92</ele>
        <time>2012-09-29T13:11:47Z</time>
      </trkpt>
      <trkpt lat="48.43297" lon="2.61946">
        <ele>129.92</ele>
        <time>2012-09-29T13:11:48Z</time>
      </trkpt>
      <trkpt lat="48.43307" lon="2.6185">
        <ele>127.99</ele>
        <time>2012-09-29T13:11:58Z</time>
      </trkpt>
      <trkpt lat="48.43316" lon="2.61762">
        <ele>125.11</ele>
        <time>2012-09-29T13:12:05Z</time>
      </trkpt>
      <trkpt lat="48.43348" lon="2.61564">
        <ele>117.9</ele>
        <time>2012-09-29T13:12:20Z</time>
      </trkpt>
      <trkpt lat="48.43363" lon="2.61469">
        <ele>115.01</ele>
        <time>2012-09-29T13:12:28Z</time>
      </trkpt>
      <trkpt lat="48.43365" lon="2.61458">
        <ele>114.53</ele>
        <time>2012-09-29T13:12:29Z</time>
      </trkpt>
      <trkpt lat="48.43367" lon="2.61447">
        <ele>114.53</ele>
        <time>2012-09-29T13:12:30Z</time>
      </trkpt>
      <trkpt lat="48.43368" lon="2.61436">
        <ele>114.05</ele>
        <time>2012-09-29T13:12:31Z</time>
      </trkpt>
      <trkpt lat="48.4337" lon="2.61425">
        <ele>114.05</ele>
        <time>2012-09-29T13:12:32Z</time>
      </trkpt>
      <trkpt lat="48.43386" lon="2.61321">
        <ele>113.09</ele>
        <time>2012-09-29T13:12:43Z</time>
      </trkpt>
      <trkpt lat="48.43403" lon="2.61218">
        <ele>115.01</ele>
        <time>2012-09-29T13:12:56Z</time>
      </trkpt>
      <trkpt lat="48.43403" lon="2.61211">
        <ele>115.5</ele>
        <time>2012-09-29T13:12:57Z</time>
      </trkpt>
      <trkpt lat="48.43412" lon="2.61164">
        <ele>115.98</ele>
        <time>2012-09-29T13:13:05Z</time>
      </trkpt>
      <trkpt lat="48.43424" lon="2.61094">
        <ele>113.09</ele>
        <time>2012-09-29T13:13:18Z</time>
      </trkpt>
      <trkpt lat="48.43434" lon="2.61017">
        <ele>112.61</ele>
        <time>2012-09-29T13:13:31Z</time>
      </trkpt>
      <trkpt lat="48.43443" lon="2.60961">
        <ele>115.01</ele>
        <time>2012-09-29T13:13:43Z</time>
      </trkpt>
      <trkpt lat="48.4345" lon="2.60916">
        <ele>115.98</ele>
        <time>2012-09-29T13:13:55Z</time>
      </trkpt>
      <trkpt lat="48.43458" lon="2.60866">
        <ele>116.94</ele>
        <time>2012-09-29T13:14:08Z</time>
      </trkpt>
      <trkpt lat="48.43464" lon="2.60825">
        <ele>118.86</ele>
        <time>2012-09-29T13:14:21Z</time>
      </trkpt>
      <trkpt lat="48.43464" lon="2.60823">
        <ele>118.86</ele>
        <time>2012-09-29T13:14:22Z</time>
      </trkpt>
      <trkpt lat="48.43464" lon="2.6082">
        <ele>118.86</ele>
        <time>2012-09-29T13:14:23Z</time>
      </trkpt>
      <trkpt lat="48.43464" lon="2.60817">
        <ele>118.86</ele>
        <time>2012-09-29T13:14:24Z</time>
      </trkpt>
      <trkpt lat="48.43465" lon="2.60815">
        <ele>119.34</ele>
        <time>2012-09-29T13:14:25Z</time>
      </trkpt>
      <trkpt lat="48.43465" lon="2.60813">
        <ele>119.82</ele>
        <time>2012-09-29T13:14:26Z</time>
      </trkpt>
      <trkpt lat="48.43466" lon="2.6081">
        <ele>120.3</ele>
        <time>2012-09-29T13:14:27Z</time>
      </trkpt>
      <trkpt lat="48.43469" lon="2.60793">
        <ele>120.3</ele>
        <time>2012-09-29T13:14:39Z</time>
      </trkpt>
      <trkpt lat="48.43469" lon="2.60792">
        <ele>120.3</ele>
        <time>2012-09-29T13:14:41Z</time>
      </trkpt>
      <trkpt lat="48.4347" lon="2.6079">
        <ele>120.3</ele>
        <time>2012-09-29T13:14:44Z</time>
      </trkpt>
      <trkpt lat="48.43471" lon="2.60787">
        <ele>120.3</ele>
        <time>2012-09-29T13:14:45Z</time>
      </trkpt>
      <trkpt lat="48.43471" lon="2.60784">
        <ele>120.3</ele>
        <time>2012-09-29T13:14:46Z</time>
      </trkpt>
      <trkpt lat="48.43479" lon="2.60729">
        <ele>117.9</ele>
        <time>2012-09-29T13:14:57Z</time>
      </trkpt>
      <trkpt lat="48.43484" lon="2.60695">
        <ele>115.98</ele>
        <time>2012-09-29T13:15:08Z</time>
      </trkpt>
      <trkpt lat="48.43484" lon="2.60694">
        <ele>115.5</ele>
        <time>2012-09-29T13:15:34Z</time>
      </trkpt>
      <trkpt lat="48.43482" lon="2.60694">
        <ele>115.5</ele>
        <time>2012-09-29T13:15:53Z</time>
      </trkpt>
      <trkpt lat="48.43482" lon="2.60692">
        <ele>115.01</ele>
        <time>2012-09-29T13:16:10Z</time>
      </trkpt>
      <trkpt lat="48.43484" lon="2.60691">
        <ele>115.01</ele>
        <time>2012-09-29T13:16:11Z</time>
      </trkpt>
      <trkpt lat="48.43485" lon="2.6069">
        <ele>115.01</ele>
        <time>2012-09-29T13:16:12Z</time>
      </trkpt>
      <trkpt lat="48.43487" lon="2.60688">
        <ele>115.5</ele>
        <time>2012-09-29T13:16:13Z</time>
      </trkpt>
      <trkpt lat="48.4349" lon="2.60686">
        <ele>115.98</ele>
        <time>2012-09-29T13:16:14Z</time>
      </trkpt>
      <trkpt lat="48.43493" lon="2.60684">
        <ele>116.46</ele>
        <time>2012-09-29T13:16:15Z</time>
      </trkpt>
      <trkpt lat="48.43513" lon="2.60668">
        <ele>116.46</ele>
        <time>2012-09-29T13:16:21Z</time>
      </trkpt>
      <trkpt lat="48.43517" lon="2.60664">
        <ele>116.46</ele>
        <time>2012-09-29T13:16:22Z</time>
      </trkpt>
      <trkpt lat="48.43527" lon="2.60657">
        <ele>115.5</ele>
        <time>2012-09-29T13:16:24Z</time>
      </trkpt>
      <trkpt lat="48.43532" lon="2.60653">
        <ele>115.01</ele>
        <time>2012-09-29T13:16:25Z</time>
      </trkpt>
      <trkpt lat="48.43562" lon="2.60625">
        <ele>112.13</ele>
        <time>2012-09-29T13:16:30Z</time>
      </trkpt>
      <trkpt lat="48.43566" lon="2.60616">
        <ele>111.65</ele>
        <time>2012-09-29T13:16:31Z</time>
      </trkpt>
      <trkpt lat="48.43569" lon="2.60607">
        <ele>111.17</ele>
        <time>2012-09-29T13:16:32Z</time>
      </trkpt>
      <trkpt lat="48.43572" lon="2.60598">
        <ele>110.21</ele>
        <time>2012-09-29T13:16:33Z</time>
      </trkpt>
      <trkpt lat="48.43575" lon="2.60589">
        <ele>109.73</ele>
        <time>2012-09-29T13:16:34Z</time>
      </trkpt>
      <trkpt lat="48.43577" lon="2.60581">
        <ele>108.77</ele>
        <time>2012-09-29T13:16:35Z</time>
      </trkpt>
      <trkpt lat="48.43583" lon="2.60551">
        <ele>106.36</ele>
        <time>2012-09-29T13:16:39Z</time>
      </trkpt>
      <trkpt lat="48.43604" lon="2.60504">
        <ele>107.32</ele>
        <time>2012-09-29T13:16:49Z</time>
      </trkpt>
      <trkpt lat="48.43615" lon="2.60483">
        <ele>108.77</ele>
        <time>2012-09-29T13:16:56Z</time>
      </trkpt>
      <trkpt lat="48.43617" lon="2.60482">
        <ele>108.77</ele>
        <time>2012-09-29T13:16:57Z</time>
      </trkpt>
      <trkpt lat="48.43647" lon="2.60465">
        <ele>109.73</ele>
        <time>2012-09-29T13:17:08Z</time>
      </trkpt>
      <trkpt lat="48.43672" lon="2.60435">
        <ele>112.61</ele>
        <time>2012-09-29T13:17:20Z</time>
      </trkpt>
      <trkpt lat="48.43674" lon="2.60431">
        <ele>112.61</ele>
        <time>2012-09-29T13:17:22Z</time>
      </trkpt>
      <trkpt lat="48.43674" lon="2.60429">
        <ele>113.09</ele>
        <time>2012-09-29T13:17:23Z</time>
      </trkpt>
      <trkpt lat="48.43675" lon="2.60427">
        <ele>113.09</ele>
        <time>2012-09-29T13:17:24Z</time>
      </trkpt>
      <trkpt lat="48.43676" lon="2.60425">
        <ele>113.09</ele>
        <time>2012-09-29T13:17:25Z</time>
      </trkpt>
      <trkpt lat="48.43676" lon="2.60422">
        <ele>113.09</ele>
        <time>2012-09-29T13:17:26Z</time>
      </trkpt>
      <trkpt lat="48.43677" lon="2.60419">
        <ele>112.61</ele>
        <time>2012-09-29T13:17:27Z</time>
      </trkpt>
      <trkpt lat="48.43678" lon="2.60417">
        <ele>112.13</ele>
        <time>2012-09-29T13:17:28Z</time>
      </trkpt>
      <trkpt lat="48.43679" lon="2.60414">
        <ele>112.13</ele>
        <time>2012-09-29T13:17:29Z</time>
      </trkpt>
      <trkpt lat="48.43691" lon="2.60394">
        <ele>110.21</ele>
        <time>2012-09-29T13:17:35Z</time>
      </trkpt>
      <trkpt lat="48.43709" lon="2.60391">
        <ele>109.25</ele>
        <time>2012-09-29T13:17:38Z</time>
      </trkpt>
      <trkpt lat="48.43721" lon="2.6039">
        <ele>108.29</ele>
        <time>2012-09-29T13:17:40Z</time>
      </trkpt>
      <trkpt lat="48.43727" lon="2.60389">
        <ele>108.29</ele>
        <time>2012-09-29T13:17:41Z</time>
      </trkpt>
      <trkpt lat="48.43736" lon="2.60388">
        <ele>107.32</ele>
        <time>2012-09-29T13:17:43Z</time>
      </trkpt>
      <trkpt lat="48.43741" lon="2.60388">
        <ele>106.84</ele>
        <time>2012-09-29T13:17:44Z</time>
      </trkpt>
      <trkpt lat="48.43745" lon="2.60388">
        <ele>106.36</ele>
        <time>2012-09-29T13:17:45Z</time>
      </trkpt>
      <trkpt lat="48.43777" lon="2.60395">
        <ele>104.92</ele>
        <time>2012-09-29T13:17:52Z</time>
      </trkpt>
      <trkpt lat="48.43781" lon="2.60395">
        <ele>104.92</ele>
        <time>2012-09-29T13:17:53Z</time>
      </trkpt>
      <trkpt lat="48.43785" lon="2.60394">
        <ele>104.92</ele>
        <time>2012-09-29T13:17:54Z</time>
      </trkpt>
      <trkpt lat="48.43789" lon="2.60394">
        <ele>105.4</ele>
        <time>2012-09-29T13:17:55Z</time>
      </trkpt>
      <trkpt lat="48.43794" lon="2.60393">
        <ele>105.4</ele>
        <time>2012-09-29T13:17:56Z</time>
      </trkpt>
      <trkpt lat="48.43798" lon="2.60392">
        <ele>104.92</ele>
        <time>2012-09-29T13:17:57Z</time>
      </trkpt>
      <trkpt lat="48.43802" lon="2.6039">
        <ele>105.4</ele>
        <time>2012-09-29T13:17:58Z</time>
      </trkpt>
      <trkpt lat="48.43806" lon="2.60388">
        <ele>105.4</ele>
        <time>2012-09-29T13:17:59Z</time>
      </trkpt>
      <trkpt lat="48.43811" lon="2.60386">
        <ele>105.4</ele>
        <time>2012-09-29T13:18:00Z</time>
      </trkpt>
      <trkpt lat="48.43815" lon="2.60385">
        <ele>105.4</ele>
        <time>2012-09-29T13:18:01Z</time>
      </trkpt>
      <trkpt lat="48.43819" lon="2.60383">
        <ele>105.4</ele>
        <time>2012-09-29T13:18:02Z</time>
      </trkpt>
      <trkpt lat="48.43824" lon="2.60381">
        <ele>105.4</ele>
        <time>2012-09-29T13:18:03Z</time>
      </trkpt>
      <trkpt lat="48.43829" lon="2.6038">
        <ele>105.88</ele>
        <time>2012-09-29T13:18:04Z</time>
      </trkpt>
      <trkpt lat="48.43864" lon="2.60371">
        <ele>108.29</ele>
        <time>2012-09-29T13:18:10Z</time>
      </trkpt>
      <trkpt lat="48.43885" lon="2.60368">
        <ele>106.84</ele>
        <time>2012-09-29T13:18:17Z</time>
      </trkpt>
      <trkpt lat="48.43888" lon="2.60398">
        <ele>99.63</ele>
        <time>2012-09-29T13:18:25Z</time>
      </trkpt>
      <trkpt lat="48.43892" lon="2.60465">
        <ele>93.87</ele>
        <time>2012-09-29T13:18:38Z</time>
      </trkpt>
      <trkpt lat="48.43892" lon="2.60541">
        <ele>89.06</ele>
        <time>2012-09-29T13:18:52Z</time>
      </trkpt>
      <trkpt lat="48.43891" lon="2.60588">
        <ele>85.21</ele>
        <time>2012-09-29T13:19:01Z</time>
      </trkpt>
      <trkpt lat="48.43908" lon="2.60591">
        <ele>84.73</ele>
        <time>2012-09-29T13:19:11Z</time>
      </trkpt>
      <trkpt lat="48.43912" lon="2.60589">
        <ele>84.73</ele>
        <time>2012-09-29T13:19:13Z</time>
      </trkpt>
      <trkpt lat="48.43939" lon="2.60584">
        <ele>86.66</ele>
        <time>2012-09-29T13:19:27Z</time>
      </trkpt>
      <trkpt lat="48.43973" lon="2.60573">
        <ele>93.39</ele>
        <time>2012-09-29T13:19:40Z</time>
      </trkpt>
      <trkpt lat="48.44" lon="2.60566">
        <ele>96.27</ele>
        <time>2012-09-29T13:19:49Z</time>
      </trkpt>
      <trkpt lat="48.44015" lon="2.6056">
        <ele>95.79</ele>
        <time>2012-09-29T13:19:54Z</time>
      </trkpt>
      <trkpt lat="48.44017" lon="2.60561">
        <ele>94.83</ele>
        <time>2012-09-29T13:19:55Z</time>
      </trkpt>
      <trkpt lat="48.44019" lon="2.60563">
        <ele>94.83</ele>
        <time>2012-09-29T13:19:56Z</time>
      </trkpt>
      <trkpt lat="48.44021" lon="2.60566">
        <ele>94.83</ele>
        <time>2012-09-29T13:19:57Z</time>
      </trkpt>
      <trkpt lat="48.44023" lon="2.60567">
        <ele>94.35</ele>
        <time>2012-09-29T13:19:58Z</time>
      </trkpt>
      <trkpt lat="48.44026" lon="2.60569">
        <ele>93.87</ele>
        <time>2012-09-29T13:19:59Z</time>
      </trkpt>
      <trkpt lat="48.44029" lon="2.60572">
        <ele>93.87</ele>
        <time>2012-09-29T13:20:00Z</time>
      </trkpt>
      <trkpt lat="48.44031" lon="2.60575">
        <ele>93.87</ele>
        <time>2012-09-29T13:20:01Z</time>
      </trkpt>
      <trkpt lat="48.44033" lon="2.60577">
        <ele>94.35</ele>
        <time>2012-09-29T13:20:02Z</time>
      </trkpt>
      <trkpt lat="48.44035" lon="2.6058">
        <ele>94.35</ele>
        <time>2012-09-29T13:20:03Z</time>
      </trkpt>
      <trkpt lat="48.44036" lon="2.60583">
        <ele>94.35</ele>
        <time>2012-09-29T13:20:04Z</time>
      </trkpt>
      <trkpt lat="48.44038" lon="2.60585">
        <ele>93.87</ele>
        <time>2012-09-29T13:20:05Z</time>
      </trkpt>
      <trkpt lat="48.44039" lon="2.60588">
        <ele>93.87</ele>
        <time>2012-09-29T13:20:06Z</time>
      </trkpt>
      <trkpt lat="48.4404" lon="2.6059">
        <ele>93.39</ele>
        <time>2012-09-29T13:20:07Z</time>
      </trkpt>
      <trkpt lat="48.44042" lon="2.60593">
        <ele>93.87</ele>
        <time>2012-09-29T13:20:08Z</time>
      </trkpt>
      <trkpt lat="48.44043" lon="2.60595">
        <ele>93.39</ele>
        <time>2012-09-29T13:20:09Z</time>
      </trkpt>
      <trkpt lat="48.44045" lon="2.60597">
        <ele>92.9</ele>
        <time>2012-09-29T13:20:10Z</time>
      </trkpt>
      <trkpt lat="48.44048" lon="2.60603">
        <ele>91.94</ele>
        <time>2012-09-29T13:20:13Z</time>
      </trkpt>
      <trkpt lat="48.44049" lon="2.60605">
        <ele>91.94</ele>
        <time>2012-09-29T13:20:14Z</time>
      </trkpt>
      <trkpt lat="48.4405" lon="2.60607">
        <ele>91.94</ele>
        <time>2012-09-29T13:20:15Z</time>
      </trkpt>
      <trkpt lat="48.44063" lon="2.60632">
        <ele>91.94</ele>
        <time>2012-09-29T13:20:27Z</time>
      </trkpt>
      <trkpt lat="48.44086" lon="2.60677">
        <ele>90.98</ele>
        <time>2012-09-29T13:20:42Z</time>
      </trkpt>
      <trkpt lat="48.44118" lon="2.60733">
        <ele>90.98</ele>
        <time>2012-09-29T13:20:54Z</time>
      </trkpt>
      <trkpt lat="48.44128" lon="2.60755">
        <ele>90.5</ele>
        <time>2012-09-29T13:20:58Z</time>
      </trkpt>
      <trkpt lat="48.44171" lon="2.60833">
        <ele>90.5</ele>
        <time>2012-09-29T13:21:14Z</time>
      </trkpt>
      <trkpt lat="48.44183" lon="2.60855">
        <ele>90.98</ele>
        <time>2012-09-29T13:21:20Z</time>
      </trkpt>
      <trkpt lat="48.44185" lon="2.60862">
        <ele>92.9</ele>
        <time>2012-09-29T13:21:30Z</time>
      </trkpt>
      <trkpt lat="48.44186" lon="2.60864">
        <ele>93.39</ele>
        <time>2012-09-29T13:21:50Z</time>
      </trkpt>
      <trkpt lat="48.44188" lon="2.60867">
        <ele>93.39</ele>
        <time>2012-09-29T13:22:08Z</time>
      </trkpt>
      <trkpt lat="48.442" lon="2.60897">
        <ele>92.42</ele>
        <time>2012-09-29T13:22:19Z</time>
      </trkpt>
      <trkpt lat="48.44208" lon="2.60912">
        <ele>92.42</ele>
        <time>2012-09-29T13:22:33Z</time>
      </trkpt>
      <trkpt lat="48.4421" lon="2.60913">
        <ele>92.42</ele>
        <time>2012-09-29T13:22:53Z</time>
      </trkpt>
      <trkpt lat="48.44211" lon="2.60918">
        <ele>91.94</ele>
        <time>2012-09-29T13:23:01Z</time>
      </trkpt>
      <trkpt lat="48.44212" lon="2.6092">
        <ele>91.94</ele>
        <time>2012-09-29T13:23:02Z</time>
      </trkpt>
      <trkpt lat="48.44213" lon="2.60923">
        <ele>91.94</ele>
        <time>2012-09-29T13:23:03Z</time>
      </trkpt>
      <trkpt lat="48.44233" lon="2.60971">
        <ele>90.02</ele>
        <time>2012-09-29T13:23:15Z</time>
      </trkpt>
      <trkpt lat="48.44252" lon="2.61043">
        <ele>87.14</ele>
        <time>2012-09-29T13:23:29Z</time>
      </trkpt>
      <trkpt lat="48.44253" lon="2.61049">
        <ele>86.66</ele>
        <time>2012-09-29T13:23:30Z</time>
      </trkpt>
      <trkpt lat="48.44255" lon="2.61055">
        <ele>86.66</ele>
        <time>2012-09-29T13:23:31Z</time>
      </trkpt>
      <trkpt lat="48.44256" lon="2.6106">
        <ele>86.18</ele>
        <time>2012-09-29T13:23:32Z</time>
      </trkpt>
      <trkpt lat="48.44273" lon="2.61144">
        <ele>83.77</ele>
        <time>2012-09-29T13:23:45Z</time>
      </trkpt>
      <trkpt lat="48.44289" lon="2.61235">
        <ele>83.77</ele>
        <time>2012-09-29T13:24:00Z</time>
      </trkpt>
      <trkpt lat="48.44287" lon="2.61246">
        <ele>83.77</ele>
        <time>2012-09-29T13:24:02Z</time>
      </trkpt>
      <trkpt lat="48.44286" lon="2.61252">
        <ele>83.77</ele>
        <time>2012-09-29T13:24:03Z</time>
      </trkpt>
      <trkpt lat="48.44285" lon="2.61259">
        <ele>83.77</ele>
        <time>2012-09-29T13:24:04Z</time>
      </trkpt>
      <trkpt lat="48.4428" lon="2.61315">
        <ele>83.29</ele>
        <time>2012-09-29T13:24:15Z</time>
      </trkpt>
      <trkpt lat="48.44267" lon="2.61386">
        <ele>83.29</ele>
        <time>2012-09-29T13:24:29Z</time>
      </trkpt>
      <trkpt lat="48.44255" lon="2.61453">
        <ele>83.29</ele>
        <time>2012-09-29T13:24:40Z</time>
      </trkpt>
      <trkpt lat="48.44254" lon="2.61459">
        <ele>83.29</ele>
        <time>2012-09-29T13:24:41Z</time>
      </trkpt>
      <trkpt lat="48.44241" lon="2.61526">
        <ele>84.25</ele>
        <time>2012-09-29T13:24:52Z</time>
      </trkpt>
      <trkpt lat="48.44241" lon="2.61533">
        <ele>84.25</ele>
        <time>2012-09-29T13:24:53Z</time>
      </trkpt>
      <trkpt lat="48.44239" lon="2.61558">
        <ele>83.77</ele>
        <time>2012-09-29T13:24:57Z</time>
      </trkpt>
      <trkpt lat="48.44238" lon="2.61565">
        <ele>83.77</ele>
        <time>2012-09-29T13:24:58Z</time>
      </trkpt>
      <trkpt lat="48.44232" lon="2.61607">
        <ele>82.81</ele>
        <time>2012-09-29T13:25:04Z</time>
      </trkpt>
      <trkpt lat="48.44218" lon="2.61691">
        <ele>80.41</ele>
        <time>2012-09-29T13:25:16Z</time>
      </trkpt>
      <trkpt lat="48.44215" lon="2.61712">
        <ele>79.93</ele>
        <time>2012-09-29T13:25:19Z</time>
      </trkpt>
      <trkpt lat="48.44215" lon="2.61719">
        <ele>80.41</ele>
        <time>2012-09-29T13:25:20Z</time>
      </trkpt>
      <trkpt lat="48.44213" lon="2.61727">
        <ele>80.41</ele>
        <time>2012-09-29T13:25:21Z</time>
      </trkpt>
      <trkpt lat="48.44211" lon="2.61741">
        <ele>80.89</ele>
        <time>2012-09-29T13:25:23Z</time>
      </trkpt>
      <trkpt lat="48.44205" lon="2.61771">
        <ele>80.89</ele>
        <time>2012-09-29T13:25:28Z</time>
      </trkpt>
      <trkpt lat="48.44204" lon="2.61777">
        <ele>80.89</ele>
        <time>2012-09-29T13:25:29Z</time>
      </trkpt>
      <trkpt lat="48.44203" lon="2.61784">
        <ele>80.41</ele>
        <time>2012-09-29T13:25:30Z</time>
      </trkpt>
      <trkpt lat="48.44202" lon="2.61791">
        <ele>80.41</ele>
        <time>2012-09-29T13:25:31Z</time>
      </trkpt>
      <trkpt lat="48.44202" lon="2.61798">
        <ele>80.41</ele>
        <time>2012-09-29T13:25:32Z</time>
      </trkpt>
      <trkpt lat="48.44201" lon="2.61805">
        <ele>79.93</ele>
        <time>2012-09-29T13:25:33Z</time>
      </trkpt>
      <trkpt lat="48.44199" lon="2.61818">
        <ele>79.93</ele>
        <time>2012-09-29T13:25:35Z</time>
      </trkpt>
      <trkpt lat="48.44184" lon="2.61896">
        <ele>81.37</ele>
        <time>2012-09-29T13:25:49Z</time>
      </trkpt>
      <trkpt lat="48.44169" lon="2.61981">
        <ele>80.89</ele>
        <time>2012-09-29T13:26:01Z</time>
      </trkpt>
      <trkpt lat="48.44165" lon="2.62012">
        <ele>80.89</ele>
        <time>2012-09-29T13:26:05Z</time>
      </trkpt>
      <trkpt lat="48.4416" lon="2.62043">
        <ele>80.41</ele>
        <time>2012-09-29T13:26:09Z</time>
      </trkpt>
      <trkpt lat="48.44158" lon="2.62051">
        <ele>80.41</ele>
        <time>2012-09-29T13:26:10Z</time>
      </trkpt>
      <trkpt lat="48.44143" lon="2.62161">
        <ele>77.52</ele>
        <time>2012-09-29T13:26:25Z</time>
      </trkpt>
      <trkpt lat="48.44126" lon="2.62263">
        <ele>77.04</ele>
        <time>2012-09-29T13:26:40Z</time>
      </trkpt>
      <trkpt lat="48.44122" lon="2.62289">
        <ele>77.04</ele>
        <time>2012-09-29T13:26:44Z</time>
      </trkpt>
      <trkpt lat="48.44112" lon="2.62357">
        <ele>80.41</ele>
        <time>2012-09-29T13:26:57Z</time>
      </trkpt>
      <trkpt lat="48.44101" lon="2.62416">
        <ele>83.29</ele>
        <time>2012-09-29T13:27:08Z</time>
      </trkpt>
      <trkpt lat="48.44102" lon="2.62439">
        <ele>83.77</ele>
        <time>2012-09-29T13:27:14Z</time>
      </trkpt>
      <trkpt lat="48.44104" lon="2.62442">
        <ele>84.25</ele>
        <time>2012-09-29T13:27:15Z</time>
      </trkpt>
      <trkpt lat="48.44105" lon="2.62444">
        <ele>84.25</ele>
        <time>2012-09-29T13:27:16Z</time>
      </trkpt>
      <trkpt lat="48.44106" lon="2.62447">
        <ele>84.73</ele>
        <time>2012-09-29T13:27:17Z</time>
      </trkpt>
      <trkpt lat="48.44106" lon="2.6245">
        <ele>85.21</ele>
        <time>2012-09-29T13:27:18Z</time>
      </trkpt>
      <trkpt lat="48.44106" lon="2.62453">
        <ele>84.73</ele>
        <time>2012-09-29T13:27:19Z</time>
      </trkpt>
      <trkpt lat="48.44106" lon="2.62455">
        <ele>85.21</ele>
        <time>2012-09-29T13:27:20Z</time>
      </trkpt>
      <trkpt lat="48.44107" lon="2.62459">
        <ele>84.73</ele>
        <time>2012-09-29T13:27:22Z</time>
      </trkpt>
      <trkpt lat="48.44108" lon="2.62461">
        <ele>84.73</ele>
        <time>2012-09-29T13:27:23Z</time>
      </trkpt>
      <trkpt lat="48.44108" lon="2.62462">
        <ele>84.73</ele>
        <time>2012-09-29T13:27:24Z</time>
      </trkpt>
      <trkpt lat="48.44119" lon="2.625">
        <ele>83.77</ele>
        <time>2012-09-29T13:27:36Z</time>
      </trkpt>
      <trkpt lat="48.44135" lon="2.62544">
        <ele>81.85</ele>
        <time>2012-09-29T13:27:46Z</time>
      </trkpt>
      <trkpt lat="48.44148" lon="2.62579">
        <ele>82.81</ele>
        <time>2012-09-29T13:27:56Z</time>
      </trkpt>
      <trkpt lat="48.44166" lon="2.62626">
        <ele>84.25</ele>
        <time>2012-09-29T13:28:09Z</time>
      </trkpt>
      <trkpt lat="48.44181" lon="2.6267">
        <ele>83.29</ele>
        <time>2012-09-29T13:28:19Z</time>
      </trkpt>
      <trkpt lat="48.44201" lon="2.62732">
        <ele>82.81</ele>
        <time>2012-09-29T13:28:33Z</time>
      </trkpt>
      <trkpt lat="48.4422" lon="2.62786">
        <ele>84.25</ele>
        <time>2012-09-29T13:28:45Z</time>
      </trkpt>
      <trkpt lat="48.44234" lon="2.62842">
        <ele>84.25</ele>
        <time>2012-09-29T13:28:56Z</time>
      </trkpt>
      <trkpt lat="48.44243" lon="2.62874">
        <ele>84.73</ele>
        <time>2012-09-29T13:29:02Z</time>
      </trkpt>
      <trkpt lat="48.44251" lon="2.62902">
        <ele>85.21</ele>
        <time>2012-09-29T13:29:07Z</time>
      </trkpt>
      <trkpt lat="48.44252" lon="2.62908">
        <ele>85.69</ele>
        <time>2012-09-29T13:29:08Z</time>
      </trkpt>
      <trkpt lat="48.44263" lon="2.62943">
        <ele>86.18</ele>
        <time>2012-09-29T13:29:14Z</time>
      </trkpt>
      <trkpt lat="48.44266" lon="2.62948">
        <ele>86.18</ele>
        <time>2012-09-29T13:29:15Z</time>
      </trkpt>
      <trkpt lat="48.44294" lon="2.62999">
        <ele>87.14</ele>
        <time>2012-09-29T13:29:28Z</time>
      </trkpt>
      <trkpt lat="48.44325" lon="2.63044">
        <ele>88.1</ele>
        <time>2012-09-29T13:29:39Z</time>
      </trkpt>
      <trkpt lat="48.44334" lon="2.63059">
        <ele>88.1</ele>
        <time>2012-09-29T13:29:42Z</time>
      </trkpt>
      <trkpt lat="48.44336" lon="2.63065">
        <ele>88.1</ele>
        <time>2012-09-29T13:29:43Z</time>
      </trkpt>
      <trkpt lat="48.44339" lon="2.63071">
        <ele>87.62</ele>
        <time>2012-09-29T13:29:44Z</time>
      </trkpt>
      <trkpt lat="48.44341" lon="2.63077">
        <ele>87.62</ele>
        <time>2012-09-29T13:29:45Z</time>
      </trkpt>
      <trkpt lat="48.44344" lon="2.63083">
        <ele>87.62</ele>
        <time>2012-09-29T13:29:46Z</time>
      </trkpt>
      <trkpt lat="48.44346" lon="2.63089">
        <ele>87.62</ele>
        <time>2012-09-29T13:29:47Z</time>
      </trkpt>
      <trkpt lat="48.44348" lon="2.63095">
        <ele>87.62</ele>
        <time>2012-09-29T13:29:48Z</time>
      </trkpt>
      <trkpt lat="48.44379" lon="2.63179">
        <ele>87.62</ele>
        <time>2012-09-29T13:30:03Z</time>
      </trkpt>
      <trkpt lat="48.44393" lon="2.6322">
        <ele>88.1</ele>
        <time>2012-09-29T13:30:14Z</time>
      </trkpt>
      <trkpt lat="48.44405" lon="2.6327">
        <ele>89.06</ele>
        <time>2012-09-29T13:30:28Z</time>
      </trkpt>
      <trkpt lat="48.44415" lon="2.63323">
        <ele>91.46</ele>
        <time>2012-09-29T13:30:41Z</time>
      </trkpt>
      <trkpt lat="48.44424" lon="2.63369">
        <ele>93.39</ele>
        <time>2012-09-29T13:30:53Z</time>
      </trkpt>
      <trkpt lat="48.44441" lon="2.63432">
        <ele>92.9</ele>
        <time>2012-09-29T13:31:08Z</time>
      </trkpt>
      <trkpt lat="48.44459" lon="2.63482">
        <ele>90.02</ele>
        <time>2012-09-29T13:31:20Z</time>
      </trkpt>
      <trkpt lat="48.44479" lon="2.63542">
        <ele>89.06</ele>
        <time>2012-09-29T13:31:32Z</time>
      </trkpt>
      <trkpt lat="48.44507" lon="2.6361">
        <ele>89.06</ele>
        <time>2012-09-29T13:31:46Z</time>
      </trkpt>
      <trkpt lat="48.44526" lon="2.63657">
        <ele>88.58</ele>
        <time>2012-09-29T13:32:00Z</time>
      </trkpt>
      <trkpt lat="48.4455" lon="2.63696">
        <ele>88.58</ele>
        <time>2012-09-29T13:32:13Z</time>
      </trkpt>
      <trkpt lat="48.44557" lon="2.63723">
        <ele>88.1</ele>
        <time>2012-09-29T13:32:22Z</time>
      </trkpt>
      <trkpt lat="48.44557" lon="2.63726">
        <ele>87.62</ele>
        <time>2012-09-29T13:32:24Z</time>
      </trkpt>
      <trkpt lat="48.44555" lon="2.63729">
        <ele>87.62</ele>
        <time>2012-09-29T13:32:25Z</time>
      </trkpt>
      <trkpt lat="48.44548" lon="2.63745">
        <ele>87.14</ele>
        <time>2012-09-29T13:32:30Z</time>
      </trkpt>
      <trkpt lat="48.44546" lon="2.63745">
        <ele>87.14</ele>
        <time>2012-09-29T13:32:31Z</time>
      </trkpt>
      <trkpt lat="48.44545" lon="2.63744">
        <ele>87.14</ele>
        <time>2012-09-29T13:32:32Z</time>
      </trkpt>
      <trkpt lat="48.44543" lon="2.63743">
        <ele>87.14</ele>
        <time>2012-09-29T13:32:33Z</time>
      </trkpt>
      <trkpt lat="48.44541" lon="2.63743">
        <ele>87.14</ele>
        <time>2012-09-29T13:32:34Z</time>
      </trkpt>
      <trkpt lat="48.44539" lon="2.63744">
        <ele>86.66</ele>
        <time>2012-09-29T13:32:35Z</time>
      </trkpt>
      <trkpt lat="48.44536" lon="2.63745">
        <ele>86.18</ele>
        <time>2012-09-29T13:32:36Z</time>
      </trkpt>
      <trkpt lat="48.44533" lon="2.63745">
        <ele>86.18</ele>
        <time>2012-09-29T13:32:37Z</time>
      </trkpt>
      <trkpt lat="48.44532" lon="2.63743">
        <ele>86.18</ele>
        <time>2012-09-29T13:32:38Z</time>
      </trkpt>
      <trkpt lat="48.44531" lon="2.6374">
        <ele>86.18</ele>
        <time>2012-09-29T13:32:39Z</time>
      </trkpt>
      <trkpt lat="48.44532" lon="2.63737">
        <ele>86.18</ele>
        <time>2012-09-29T13:32:40Z</time>
      </trkpt>
      <trkpt lat="48.44534" lon="2.63734">
        <ele>86.18</ele>
        <time>2012-09-29T13:32:41Z</time>
      </trkpt>
      <trkpt lat="48.44536" lon="2.6373">
        <ele>85.69</ele>
        <time>2012-09-29T13:32:42Z</time>
      </trkpt>
      <trkpt lat="48.4454" lon="2.63729">
        <ele>85.21</ele>
        <time>2012-09-29T13:32:43Z</time>
      </trkpt>
      <trkpt lat="48.44544" lon="2.6373">
        <ele>85.21</ele>
        <time>2012-09-29T13:32:44Z</time>
      </trkpt>
      <trkpt lat="48.44549" lon="2.63731">
        <ele>84.73</ele>
        <time>2012-09-29T13:32:45Z</time>
      </trkpt>
      <trkpt lat="48.44554" lon="2.63733">
        <ele>84.25</ele>
        <time>2012-09-29T13:32:46Z</time>
      </trkpt>
      <trkpt lat="48.44574" lon="2.63739">
        <ele>83.29</ele>
        <time>2012-09-29T13:32:50Z</time>
      </trkpt>
      <trkpt lat="48.44579" lon="2.63739">
        <ele>82.81</ele>
        <time>2012-09-29T13:32:51Z</time>
      </trkpt>
      <trkpt lat="48.44583" lon="2.63737">
        <ele>82.33</ele>
        <time>2012-09-29T13:32:52Z</time>
      </trkpt>
      <trkpt lat="48.44586" lon="2.63738">
        <ele>82.33</ele>
        <time>2012-09-29T13:32:53Z</time>
      </trkpt>
      <trkpt lat="48.44588" lon="2.6374">
        <ele>81.85</ele>
        <time>2012-09-29T13:32:54Z</time>
      </trkpt>
      <trkpt lat="48.4459" lon="2.63743">
        <ele>81.85</ele>
        <time>2012-09-29T13:32:55Z</time>
      </trkpt>
      <trkpt lat="48.44591" lon="2.63746">
        <ele>81.37</ele>
        <time>2012-09-29T13:32:56Z</time>
      </trkpt>
      <trkpt lat="48.44592" lon="2.63748">
        <ele>81.37</ele>
        <time>2012-09-29T13:32:57Z</time>
      </trkpt>
      <trkpt lat="48.44601" lon="2.63757">
        <ele>84.73</ele>
        <time>2012-09-29T13:33:09Z</time>
      </trkpt>
      <trkpt lat="48.44601" lon="2.63759">
        <ele>85.21</ele>
        <time>2012-09-29T13:33:22Z</time>
      </trkpt>
      <trkpt lat="48.44601" lon="2.63761">
        <ele>85.21</ele>
        <time>2012-09-29T13:33:38Z</time>
      </trkpt>
      <trkpt lat="48.44602" lon="2.63754">
        <ele>85.69</ele>
        <time>2012-09-29T13:33:55Z</time>
      </trkpt>
      <trkpt lat="48.44602" lon="2.63753">
        <ele>85.21</ele>
        <time>2012-09-29T13:34:27Z</time>
      </trkpt>
      <trkpt lat="48.44601" lon="2.63753">
        <ele>84.25</ele>
        <time>2012-09-29T13:34:41Z</time>
      </trkpt>
      <trkpt lat="48.446" lon="2.63756">
        <ele>84.73</ele>
        <time>2012-09-29T13:34:52Z</time>
      </trkpt>
      <trkpt lat="48.446" lon="2.63756">
        <ele>85.21</ele>
        <time>2012-09-29T13:35:19Z</time>
      </trkpt>
      <trkpt lat="48.446" lon="2.63756">
        <ele>86.18</ele>
        <time>2012-09-29T13:35:46Z</time>
      </trkpt>
      <trkpt lat="48.446" lon="2.63759">
        <ele>86.66</ele>
        <time>2012-09-29T13:36:13Z</time>
      </trkpt>
      <trkpt lat="48.446" lon="2.63759">
        <ele>87.62</ele>
        <time>2012-09-29T13:36:46Z</time>
      </trkpt>
      <trkpt lat="48.44601" lon="2.63759">
        <ele>88.1</ele>
        <time>2012-09-29T13:37:21Z</time>
      </trkpt>
      <trkpt lat="48.44601" lon="2.63758">
        <ele>88.58</ele>
        <time>2012-09-29T13:37:49Z</time>
      </trkpt>
      <trkpt lat="48.44601" lon="2.63757">
        <ele>88.58</ele>
        <time>2012-09-29T13:38:14Z</time>
      </trkpt>
      <trkpt lat="48.44601" lon="2.63759">
        <ele>89.06</ele>
        <time>2012-09-29T13:38:47Z</time>
      </trkpt>
      <trkpt lat="48.44601" lon="2.63758">
        <ele>90.02</ele>
        <time>2012-09-29T13:39:13Z</time>
      </trkpt>
      <trkpt lat="48.44601" lon="2.63759">
        <ele>91.46</ele>
        <time>2012-09-29T13:39:38Z</time>
      </trkpt>
      <trkpt lat="48.446" lon="2.6376">
        <ele>89.54</ele>
        <time>2012-09-29T13:40:10Z</time>
      </trkpt>
      <trkpt lat="48.446" lon="2.63761">
        <ele>88.58</ele>
        <time>2012-09-29T13:40:29Z</time>
      </trkpt>
      <trkpt lat="48.446" lon="2.63761">
        <ele>89.06</ele>
        <time>2012-09-29T13:40:58Z</time>
      </trkpt>
      <trkpt lat="48.44601" lon="2.63762">
        <ele>88.58</ele>
        <time>2012-09-29T13:41:23Z</time>
      </trkpt>
      <trkpt lat="48.44601" lon="2.63761">
        <ele>88.58</ele>
        <time>2012-09-29T13:41:43Z</time>
      </trkpt>
      <trkpt lat="48.44601" lon="2.6376">
        <ele>88.58</ele>
        <time>2012-09-29T13:42:06Z</time>
      </trkpt>
      <trkpt lat="48.44601" lon="2.63759">
        <ele>89.06</ele>
        <time>2012-09-29T13:42:29Z</time>
      </trkpt>
      <trkpt lat="48.446" lon="2.63757">
        <ele>89.06</ele>
        <time>2012-09-29T13:42:48Z</time>
      </trkpt>
      <trkpt lat="48.44601" lon="2.63758">
        <ele>89.06</ele>
        <time>2012-09-29T13:43:09Z</time>
      </trkpt>
      <trkpt lat="48.446" lon="2.63759">
        <ele>88.1</ele>
        <time>2012-09-29T13:43:28Z</time>
      </trkpt>
      <trkpt lat="48.446" lon="2.63759">
        <ele>88.1</ele>
        <time>2012-09-29T13:43:29Z</time>
      </trkpt>
      <trkpt lat="48.446" lon="2.63761">
        <ele>88.1</ele>
        <time>2012-09-29T13:43:30Z</time>
      </trkpt>
      <trkpt lat="48.446" lon="2.63763">
        <ele>88.1</ele>
        <time>2012-09-29T13:43:31Z</time>
      </trkpt>
      <trkpt lat="48.44601" lon="2.63765">
        <ele>87.62</ele>
        <time>2012-09-29T13:43:32Z</time>
      </trkpt>
      <trkpt lat="48.44603" lon="2.63768">
        <ele>88.1</ele>
        <time>2012-09-29T13:43:44Z</time>
      </trkpt>
      <trkpt lat="48.44607" lon="2.6377">
        <ele>88.1</ele>
        <time>2012-09-29T13:43:46Z</time>
      </trkpt>
      <trkpt lat="48.44609" lon="2.6377">
        <ele>88.1</ele>
        <time>2012-09-29T13:43:47Z</time>
      </trkpt>
      <trkpt lat="48.44617" lon="2.63776">
        <ele>89.06</ele>
        <time>2012-09-29T13:43:57Z</time>
      </trkpt>
      <trkpt lat="48.44616" lon="2.63778">
        <ele>89.06</ele>
        <time>2012-09-29T13:43:58Z</time>
      </trkpt>
      <trkpt lat="48.44615" lon="2.6378">
        <ele>89.06</ele>
        <time>2012-09-29T13:43:59Z</time>
      </trkpt>
      <trkpt lat="48.44614" lon="2.63785">
        <ele>89.06</ele>
        <time>2012-09-29T13:44:01Z</time>
      </trkpt>
      <trkpt lat="48.44613" lon="2.63788">
        <ele>89.06</ele>
        <time>2012-09-29T13:44:02Z</time>
      </trkpt>
      <trkpt lat="48.44613" lon="2.63791">
        <ele>89.06</ele>
        <time>2012-09-29T13:44:03Z</time>
      </trkpt>
      <trkpt lat="48.44612" lon="2.638">
        <ele>89.06</ele>
        <time>2012-09-29T13:44:05Z</time>
      </trkpt>
      <trkpt lat="48.44612" lon="2.63804">
        <ele>88.58</ele>
        <time>2012-09-29T13:44:06Z</time>
      </trkpt>
      <trkpt lat="48.44612" lon="2.63809">
        <ele>88.58</ele>
        <time>2012-09-29T13:44:07Z</time>
      </trkpt>
      <trkpt lat="48.44612" lon="2.63814">
        <ele>88.58</ele>
        <time>2012-09-29T13:44:08Z</time>
      </trkpt>
      <trkpt lat="48.44612" lon="2.63819">
        <ele>88.1</ele>
        <time>2012-09-29T13:44:09Z</time>
      </trkpt>
      <trkpt lat="48.44612" lon="2.63824">
        <ele>88.1</ele>
        <time>2012-09-29T13:44:10Z</time>
      </trkpt>
      <trkpt lat="48.44601" lon="2.63881">
        <ele>89.06</ele>
        <time>2012-09-29T13:44:22Z</time>
      </trkpt>
      <trkpt lat="48.44591" lon="2.63937">
        <ele>90.5</ele>
        <time>2012-09-29T13:44:33Z</time>
      </trkpt>
      <trkpt lat="48.4458" lon="2.63995">
        <ele>89.54</ele>
        <time>2012-09-29T13:44:44Z</time>
      </trkpt>
      <trkpt lat="48.44573" lon="2.64029">
        <ele>89.06</ele>
        <time>2012-09-29T13:44:50Z</time>
      </trkpt>
      <trkpt lat="48.44559" lon="2.64101">
        <ele>89.54</ele>
        <time>2012-09-29T13:45:03Z</time>
      </trkpt>
      <trkpt lat="48.44547" lon="2.64172">
        <ele>91.94</ele>
        <time>2012-09-29T13:45:17Z</time>
      </trkpt>
      <trkpt lat="48.4455" lon="2.64235">
        <ele>93.87</ele>
        <time>2012-09-29T13:45:28Z</time>
      </trkpt>
      <trkpt lat="48.44549" lon="2.64241">
        <ele>93.87</ele>
        <time>2012-09-29T13:45:29Z</time>
      </trkpt>
      <trkpt lat="48.44543" lon="2.64305">
        <ele>93.39</ele>
        <time>2012-09-29T13:45:40Z</time>
      </trkpt>
      <trkpt lat="48.44545" lon="2.64351">
        <ele>92.42</ele>
        <time>2012-09-29T13:45:48Z</time>
      </trkpt>
      <trkpt lat="48.44547" lon="2.64355">
        <ele>92.42</ele>
        <time>2012-09-29T13:45:49Z</time>
      </trkpt>
      <trkpt lat="48.44574" lon="2.64375">
        <ele>93.39</ele>
        <time>2012-09-29T13:46:00Z</time>
      </trkpt>
      <trkpt lat="48.44593" lon="2.64376">
        <ele>95.79</ele>
        <time>2012-09-29T13:46:08Z</time>
      </trkpt>
      <trkpt lat="48.44594" lon="2.64374">
        <ele>96.27</ele>
        <time>2012-09-29T13:46:09Z</time>
      </trkpt>
      <trkpt lat="48.44596" lon="2.64373">
        <ele>97.23</ele>
        <time>2012-09-29T13:46:10Z</time>
      </trkpt>
      <trkpt lat="48.44598" lon="2.64372">
        <ele>97.71</ele>
        <time>2012-09-29T13:46:11Z</time>
      </trkpt>
      <trkpt lat="48.446" lon="2.64371">
        <ele>98.19</ele>
        <time>2012-09-29T13:46:12Z</time>
      </trkpt>
      <trkpt lat="48.44606" lon="2.64368">
        <ele>99.63</ele>
        <time>2012-09-29T13:46:15Z</time>
      </trkpt>
      <trkpt lat="48.44636" lon="2.64376">
        <ele>102.04</ele>
        <time>2012-09-29T13:46:28Z</time>
      </trkpt>
      <trkpt lat="48.44641" lon="2.64377">
        <ele>103.48</ele>
        <time>2012-09-29T13:46:31Z</time>
      </trkpt>
      <trkpt lat="48.44642" lon="2.64378">
        <ele>103.96</ele>
        <time>2012-09-29T13:46:32Z</time>
      </trkpt>
      <trkpt lat="48.44644" lon="2.6438">
        <ele>104.44</ele>
        <time>2012-09-29T13:46:33Z</time>
      </trkpt>
      <trkpt lat="48.44646" lon="2.64382">
        <ele>103.96</ele>
        <time>2012-09-29T13:46:34Z</time>
      </trkpt>
      <trkpt lat="48.44647" lon="2.64384">
        <ele>103.96</ele>
        <time>2012-09-29T13:46:35Z</time>
      </trkpt>
      <trkpt lat="48.44648" lon="2.64418">
        <ele>102.52</ele>
        <time>2012-09-29T13:46:47Z</time>
      </trkpt>
      <trkpt lat="48.44647" lon="2.6442">
        <ele>102.52</ele>
        <time>2012-09-29T13:46:48Z</time>
      </trkpt>
      <trkpt lat="48.44645" lon="2.64423">
        <ele>102.52</ele>
        <time>2012-09-29T13:46:49Z</time>
      </trkpt>
      <trkpt lat="48.44644" lon="2.64425">
        <ele>102.52</ele>
        <time>2012-09-29T13:46:50Z</time>
      </trkpt>
      <trkpt lat="48.44642" lon="2.64428">
        <ele>102.52</ele>
        <time>2012-09-29T13:46:51Z</time>
      </trkpt>
      <trkpt lat="48.44642" lon="2.64432">
        <ele>102.52</ele>
        <time>2012-09-29T13:46:52Z</time>
      </trkpt>
      <trkpt lat="48.44642" lon="2.64436">
        <ele>102.52</ele>
        <time>2012-09-29T13:46:53Z</time>
      </trkpt>
      <trkpt lat="48.44643" lon="2.64441">
        <ele>102.52</ele>
        <time>2012-09-29T13:46:54Z</time>
      </trkpt>
      <trkpt lat="48.44644" lon="2.64444">
        <ele>102.52</ele>
        <time>2012-09-29T13:46:55Z</time>
      </trkpt>
      <trkpt lat="48.44645" lon="2.64447">
        <ele>102.52</ele>
        <time>2012-09-29T13:46:56Z</time>
      </trkpt>
      <trkpt lat="48.44646" lon="2.6445">
        <ele>102.52</ele>
        <time>2012-09-29T13:46:57Z</time>
      </trkpt>
      <trkpt lat="48.44648" lon="2.64453">
        <ele>102.52</ele>
        <time>2012-09-29T13:46:58Z</time>
      </trkpt>
      <trkpt lat="48.44672" lon="2.64465">
        <ele>102.52</ele>
        <time>2012-09-29T13:47:10Z</time>
      </trkpt>
      <trkpt lat="48.44688" lon="2.64465">
        <ele>103.96</ele>
        <time>2012-09-29T13:47:18Z</time>
      </trkpt>
      <trkpt lat="48.4469" lon="2.64467">
        <ele>104.44</ele>
        <time>2012-09-29T13:47:19Z</time>
      </trkpt>
      <trkpt lat="48.44692" lon="2.64468">
        <ele>104.92</ele>
        <time>2012-09-29T13:47:20Z</time>
      </trkpt>
      <trkpt lat="48.44694" lon="2.6447">
        <ele>105.4</ele>
        <time>2012-09-29T13:47:21Z</time>
      </trkpt>
      <trkpt lat="48.44696" lon="2.64472">
        <ele>105.88</ele>
        <time>2012-09-29T13:47:22Z</time>
      </trkpt>
      <trkpt lat="48.44698" lon="2.64473">
        <ele>106.36</ele>
        <time>2012-09-29T13:47:23Z</time>
      </trkpt>
      <trkpt lat="48.447" lon="2.64475">
        <ele>106.84</ele>
        <time>2012-09-29T13:47:24Z</time>
      </trkpt>
      <trkpt lat="48.44701" lon="2.64476">
        <ele>107.32</ele>
        <time>2012-09-29T13:47:25Z</time>
      </trkpt>
      <trkpt lat="48.44722" lon="2.64497">
        <ele>110.69</ele>
        <time>2012-09-29T13:47:38Z</time>
      </trkpt>
      <trkpt lat="48.44747" lon="2.64514">
        <ele>113.09</ele>
        <time>2012-09-29T13:47:52Z</time>
      </trkpt>
      <trkpt lat="48.44751" lon="2.64518">
        <ele>112.61</ele>
        <time>2012-09-29T13:47:55Z</time>
      </trkpt>
      <trkpt lat="48.44752" lon="2.64519">
        <ele>112.61</ele>
        <time>2012-09-29T13:47:56Z</time>
      </trkpt>
      <trkpt lat="48.44754" lon="2.6452">
        <ele>112.61</ele>
        <time>2012-09-29T13:47:57Z</time>
      </trkpt>
      <trkpt lat="48.44755" lon="2.64522">
        <ele>112.61</ele>
        <time>2012-09-29T13:47:58Z</time>
      </trkpt>
      <trkpt lat="48.44766" lon="2.64531">
        <ele>113.57</ele>
        <time>2012-09-29T13:48:11Z</time>
      </trkpt>
      <trkpt lat="48.44774" lon="2.64533">
        <ele>115.5</ele>
        <time>2012-09-29T13:48:26Z</time>
      </trkpt>
      <trkpt lat="48.44775" lon="2.64533">
        <ele>115.5</ele>
        <time>2012-09-29T13:48:28Z</time>
      </trkpt>
      <trkpt lat="48.44787" lon="2.64543">
        <ele>115.5</ele>
        <time>2012-09-29T13:48:42Z</time>
      </trkpt>
      <trkpt lat="48.44794" lon="2.64546">
        <ele>115.98</ele>
        <time>2012-09-29T13:48:49Z</time>
      </trkpt>
      <trkpt lat="48.44799" lon="2.64549">
        <ele>117.42</ele>
        <time>2012-09-29T13:49:01Z</time>
      </trkpt>
      <trkpt lat="48.44802" lon="2.64549">
        <ele>118.38</ele>
        <time>2012-09-29T13:49:16Z</time>
      </trkpt>
      <trkpt lat="48.44804" lon="2.6455">
        <ele>119.82</ele>
        <time>2012-09-29T13:49:33Z</time>
      </trkpt>
      <trkpt lat="48.44808" lon="2.64555">
        <ele>120.78</ele>
        <time>2012-09-29T13:49:52Z</time>
      </trkpt>
      <trkpt lat="48.44822" lon="2.64574">
        <ele>122.71</ele>
        <time>2012-09-29T13:50:03Z</time>
      </trkpt>
      <trkpt lat="48.44844" lon="2.6456">
        <ele>125.59</ele>
        <time>2012-09-29T13:50:16Z</time>
      </trkpt>
      <trkpt lat="48.44862" lon="2.64535">
        <ele>126.07</ele>
        <time>2012-09-29T13:50:30Z</time>
      </trkpt>
      <trkpt lat="48.44866" lon="2.64528">
        <ele>127.51</ele>
        <time>2012-09-29T13:50:41Z</time>
      </trkpt>
      <trkpt lat="48.4487" lon="2.64523">
        <ele>127.99</ele>
        <time>2012-09-29T13:51:04Z</time>
      </trkpt>
      <trkpt lat="48.44874" lon="2.64521">
        <ele>128.95</ele>
        <time>2012-09-29T13:51:07Z</time>
      </trkpt>
      <trkpt lat="48.4489" lon="2.64529">
        <ele>129.43</ele>
        <time>2012-09-29T13:51:22Z</time>
      </trkpt>
      <trkpt lat="48.44892" lon="2.64534">
        <ele>128.95</ele>
        <time>2012-09-29T13:51:26Z</time>
      </trkpt>
      <trkpt lat="48.44898" lon="2.64564">
        <ele>130.88</ele>
        <time>2012-09-29T13:51:42Z</time>
      </trkpt>
      <trkpt lat="48.44903" lon="2.64575">
        <ele>130.88</ele>
        <time>2012-09-29T13:51:49Z</time>
      </trkpt>
      <trkpt lat="48.44903" lon="2.64576">
        <ele>130.88</ele>
        <time>2012-09-29T13:51:50Z</time>
      </trkpt>
      <trkpt lat="48.44907" lon="2.64596">
        <ele>133.76</ele>
        <time>2012-09-29T13:52:02Z</time>
      </trkpt>
      <trkpt lat="48.44908" lon="2.64598">
        <ele>133.76</ele>
        <time>2012-09-29T13:52:03Z</time>
      </trkpt>
      <trkpt lat="48.44908" lon="2.64601">
        <ele>133.76</ele>
        <time>2012-09-29T13:52:04Z</time>
      </trkpt>
      <trkpt lat="48.44909" lon="2.64605">
        <ele>133.76</ele>
        <time>2012-09-29T13:52:05Z</time>
      </trkpt>
      <trkpt lat="48.4491" lon="2.64608">
        <ele>133.76</ele>
        <time>2012-09-29T13:52:06Z</time>
      </trkpt>
      <trkpt lat="48.44911" lon="2.64611">
        <ele>133.76</ele>
        <time>2012-09-29T13:52:07Z</time>
      </trkpt>
      <trkpt lat="48.44912" lon="2.64613">
        <ele>133.76</ele>
        <time>2012-09-29T13:52:08Z</time>
      </trkpt>
      <trkpt lat="48.44913" lon="2.64616">
        <ele>133.28</ele>
        <time>2012-09-29T13:52:09Z</time>
      </trkpt>
      <trkpt lat="48.44935" lon="2.64646">
        <ele>133.76</ele>
        <time>2012-09-29T13:52:23Z</time>
      </trkpt>
      <trkpt lat="48.4495" lon="2.64677">
        <ele>135.68</ele>
        <time>2012-09-29T13:52:37Z</time>
      </trkpt>
      <trkpt lat="48.44953" lon="2.64687">
        <ele>135.68</ele>
        <time>2012-09-29T13:52:42Z</time>
      </trkpt>
      <trkpt lat="48.44954" lon="2.64692">
        <ele>135.68</ele>
        <time>2012-09-29T13:52:56Z</time>
      </trkpt>
      <trkpt lat="48.44956" lon="2.64693">
        <ele>136.64</ele>
        <time>2012-09-29T13:53:22Z</time>
      </trkpt>
      <trkpt lat="48.44956" lon="2.64694">
        <ele>136.64</ele>
        <time>2012-09-29T13:53:23Z</time>
      </trkpt>
      <trkpt lat="48.44956" lon="2.64696">
        <ele>136.64</ele>
        <time>2012-09-29T13:53:24Z</time>
      </trkpt>
      <trkpt lat="48.44956" lon="2.64698">
        <ele>136.64</ele>
        <time>2012-09-29T13:53:25Z</time>
      </trkpt>
      <trkpt lat="48.44955" lon="2.647">
        <ele>137.13</ele>
        <time>2012-09-29T13:53:26Z</time>
      </trkpt>
      <trkpt lat="48.44953" lon="2.64702">
        <ele>137.13</ele>
        <time>2012-09-29T13:53:27Z</time>
      </trkpt>
      <trkpt lat="48.44952" lon="2.64704">
        <ele>137.13</ele>
        <time>2012-09-29T13:53:28Z</time>
      </trkpt>
      <trkpt lat="48.4495" lon="2.64705">
        <ele>137.13</ele>
        <time>2012-09-29T13:53:29Z</time>
      </trkpt>
      <trkpt lat="48.44947" lon="2.64707">
        <ele>137.13</ele>
        <time>2012-09-29T13:53:31Z</time>
      </trkpt>
      <trkpt lat="48.44945" lon="2.64707">
        <ele>136.64</ele>
        <time>2012-09-29T13:53:32Z</time>
      </trkpt>
      <trkpt lat="48.44907" lon="2.64724">
        <ele>137.13</ele>
        <time>2012-09-29T13:53:46Z</time>
      </trkpt>
      <trkpt lat="48.44882" lon="2.64784">
        <ele>139.53</ele>
        <time>2012-09-29T13:53:58Z</time>
      </trkpt>
      <trkpt lat="48.44873" lon="2.64813">
        <ele>139.53</ele>
        <time>2012-09-29T13:54:03Z</time>
      </trkpt>
      <trkpt lat="48.44846" lon="2.64882">
        <ele>140.01</ele>
        <time>2012-09-29T13:54:15Z</time>
      </trkpt>
      <trkpt lat="48.44833" lon="2.64917">
        <ele>140.01</ele>
        <time>2012-09-29T13:54:21Z</time>
      </trkpt>
      <trkpt lat="48.44831" lon="2.64924">
        <ele>140.01</ele>
        <time>2012-09-29T13:54:22Z</time>
      </trkpt>
      <trkpt lat="48.44802" lon="2.65006">
        <ele>139.53</ele>
        <time>2012-09-29T13:54:35Z</time>
      </trkpt>
      <trkpt lat="48.44781" lon="2.65059">
        <ele>139.05</ele>
        <time>2012-09-29T13:54:45Z</time>
      </trkpt>
      <trkpt lat="48.44779" lon="2.65065">
        <ele>139.53</ele>
        <time>2012-09-29T13:54:46Z</time>
      </trkpt>
      <trkpt lat="48.44778" lon="2.65072">
        <ele>139.53</ele>
        <time>2012-09-29T13:54:47Z</time>
      </trkpt>
      <trkpt lat="48.44777" lon="2.65078">
        <ele>139.53</ele>
        <time>2012-09-29T13:54:48Z</time>
      </trkpt>
      <trkpt lat="48.44777" lon="2.65085">
        <ele>139.53</ele>
        <time>2012-09-29T13:54:49Z</time>
      </trkpt>
      <trkpt lat="48.44777" lon="2.65093">
        <ele>139.53</ele>
        <time>2012-09-29T13:54:50Z</time>
      </trkpt>
      <trkpt lat="48.44778" lon="2.651">
        <ele>139.53</ele>
        <time>2012-09-29T13:54:51Z</time>
      </trkpt>
      <trkpt lat="48.44781" lon="2.65107">
        <ele>139.53</ele>
        <time>2012-09-29T13:54:52Z</time>
      </trkpt>
      <trkpt lat="48.44783" lon="2.65114">
        <ele>139.53</ele>
        <time>2012-09-29T13:54:53Z</time>
      </trkpt>
      <trkpt lat="48.4479" lon="2.65132">
        <ele>139.53</ele>
        <time>2012-09-29T13:54:56Z</time>
      </trkpt>
      <trkpt lat="48.44792" lon="2.65138">
        <ele>139.53</ele>
        <time>2012-09-29T13:54:57Z</time>
      </trkpt>
      <trkpt lat="48.44827" lon="2.65232">
        <ele>139.05</ele>
        <time>2012-09-29T13:55:12Z</time>
      </trkpt>
      <trkpt lat="48.44844" lon="2.6527">
        <ele>139.05</ele>
        <time>2012-09-29T13:55:18Z</time>
      </trkpt>
      <trkpt lat="48.44847" lon="2.65275">
        <ele>139.05</ele>
        <time>2012-09-29T13:55:19Z</time>
      </trkpt>
      <trkpt lat="48.44851" lon="2.6528">
        <ele>139.05</ele>
        <time>2012-09-29T13:55:20Z</time>
      </trkpt>
      <trkpt lat="48.44883" lon="2.65328">
        <ele>140.49</ele>
        <time>2012-09-29T13:55:32Z</time>
      </trkpt>
      <trkpt lat="48.44884" lon="2.65331">
        <ele>140.97</ele>
        <time>2012-09-29T13:55:43Z</time>
      </trkpt>
      <trkpt lat="48.44884" lon="2.65332">
        <ele>140.49</ele>
        <time>2012-09-29T13:56:08Z</time>
      </trkpt>
      <trkpt lat="48.44885" lon="2.65333">
        <ele>140.01</ele>
        <time>2012-09-29T13:56:36Z</time>
      </trkpt>
      <trkpt lat="48.44897" lon="2.65367">
        <ele>137.13</ele>
        <time>2012-09-29T13:56:48Z</time>
      </trkpt>
      <trkpt lat="48.449" lon="2.65419">
        <ele>135.2</ele>
        <time>2012-09-29T13:56:58Z</time>
      </trkpt>
      <trkpt lat="48.44882" lon="2.65495">
        <ele>135.2</ele>
        <time>2012-09-29T13:57:10Z</time>
      </trkpt>
      <trkpt lat="48.4488" lon="2.65501">
        <ele>135.2</ele>
        <time>2012-09-29T13:57:11Z</time>
      </trkpt>
      <trkpt lat="48.44858" lon="2.65585">
        <ele>137.13</ele>
        <time>2012-09-29T13:57:25Z</time>
      </trkpt>
      <trkpt lat="48.44836" lon="2.65658">
        <ele>139.53</ele>
        <time>2012-09-29T13:57:38Z</time>
      </trkpt>
      <trkpt lat="48.44826" lon="2.65692">
        <ele>140.49</ele>
        <time>2012-09-29T13:57:44Z</time>
      </trkpt>
      <trkpt lat="48.44808" lon="2.65756">
        <ele>140.97</ele>
        <time>2012-09-29T13:57:56Z</time>
      </trkpt>
      <trkpt lat="48.4479" lon="2.65819">
        <ele>140.49</ele>
        <time>2012-09-29T13:58:08Z</time>
      </trkpt>
      <trkpt lat="48.44779" lon="2.65859">
        <ele>143.37</ele>
        <time>2012-09-29T13:58:17Z</time>
      </trkpt>
      <trkpt lat="48.4478" lon="2.65863">
        <ele>143.85</ele>
        <time>2012-09-29T13:58:18Z</time>
      </trkpt>
      <trkpt lat="48.44782" lon="2.65867">
        <ele>143.85</ele>
        <time>2012-09-29T13:58:19Z</time>
      </trkpt>
      <trkpt lat="48.44784" lon="2.65869">
        <ele>143.85</ele>
        <time>2012-09-29T13:58:20Z</time>
      </trkpt>
      <trkpt lat="48.44788" lon="2.6587">
        <ele>143.85</ele>
        <time>2012-09-29T13:58:21Z</time>
      </trkpt>
      <trkpt lat="48.44791" lon="2.65871">
        <ele>143.85</ele>
        <time>2012-09-29T13:58:22Z</time>
      </trkpt>
      <trkpt lat="48.44839" lon="2.65882">
        <ele>147.22</ele>
        <time>2012-09-29T13:58:35Z</time>
      </trkpt>
      <trkpt lat="48.44887" lon="2.65892">
        <ele>148.18</ele>
        <time>2012-09-29T13:58:48Z</time>
      </trkpt>
      <trkpt lat="48.4494" lon="2.659">
        <ele>150.1</ele>
        <time>2012-09-29T13:59:02Z</time>
      </trkpt>
      <trkpt lat="48.4496" lon="2.65908">
        <ele>151.06</ele>
        <time>2012-09-29T13:59:09Z</time>
      </trkpt>
      <trkpt lat="48.44961" lon="2.65912">
        <ele>151.06</ele>
        <time>2012-09-29T13:59:10Z</time>
      </trkpt>
      <trkpt lat="48.44982" lon="2.65973">
        <ele>149.62</ele>
        <time>2012-09-29T13:59:25Z</time>
      </trkpt>
      <trkpt lat="48.44999" lon="2.66025">
        <ele>147.7</ele>
        <time>2012-09-29T13:59:36Z</time>
      </trkpt>
      <trkpt lat="48.45018" lon="2.66077">
        <ele>145.3</ele>
        <time>2012-09-29T13:59:48Z</time>
      </trkpt>
      <trkpt lat="48.4503" lon="2.66119">
        <ele>143.85</ele>
        <time>2012-09-29T13:59:59Z</time>
      </trkpt>
      <trkpt lat="48.45032" lon="2.66124">
        <ele>143.85</ele>
        <time>2012-09-29T14:00:01Z</time>
      </trkpt>
      <trkpt lat="48.45033" lon="2.6613">
        <ele>144.82</ele>
        <time>2012-09-29T14:00:04Z</time>
      </trkpt>
      <trkpt lat="48.45034" lon="2.66132">
        <ele>145.3</ele>
        <time>2012-09-29T14:00:05Z</time>
      </trkpt>
      <trkpt lat="48.45057" lon="2.66204">
        <ele>142.89</ele>
        <time>2012-09-29T14:00:21Z</time>
      </trkpt>
      <trkpt lat="48.45085" lon="2.66285">
        <ele>142.41</ele>
        <time>2012-09-29T14:00:37Z</time>
      </trkpt>
      <trkpt lat="48.45096" lon="2.66327">
        <ele>143.37</ele>
        <time>2012-09-29T14:00:48Z</time>
      </trkpt>
      <trkpt lat="48.45096" lon="2.66328">
        <ele>143.37</ele>
        <time>2012-09-29T14:00:49Z</time>
      </trkpt>
      <trkpt lat="48.45095" lon="2.66331">
        <ele>143.37</ele>
        <time>2012-09-29T14:00:50Z</time>
      </trkpt>
      <trkpt lat="48.45094" lon="2.66333">
        <ele>143.37</ele>
        <time>2012-09-29T14:00:51Z</time>
      </trkpt>
      <trkpt lat="48.45093" lon="2.66336">
        <ele>143.85</ele>
        <time>2012-09-29T14:00:52Z</time>
      </trkpt>
      <trkpt lat="48.45077" lon="2.66381">
        <ele>146.74</ele>
        <time>2012-09-29T14:01:04Z</time>
      </trkpt>
      <trkpt lat="48.45058" lon="2.66454">
        <ele>148.18</ele>
        <time>2012-09-29T14:01:18Z</time>
      </trkpt>
      <trkpt lat="48.45043" lon="2.66516">
        <ele>148.66</ele>
        <time>2012-09-29T14:01:30Z</time>
      </trkpt>
      <trkpt lat="48.45021" lon="2.66589">
        <ele>149.14</ele>
        <time>2012-09-29T14:01:45Z</time>
      </trkpt>
      <trkpt lat="48.45015" lon="2.66625">
        <ele>146.74</ele>
        <time>2012-09-29T14:01:57Z</time>
      </trkpt>
      <trkpt lat="48.45013" lon="2.66633">
        <ele>146.74</ele>
        <time>2012-09-29T14:02:01Z</time>
      </trkpt>
      <trkpt lat="48.45013" lon="2.66635">
        <ele>146.74</ele>
        <time>2012-09-29T14:02:02Z</time>
      </trkpt>
      <trkpt lat="48.45014" lon="2.66638">
        <ele>146.74</ele>
        <time>2012-09-29T14:02:03Z</time>
      </trkpt>
      <trkpt lat="48.45015" lon="2.6664">
        <ele>146.74</ele>
        <time>2012-09-29T14:02:04Z</time>
      </trkpt>
      <trkpt lat="48.45017" lon="2.66642">
        <ele>146.74</ele>
        <time>2012-09-29T14:02:05Z</time>
      </trkpt>
      <trkpt lat="48.45018" lon="2.66645">
        <ele>146.74</ele>
        <time>2012-09-29T14:02:06Z</time>
      </trkpt>
      <trkpt lat="48.45021" lon="2.66647">
        <ele>146.74</ele>
        <time>2012-09-29T14:02:07Z</time>
      </trkpt>
      <trkpt lat="48.45023" lon="2.66649">
        <ele>146.26</ele>
        <time>2012-09-29T14:02:08Z</time>
      </trkpt>
      <trkpt lat="48.45026" lon="2.66651">
        <ele>146.26</ele>
        <time>2012-09-29T14:02:09Z</time>
      </trkpt>
      <trkpt lat="48.45028" lon="2.66654">
        <ele>145.78</ele>
        <time>2012-09-29T14:02:10Z</time>
      </trkpt>
      <trkpt lat="48.4503" lon="2.66656">
        <ele>145.3</ele>
        <time>2012-09-29T14:02:11Z</time>
      </trkpt>
      <trkpt lat="48.45032" lon="2.66658">
        <ele>145.3</ele>
        <time>2012-09-29T14:02:12Z</time>
      </trkpt>
      <trkpt lat="48.45069" lon="2.66693">
        <ele>143.37</ele>
        <time>2012-09-29T14:02:22Z</time>
      </trkpt>
      <trkpt lat="48.45132" lon="2.66755">
        <ele>140.97</ele>
        <time>2012-09-29T14:02:35Z</time>
      </trkpt>
      <trkpt lat="48.45202" lon="2.66825">
        <ele>140.01</ele>
        <time>2012-09-29T14:02:49Z</time>
      </trkpt>
      <trkpt lat="48.45246" lon="2.66867">
        <ele>139.53</ele>
        <time>2012-09-29T14:02:58Z</time>
      </trkpt>
      <trkpt lat="48.45256" lon="2.66878">
        <ele>139.05</ele>
        <time>2012-09-29T14:03:00Z</time>
      </trkpt>
      <trkpt lat="48.4526" lon="2.66882">
        <ele>139.05</ele>
        <time>2012-09-29T14:03:01Z</time>
      </trkpt>
      <trkpt lat="48.45274" lon="2.66892">
        <ele>138.09</ele>
        <time>2012-09-29T14:03:09Z</time>
      </trkpt>
      <trkpt lat="48.45275" lon="2.66892">
        <ele>138.09</ele>
        <time>2012-09-29T14:03:10Z</time>
      </trkpt>
      <trkpt lat="48.45288" lon="2.6685">
        <ele>136.16</ele>
        <time>2012-09-29T14:03:20Z</time>
      </trkpt>
      <trkpt lat="48.45318" lon="2.66803">
        <ele>135.68</ele>
        <time>2012-09-29T14:03:31Z</time>
      </trkpt>
      <trkpt lat="48.45362" lon="2.66766">
        <ele>136.16</ele>
        <time>2012-09-29T14:03:42Z</time>
      </trkpt>
      <trkpt lat="48.45367" lon="2.66765">
        <ele>136.16</ele>
        <time>2012-09-29T14:03:43Z</time>
      </trkpt>
      <trkpt lat="48.45373" lon="2.66765">
        <ele>135.68</ele>
        <time>2012-09-29T14:03:44Z</time>
      </trkpt>
      <trkpt lat="48.45378" lon="2.66767">
        <ele>135.68</ele>
        <time>2012-09-29T14:03:45Z</time>
      </trkpt>
      <trkpt lat="48.45383" lon="2.66769">
        <ele>135.2</ele>
        <time>2012-09-29T14:03:46Z</time>
      </trkpt>
      <trkpt lat="48.45388" lon="2.66772">
        <ele>135.2</ele>
        <time>2012-09-29T14:03:47Z</time>
      </trkpt>
      <trkpt lat="48.45392" lon="2.66775">
        <ele>134.72</ele>
        <time>2012-09-29T14:03:48Z</time>
      </trkpt>
      <trkpt lat="48.45401" lon="2.66782">
        <ele>134.24</ele>
        <time>2012-09-29T14:03:50Z</time>
      </trkpt>
      <trkpt lat="48.45404" lon="2.66786">
        <ele>133.76</ele>
        <time>2012-09-29T14:03:51Z</time>
      </trkpt>
      <trkpt lat="48.45416" lon="2.66803">
        <ele>133.28</ele>
        <time>2012-09-29T14:03:54Z</time>
      </trkpt>
      <trkpt lat="48.45454" lon="2.66801">
        <ele>133.28</ele>
        <time>2012-09-29T14:04:01Z</time>
      </trkpt>
      <trkpt lat="48.45451" lon="2.66763">
        <ele>133.76</ele>
        <time>2012-09-29T14:04:05Z</time>
      </trkpt>
      <trkpt lat="48.45446" lon="2.66739">
        <ele>132.8</ele>
        <time>2012-09-29T14:04:13Z</time>
      </trkpt>
      <trkpt lat="48.45447" lon="2.66742">
        <ele>131.84</ele>
        <time>2012-09-29T14:04:25Z</time>
      </trkpt>
      <trkpt lat="48.45456" lon="2.66785">
        <ele>129.92</ele>
        <time>2012-09-29T14:04:34Z</time>
      </trkpt>
      <trkpt lat="48.45433" lon="2.66819">
        <ele>128.95</ele>
        <time>2012-09-29T14:04:41Z</time>
      </trkpt>
      <trkpt lat="48.45417" lon="2.66801">
        <ele>129.43</ele>
        <time>2012-09-29T14:04:45Z</time>
      </trkpt>
      <trkpt lat="48.45404" lon="2.66781">
        <ele>130.4</ele>
        <time>2012-09-29T14:04:49Z</time>
      </trkpt>
      <trkpt lat="48.45359" lon="2.6677">
        <ele>133.28</ele>
        <time>2012-09-29T14:05:01Z</time>
      </trkpt>
      <trkpt lat="48.45331" lon="2.66791">
        <ele>133.76</ele>
        <time>2012-09-29T14:05:12Z</time>
      </trkpt>
      <trkpt lat="48.45299" lon="2.66825">
        <ele>134.72</ele>
        <time>2012-09-29T14:05:25Z</time>
      </trkpt>
      <trkpt lat="48.45282" lon="2.6687">
        <ele>136.16</ele>
        <time>2012-09-29T14:05:38Z</time>
      </trkpt>
      <trkpt lat="48.45276" lon="2.66892">
        <ele>136.16</ele>
        <time>2012-09-29T14:05:46Z</time>
      </trkpt>
      <trkpt lat="48.45276" lon="2.66894">
        <ele>136.16</ele>
        <time>2012-09-29T14:05:47Z</time>
      </trkpt>
      <trkpt lat="48.45277" lon="2.66897">
        <ele>135.68</ele>
        <time>2012-09-29T14:05:48Z</time>
      </trkpt>
      <trkpt lat="48.45278" lon="2.66902">
        <ele>135.68</ele>
        <time>2012-09-29T14:05:49Z</time>
      </trkpt>
      <trkpt lat="48.45279" lon="2.66906">
        <ele>135.2</ele>
        <time>2012-09-29T14:05:50Z</time>
      </trkpt>
      <trkpt lat="48.4528" lon="2.66912">
        <ele>135.2</ele>
        <time>2012-09-29T14:05:51Z</time>
      </trkpt>
      <trkpt lat="48.45297" lon="2.66993">
        <ele>133.76</ele>
        <time>2012-09-29T14:06:06Z</time>
      </trkpt>
      <trkpt lat="48.45315" lon="2.67075">
        <ele>131.84</ele>
        <time>2012-09-29T14:06:21Z</time>
      </trkpt>
      <trkpt lat="48.45314" lon="2.67092">
        <ele>132.32</ele>
        <time>2012-09-29T14:06:31Z</time>
      </trkpt>
      <trkpt lat="48.45315" lon="2.67094">
        <ele>131.36</ele>
        <time>2012-09-29T14:06:50Z</time>
      </trkpt>
      <trkpt lat="48.45315" lon="2.67094">
        <ele>130.4</ele>
        <time>2012-09-29T14:07:16Z</time>
      </trkpt>
      <trkpt lat="48.45315" lon="2.67095">
        <ele>129.92</ele>
        <time>2012-09-29T14:07:31Z</time>
      </trkpt>
      <trkpt lat="48.45315" lon="2.67098">
        <ele>129.92</ele>
        <time>2012-09-29T14:07:32Z</time>
      </trkpt>
      <trkpt lat="48.45316" lon="2.67101">
        <ele>129.92</ele>
        <time>2012-09-29T14:07:33Z</time>
      </trkpt>
      <trkpt lat="48.45316" lon="2.67105">
        <ele>129.92</ele>
        <time>2012-09-29T14:07:34Z</time>
      </trkpt>
      <trkpt lat="48.45316" lon="2.67109">
        <ele>129.92</ele>
        <time>2012-09-29T14:07:35Z</time>
      </trkpt>
      <trkpt lat="48.45315" lon="2.67114">
        <ele>129.92</ele>
        <time>2012-09-29T14:07:36Z</time>
      </trkpt>
      <trkpt lat="48.45312" lon="2.67131">
        <ele>130.4</ele>
        <time>2012-09-29T14:07:40Z</time>
      </trkpt>
      <trkpt lat="48.45316" lon="2.67146">
        <ele>130.88</ele>
        <time>2012-09-29T14:07:51Z</time>
      </trkpt>
      <trkpt lat="48.45316" lon="2.67146">
        <ele>130.88</ele>
        <time>2012-09-29T14:07:59Z</time>
      </trkpt>
      <trkpt lat="48.45313" lon="2.67128">
        <ele>130.88</ele>
        <time>2012-09-29T14:08:06Z</time>
      </trkpt>
      <trkpt lat="48.45314" lon="2.67125">
        <ele>130.88</ele>
        <time>2012-09-29T14:08:07Z</time>
      </trkpt>
      <trkpt lat="48.45315" lon="2.67122">
        <ele>130.88</ele>
        <time>2012-09-29T14:08:08Z</time>
      </trkpt>
      <trkpt lat="48.45317" lon="2.67117">
        <ele>130.4</ele>
        <time>2012-09-29T14:08:10Z</time>
      </trkpt>
      <trkpt lat="48.45319" lon="2.67115">
        <ele>130.4</ele>
        <time>2012-09-29T14:08:11Z</time>
      </trkpt>
      <trkpt lat="48.45319" lon="2.67116">
        <ele>130.88</ele>
        <time>2012-09-29T14:08:21Z</time>
      </trkpt>
      <trkpt lat="48.4532" lon="2.67112">
        <ele>130.88</ele>
        <time>2012-09-29T14:08:36Z</time>
      </trkpt>
      <trkpt lat="48.4532" lon="2.67107">
        <ele>130.4</ele>
        <time>2012-09-29T14:08:37Z</time>
      </trkpt>
      <trkpt lat="48.4532" lon="2.67101">
        <ele>130.4</ele>
        <time>2012-09-29T14:08:38Z</time>
      </trkpt>
      <trkpt lat="48.45313" lon="2.67065">
        <ele>130.4</ele>
        <time>2012-09-29T14:08:47Z</time>
      </trkpt>
      <trkpt lat="48.45314" lon="2.67062">
        <ele>130.88</ele>
        <time>2012-09-29T14:08:48Z</time>
      </trkpt>
      <trkpt lat="48.45314" lon="2.67057">
        <ele>130.88</ele>
        <time>2012-09-29T14:08:49Z</time>
      </trkpt>
      <trkpt lat="48.45315" lon="2.67052">
        <ele>130.88</ele>
        <time>2012-09-29T14:08:50Z</time>
      </trkpt>
      <trkpt lat="48.45315" lon="2.67049">
        <ele>130.88</ele>
        <time>2012-09-29T14:08:51Z</time>
      </trkpt>
      <trkpt lat="48.45316" lon="2.67045">
        <ele>130.4</ele>
        <time>2012-09-29T14:08:52Z</time>
      </trkpt>
      <trkpt lat="48.45317" lon="2.67041">
        <ele>130.4</ele>
        <time>2012-09-29T14:08:53Z</time>
      </trkpt>
      <trkpt lat="48.45319" lon="2.67039">
        <ele>130.4</ele>
        <time>2012-09-29T14:08:54Z</time>
      </trkpt>
      <trkpt lat="48.45321" lon="2.67038">
        <ele>129.92</ele>
        <time>2012-09-29T14:08:55Z</time>
      </trkpt>
      <trkpt lat="48.45323" lon="2.67037">
        <ele>129.92</ele>
        <time>2012-09-29T14:08:56Z</time>
      </trkpt>
      <trkpt lat="48.45325" lon="2.67036">
        <ele>129.92</ele>
        <time>2012-09-29T14:08:57Z</time>
      </trkpt>
      <trkpt lat="48.45327" lon="2.67035">
        <ele>129.92</ele>
        <time>2012-09-29T14:08:58Z</time>
      </trkpt>
      <trkpt lat="48.45328" lon="2.67032">
        <ele>129.43</ele>
        <time>2012-09-29T14:08:59Z</time>
      </trkpt>
      <trkpt lat="48.4533" lon="2.6703">
        <ele>129.43</ele>
        <time>2012-09-29T14:09:00Z</time>
      </trkpt>
      <trkpt lat="48.45331" lon="2.67028">
        <ele>129.43</ele>
        <time>2012-09-29T14:09:01Z</time>
      </trkpt>
      <trkpt lat="48.45332" lon="2.67026">
        <ele>129.92</ele>
        <time>2012-09-29T14:09:02Z</time>
      </trkpt>
      <trkpt lat="48.45334" lon="2.67024">
        <ele>129.92</ele>
        <time>2012-09-29T14:09:03Z</time>
      </trkpt>
      <trkpt lat="48.45336" lon="2.67021">
        <ele>129.92</ele>
        <time>2012-09-29T14:09:04Z</time>
      </trkpt>
      <trkpt lat="48.45339" lon="2.67018">
        <ele>129.92</ele>
        <time>2012-09-29T14:09:05Z</time>
      </trkpt>
      <trkpt lat="48.45341" lon="2.67016">
        <ele>129.92</ele>
        <time>2012-09-29T14:09:06Z</time>
      </trkpt>
      <trkpt lat="48.45345" lon="2.67008">
        <ele>127.51</ele>
        <time>2012-09-29T14:09:13Z</time>
      </trkpt>
      <trkpt lat="48.45347" lon="2.67005">
        <ele>127.51</ele>
        <time>2012-09-29T14:09:14Z</time>
      </trkpt>
      <trkpt lat="48.45348" lon="2.67001">
        <ele>127.03</ele>
        <time>2012-09-29T14:09:15Z</time>
      </trkpt>
      <trkpt lat="48.45349" lon="2.66996">
        <ele>127.03</ele>
        <time>2012-09-29T14:09:16Z</time>
      </trkpt>
      <trkpt lat="48.45351" lon="2.66992">
        <ele>126.55</ele>
        <time>2012-09-29T14:09:17Z</time>
      </trkpt>
      <trkpt lat="48.45353" lon="2.66988">
        <ele>126.55</ele>
        <time>2012-09-29T14:09:18Z</time>
      </trkpt>
      <trkpt lat="48.45355" lon="2.66982">
        <ele>126.55</ele>
        <time>2012-09-29T14:09:19Z</time>
      </trkpt>
      <trkpt lat="48.45359" lon="2.66977">
        <ele>126.07</ele>
        <time>2012-09-29T14:09:20Z</time>
      </trkpt>
      <trkpt lat="48.45363" lon="2.66973">
        <ele>126.07</ele>
        <time>2012-09-29T14:09:21Z</time>
      </trkpt>
      <trkpt lat="48.4537" lon="2.66965">
        <ele>125.59</ele>
        <time>2012-09-29T14:09:23Z</time>
      </trkpt>
      <trkpt lat="48.45375" lon="2.66962">
        <ele>125.11</ele>
        <time>2012-09-29T14:09:24Z</time>
      </trkpt>
      <trkpt lat="48.45386" lon="2.66957">
        <ele>124.15</ele>
        <time>2012-09-29T14:09:26Z</time>
      </trkpt>
      <trkpt lat="48.45392" lon="2.66954">
        <ele>123.67</ele>
        <time>2012-09-29T14:09:27Z</time>
      </trkpt>
      <trkpt lat="48.45399" lon="2.66951">
        <ele>123.19</ele>
        <time>2012-09-29T14:09:28Z</time>
      </trkpt>
      <trkpt lat="48.45404" lon="2.66951">
        <ele>123.19</ele>
        <time>2012-09-29T14:09:29Z</time>
      </trkpt>
      <trkpt lat="48.45409" lon="2.66952">
        <ele>122.71</ele>
        <time>2012-09-29T14:09:30Z</time>
      </trkpt>
      <trkpt lat="48.45412" lon="2.66954">
        <ele>122.71</ele>
        <time>2012-09-29T14:09:31Z</time>
      </trkpt>
      <trkpt lat="48.45415" lon="2.66956">
        <ele>122.71</ele>
        <time>2012-09-29T14:09:32Z</time>
      </trkpt>
      <trkpt lat="48.45422" lon="2.66962">
        <ele>123.67</ele>
        <time>2012-09-29T14:09:42Z</time>
      </trkpt>
      <trkpt lat="48.45431" lon="2.66961">
        <ele>124.15</ele>
        <time>2012-09-29T14:09:55Z</time>
      </trkpt>
      <trkpt lat="48.45436" lon="2.66963">
        <ele>124.63</ele>
        <time>2012-09-29T14:09:58Z</time>
      </trkpt>
      <trkpt lat="48.45439" lon="2.66964">
        <ele>124.63</ele>
        <time>2012-09-29T14:09:59Z</time>
      </trkpt>
      <trkpt lat="48.4546" lon="2.66968">
        <ele>124.15</ele>
        <time>2012-09-29T14:10:08Z</time>
      </trkpt>
      <trkpt lat="48.45489" lon="2.66973">
        <ele>123.67</ele>
        <time>2012-09-29T14:10:18Z</time>
      </trkpt>
      <trkpt lat="48.45492" lon="2.66969">
        <ele>123.19</ele>
        <time>2012-09-29T14:10:19Z</time>
      </trkpt>
      <trkpt lat="48.45495" lon="2.66966">
        <ele>122.71</ele>
        <time>2012-09-29T14:10:20Z</time>
      </trkpt>
      <trkpt lat="48.45498" lon="2.66966">
        <ele>122.71</ele>
        <time>2012-09-29T14:10:21Z</time>
      </trkpt>
      <trkpt lat="48.45517" lon="2.66959">
        <ele>121.74</ele>
        <time>2012-09-29T14:10:26Z</time>
      </trkpt>
      <trkpt lat="48.45522" lon="2.66954">
        <ele>121.26</ele>
        <time>2012-09-29T14:10:27Z</time>
      </trkpt>
      <trkpt lat="48.45525" lon="2.66948">
        <ele>121.26</ele>
        <time>2012-09-29T14:10:28Z</time>
      </trkpt>
      <trkpt lat="48.45529" lon="2.66942">
        <ele>121.26</ele>
        <time>2012-09-29T14:10:29Z</time>
      </trkpt>
      <trkpt lat="48.45532" lon="2.66936">
        <ele>121.26</ele>
        <time>2012-09-29T14:10:30Z</time>
      </trkpt>
      <trkpt lat="48.45534" lon="2.6693">
        <ele>120.78</ele>
        <time>2012-09-29T14:10:31Z</time>
      </trkpt>
      <trkpt lat="48.45536" lon="2.66923">
        <ele>120.78</ele>
        <time>2012-09-29T14:10:32Z</time>
      </trkpt>
      <trkpt lat="48.45538" lon="2.66915">
        <ele>120.3</ele>
        <time>2012-09-29T14:10:33Z</time>
      </trkpt>
      <trkpt lat="48.4554" lon="2.66907">
        <ele>119.82</ele>
        <time>2012-09-29T14:10:34Z</time>
      </trkpt>
      <trkpt lat="48.45541" lon="2.669">
        <ele>119.34</ele>
        <time>2012-09-29T14:10:35Z</time>
      </trkpt>
      <trkpt lat="48.45542" lon="2.66893">
        <ele>118.86</ele>
        <time>2012-09-29T14:10:36Z</time>
      </trkpt>
      <trkpt lat="48.45542" lon="2.66887">
        <ele>118.38</ele>
        <time>2012-09-29T14:10:37Z</time>
      </trkpt>
      <trkpt lat="48.45548" lon="2.66861">
        <ele>115.98</ele>
        <time>2012-09-29T14:10:42Z</time>
      </trkpt>
      <trkpt lat="48.45549" lon="2.66854">
        <ele>115.5</ele>
        <time>2012-09-29T14:10:43Z</time>
      </trkpt>
      <trkpt lat="48.45551" lon="2.66846">
        <ele>115.01</ele>
        <time>2012-09-29T14:10:44Z</time>
      </trkpt>
      <trkpt lat="48.45552" lon="2.66839">
        <ele>114.53</ele>
        <time>2012-09-29T14:10:45Z</time>
      </trkpt>
      <trkpt lat="48.45555" lon="2.66832">
        <ele>114.05</ele>
        <time>2012-09-29T14:10:46Z</time>
      </trkpt>
      <trkpt lat="48.45559" lon="2.66826">
        <ele>113.57</ele>
        <time>2012-09-29T14:10:47Z</time>
      </trkpt>
      <trkpt lat="48.45564" lon="2.66821">
        <ele>113.09</ele>
        <time>2012-09-29T14:10:48Z</time>
      </trkpt>
      <trkpt lat="48.4557" lon="2.66817">
        <ele>112.13</ele>
        <time>2012-09-29T14:10:49Z</time>
      </trkpt>
      <trkpt lat="48.45577" lon="2.66813">
        <ele>111.17</ele>
        <time>2012-09-29T14:10:50Z</time>
      </trkpt>
      <trkpt lat="48.45583" lon="2.66808">
        <ele>110.21</ele>
        <time>2012-09-29T14:10:51Z</time>
      </trkpt>
      <trkpt lat="48.4559" lon="2.66805">
        <ele>109.25</ele>
        <time>2012-09-29T14:10:52Z</time>
      </trkpt>
      <trkpt lat="48.45595" lon="2.66805">
        <ele>108.29</ele>
        <time>2012-09-29T14:10:53Z</time>
      </trkpt>
      <trkpt lat="48.45599" lon="2.66806">
        <ele>107.81</ele>
        <time>2012-09-29T14:10:54Z</time>
      </trkpt>
      <trkpt lat="48.45604" lon="2.66806">
        <ele>106.84</ele>
        <time>2012-09-29T14:10:55Z</time>
      </trkpt>
      <trkpt lat="48.45608" lon="2.66803">
        <ele>105.88</ele>
        <time>2012-09-29T14:10:56Z</time>
      </trkpt>
      <trkpt lat="48.45613" lon="2.66799">
        <ele>105.4</ele>
        <time>2012-09-29T14:10:57Z</time>
      </trkpt>
      <trkpt lat="48.45635" lon="2.66783">
        <ele>101.56</ele>
        <time>2012-09-29T14:11:05Z</time>
      </trkpt>
      <trkpt lat="48.45646" lon="2.6678">
        <ele>103</ele>
        <time>2012-09-29T14:11:20Z</time>
      </trkpt>
      <trkpt lat="48.45659" lon="2.66784">
        <ele>106.84</ele>
        <time>2012-09-29T14:11:33Z</time>
      </trkpt>
      <trkpt lat="48.45664" lon="2.66785">
        <ele>109.25</ele>
        <time>2012-09-29T14:11:38Z</time>
      </trkpt>
      <trkpt lat="48.45672" lon="2.66792">
        <ele>114.05</ele>
        <time>2012-09-29T14:11:50Z</time>
      </trkpt>
      <trkpt lat="48.45675" lon="2.66793">
        <ele>115.5</ele>
        <time>2012-09-29T14:12:05Z</time>
      </trkpt>
      <trkpt lat="48.45681" lon="2.66795">
        <ele>117.42</ele>
        <time>2012-09-29T14:12:21Z</time>
      </trkpt>
      <trkpt lat="48.45682" lon="2.66795">
        <ele>117.9</ele>
        <time>2012-09-29T14:12:22Z</time>
      </trkpt>
      <trkpt lat="48.45686" lon="2.66794">
        <ele>118.86</ele>
        <time>2012-09-29T14:12:34Z</time>
      </trkpt>
      <trkpt lat="48.45696" lon="2.6679">
        <ele>122.22</ele>
        <time>2012-09-29T14:12:46Z</time>
      </trkpt>
      <trkpt lat="48.45705" lon="2.66799">
        <ele>123.67</ele>
        <time>2012-09-29T14:13:01Z</time>
      </trkpt>
      <trkpt lat="48.45707" lon="2.66808">
        <ele>122.22</ele>
        <time>2012-09-29T14:13:16Z</time>
      </trkpt>
      <trkpt lat="48.45707" lon="2.66808">
        <ele>122.22</ele>
        <time>2012-09-29T14:13:17Z</time>
      </trkpt>
      <trkpt lat="48.45707" lon="2.66821">
        <ele>120.78</ele>
        <time>2012-09-29T14:13:21Z</time>
      </trkpt>
      <trkpt lat="48.45706" lon="2.66839">
        <ele>116.94</ele>
        <time>2012-09-29T14:13:28Z</time>
      </trkpt>
      <trkpt lat="48.45708" lon="2.66844">
        <ele>115.01</ele>
        <time>2012-09-29T14:13:31Z</time>
      </trkpt>
      <trkpt lat="48.45709" lon="2.66848">
        <ele>113.57</ele>
        <time>2012-09-29T14:13:34Z</time>
      </trkpt>
      <trkpt lat="48.4571" lon="2.66856">
        <ele>112.13</ele>
        <time>2012-09-29T14:13:37Z</time>
      </trkpt>
      <trkpt lat="48.45712" lon="2.66874">
        <ele>107.81</ele>
        <time>2012-09-29T14:13:47Z</time>
      </trkpt>
      <trkpt lat="48.45712" lon="2.66882">
        <ele>106.84</ele>
        <time>2012-09-29T14:13:49Z</time>
      </trkpt>
      <trkpt lat="48.45713" lon="2.66895">
        <ele>106.36</ele>
        <time>2012-09-29T14:13:51Z</time>
      </trkpt>
      <trkpt lat="48.45715" lon="2.66928">
        <ele>104.44</ele>
        <time>2012-09-29T14:13:55Z</time>
      </trkpt>
      <trkpt lat="48.45718" lon="2.66962">
        <ele>102.04</ele>
        <time>2012-09-29T14:14:00Z</time>
      </trkpt>
      <trkpt lat="48.45722" lon="2.67005">
        <ele>98.67</ele>
        <time>2012-09-29T14:14:11Z</time>
      </trkpt>
      <trkpt lat="48.45724" lon="2.67007">
        <ele>98.19</ele>
        <time>2012-09-29T14:14:20Z</time>
      </trkpt>
      <trkpt lat="48.45726" lon="2.67008">
        <ele>98.67</ele>
        <time>2012-09-29T14:14:21Z</time>
      </trkpt>
      <trkpt lat="48.45728" lon="2.67011">
        <ele>98.67</ele>
        <time>2012-09-29T14:14:22Z</time>
      </trkpt>
      <trkpt lat="48.4573" lon="2.67016">
        <ele>98.67</ele>
        <time>2012-09-29T14:14:23Z</time>
      </trkpt>
      <trkpt lat="48.45732" lon="2.67022">
        <ele>98.19</ele>
        <time>2012-09-29T14:14:24Z</time>
      </trkpt>
      <trkpt lat="48.45733" lon="2.67028">
        <ele>98.67</ele>
        <time>2012-09-29T14:14:25Z</time>
      </trkpt>
      <trkpt lat="48.45736" lon="2.67039">
        <ele>98.67</ele>
        <time>2012-09-29T14:14:27Z</time>
      </trkpt>
      <trkpt lat="48.45751" lon="2.6707">
        <ele>98.67</ele>
        <time>2012-09-29T14:14:33Z</time>
      </trkpt>
      <trkpt lat="48.45753" lon="2.67076">
        <ele>98.67</ele>
        <time>2012-09-29T14:14:34Z</time>
      </trkpt>
      <trkpt lat="48.45754" lon="2.67081">
        <ele>98.19</ele>
        <time>2012-09-29T14:14:35Z</time>
      </trkpt>
      <trkpt lat="48.45755" lon="2.67085">
        <ele>98.19</ele>
        <time>2012-09-29T14:14:36Z</time>
      </trkpt>
      <trkpt lat="48.45756" lon="2.67087">
        <ele>98.19</ele>
        <time>2012-09-29T14:14:37Z</time>
      </trkpt>
      <trkpt lat="48.45756" lon="2.67089">
        <ele>98.67</ele>
        <time>2012-09-29T14:14:53Z</time>
      </trkpt>
      <trkpt lat="48.45766" lon="2.67109">
        <ele>97.71</ele>
        <time>2012-09-29T14:15:01Z</time>
      </trkpt>
      <trkpt lat="48.45791" lon="2.67157">
        <ele>94.83</ele>
        <time>2012-09-29T14:15:13Z</time>
      </trkpt>
      <trkpt lat="48.45805" lon="2.67184">
        <ele>94.35</ele>
        <time>2012-09-29T14:15:18Z</time>
      </trkpt>
      <trkpt lat="48.45808" lon="2.67191">
        <ele>93.87</ele>
        <time>2012-09-29T14:15:19Z</time>
      </trkpt>
      <trkpt lat="48.45854" lon="2.67289">
        <ele>90.02</ele>
        <time>2012-09-29T14:15:33Z</time>
      </trkpt>
      <trkpt lat="48.4587" lon="2.67357">
        <ele>87.62</ele>
        <time>2012-09-29T14:15:41Z</time>
      </trkpt>
      <trkpt lat="48.4589" lon="2.67468">
        <ele>83.77</ele>
        <time>2012-09-29T14:15:54Z</time>
      </trkpt>
      <trkpt lat="48.45916" lon="2.67592">
        <ele>82.33</ele>
        <time>2012-09-29T14:16:08Z</time>
      </trkpt>
      <trkpt lat="48.45937" lon="2.67707">
        <ele>82.33</ele>
        <time>2012-09-29T14:16:21Z</time>
      </trkpt>
      <trkpt lat="48.45944" lon="2.6775">
        <ele>82.33</ele>
        <time>2012-09-29T14:16:26Z</time>
      </trkpt>
      <trkpt lat="48.45947" lon="2.67768">
        <ele>81.85</ele>
        <time>2012-09-29T14:16:28Z</time>
      </trkpt>
      <trkpt lat="48.45948" lon="2.67776">
        <ele>81.85</ele>
        <time>2012-09-29T14:16:29Z</time>
      </trkpt>
      <trkpt lat="48.45969" lon="2.67879">
        <ele>83.29</ele>
        <time>2012-09-29T14:16:42Z</time>
      </trkpt>
      <trkpt lat="48.45988" lon="2.67981">
        <ele>82.81</ele>
        <time>2012-09-29T14:16:55Z</time>
      </trkpt>
      <trkpt lat="48.46008" lon="2.68098">
        <ele>80.41</ele>
        <time>2012-09-29T14:17:09Z</time>
      </trkpt>
      <trkpt lat="48.46017" lon="2.68143">
        <ele>80.89</ele>
        <time>2012-09-29T14:17:15Z</time>
      </trkpt>
      <trkpt lat="48.46018" lon="2.6815">
        <ele>80.89</ele>
        <time>2012-09-29T14:17:16Z</time>
      </trkpt>
      <trkpt lat="48.4603" lon="2.68214">
        <ele>80.41</ele>
        <time>2012-09-29T14:17:26Z</time>
      </trkpt>
      <trkpt lat="48.46036" lon="2.68233">
        <ele>80.89</ele>
        <time>2012-09-29T14:17:29Z</time>
      </trkpt>
      <trkpt lat="48.46038" lon="2.68239">
        <ele>80.89</ele>
        <time>2012-09-29T14:17:30Z</time>
      </trkpt>
      <trkpt lat="48.46058" lon="2.6829">
        <ele>80.89</ele>
        <time>2012-09-29T14:17:42Z</time>
      </trkpt>
      <trkpt lat="48.46101" lon="2.68341">
        <ele>81.85</ele>
        <time>2012-09-29T14:17:51Z</time>
      </trkpt>
      <trkpt lat="48.46194" lon="2.68456">
        <ele>81.85</ele>
        <time>2012-09-29T14:18:09Z</time>
      </trkpt>
      <trkpt lat="48.46269" lon="2.68545">
        <ele>83.29</ele>
        <time>2012-09-29T14:18:24Z</time>
      </trkpt>
      <trkpt lat="48.46323" lon="2.68609">
        <ele>82.81</ele>
        <time>2012-09-29T14:18:36Z</time>
      </trkpt>
      <trkpt lat="48.46392" lon="2.68692">
        <ele>82.81</ele>
        <time>2012-09-29T14:18:51Z</time>
      </trkpt>
      <trkpt lat="48.46454" lon="2.68767">
        <ele>83.29</ele>
        <time>2012-09-29T14:19:06Z</time>
      </trkpt>
      <trkpt lat="48.46461" lon="2.68776">
        <ele>83.29</ele>
        <time>2012-09-29T14:19:08Z</time>
      </trkpt>
      <trkpt lat="48.46493" lon="2.68811">
        <ele>84.25</ele>
        <time>2012-09-29T14:19:16Z</time>
      </trkpt>
      <trkpt lat="48.46514" lon="2.68836">
        <ele>84.73</ele>
        <time>2012-09-29T14:19:21Z</time>
      </trkpt>
      <trkpt lat="48.46521" lon="2.68848">
        <ele>85.21</ele>
        <time>2012-09-29T14:19:23Z</time>
      </trkpt>
      <trkpt lat="48.46567" lon="2.68906">
        <ele>86.18</ele>
        <time>2012-09-29T14:19:36Z</time>
      </trkpt>
      <trkpt lat="48.46611" lon="2.68958">
        <ele>84.73</ele>
        <time>2012-09-29T14:19:50Z</time>
      </trkpt>
      <trkpt lat="48.46626" lon="2.68987">
        <ele>86.66</ele>
        <time>2012-09-29T14:20:01Z</time>
      </trkpt>
      <trkpt lat="48.46654" lon="2.69012">
        <ele>88.58</ele>
        <time>2012-09-29T14:20:11Z</time>
      </trkpt>
      <trkpt lat="48.46694" lon="2.69049">
        <ele>92.42</ele>
        <time>2012-09-29T14:20:25Z</time>
      </trkpt>
      <trkpt lat="48.46735" lon="2.69077">
        <ele>94.35</ele>
        <time>2012-09-29T14:20:39Z</time>
      </trkpt>
      <trkpt lat="48.46784" lon="2.69096">
        <ele>93.39</ele>
        <time>2012-09-29T14:20:56Z</time>
      </trkpt>
      <trkpt lat="48.46856" lon="2.69118">
        <ele>91.94</ele>
        <time>2012-09-29T14:21:10Z</time>
      </trkpt>
      <trkpt lat="48.46949" lon="2.69147">
        <ele>91.46</ele>
        <time>2012-09-29T14:21:25Z</time>
      </trkpt>
      <trkpt lat="48.47059" lon="2.69182">
        <ele>91.46</ele>
        <time>2012-09-29T14:21:43Z</time>
      </trkpt>
      <trkpt lat="48.47128" lon="2.69205">
        <ele>91.46</ele>
        <time>2012-09-29T14:21:55Z</time>
      </trkpt>
      <trkpt lat="48.47134" lon="2.69207">
        <ele>91.46</ele>
        <time>2012-09-29T14:21:56Z</time>
      </trkpt>
      <trkpt lat="48.47154" lon="2.69213">
        <ele>91.46</ele>
        <time>2012-09-29T14:22:00Z</time>
      </trkpt>
      <trkpt lat="48.47176" lon="2.6922">
        <ele>90.5</ele>
        <time>2012-09-29T14:22:05Z</time>
      </trkpt>
      <trkpt lat="48.4718" lon="2.69221">
        <ele>90.5</ele>
        <time>2012-09-29T14:22:06Z</time>
      </trkpt>
      <trkpt lat="48.47257" lon="2.69246">
        <ele>90.02</ele>
        <time>2012-09-29T14:22:22Z</time>
      </trkpt>
      <trkpt lat="48.47344" lon="2.69275">
        <ele>87.62</ele>
        <time>2012-09-29T14:22:37Z</time>
      </trkpt>
      <trkpt lat="48.47397" lon="2.69289">
        <ele>85.21</ele>
        <time>2012-09-29T14:22:46Z</time>
      </trkpt>
      <trkpt lat="48.47403" lon="2.69291">
        <ele>84.73</ele>
        <time>2012-09-29T14:22:47Z</time>
      </trkpt>
      <trkpt lat="48.47409" lon="2.69293">
        <ele>84.25</ele>
        <time>2012-09-29T14:22:48Z</time>
      </trkpt>
      <trkpt lat="48.47429" lon="2.69294">
        <ele>83.29</ele>
        <time>2012-09-29T14:22:52Z</time>
      </trkpt>
      <trkpt lat="48.47434" lon="2.69291">
        <ele>82.81</ele>
        <time>2012-09-29T14:22:53Z</time>
      </trkpt>
      <trkpt lat="48.47438" lon="2.69286">
        <ele>82.33</ele>
        <time>2012-09-29T14:22:54Z</time>
      </trkpt>
      <trkpt lat="48.4744" lon="2.6928">
        <ele>82.33</ele>
        <time>2012-09-29T14:22:55Z</time>
      </trkpt>
      <trkpt lat="48.47442" lon="2.69274">
        <ele>81.85</ele>
        <time>2012-09-29T14:22:56Z</time>
      </trkpt>
      <trkpt lat="48.47463" lon="2.692">
        <ele>82.81</ele>
        <time>2012-09-29T14:23:11Z</time>
      </trkpt>
      <trkpt lat="48.47484" lon="2.6916">
        <ele>83.29</ele>
        <time>2012-09-29T14:23:24Z</time>
      </trkpt>
      <trkpt lat="48.4749" lon="2.69163">
        <ele>84.73</ele>
        <time>2012-09-29T14:23:28Z</time>
      </trkpt>
      <trkpt lat="48.47497" lon="2.6917">
        <ele>84.73</ele>
        <time>2012-09-29T14:23:31Z</time>
      </trkpt>
      <trkpt lat="48.47503" lon="2.69161">
        <ele>84.25</ele>
        <time>2012-09-29T14:23:39Z</time>
      </trkpt>
      <trkpt lat="48.47504" lon="2.69161">
        <ele>83.77</ele>
        <time>2012-09-29T14:23:55Z</time>
      </trkpt>
      <trkpt lat="48.47505" lon="2.69161">
        <ele>82.81</ele>
        <time>2012-09-29T14:24:14Z</time>
      </trkpt>
      <trkpt lat="48.47505" lon="2.69162">
        <ele>82.81</ele>
        <time>2012-09-29T14:24:37Z</time>
      </trkpt>
      <trkpt lat="48.47504" lon="2.69164">
        <ele>82.81</ele>
        <time>2012-09-29T14:24:41Z</time>
      </trkpt>
    </trkseg>
  </trk>
</gpx>